<?xml version="1.0" encoding="UTF-8" standalone="no" ?>
<gpx xmlns="http://www.topografix.com/GPX/1/1" xmlns:xsi="http://www.w3.org/2001/XMLSchema-instance" xsi:schemaLocation="http://www.topografix.com/GPX/1/1 http://www.topografix.com/GPX/1/1/gpx.xsd" version="1.1" creator="VisuGPX - https://www.visugpx.com">
  <metadata>
    <name>Mont St Odile</name>
    <desc><![CDATA[Sortie Mont St Odile par le chateau d'ottrott]]></desc>
  </metadata>
  <trk>
    <name><![CDATA[Mont St Odile_1]]></name>
    <trkseg>
      <trkpt lat="48.46644" lon="7.47065">
        <ele>196.6157989502</ele>
        <time>2017-06-11T06:57:10.000Z</time>
      </trkpt>
      <trkpt lat="48.46643" lon="7.47065">
        <ele>196.54553222656</ele>
        <time>2017-06-11T06:57:30.000Z</time>
      </trkpt>
      <trkpt lat="48.46643" lon="7.47063">
        <ele>196.53581237793</ele>
        <time>2017-06-11T06:57:41.000Z</time>
      </trkpt>
      <trkpt lat="48.46644" lon="7.47058">
        <ele>196.55107116699</ele>
        <time>2017-06-11T06:57:44.000Z</time>
      </trkpt>
      <trkpt lat="48.46645" lon="7.4705">
        <ele>196.57510375977</ele>
        <time>2017-06-11T06:57:47.000Z</time>
      </trkpt>
      <trkpt lat="48.46646" lon="7.47044">
        <ele>196.60807800293</ele>
        <time>2017-06-11T06:57:49.000Z</time>
      </trkpt>
      <trkpt lat="48.46648" lon="7.47039">
        <ele>196.68244934082</ele>
        <time>2017-06-11T06:57:51.000Z</time>
      </trkpt>
      <trkpt lat="48.46648" lon="7.47027">
        <ele>196.75102233887</ele>
        <time>2017-06-11T06:57:54.000Z</time>
      </trkpt>
      <trkpt lat="48.46647" lon="7.47019">
        <ele>196.79055786133</ele>
        <time>2017-06-11T06:57:56.000Z</time>
      </trkpt>
      <trkpt lat="48.46643" lon="7.47013">
        <ele>196.79127502441</ele>
        <time>2017-06-11T06:57:58.000Z</time>
      </trkpt>
      <trkpt lat="48.46638" lon="7.47008">
        <ele>196.75361633301</ele>
        <time>2017-06-11T06:58:00.000Z</time>
      </trkpt>
      <trkpt lat="48.46633" lon="7.47">
        <ele>196.70520019531</ele>
        <time>2017-06-11T06:58:03.000Z</time>
      </trkpt>
      <trkpt lat="48.46632" lon="7.46991">
        <ele>196.70645141602</ele>
        <time>2017-06-11T06:58:05.000Z</time>
      </trkpt>
      <trkpt lat="48.46632" lon="7.46981">
        <ele>196.77803039551</ele>
        <time>2017-06-11T06:58:07.000Z</time>
      </trkpt>
      <trkpt lat="48.46632" lon="7.46967">
        <ele>196.95381164551</ele>
        <time>2017-06-11T06:58:10.000Z</time>
      </trkpt>
      <trkpt lat="48.46631" lon="7.46958">
        <ele>197.20785522461</ele>
        <time>2017-06-11T06:58:12.000Z</time>
      </trkpt>
      <trkpt lat="48.4663" lon="7.46944">
        <ele>197.55520629883</ele>
        <time>2017-06-11T06:58:15.000Z</time>
      </trkpt>
      <trkpt lat="48.46629" lon="7.4693">
        <ele>197.95541381836</ele>
        <time>2017-06-11T06:58:18.000Z</time>
      </trkpt>
      <trkpt lat="48.46627" lon="7.4692">
        <ele>198.37174987793</ele>
        <time>2017-06-11T06:58:20.000Z</time>
      </trkpt>
      <trkpt lat="48.4663" lon="7.46906">
        <ele>198.78793334961</ele>
        <time>2017-06-11T06:58:23.000Z</time>
      </trkpt>
      <trkpt lat="48.46633" lon="7.46898">
        <ele>199.18110656738</ele>
        <time>2017-06-11T06:58:25.000Z</time>
      </trkpt>
      <trkpt lat="48.46636" lon="7.46888">
        <ele>199.53291320801</ele>
        <time>2017-06-11T06:58:27.000Z</time>
      </trkpt>
      <trkpt lat="48.46642" lon="7.46877">
        <ele>199.81759643555</ele>
        <time>2017-06-11T06:58:30.000Z</time>
      </trkpt>
      <trkpt lat="48.46645" lon="7.46865">
        <ele>200.08615112305</ele>
        <time>2017-06-11T06:58:33.000Z</time>
      </trkpt>
      <trkpt lat="48.46648" lon="7.46858">
        <ele>200.31723022461</ele>
        <time>2017-06-11T06:58:35.000Z</time>
      </trkpt>
      <trkpt lat="48.4665" lon="7.46851">
        <ele>200.55335998535</ele>
        <time>2017-06-11T06:58:37.000Z</time>
      </trkpt>
      <trkpt lat="48.46651" lon="7.46844">
        <ele>200.78256225586</ele>
        <time>2017-06-11T06:58:39.000Z</time>
      </trkpt>
      <trkpt lat="48.46655" lon="7.46833">
        <ele>201.04348754883</ele>
        <time>2017-06-11T06:58:42.000Z</time>
      </trkpt>
      <trkpt lat="48.46656" lon="7.46827">
        <ele>201.27961730957</ele>
        <time>2017-06-11T06:58:44.000Z</time>
      </trkpt>
      <trkpt lat="48.46657" lon="7.46818">
        <ele>201.52493286133</ele>
        <time>2017-06-11T06:58:47.000Z</time>
      </trkpt>
      <trkpt lat="48.46658" lon="7.46806">
        <ele>201.79928588867</ele>
        <time>2017-06-11T06:58:50.000Z</time>
      </trkpt>
      <trkpt lat="48.46659" lon="7.46797">
        <ele>202.0791015625</ele>
        <time>2017-06-11T06:58:52.000Z</time>
      </trkpt>
      <trkpt lat="48.46661" lon="7.46789">
        <ele>202.33947753906</ele>
        <time>2017-06-11T06:58:54.000Z</time>
      </trkpt>
      <trkpt lat="48.46662" lon="7.4678">
        <ele>202.61853027344</ele>
        <time>2017-06-11T06:58:56.000Z</time>
      </trkpt>
      <trkpt lat="48.46663" lon="7.46772">
        <ele>202.89306640625</ele>
        <time>2017-06-11T06:58:58.000Z</time>
      </trkpt>
      <trkpt lat="48.46665" lon="7.46759">
        <ele>203.17102050781</ele>
        <time>2017-06-11T06:59:01.000Z</time>
      </trkpt>
      <trkpt lat="48.46666" lon="7.46745">
        <ele>203.46421813965</ele>
        <time>2017-06-11T06:59:04.000Z</time>
      </trkpt>
      <trkpt lat="48.46665" lon="7.46732">
        <ele>203.74295043945</ele>
        <time>2017-06-11T06:59:07.000Z</time>
      </trkpt>
      <trkpt lat="48.46664" lon="7.46718">
        <ele>204.01072692871</ele>
        <time>2017-06-11T06:59:10.000Z</time>
      </trkpt>
      <trkpt lat="48.46663" lon="7.46704">
        <ele>204.27407836914</ele>
        <time>2017-06-11T06:59:13.000Z</time>
      </trkpt>
      <trkpt lat="48.46663" lon="7.46691">
        <ele>204.49270629883</ele>
        <time>2017-06-11T06:59:16.000Z</time>
      </trkpt>
      <trkpt lat="48.46663" lon="7.46683">
        <ele>204.66282653809</ele>
        <time>2017-06-11T06:59:18.000Z</time>
      </trkpt>
      <trkpt lat="48.46663" lon="7.46674">
        <ele>204.81132507324</ele>
        <time>2017-06-11T06:59:20.000Z</time>
      </trkpt>
      <trkpt lat="48.46664" lon="7.46661">
        <ele>204.93344116211</ele>
        <time>2017-06-11T06:59:23.000Z</time>
      </trkpt>
      <trkpt lat="48.46663" lon="7.46649">
        <ele>205.01571655273</ele>
        <time>2017-06-11T06:59:26.000Z</time>
      </trkpt>
      <trkpt lat="48.46664" lon="7.4664">
        <ele>205.060546875</ele>
        <time>2017-06-11T06:59:28.000Z</time>
      </trkpt>
      <trkpt lat="48.46665" lon="7.46627">
        <ele>205.08271789551</ele>
        <time>2017-06-11T06:59:31.000Z</time>
      </trkpt>
      <trkpt lat="48.46666" lon="7.46616">
        <ele>205.0849609375</ele>
        <time>2017-06-11T06:59:34.000Z</time>
      </trkpt>
      <trkpt lat="48.46667" lon="7.46606">
        <ele>205.060546875</ele>
        <time>2017-06-11T06:59:37.000Z</time>
      </trkpt>
      <trkpt lat="48.46669" lon="7.46595">
        <ele>205.02734375</ele>
        <time>2017-06-11T06:59:40.000Z</time>
      </trkpt>
      <trkpt lat="48.46669" lon="7.46588">
        <ele>205</ele>
        <time>2017-06-11T06:59:42.000Z</time>
      </trkpt>
      <trkpt lat="48.46668" lon="7.46576">
        <ele>205.01062011719</ele>
        <time>2017-06-11T06:59:45.000Z</time>
      </trkpt>
      <trkpt lat="48.46668" lon="7.46568">
        <ele>205.06620788574</ele>
        <time>2017-06-11T06:59:47.000Z</time>
      </trkpt>
      <trkpt lat="48.46668" lon="7.46559">
        <ele>205.17900085449</ele>
        <time>2017-06-11T06:59:49.000Z</time>
      </trkpt>
      <trkpt lat="48.46666" lon="7.46547">
        <ele>205.36933898926</ele>
        <time>2017-06-11T06:59:52.000Z</time>
      </trkpt>
      <trkpt lat="48.46665" lon="7.46532">
        <ele>205.63925170898</ele>
        <time>2017-06-11T06:59:55.000Z</time>
      </trkpt>
      <trkpt lat="48.46664" lon="7.46518">
        <ele>205.94543457031</ele>
        <time>2017-06-11T06:59:58.000Z</time>
      </trkpt>
      <trkpt lat="48.46664" lon="7.46505">
        <ele>206.27963256836</ele>
        <time>2017-06-11T07:00:01.000Z</time>
      </trkpt>
      <trkpt lat="48.46663" lon="7.46496">
        <ele>206.59460449219</ele>
        <time>2017-06-11T07:00:03.000Z</time>
      </trkpt>
      <trkpt lat="48.46663" lon="7.46486">
        <ele>206.84492492676</ele>
        <time>2017-06-11T07:00:05.000Z</time>
      </trkpt>
      <trkpt lat="48.46662" lon="7.46473">
        <ele>207.02041625977</ele>
        <time>2017-06-11T07:00:08.000Z</time>
      </trkpt>
      <trkpt lat="48.46661" lon="7.46461">
        <ele>207.13298034668</ele>
        <time>2017-06-11T07:00:11.000Z</time>
      </trkpt>
      <trkpt lat="48.46661" lon="7.46453">
        <ele>207.18667602539</ele>
        <time>2017-06-11T07:00:13.000Z</time>
      </trkpt>
      <trkpt lat="48.4666" lon="7.46444">
        <ele>207.22024536133</ele>
        <time>2017-06-11T07:00:15.000Z</time>
      </trkpt>
      <trkpt lat="48.4666" lon="7.4643">
        <ele>207.25317382812</ele>
        <time>2017-06-11T07:00:18.000Z</time>
      </trkpt>
      <trkpt lat="48.4666" lon="7.4642">
        <ele>207.27934265137</ele>
        <time>2017-06-11T07:00:20.000Z</time>
      </trkpt>
      <trkpt lat="48.46661" lon="7.46411">
        <ele>207.2939453125</ele>
        <time>2017-06-11T07:00:22.000Z</time>
      </trkpt>
      <trkpt lat="48.46661" lon="7.46401">
        <ele>207.29638671875</ele>
        <time>2017-06-11T07:00:24.000Z</time>
      </trkpt>
      <trkpt lat="48.46662" lon="7.46392">
        <ele>207.28189086914</ele>
        <time>2017-06-11T07:00:26.000Z</time>
      </trkpt>
      <trkpt lat="48.46665" lon="7.46379">
        <ele>207.23373413086</ele>
        <time>2017-06-11T07:00:29.000Z</time>
      </trkpt>
      <trkpt lat="48.46669" lon="7.46364">
        <ele>207.142578125</ele>
        <time>2017-06-11T07:00:32.000Z</time>
      </trkpt>
      <trkpt lat="48.46671" lon="7.46353">
        <ele>207.0302734375</ele>
        <time>2017-06-11T07:00:34.000Z</time>
      </trkpt>
      <trkpt lat="48.46676" lon="7.46336">
        <ele>206.86328125</ele>
        <time>2017-06-11T07:00:37.000Z</time>
      </trkpt>
      <trkpt lat="48.46679" lon="7.46324">
        <ele>206.69314575195</ele>
        <time>2017-06-11T07:00:39.000Z</time>
      </trkpt>
      <trkpt lat="48.46682" lon="7.46312">
        <ele>206.52763366699</ele>
        <time>2017-06-11T07:00:41.000Z</time>
      </trkpt>
      <trkpt lat="48.46687" lon="7.46294">
        <ele>206.38342285156</ele>
        <time>2017-06-11T07:00:44.000Z</time>
      </trkpt>
      <trkpt lat="48.46692" lon="7.46276">
        <ele>206.22521972656</ele>
        <time>2017-06-11T07:00:47.000Z</time>
      </trkpt>
      <trkpt lat="48.46696" lon="7.46263">
        <ele>206.1015625</ele>
        <time>2017-06-11T07:00:49.000Z</time>
      </trkpt>
      <trkpt lat="48.46699" lon="7.46249">
        <ele>205.96903991699</ele>
        <time>2017-06-11T07:00:51.000Z</time>
      </trkpt>
      <trkpt lat="48.46701" lon="7.46236">
        <ele>205.90512084961</ele>
        <time>2017-06-11T07:00:53.000Z</time>
      </trkpt>
      <trkpt lat="48.46705" lon="7.46216">
        <ele>205.93257141113</ele>
        <time>2017-06-11T07:00:56.000Z</time>
      </trkpt>
      <trkpt lat="48.46708" lon="7.46198">
        <ele>206.06021118164</ele>
        <time>2017-06-11T07:00:59.000Z</time>
      </trkpt>
      <trkpt lat="48.46711" lon="7.46179">
        <ele>206.28649902344</ele>
        <time>2017-06-11T07:01:02.000Z</time>
      </trkpt>
      <trkpt lat="48.46714" lon="7.46159">
        <ele>206.56770324707</ele>
        <time>2017-06-11T07:01:05.000Z</time>
      </trkpt>
      <trkpt lat="48.46716" lon="7.4614">
        <ele>206.78735351562</ele>
        <time>2017-06-11T07:01:08.000Z</time>
      </trkpt>
      <trkpt lat="48.46717" lon="7.46128">
        <ele>206.92282104492</ele>
        <time>2017-06-11T07:01:10.000Z</time>
      </trkpt>
      <trkpt lat="48.46718" lon="7.46116">
        <ele>206.98498535156</ele>
        <time>2017-06-11T07:01:12.000Z</time>
      </trkpt>
      <trkpt lat="48.46721" lon="7.46099">
        <ele>206.93472290039</ele>
        <time>2017-06-11T07:01:15.000Z</time>
      </trkpt>
      <trkpt lat="48.46723" lon="7.46086">
        <ele>206.8327331543</ele>
        <time>2017-06-11T07:01:17.000Z</time>
      </trkpt>
      <trkpt lat="48.46725" lon="7.46073">
        <ele>206.71926879883</ele>
        <time>2017-06-11T07:01:19.000Z</time>
      </trkpt>
      <trkpt lat="48.46727" lon="7.46054">
        <ele>206.60517883301</ele>
        <time>2017-06-11T07:01:22.000Z</time>
      </trkpt>
      <trkpt lat="48.46729" lon="7.46035">
        <ele>206.49594116211</ele>
        <time>2017-06-11T07:01:25.000Z</time>
      </trkpt>
      <trkpt lat="48.4673" lon="7.46023">
        <ele>206.41972351074</ele>
        <time>2017-06-11T07:01:27.000Z</time>
      </trkpt>
      <trkpt lat="48.46731" lon="7.46004">
        <ele>206.36308288574</ele>
        <time>2017-06-11T07:01:30.000Z</time>
      </trkpt>
      <trkpt lat="48.46733" lon="7.45992">
        <ele>206.33760070801</ele>
        <time>2017-06-11T07:01:32.000Z</time>
      </trkpt>
      <trkpt lat="48.46734" lon="7.45979">
        <ele>206.33560180664</ele>
        <time>2017-06-11T07:01:34.000Z</time>
      </trkpt>
      <trkpt lat="48.46736" lon="7.45962">
        <ele>206.3408203125</ele>
        <time>2017-06-11T07:01:37.000Z</time>
      </trkpt>
      <trkpt lat="48.46738" lon="7.45951">
        <ele>206.35786437988</ele>
        <time>2017-06-11T07:01:39.000Z</time>
      </trkpt>
      <trkpt lat="48.46739" lon="7.45933">
        <ele>206.39152526855</ele>
        <time>2017-06-11T07:01:42.000Z</time>
      </trkpt>
      <trkpt lat="48.4674" lon="7.45915">
        <ele>206.44641113281</ele>
        <time>2017-06-11T07:01:45.000Z</time>
      </trkpt>
      <trkpt lat="48.46741" lon="7.45897">
        <ele>206.48405456543</ele>
        <time>2017-06-11T07:01:48.000Z</time>
      </trkpt>
      <trkpt lat="48.46742" lon="7.45886">
        <ele>206.515625</ele>
        <time>2017-06-11T07:01:50.000Z</time>
      </trkpt>
      <trkpt lat="48.46743" lon="7.45874">
        <ele>206.53926086426</ele>
        <time>2017-06-11T07:01:52.000Z</time>
      </trkpt>
      <trkpt lat="48.46743" lon="7.45862">
        <ele>206.54618835449</ele>
        <time>2017-06-11T07:01:54.000Z</time>
      </trkpt>
      <trkpt lat="48.46743" lon="7.45845">
        <ele>206.53475952148</ele>
        <time>2017-06-11T07:01:57.000Z</time>
      </trkpt>
      <trkpt lat="48.46743" lon="7.45827">
        <ele>206.56391906738</ele>
        <time>2017-06-11T07:02:00.000Z</time>
      </trkpt>
      <trkpt lat="48.46744" lon="7.45816">
        <ele>206.65078735352</ele>
        <time>2017-06-11T07:02:02.000Z</time>
      </trkpt>
      <trkpt lat="48.46744" lon="7.45798">
        <ele>206.82926940918</ele>
        <time>2017-06-11T07:02:05.000Z</time>
      </trkpt>
      <trkpt lat="48.46744" lon="7.45781">
        <ele>207.09870910645</ele>
        <time>2017-06-11T07:02:08.000Z</time>
      </trkpt>
      <trkpt lat="48.46743" lon="7.45763">
        <ele>207.4759979248</ele>
        <time>2017-06-11T07:02:11.000Z</time>
      </trkpt>
      <trkpt lat="48.46742" lon="7.45746">
        <ele>207.9126739502</ele>
        <time>2017-06-11T07:02:14.000Z</time>
      </trkpt>
      <trkpt lat="48.46742" lon="7.45732">
        <ele>208.33210754395</ele>
        <time>2017-06-11T07:02:17.000Z</time>
      </trkpt>
      <trkpt lat="48.46743" lon="7.45719">
        <ele>208.68537902832</ele>
        <time>2017-06-11T07:02:20.000Z</time>
      </trkpt>
      <trkpt lat="48.46742" lon="7.45707">
        <ele>208.99136352539</ele>
        <time>2017-06-11T07:02:22.000Z</time>
      </trkpt>
      <trkpt lat="48.46743" lon="7.45688">
        <ele>209.22187805176</ele>
        <time>2017-06-11T07:02:25.000Z</time>
      </trkpt>
      <trkpt lat="48.46745" lon="7.45669">
        <ele>209.36441040039</ele>
        <time>2017-06-11T07:02:28.000Z</time>
      </trkpt>
      <trkpt lat="48.46747" lon="7.4565">
        <ele>209.6273651123</ele>
        <time>2017-06-11T07:02:31.000Z</time>
      </trkpt>
      <trkpt lat="48.46749" lon="7.45639">
        <ele>209.95352172852</ele>
        <time>2017-06-11T07:02:33.000Z</time>
      </trkpt>
      <trkpt lat="48.4675" lon="7.45631">
        <ele>210.31594848633</ele>
        <time>2017-06-11T07:02:35.000Z</time>
      </trkpt>
      <trkpt lat="48.46748" lon="7.45623">
        <ele>210.75321960449</ele>
        <time>2017-06-11T07:02:38.000Z</time>
      </trkpt>
      <trkpt lat="48.46744" lon="7.45622">
        <ele>211.31262207031</ele>
        <time>2017-06-11T07:02:41.000Z</time>
      </trkpt>
      <trkpt lat="48.4674" lon="7.45621">
        <ele>211.81677246094</ele>
        <time>2017-06-11T07:02:43.000Z</time>
      </trkpt>
      <trkpt lat="48.46736" lon="7.4562">
        <ele>212.34167480469</ele>
        <time>2017-06-11T07:02:45.000Z</time>
      </trkpt>
      <trkpt lat="48.4673" lon="7.4562">
        <ele>212.95202636719</ele>
        <time>2017-06-11T07:02:48.000Z</time>
      </trkpt>
      <trkpt lat="48.46724" lon="7.45618">
        <ele>213.619140625</ele>
        <time>2017-06-11T07:02:51.000Z</time>
      </trkpt>
      <trkpt lat="48.4672" lon="7.45616">
        <ele>214.2734375</ele>
        <time>2017-06-11T07:02:53.000Z</time>
      </trkpt>
      <trkpt lat="48.46714" lon="7.45614">
        <ele>215.005859375</ele>
        <time>2017-06-11T07:02:56.000Z</time>
      </trkpt>
      <trkpt lat="48.4671" lon="7.45613">
        <ele>215.72546386719</ele>
        <time>2017-06-11T07:02:58.000Z</time>
      </trkpt>
      <trkpt lat="48.46704" lon="7.45612">
        <ele>216.42126464844</ele>
        <time>2017-06-11T07:03:01.000Z</time>
      </trkpt>
      <trkpt lat="48.46702" lon="7.4561">
        <ele>217.0419921875</ele>
        <time>2017-06-11T07:03:03.000Z</time>
      </trkpt>
      <trkpt lat="48.46698" lon="7.45606">
        <ele>217.67980957031</ele>
        <time>2017-06-11T07:03:05.000Z</time>
      </trkpt>
      <trkpt lat="48.46692" lon="7.45604">
        <ele>218.31457519531</ele>
        <time>2017-06-11T07:03:08.000Z</time>
      </trkpt>
      <trkpt lat="48.46686" lon="7.45604">
        <ele>218.98962402344</ele>
        <time>2017-06-11T07:03:11.000Z</time>
      </trkpt>
      <trkpt lat="48.46684" lon="7.45603">
        <ele>219.60363769531</ele>
        <time>2017-06-11T07:03:13.000Z</time>
      </trkpt>
      <trkpt lat="48.4668" lon="7.456">
        <ele>220.25061035156</ele>
        <time>2017-06-11T07:03:16.000Z</time>
      </trkpt>
      <trkpt lat="48.46676" lon="7.45599">
        <ele>220.87194824219</ele>
        <time>2017-06-11T07:03:18.000Z</time>
      </trkpt>
      <trkpt lat="48.46672" lon="7.45598">
        <ele>221.41149902344</ele>
        <time>2017-06-11T07:03:20.000Z</time>
      </trkpt>
      <trkpt lat="48.46669" lon="7.45598">
        <ele>221.90649414062</ele>
        <time>2017-06-11T07:03:22.000Z</time>
      </trkpt>
      <trkpt lat="48.46664" lon="7.45599">
        <ele>222.43013000488</ele>
        <time>2017-06-11T07:03:25.000Z</time>
      </trkpt>
      <trkpt lat="48.46659" lon="7.45597">
        <ele>222.96487426758</ele>
        <time>2017-06-11T07:03:28.000Z</time>
      </trkpt>
      <trkpt lat="48.46656" lon="7.45597">
        <ele>223.48718261719</ele>
        <time>2017-06-11T07:03:30.000Z</time>
      </trkpt>
      <trkpt lat="48.46654" lon="7.45597">
        <ele>223.95986938477</ele>
        <time>2017-06-11T07:03:32.000Z</time>
      </trkpt>
      <trkpt lat="48.46651" lon="7.45597">
        <ele>224.41305541992</ele>
        <time>2017-06-11T07:03:35.000Z</time>
      </trkpt>
      <trkpt lat="48.46648" lon="7.45597">
        <ele>224.82466125488</ele>
        <time>2017-06-11T07:03:37.000Z</time>
      </trkpt>
      <trkpt lat="48.46643" lon="7.45594">
        <ele>225.28311157227</ele>
        <time>2017-06-11T07:03:40.000Z</time>
      </trkpt>
      <trkpt lat="48.46639" lon="7.45591">
        <ele>225.7673034668</ele>
        <time>2017-06-11T07:03:42.000Z</time>
      </trkpt>
      <trkpt lat="48.46637" lon="7.45588">
        <ele>226.33462524414</ele>
        <time>2017-06-11T07:03:44.000Z</time>
      </trkpt>
      <trkpt lat="48.46634" lon="7.45582">
        <ele>226.9801940918</ele>
        <time>2017-06-11T07:03:47.000Z</time>
      </trkpt>
      <trkpt lat="48.46632" lon="7.45575">
        <ele>227.74182128906</ele>
        <time>2017-06-11T07:03:50.000Z</time>
      </trkpt>
      <trkpt lat="48.4663" lon="7.45569">
        <ele>228.48062133789</ele>
        <time>2017-06-11T07:03:52.000Z</time>
      </trkpt>
      <trkpt lat="48.46628" lon="7.45564">
        <ele>229.25553894043</ele>
        <time>2017-06-11T07:03:55.000Z</time>
      </trkpt>
      <trkpt lat="48.46626" lon="7.4556">
        <ele>230.0227355957</ele>
        <time>2017-06-11T07:03:57.000Z</time>
      </trkpt>
      <trkpt lat="48.46624" lon="7.45553">
        <ele>230.82418823242</ele>
        <time>2017-06-11T07:04:00.000Z</time>
      </trkpt>
      <trkpt lat="48.46621" lon="7.45547">
        <ele>231.61848449707</ele>
        <time>2017-06-11T07:04:03.000Z</time>
      </trkpt>
      <trkpt lat="48.4662" lon="7.45541">
        <ele>232.37661743164</ele>
        <time>2017-06-11T07:04:06.000Z</time>
      </trkpt>
      <trkpt lat="48.46619" lon="7.45537">
        <ele>233.07922363281</ele>
        <time>2017-06-11T07:04:09.000Z</time>
      </trkpt>
      <trkpt lat="48.46615" lon="7.45532">
        <ele>233.86587524414</ele>
        <time>2017-06-11T07:04:12.000Z</time>
      </trkpt>
      <trkpt lat="48.4661" lon="7.45528">
        <ele>234.65385437012</ele>
        <time>2017-06-11T07:04:15.000Z</time>
      </trkpt>
      <trkpt lat="48.46607" lon="7.45525">
        <ele>235.38977050781</ele>
        <time>2017-06-11T07:04:17.000Z</time>
      </trkpt>
      <trkpt lat="48.46605" lon="7.45521">
        <ele>236.11819458008</ele>
        <time>2017-06-11T07:04:19.000Z</time>
      </trkpt>
      <trkpt lat="48.46606" lon="7.45515">
        <ele>236.84457397461</ele>
        <time>2017-06-11T07:04:22.000Z</time>
      </trkpt>
      <trkpt lat="48.46606" lon="7.45512">
        <ele>237.42639160156</ele>
        <time>2017-06-11T07:04:24.000Z</time>
      </trkpt>
      <trkpt lat="48.46605" lon="7.45508">
        <ele>237.89961242676</ele>
        <time>2017-06-11T07:04:26.000Z</time>
      </trkpt>
      <trkpt lat="48.46605" lon="7.45502">
        <ele>238.36660766602</ele>
        <time>2017-06-11T07:04:29.000Z</time>
      </trkpt>
      <trkpt lat="48.46604" lon="7.45498">
        <ele>238.75427246094</ele>
        <time>2017-06-11T07:04:31.000Z</time>
      </trkpt>
      <trkpt lat="48.46602" lon="7.45493">
        <ele>239.07292175293</ele>
        <time>2017-06-11T07:04:33.000Z</time>
      </trkpt>
      <trkpt lat="48.466" lon="7.45489">
        <ele>239.36808776855</ele>
        <time>2017-06-11T07:04:36.000Z</time>
      </trkpt>
      <trkpt lat="48.46598" lon="7.45486">
        <ele>239.61943054199</ele>
        <time>2017-06-11T07:04:38.000Z</time>
      </trkpt>
      <trkpt lat="48.46595" lon="7.45478">
        <ele>239.80819702148</ele>
        <time>2017-06-11T07:04:41.000Z</time>
      </trkpt>
      <trkpt lat="48.46591" lon="7.45475">
        <ele>240.02299499512</ele>
        <time>2017-06-11T07:04:43.000Z</time>
      </trkpt>
      <trkpt lat="48.46587" lon="7.45471">
        <ele>240.27746582031</ele>
        <time>2017-06-11T07:04:46.000Z</time>
      </trkpt>
      <trkpt lat="48.46584" lon="7.45468">
        <ele>240.54257202148</ele>
        <time>2017-06-11T07:04:48.000Z</time>
      </trkpt>
      <trkpt lat="48.46577" lon="7.45464">
        <ele>240.72583007812</ele>
        <time>2017-06-11T07:04:51.000Z</time>
      </trkpt>
      <trkpt lat="48.46573" lon="7.45462">
        <ele>240.81758117676</ele>
        <time>2017-06-11T07:04:53.000Z</time>
      </trkpt>
      <trkpt lat="48.46569" lon="7.45459">
        <ele>240.80517578125</ele>
        <time>2017-06-11T07:04:55.000Z</time>
      </trkpt>
      <trkpt lat="48.46563" lon="7.45455">
        <ele>240.67573547363</ele>
        <time>2017-06-11T07:04:58.000Z</time>
      </trkpt>
      <trkpt lat="48.4656" lon="7.45452">
        <ele>240.47964477539</ele>
        <time>2017-06-11T07:05:00.000Z</time>
      </trkpt>
      <trkpt lat="48.46558" lon="7.45446">
        <ele>240.31912231445</ele>
        <time>2017-06-11T07:05:03.000Z</time>
      </trkpt>
      <trkpt lat="48.46557" lon="7.4544">
        <ele>240.18978881836</ele>
        <time>2017-06-11T07:05:05.000Z</time>
      </trkpt>
      <trkpt lat="48.46557" lon="7.45429">
        <ele>240.09358215332</ele>
        <time>2017-06-11T07:05:08.000Z</time>
      </trkpt>
      <trkpt lat="48.46556" lon="7.45416">
        <ele>240.05131530762</ele>
        <time>2017-06-11T07:05:11.000Z</time>
      </trkpt>
      <trkpt lat="48.46555" lon="7.45405">
        <ele>240.12515258789</ele>
        <time>2017-06-11T07:05:14.000Z</time>
      </trkpt>
      <trkpt lat="48.46555" lon="7.45396">
        <ele>240.29829406738</ele>
        <time>2017-06-11T07:05:17.000Z</time>
      </trkpt>
      <trkpt lat="48.46555" lon="7.45386">
        <ele>240.56423950195</ele>
        <time>2017-06-11T07:05:20.000Z</time>
      </trkpt>
      <trkpt lat="48.46555" lon="7.45374">
        <ele>240.93913269043</ele>
        <time>2017-06-11T07:05:23.000Z</time>
      </trkpt>
      <trkpt lat="48.46555" lon="7.45359">
        <ele>241.44845581055</ele>
        <time>2017-06-11T07:05:26.000Z</time>
      </trkpt>
      <trkpt lat="48.46555" lon="7.4535">
        <ele>241.9411315918</ele>
        <time>2017-06-11T07:05:28.000Z</time>
      </trkpt>
      <trkpt lat="48.46556" lon="7.4534">
        <ele>242.43110656738</ele>
        <time>2017-06-11T07:05:30.000Z</time>
      </trkpt>
      <trkpt lat="48.46556" lon="7.45327">
        <ele>242.93994140625</ele>
        <time>2017-06-11T07:05:33.000Z</time>
      </trkpt>
      <trkpt lat="48.46557" lon="7.45312">
        <ele>243.45910644531</ele>
        <time>2017-06-11T07:05:36.000Z</time>
      </trkpt>
      <trkpt lat="48.46558" lon="7.45298">
        <ele>243.94218444824</ele>
        <time>2017-06-11T07:05:38.000Z</time>
      </trkpt>
      <trkpt lat="48.4656" lon="7.45282">
        <ele>244.46781921387</ele>
        <time>2017-06-11T07:05:41.000Z</time>
      </trkpt>
      <trkpt lat="48.46561" lon="7.45272">
        <ele>244.9818572998</ele>
        <time>2017-06-11T07:05:43.000Z</time>
      </trkpt>
      <trkpt lat="48.46563" lon="7.45261">
        <ele>245.46597290039</ele>
        <time>2017-06-11T07:05:45.000Z</time>
      </trkpt>
      <trkpt lat="48.46566" lon="7.45241">
        <ele>245.90896606445</ele>
        <time>2017-06-11T07:05:48.000Z</time>
      </trkpt>
      <trkpt lat="48.46567" lon="7.45228">
        <ele>246.2611541748</ele>
        <time>2017-06-11T07:05:50.000Z</time>
      </trkpt>
      <trkpt lat="48.46568" lon="7.45204">
        <ele>246.51257324219</ele>
        <time>2017-06-11T07:05:53.000Z</time>
      </trkpt>
      <trkpt lat="48.46569" lon="7.45184">
        <ele>246.70205688477</ele>
        <time>2017-06-11T07:05:56.000Z</time>
      </trkpt>
      <trkpt lat="48.46572" lon="7.45165">
        <ele>246.81030273438</ele>
        <time>2017-06-11T07:05:59.000Z</time>
      </trkpt>
      <trkpt lat="48.46574" lon="7.45144">
        <ele>246.91342163086</ele>
        <time>2017-06-11T07:06:02.000Z</time>
      </trkpt>
      <trkpt lat="48.46575" lon="7.45121">
        <ele>247.09524536133</ele>
        <time>2017-06-11T07:06:05.000Z</time>
      </trkpt>
      <trkpt lat="48.46577" lon="7.45107">
        <ele>247.29280090332</ele>
        <time>2017-06-11T07:06:07.000Z</time>
      </trkpt>
      <trkpt lat="48.46579" lon="7.45093">
        <ele>247.52079772949</ele>
        <time>2017-06-11T07:06:09.000Z</time>
      </trkpt>
      <trkpt lat="48.46581" lon="7.45071">
        <ele>247.68867492676</ele>
        <time>2017-06-11T07:06:12.000Z</time>
      </trkpt>
      <trkpt lat="48.46583" lon="7.45049">
        <ele>247.60290527344</ele>
        <time>2017-06-11T07:06:15.000Z</time>
      </trkpt>
      <trkpt lat="48.46585" lon="7.45033">
        <ele>247.24873352051</ele>
        <time>2017-06-11T07:06:17.000Z</time>
      </trkpt>
      <trkpt lat="48.46588" lon="7.45003">
        <ele>246.55012512207</ele>
        <time>2017-06-11T07:06:20.000Z</time>
      </trkpt>
      <trkpt lat="48.46588" lon="7.44976">
        <ele>245.45280456543</ele>
        <time>2017-06-11T07:06:22.000Z</time>
      </trkpt>
      <trkpt lat="48.46578" lon="7.44924">
        <ele>243.9440612793</ele>
        <time>2017-06-11T07:06:25.000Z</time>
      </trkpt>
      <trkpt lat="48.46573" lon="7.44898">
        <ele>242.35287475586</ele>
        <time>2017-06-11T07:06:27.000Z</time>
      </trkpt>
      <trkpt lat="48.46573" lon="7.44872">
        <ele>240.54423522949</ele>
        <time>2017-06-11T07:06:30.000Z</time>
      </trkpt>
      <trkpt lat="48.4657" lon="7.44856">
        <ele>238.87846374512</ele>
        <time>2017-06-11T07:06:32.000Z</time>
      </trkpt>
      <trkpt lat="48.46566" lon="7.44823">
        <ele>237.21957397461</ele>
        <time>2017-06-11T07:06:35.000Z</time>
      </trkpt>
      <trkpt lat="48.46561" lon="7.448">
        <ele>235.93835449219</ele>
        <time>2017-06-11T07:06:37.000Z</time>
      </trkpt>
      <trkpt lat="48.46558" lon="7.4477">
        <ele>234.66653442383</ele>
        <time>2017-06-11T07:06:40.000Z</time>
      </trkpt>
      <trkpt lat="48.46555" lon="7.44748">
        <ele>233.64782714844</ele>
        <time>2017-06-11T07:06:43.000Z</time>
      </trkpt>
      <trkpt lat="48.46553" lon="7.44711">
        <ele>232.38101196289</ele>
        <time>2017-06-11T07:06:46.000Z</time>
      </trkpt>
      <trkpt lat="48.46543" lon="7.44662">
        <ele>231.16220092773</ele>
        <time>2017-06-11T07:06:49.000Z</time>
      </trkpt>
      <trkpt lat="48.4654" lon="7.44639">
        <ele>229.84875488281</ele>
        <time>2017-06-11T07:06:51.000Z</time>
      </trkpt>
      <trkpt lat="48.46535" lon="7.44615">
        <ele>228.55952453613</ele>
        <time>2017-06-11T07:06:53.000Z</time>
      </trkpt>
      <trkpt lat="48.46535" lon="7.446">
        <ele>227.23149108887</ele>
        <time>2017-06-11T07:06:55.000Z</time>
      </trkpt>
      <trkpt lat="48.4653" lon="7.44591">
        <ele>226.20112609863</ele>
        <time>2017-06-11T07:06:58.000Z</time>
      </trkpt>
      <trkpt lat="48.46522" lon="7.44536">
        <ele>225.14082336426</ele>
        <time>2017-06-11T07:07:03.000Z</time>
      </trkpt>
      <trkpt lat="48.46519" lon="7.44529">
        <ele>224.2437286377</ele>
        <time>2017-06-11T07:07:05.000Z</time>
      </trkpt>
      <trkpt lat="48.46515" lon="7.44517">
        <ele>223.51908874512</ele>
        <time>2017-06-11T07:07:08.000Z</time>
      </trkpt>
      <trkpt lat="48.4651" lon="7.44497">
        <ele>222.92057800293</ele>
        <time>2017-06-11T07:07:11.000Z</time>
      </trkpt>
      <trkpt lat="48.46508" lon="7.44487">
        <ele>222.52291870117</ele>
        <time>2017-06-11T07:07:13.000Z</time>
      </trkpt>
      <trkpt lat="48.46505" lon="7.44479">
        <ele>222.53971862793</ele>
        <time>2017-06-11T07:07:15.000Z</time>
      </trkpt>
      <trkpt lat="48.46502" lon="7.44461">
        <ele>222.76412963867</ele>
        <time>2017-06-11T07:07:18.000Z</time>
      </trkpt>
      <trkpt lat="48.465" lon="7.44451">
        <ele>223.14889526367</ele>
        <time>2017-06-11T07:07:20.000Z</time>
      </trkpt>
      <trkpt lat="48.46498" lon="7.44439">
        <ele>223.69827270508</ele>
        <time>2017-06-11T07:07:22.000Z</time>
      </trkpt>
      <trkpt lat="48.46494" lon="7.44428">
        <ele>224.2453918457</ele>
        <time>2017-06-11T07:07:25.000Z</time>
      </trkpt>
      <trkpt lat="48.46492" lon="7.4442">
        <ele>224.7717590332</ele>
        <time>2017-06-11T07:07:27.000Z</time>
      </trkpt>
      <trkpt lat="48.46487" lon="7.44402">
        <ele>225.25007629395</ele>
        <time>2017-06-11T07:07:30.000Z</time>
      </trkpt>
      <trkpt lat="48.46485" lon="7.44388">
        <ele>225.7268371582</ele>
        <time>2017-06-11T07:07:32.000Z</time>
      </trkpt>
      <trkpt lat="48.46481" lon="7.44371">
        <ele>226.2080078125</ele>
        <time>2017-06-11T07:07:35.000Z</time>
      </trkpt>
      <trkpt lat="48.46476" lon="7.44358">
        <ele>226.66206359863</ele>
        <time>2017-06-11T07:07:38.000Z</time>
      </trkpt>
      <trkpt lat="48.46472" lon="7.44347">
        <ele>227.1018371582</ele>
        <time>2017-06-11T07:07:41.000Z</time>
      </trkpt>
      <trkpt lat="48.4647" lon="7.44341">
        <ele>227.44172668457</ele>
        <time>2017-06-11T07:07:43.000Z</time>
      </trkpt>
      <trkpt lat="48.46468" lon="7.44332">
        <ele>227.7236328125</ele>
        <time>2017-06-11T07:07:46.000Z</time>
      </trkpt>
      <trkpt lat="48.46465" lon="7.44321">
        <ele>227.92910766602</ele>
        <time>2017-06-11T07:07:49.000Z</time>
      </trkpt>
      <trkpt lat="48.46461" lon="7.44304">
        <ele>228.16003417969</ele>
        <time>2017-06-11T07:07:52.000Z</time>
      </trkpt>
      <trkpt lat="48.4646" lon="7.44295">
        <ele>228.39875793457</ele>
        <time>2017-06-11T07:07:54.000Z</time>
      </trkpt>
      <trkpt lat="48.46458" lon="7.44277">
        <ele>228.71801757812</ele>
        <time>2017-06-11T07:07:57.000Z</time>
      </trkpt>
      <trkpt lat="48.46456" lon="7.44259">
        <ele>229.12324523926</ele>
        <time>2017-06-11T07:08:00.000Z</time>
      </trkpt>
      <trkpt lat="48.46453" lon="7.44243">
        <ele>229.56137084961</ele>
        <time>2017-06-11T07:08:03.000Z</time>
      </trkpt>
      <trkpt lat="48.46447" lon="7.44223">
        <ele>229.93623352051</ele>
        <time>2017-06-11T07:08:06.000Z</time>
      </trkpt>
      <trkpt lat="48.46443" lon="7.44203">
        <ele>230.28230285645</ele>
        <time>2017-06-11T07:08:09.000Z</time>
      </trkpt>
      <trkpt lat="48.46441" lon="7.44186">
        <ele>230.54550170898</ele>
        <time>2017-06-11T07:08:12.000Z</time>
      </trkpt>
      <trkpt lat="48.4644" lon="7.44173">
        <ele>230.70585632324</ele>
        <time>2017-06-11T07:08:15.000Z</time>
      </trkpt>
      <trkpt lat="48.46442" lon="7.44168">
        <ele>230.80703735352</ele>
        <time>2017-06-11T07:08:17.000Z</time>
      </trkpt>
      <trkpt lat="48.46444" lon="7.44153">
        <ele>230.84782409668</ele>
        <time>2017-06-11T07:08:20.000Z</time>
      </trkpt>
      <trkpt lat="48.46438" lon="7.44108">
        <ele>230.69921875</ele>
        <time>2017-06-11T07:08:24.000Z</time>
      </trkpt>
      <trkpt lat="48.46436" lon="7.44093">
        <ele>230.46142578125</ele>
        <time>2017-06-11T07:08:26.000Z</time>
      </trkpt>
      <trkpt lat="48.46434" lon="7.44075">
        <ele>230.18789672852</ele>
        <time>2017-06-11T07:08:29.000Z</time>
      </trkpt>
      <trkpt lat="48.46432" lon="7.44061">
        <ele>229.9482421875</ele>
        <time>2017-06-11T07:08:32.000Z</time>
      </trkpt>
      <trkpt lat="48.46431" lon="7.44054">
        <ele>229.76559448242</ele>
        <time>2017-06-11T07:08:34.000Z</time>
      </trkpt>
      <trkpt lat="48.4643" lon="7.44047">
        <ele>229.76498413086</ele>
        <time>2017-06-11T07:08:36.000Z</time>
      </trkpt>
      <trkpt lat="48.46428" lon="7.44032">
        <ele>229.86613464355</ele>
        <time>2017-06-11T07:08:39.000Z</time>
      </trkpt>
      <trkpt lat="48.46426" lon="7.44014">
        <ele>230.01889038086</ele>
        <time>2017-06-11T07:08:42.000Z</time>
      </trkpt>
      <trkpt lat="48.46424" lon="7.44001">
        <ele>230.15133666992</ele>
        <time>2017-06-11T07:08:44.000Z</time>
      </trkpt>
      <trkpt lat="48.46422" lon="7.43984">
        <ele>230.28506469727</ele>
        <time>2017-06-11T07:08:47.000Z</time>
      </trkpt>
      <trkpt lat="48.4642" lon="7.43967">
        <ele>230.41259765625</ele>
        <time>2017-06-11T07:08:50.000Z</time>
      </trkpt>
      <trkpt lat="48.46417" lon="7.43951">
        <ele>230.50778198242</ele>
        <time>2017-06-11T07:08:53.000Z</time>
      </trkpt>
      <trkpt lat="48.46416" lon="7.4394">
        <ele>230.57841491699</ele>
        <time>2017-06-11T07:08:55.000Z</time>
      </trkpt>
      <trkpt lat="48.46413" lon="7.43925">
        <ele>230.65151977539</ele>
        <time>2017-06-11T07:08:57.000Z</time>
      </trkpt>
      <trkpt lat="48.46411" lon="7.43911">
        <ele>230.75769042969</ele>
        <time>2017-06-11T07:08:59.000Z</time>
      </trkpt>
      <trkpt lat="48.46409" lon="7.43894">
        <ele>230.95735168457</ele>
        <time>2017-06-11T07:09:02.000Z</time>
      </trkpt>
      <trkpt lat="48.46407" lon="7.43884">
        <ele>231.20370483398</ele>
        <time>2017-06-11T07:09:04.000Z</time>
      </trkpt>
      <trkpt lat="48.46404" lon="7.43867">
        <ele>231.52702331543</ele>
        <time>2017-06-11T07:09:07.000Z</time>
      </trkpt>
      <trkpt lat="48.46401" lon="7.43846">
        <ele>231.93269348145</ele>
        <time>2017-06-11T07:09:10.000Z</time>
      </trkpt>
      <trkpt lat="48.46397" lon="7.43827">
        <ele>232.36157226562</ele>
        <time>2017-06-11T07:09:13.000Z</time>
      </trkpt>
      <trkpt lat="48.46393" lon="7.43816">
        <ele>232.69778442383</ele>
        <time>2017-06-11T07:09:15.000Z</time>
      </trkpt>
      <trkpt lat="48.46389" lon="7.43804">
        <ele>233.00064086914</ele>
        <time>2017-06-11T07:09:17.000Z</time>
      </trkpt>
      <trkpt lat="48.46384" lon="7.43793">
        <ele>233.23635864258</ele>
        <time>2017-06-11T07:09:20.000Z</time>
      </trkpt>
      <trkpt lat="48.46382" lon="7.43788">
        <ele>233.3775177002</ele>
        <time>2017-06-11T07:09:22.000Z</time>
      </trkpt>
      <trkpt lat="48.46379" lon="7.43781">
        <ele>233.47319030762</ele>
        <time>2017-06-11T07:09:25.000Z</time>
      </trkpt>
      <trkpt lat="48.46378" lon="7.43776">
        <ele>233.57829284668</ele>
        <time>2017-06-11T07:09:27.000Z</time>
      </trkpt>
      <trkpt lat="48.46376" lon="7.43768">
        <ele>233.697265625</ele>
        <time>2017-06-11T07:09:29.000Z</time>
      </trkpt>
      <trkpt lat="48.46368" lon="7.43752">
        <ele>233.86999511719</ele>
        <time>2017-06-11T07:09:32.000Z</time>
      </trkpt>
      <trkpt lat="48.46362" lon="7.43733">
        <ele>234.11030578613</ele>
        <time>2017-06-11T07:09:35.000Z</time>
      </trkpt>
      <trkpt lat="48.46359" lon="7.43716">
        <ele>234.40213012695</ele>
        <time>2017-06-11T07:09:38.000Z</time>
      </trkpt>
      <trkpt lat="48.46357" lon="7.43694">
        <ele>234.78881835938</ele>
        <time>2017-06-11T07:09:41.000Z</time>
      </trkpt>
      <trkpt lat="48.46356" lon="7.43682">
        <ele>235.20732116699</ele>
        <time>2017-06-11T07:09:43.000Z</time>
      </trkpt>
      <trkpt lat="48.46355" lon="7.43663">
        <ele>235.64543151855</ele>
        <time>2017-06-11T07:09:46.000Z</time>
      </trkpt>
      <trkpt lat="48.46355" lon="7.43648">
        <ele>236.0673828125</ele>
        <time>2017-06-11T07:09:48.000Z</time>
      </trkpt>
      <trkpt lat="48.46354" lon="7.43635">
        <ele>236.47114562988</ele>
        <time>2017-06-11T07:09:50.000Z</time>
      </trkpt>
      <trkpt lat="48.46354" lon="7.43626">
        <ele>236.79830932617</ele>
        <time>2017-06-11T07:09:52.000Z</time>
      </trkpt>
      <trkpt lat="48.46352" lon="7.43614">
        <ele>237.11868286133</ele>
        <time>2017-06-11T07:09:55.000Z</time>
      </trkpt>
      <trkpt lat="48.46349" lon="7.43601">
        <ele>237.42294311523</ele>
        <time>2017-06-11T07:09:58.000Z</time>
      </trkpt>
      <trkpt lat="48.46346" lon="7.43586">
        <ele>237.75186157227</ele>
        <time>2017-06-11T07:10:01.000Z</time>
      </trkpt>
      <trkpt lat="48.46344" lon="7.43569">
        <ele>238.05424499512</ele>
        <time>2017-06-11T07:10:04.000Z</time>
      </trkpt>
      <trkpt lat="48.46342" lon="7.43556">
        <ele>238.33264160156</ele>
        <time>2017-06-11T07:10:06.000Z</time>
      </trkpt>
      <trkpt lat="48.46341" lon="7.43537">
        <ele>238.56547546387</ele>
        <time>2017-06-11T07:10:09.000Z</time>
      </trkpt>
      <trkpt lat="48.46341" lon="7.43518">
        <ele>238.72692871094</ele>
        <time>2017-06-11T07:10:12.000Z</time>
      </trkpt>
      <trkpt lat="48.46341" lon="7.43498">
        <ele>238.81079101562</ele>
        <time>2017-06-11T07:10:15.000Z</time>
      </trkpt>
      <trkpt lat="48.46341" lon="7.43484">
        <ele>238.8892364502</ele>
        <time>2017-06-11T07:10:17.000Z</time>
      </trkpt>
      <trkpt lat="48.46342" lon="7.43469">
        <ele>238.97724914551</ele>
        <time>2017-06-11T07:10:19.000Z</time>
      </trkpt>
      <trkpt lat="48.46342" lon="7.43448">
        <ele>239.08862304688</ele>
        <time>2017-06-11T07:10:22.000Z</time>
      </trkpt>
      <trkpt lat="48.46343" lon="7.43433">
        <ele>239.21530151367</ele>
        <time>2017-06-11T07:10:24.000Z</time>
      </trkpt>
      <trkpt lat="48.46342" lon="7.43415">
        <ele>239.35836791992</ele>
        <time>2017-06-11T07:10:27.000Z</time>
      </trkpt>
      <trkpt lat="48.46342" lon="7.43399">
        <ele>239.41110229492</ele>
        <time>2017-06-11T07:10:29.000Z</time>
      </trkpt>
      <trkpt lat="48.4634" lon="7.43382">
        <ele>239.36865234375</ele>
        <time>2017-06-11T07:10:32.000Z</time>
      </trkpt>
      <trkpt lat="48.46338" lon="7.43371">
        <ele>239.25375366211</ele>
        <time>2017-06-11T07:10:34.000Z</time>
      </trkpt>
      <trkpt lat="48.46338" lon="7.43352">
        <ele>239.02510070801</ele>
        <time>2017-06-11T07:10:37.000Z</time>
      </trkpt>
      <trkpt lat="48.46345" lon="7.43336">
        <ele>238.67825317383</ele>
        <time>2017-06-11T07:10:40.000Z</time>
      </trkpt>
      <trkpt lat="48.4635" lon="7.43317">
        <ele>238.39526367188</ele>
        <time>2017-06-11T07:10:43.000Z</time>
      </trkpt>
      <trkpt lat="48.46354" lon="7.43305">
        <ele>238.19892883301</ele>
        <time>2017-06-11T07:10:45.000Z</time>
      </trkpt>
      <trkpt lat="48.46356" lon="7.43294">
        <ele>238.05989074707</ele>
        <time>2017-06-11T07:10:47.000Z</time>
      </trkpt>
      <trkpt lat="48.46358" lon="7.43284">
        <ele>238.03291320801</ele>
        <time>2017-06-11T07:10:49.000Z</time>
      </trkpt>
      <trkpt lat="48.46359" lon="7.43268">
        <ele>238.13423156738</ele>
        <time>2017-06-11T07:10:52.000Z</time>
      </trkpt>
      <trkpt lat="48.46359" lon="7.43253">
        <ele>238.26913452148</ele>
        <time>2017-06-11T07:10:55.000Z</time>
      </trkpt>
      <trkpt lat="48.46357" lon="7.43236">
        <ele>238.44033813477</ele>
        <time>2017-06-11T07:10:58.000Z</time>
      </trkpt>
      <trkpt lat="48.46355" lon="7.43224">
        <ele>238.62861633301</ele>
        <time>2017-06-11T07:11:00.000Z</time>
      </trkpt>
      <trkpt lat="48.46352" lon="7.43207">
        <ele>238.85696411133</ele>
        <time>2017-06-11T07:11:03.000Z</time>
      </trkpt>
      <trkpt lat="48.46349" lon="7.43192">
        <ele>239.10317993164</ele>
        <time>2017-06-11T07:11:05.000Z</time>
      </trkpt>
      <trkpt lat="48.46348" lon="7.4318">
        <ele>239.36238098145</ele>
        <time>2017-06-11T07:11:07.000Z</time>
      </trkpt>
      <trkpt lat="48.46346" lon="7.43163">
        <ele>239.63154602051</ele>
        <time>2017-06-11T07:11:10.000Z</time>
      </trkpt>
      <trkpt lat="48.46346" lon="7.4315">
        <ele>239.89779663086</ele>
        <time>2017-06-11T07:11:12.000Z</time>
      </trkpt>
      <trkpt lat="48.46345" lon="7.43136">
        <ele>240.13540649414</ele>
        <time>2017-06-11T07:11:14.000Z</time>
      </trkpt>
      <trkpt lat="48.46343" lon="7.43115">
        <ele>240.36943054199</ele>
        <time>2017-06-11T07:11:17.000Z</time>
      </trkpt>
      <trkpt lat="48.46342" lon="7.43096">
        <ele>240.60102844238</ele>
        <time>2017-06-11T07:11:20.000Z</time>
      </trkpt>
      <trkpt lat="48.46342" lon="7.43085">
        <ele>240.79638671875</ele>
        <time>2017-06-11T07:11:22.000Z</time>
      </trkpt>
      <trkpt lat="48.46341" lon="7.4307">
        <ele>241.04634094238</ele>
        <time>2017-06-11T07:11:25.000Z</time>
      </trkpt>
      <trkpt lat="48.46338" lon="7.43063">
        <ele>241.29487609863</ele>
        <time>2017-06-11T07:11:27.000Z</time>
      </trkpt>
      <trkpt lat="48.46331" lon="7.43057">
        <ele>241.53930664062</ele>
        <time>2017-06-11T07:11:30.000Z</time>
      </trkpt>
      <trkpt lat="48.46325" lon="7.43052">
        <ele>241.8229675293</ele>
        <time>2017-06-11T07:11:33.000Z</time>
      </trkpt>
      <trkpt lat="48.46317" lon="7.4305">
        <ele>242.14543151855</ele>
        <time>2017-06-11T07:11:35.000Z</time>
      </trkpt>
      <trkpt lat="48.46304" lon="7.4305">
        <ele>242.47073364258</ele>
        <time>2017-06-11T07:11:38.000Z</time>
      </trkpt>
      <trkpt lat="48.46292" lon="7.43051">
        <ele>242.84094238281</ele>
        <time>2017-06-11T07:11:41.000Z</time>
      </trkpt>
      <trkpt lat="48.46281" lon="7.43052">
        <ele>243.23754882812</ele>
        <time>2017-06-11T07:11:44.000Z</time>
      </trkpt>
      <trkpt lat="48.46271" lon="7.4305">
        <ele>243.63671875</ele>
        <time>2017-06-11T07:11:47.000Z</time>
      </trkpt>
      <trkpt lat="48.46262" lon="7.43048">
        <ele>244.052734375</ele>
        <time>2017-06-11T07:11:50.000Z</time>
      </trkpt>
      <trkpt lat="48.46251" lon="7.43045">
        <ele>244.46911621094</ele>
        <time>2017-06-11T07:11:53.000Z</time>
      </trkpt>
      <trkpt lat="48.46245" lon="7.43043">
        <ele>244.86067199707</ele>
        <time>2017-06-11T07:11:55.000Z</time>
      </trkpt>
      <trkpt lat="48.46241" lon="7.43042">
        <ele>245.21015930176</ele>
        <time>2017-06-11T07:11:57.000Z</time>
      </trkpt>
      <trkpt lat="48.46234" lon="7.43042">
        <ele>245.5146484375</ele>
        <time>2017-06-11T07:11:59.000Z</time>
      </trkpt>
      <trkpt lat="48.46226" lon="7.43041">
        <ele>245.79830932617</ele>
        <time>2017-06-11T07:12:02.000Z</time>
      </trkpt>
      <trkpt lat="48.46216" lon="7.4304">
        <ele>246.05575561523</ele>
        <time>2017-06-11T07:12:05.000Z</time>
      </trkpt>
      <trkpt lat="48.46205" lon="7.4304">
        <ele>246.3268737793</ele>
        <time>2017-06-11T07:12:08.000Z</time>
      </trkpt>
      <trkpt lat="48.46195" lon="7.43038">
        <ele>246.66494750977</ele>
        <time>2017-06-11T07:12:11.000Z</time>
      </trkpt>
      <trkpt lat="48.46189" lon="7.43035">
        <ele>247.03894042969</ele>
        <time>2017-06-11T07:12:13.000Z</time>
      </trkpt>
      <trkpt lat="48.4618" lon="7.43032">
        <ele>247.46598815918</ele>
        <time>2017-06-11T07:12:16.000Z</time>
      </trkpt>
      <trkpt lat="48.4617" lon="7.43029">
        <ele>247.95686340332</ele>
        <time>2017-06-11T07:12:19.000Z</time>
      </trkpt>
      <trkpt lat="48.46164" lon="7.43027">
        <ele>248.47518920898</ele>
        <time>2017-06-11T07:12:21.000Z</time>
      </trkpt>
      <trkpt lat="48.46156" lon="7.43023">
        <ele>249.02021789551</ele>
        <time>2017-06-11T07:12:24.000Z</time>
      </trkpt>
      <trkpt lat="48.46151" lon="7.43022">
        <ele>249.5640411377</ele>
        <time>2017-06-11T07:12:26.000Z</time>
      </trkpt>
      <trkpt lat="48.46144" lon="7.43019">
        <ele>250.10629272461</ele>
        <time>2017-06-11T07:12:29.000Z</time>
      </trkpt>
      <trkpt lat="48.46138" lon="7.43015">
        <ele>250.64179992676</ele>
        <time>2017-06-11T07:12:31.000Z</time>
      </trkpt>
      <trkpt lat="48.46132" lon="7.43011">
        <ele>251.19577026367</ele>
        <time>2017-06-11T07:12:33.000Z</time>
      </trkpt>
      <trkpt lat="48.46125" lon="7.43007">
        <ele>251.7474822998</ele>
        <time>2017-06-11T07:12:36.000Z</time>
      </trkpt>
      <trkpt lat="48.4612" lon="7.43004">
        <ele>252.3069152832</ele>
        <time>2017-06-11T07:12:38.000Z</time>
      </trkpt>
      <trkpt lat="48.46111" lon="7.43001">
        <ele>252.86404418945</ele>
        <time>2017-06-11T07:12:41.000Z</time>
      </trkpt>
      <trkpt lat="48.46106" lon="7.42999">
        <ele>253.37576293945</ele>
        <time>2017-06-11T07:12:43.000Z</time>
      </trkpt>
      <trkpt lat="48.461" lon="7.42996">
        <ele>253.86801147461</ele>
        <time>2017-06-11T07:12:46.000Z</time>
      </trkpt>
      <trkpt lat="48.46097" lon="7.42994">
        <ele>254.30342102051</ele>
        <time>2017-06-11T07:12:48.000Z</time>
      </trkpt>
      <trkpt lat="48.46091" lon="7.42987">
        <ele>254.82804870605</ele>
        <time>2017-06-11T07:12:51.000Z</time>
      </trkpt>
      <trkpt lat="48.46087" lon="7.42979">
        <ele>255.4140625</ele>
        <time>2017-06-11T07:12:54.000Z</time>
      </trkpt>
      <trkpt lat="48.46082" lon="7.42973">
        <ele>256.07528686523</ele>
        <time>2017-06-11T07:12:57.000Z</time>
      </trkpt>
      <trkpt lat="48.46078" lon="7.42967">
        <ele>256.75140380859</ele>
        <time>2017-06-11T07:12:59.000Z</time>
      </trkpt>
      <trkpt lat="48.46078" lon="7.42962">
        <ele>257.4599609375</ele>
        <time>2017-06-11T07:13:01.000Z</time>
      </trkpt>
      <trkpt lat="48.4608" lon="7.42955">
        <ele>258.12176513672</ele>
        <time>2017-06-11T07:13:04.000Z</time>
      </trkpt>
      <trkpt lat="48.46082" lon="7.42948">
        <ele>258.75466918945</ele>
        <time>2017-06-11T07:13:07.000Z</time>
      </trkpt>
      <trkpt lat="48.46085" lon="7.42939">
        <ele>259.38250732422</ele>
        <time>2017-06-11T07:13:10.000Z</time>
      </trkpt>
      <trkpt lat="48.46087" lon="7.42932">
        <ele>260.03842163086</ele>
        <time>2017-06-11T07:13:13.000Z</time>
      </trkpt>
      <trkpt lat="48.46088" lon="7.42926">
        <ele>260.69216918945</ele>
        <time>2017-06-11T07:13:15.000Z</time>
      </trkpt>
      <trkpt lat="48.46091" lon="7.42917">
        <ele>261.37213134766</ele>
        <time>2017-06-11T07:13:18.000Z</time>
      </trkpt>
      <trkpt lat="48.46094" lon="7.42911">
        <ele>262.03872680664</ele>
        <time>2017-06-11T07:13:21.000Z</time>
      </trkpt>
      <trkpt lat="48.46096" lon="7.42907">
        <ele>262.646484375</ele>
        <time>2017-06-11T07:13:23.000Z</time>
      </trkpt>
      <trkpt lat="48.46098" lon="7.42905">
        <ele>263.17724609375</ele>
        <time>2017-06-11T07:13:25.000Z</time>
      </trkpt>
      <trkpt lat="48.46101" lon="7.42903">
        <ele>263.64233398438</ele>
        <time>2017-06-11T07:13:28.000Z</time>
      </trkpt>
      <trkpt lat="48.46103" lon="7.429">
        <ele>264.01846313477</ele>
        <time>2017-06-11T07:13:30.000Z</time>
      </trkpt>
      <trkpt lat="48.46104" lon="7.42896">
        <ele>264.35751342773</ele>
        <time>2017-06-11T07:13:32.000Z</time>
      </trkpt>
      <trkpt lat="48.46106" lon="7.42891">
        <ele>264.71914672852</ele>
        <time>2017-06-11T07:13:34.000Z</time>
      </trkpt>
      <trkpt lat="48.46109" lon="7.42888">
        <ele>265.09805297852</ele>
        <time>2017-06-11T07:13:37.000Z</time>
      </trkpt>
      <trkpt lat="48.46112" lon="7.42884">
        <ele>265.53988647461</ele>
        <time>2017-06-11T07:13:39.000Z</time>
      </trkpt>
      <trkpt lat="48.46117" lon="7.42875">
        <ele>266.12222290039</ele>
        <time>2017-06-11T07:13:42.000Z</time>
      </trkpt>
      <trkpt lat="48.46119" lon="7.42871">
        <ele>266.71920776367</ele>
        <time>2017-06-11T07:13:44.000Z</time>
      </trkpt>
      <trkpt lat="48.46122" lon="7.42868">
        <ele>267.26806640625</ele>
        <time>2017-06-11T07:13:47.000Z</time>
      </trkpt>
      <trkpt lat="48.46123" lon="7.42868">
        <ele>267.72735595703</ele>
        <time>2017-06-11T07:13:49.000Z</time>
      </trkpt>
      <trkpt lat="48.46125" lon="7.42865">
        <ele>268.17059326172</ele>
        <time>2017-06-11T07:13:52.000Z</time>
      </trkpt>
      <trkpt lat="48.46128" lon="7.42861">
        <ele>268.49697875977</ele>
        <time>2017-06-11T07:13:55.000Z</time>
      </trkpt>
      <trkpt lat="48.46128" lon="7.42858">
        <ele>268.77825927734</ele>
        <time>2017-06-11T07:13:57.000Z</time>
      </trkpt>
      <trkpt lat="48.4613" lon="7.42854">
        <ele>269.12249755859</ele>
        <time>2017-06-11T07:14:00.000Z</time>
      </trkpt>
      <trkpt lat="48.46132" lon="7.42851">
        <ele>269.55255126953</ele>
        <time>2017-06-11T07:14:02.000Z</time>
      </trkpt>
      <trkpt lat="48.46134" lon="7.42848">
        <ele>269.96469116211</ele>
        <time>2017-06-11T07:14:05.000Z</time>
      </trkpt>
      <trkpt lat="48.46133" lon="7.42847">
        <ele>270.31793212891</ele>
        <time>2017-06-11T07:14:07.000Z</time>
      </trkpt>
      <trkpt lat="48.46135" lon="7.42846">
        <ele>270.64004516602</ele>
        <time>2017-06-11T07:14:14.000Z</time>
      </trkpt>
      <trkpt lat="48.46137" lon="7.42842">
        <ele>270.93109130859</ele>
        <time>2017-06-11T07:14:17.000Z</time>
      </trkpt>
      <trkpt lat="48.46139" lon="7.42838">
        <ele>271.2477722168</ele>
        <time>2017-06-11T07:14:20.000Z</time>
      </trkpt>
      <trkpt lat="48.46141" lon="7.42835">
        <ele>271.57861328125</ele>
        <time>2017-06-11T07:14:22.000Z</time>
      </trkpt>
      <trkpt lat="48.46144" lon="7.42831">
        <ele>271.97470092773</ele>
        <time>2017-06-11T07:14:24.000Z</time>
      </trkpt>
      <trkpt lat="48.46147" lon="7.42825">
        <ele>272.52682495117</ele>
        <time>2017-06-11T07:14:26.000Z</time>
      </trkpt>
      <trkpt lat="48.46149" lon="7.4282">
        <ele>273.14642333984</ele>
        <time>2017-06-11T07:14:28.000Z</time>
      </trkpt>
      <trkpt lat="48.46152" lon="7.42816">
        <ele>273.81121826172</ele>
        <time>2017-06-11T07:14:31.000Z</time>
      </trkpt>
      <trkpt lat="48.46152" lon="7.42814">
        <ele>274.46459960938</ele>
        <time>2017-06-11T07:14:33.000Z</time>
      </trkpt>
      <trkpt lat="48.46152" lon="7.42812">
        <ele>275.09057617188</ele>
        <time>2017-06-11T07:14:37.000Z</time>
      </trkpt>
      <trkpt lat="48.46153" lon="7.42809">
        <ele>275.599609375</ele>
        <time>2017-06-11T07:14:40.000Z</time>
      </trkpt>
      <trkpt lat="48.46155" lon="7.42807">
        <ele>276.01489257812</ele>
        <time>2017-06-11T07:14:42.000Z</time>
      </trkpt>
      <trkpt lat="48.46157" lon="7.42804">
        <ele>276.38940429688</ele>
        <time>2017-06-11T07:14:44.000Z</time>
      </trkpt>
      <trkpt lat="48.46158" lon="7.428">
        <ele>276.82348632812</ele>
        <time>2017-06-11T07:14:46.000Z</time>
      </trkpt>
      <trkpt lat="48.46161" lon="7.42794">
        <ele>277.38696289062</ele>
        <time>2017-06-11T07:14:49.000Z</time>
      </trkpt>
      <trkpt lat="48.46164" lon="7.4279">
        <ele>278.00268554688</ele>
        <time>2017-06-11T07:14:51.000Z</time>
      </trkpt>
      <trkpt lat="48.46169" lon="7.42785">
        <ele>278.61303710938</ele>
        <time>2017-06-11T07:14:54.000Z</time>
      </trkpt>
      <trkpt lat="48.4617" lon="7.42779">
        <ele>279.21835327148</ele>
        <time>2017-06-11T07:14:57.000Z</time>
      </trkpt>
      <trkpt lat="48.46171" lon="7.42774">
        <ele>279.86508178711</ele>
        <time>2017-06-11T07:15:00.000Z</time>
      </trkpt>
      <trkpt lat="48.46172" lon="7.4277">
        <ele>280.38906860352</ele>
        <time>2017-06-11T07:15:03.000Z</time>
      </trkpt>
      <trkpt lat="48.46173" lon="7.42768">
        <ele>280.81292724609</ele>
        <time>2017-06-11T07:15:05.000Z</time>
      </trkpt>
      <trkpt lat="48.46175" lon="7.42765">
        <ele>281.14184570312</ele>
        <time>2017-06-11T07:15:08.000Z</time>
      </trkpt>
      <trkpt lat="48.46176" lon="7.4276">
        <ele>281.50024414062</ele>
        <time>2017-06-11T07:15:11.000Z</time>
      </trkpt>
      <trkpt lat="48.46177" lon="7.42757">
        <ele>281.73840332031</ele>
        <time>2017-06-11T07:15:13.000Z</time>
      </trkpt>
      <trkpt lat="48.46178" lon="7.42755">
        <ele>281.93008422852</ele>
        <time>2017-06-11T07:15:15.000Z</time>
      </trkpt>
      <trkpt lat="48.46179" lon="7.42753">
        <ele>282.09985351562</ele>
        <time>2017-06-11T07:15:17.000Z</time>
      </trkpt>
      <trkpt lat="48.46182" lon="7.42751">
        <ele>282.22262573242</ele>
        <time>2017-06-11T07:15:19.000Z</time>
      </trkpt>
      <trkpt lat="48.46183" lon="7.42749">
        <ele>282.22015380859</ele>
        <time>2017-06-11T07:15:21.000Z</time>
      </trkpt>
      <trkpt lat="48.46186" lon="7.42743">
        <ele>282.13491821289</ele>
        <time>2017-06-11T07:15:24.000Z</time>
      </trkpt>
      <trkpt lat="48.46188" lon="7.42738">
        <ele>281.99365234375</ele>
        <time>2017-06-11T07:15:26.000Z</time>
      </trkpt>
      <trkpt lat="48.46191" lon="7.42733">
        <ele>281.77520751953</ele>
        <time>2017-06-11T07:15:29.000Z</time>
      </trkpt>
      <trkpt lat="48.46192" lon="7.42732">
        <ele>281.64102172852</ele>
        <time>2017-06-11T07:15:31.000Z</time>
      </trkpt>
      <trkpt lat="48.46192" lon="7.4273">
        <ele>281.51840209961</ele>
        <time>2017-06-11T07:15:33.000Z</time>
      </trkpt>
      <trkpt lat="48.46193" lon="7.42725">
        <ele>281.45718383789</ele>
        <time>2017-06-11T07:15:36.000Z</time>
      </trkpt>
      <trkpt lat="48.46194" lon="7.42718">
        <ele>281.53530883789</ele>
        <time>2017-06-11T07:15:39.000Z</time>
      </trkpt>
      <trkpt lat="48.46194" lon="7.42715">
        <ele>281.75769042969</ele>
        <time>2017-06-11T07:15:41.000Z</time>
      </trkpt>
      <trkpt lat="48.46195" lon="7.4271">
        <ele>281.98648071289</ele>
        <time>2017-06-11T07:15:44.000Z</time>
      </trkpt>
      <trkpt lat="48.46196" lon="7.42706">
        <ele>282.24053955078</ele>
        <time>2017-06-11T07:15:46.000Z</time>
      </trkpt>
      <trkpt lat="48.46197" lon="7.42701">
        <ele>282.52087402344</ele>
        <time>2017-06-11T07:15:48.000Z</time>
      </trkpt>
      <trkpt lat="48.46198" lon="7.42693">
        <ele>282.77093505859</ele>
        <time>2017-06-11T07:15:51.000Z</time>
      </trkpt>
      <trkpt lat="48.46199" lon="7.42687">
        <ele>283.01812744141</ele>
        <time>2017-06-11T07:15:53.000Z</time>
      </trkpt>
      <trkpt lat="48.46199" lon="7.4268">
        <ele>283.34725952148</ele>
        <time>2017-06-11T07:15:56.000Z</time>
      </trkpt>
      <trkpt lat="48.46199" lon="7.42673">
        <ele>283.76147460938</ele>
        <time>2017-06-11T07:15:59.000Z</time>
      </trkpt>
      <trkpt lat="48.462" lon="7.42669">
        <ele>284.17083740234</ele>
        <time>2017-06-11T07:16:01.000Z</time>
      </trkpt>
      <trkpt lat="48.46201" lon="7.42663">
        <ele>284.61065673828</ele>
        <time>2017-06-11T07:16:04.000Z</time>
      </trkpt>
      <trkpt lat="48.46201" lon="7.42659">
        <ele>285.05599975586</ele>
        <time>2017-06-11T07:16:07.000Z</time>
      </trkpt>
      <trkpt lat="48.46202" lon="7.42655">
        <ele>285.42730712891</ele>
        <time>2017-06-11T07:16:10.000Z</time>
      </trkpt>
      <trkpt lat="48.46203" lon="7.42652">
        <ele>285.71978759766</ele>
        <time>2017-06-11T07:16:12.000Z</time>
      </trkpt>
      <trkpt lat="48.46203" lon="7.42647">
        <ele>286.10580444336</ele>
        <time>2017-06-11T07:16:15.000Z</time>
      </trkpt>
      <trkpt lat="48.46203" lon="7.42645">
        <ele>286.40454101562</ele>
        <time>2017-06-11T07:16:17.000Z</time>
      </trkpt>
      <trkpt lat="48.46203" lon="7.42643">
        <ele>286.68511962891</ele>
        <time>2017-06-11T07:16:20.000Z</time>
      </trkpt>
      <trkpt lat="48.46204" lon="7.42639">
        <ele>287.00903320312</ele>
        <time>2017-06-11T07:16:23.000Z</time>
      </trkpt>
      <trkpt lat="48.46204" lon="7.42637">
        <ele>287.32110595703</ele>
        <time>2017-06-11T07:16:25.000Z</time>
      </trkpt>
      <trkpt lat="48.46204" lon="7.42635">
        <ele>287.55426025391</ele>
        <time>2017-06-11T07:16:27.000Z</time>
      </trkpt>
      <trkpt lat="48.46204" lon="7.42632">
        <ele>287.82464599609</ele>
        <time>2017-06-11T07:16:29.000Z</time>
      </trkpt>
      <trkpt lat="48.46205" lon="7.42627">
        <ele>288.13079833984</ele>
        <time>2017-06-11T07:16:31.000Z</time>
      </trkpt>
      <trkpt lat="48.46206" lon="7.42623">
        <ele>288.44723510742</ele>
        <time>2017-06-11T07:16:34.000Z</time>
      </trkpt>
      <trkpt lat="48.46206" lon="7.42616">
        <ele>288.87783813477</ele>
        <time>2017-06-11T07:16:37.000Z</time>
      </trkpt>
      <trkpt lat="48.46207" lon="7.42609">
        <ele>289.38562011719</ele>
        <time>2017-06-11T07:16:40.000Z</time>
      </trkpt>
      <trkpt lat="48.46206" lon="7.42604">
        <ele>289.97332763672</ele>
        <time>2017-06-11T07:16:42.000Z</time>
      </trkpt>
      <trkpt lat="48.46207" lon="7.42598">
        <ele>290.60229492188</ele>
        <time>2017-06-11T07:16:44.000Z</time>
      </trkpt>
      <trkpt lat="48.46208" lon="7.42591">
        <ele>291.28305053711</ele>
        <time>2017-06-11T07:16:47.000Z</time>
      </trkpt>
      <trkpt lat="48.46209" lon="7.42584">
        <ele>291.95034790039</ele>
        <time>2017-06-11T07:16:50.000Z</time>
      </trkpt>
      <trkpt lat="48.4621" lon="7.42581">
        <ele>292.51455688477</ele>
        <time>2017-06-11T07:16:53.000Z</time>
      </trkpt>
      <trkpt lat="48.46213" lon="7.42575">
        <ele>292.947265625</ele>
        <time>2017-06-11T07:16:56.000Z</time>
      </trkpt>
      <trkpt lat="48.46214" lon="7.42572">
        <ele>293.26010131836</ele>
        <time>2017-06-11T07:16:58.000Z</time>
      </trkpt>
      <trkpt lat="48.46216" lon="7.42568">
        <ele>293.42895507812</ele>
        <time>2017-06-11T07:17:01.000Z</time>
      </trkpt>
      <trkpt lat="48.46218" lon="7.42563">
        <ele>293.50247192383</ele>
        <time>2017-06-11T07:17:04.000Z</time>
      </trkpt>
      <trkpt lat="48.46218" lon="7.42557">
        <ele>293.68170166016</ele>
        <time>2017-06-11T07:17:07.000Z</time>
      </trkpt>
      <trkpt lat="48.46219" lon="7.42553">
        <ele>293.88705444336</ele>
        <time>2017-06-11T07:17:09.000Z</time>
      </trkpt>
      <trkpt lat="48.4622" lon="7.4255">
        <ele>294.13189697266</ele>
        <time>2017-06-11T07:17:11.000Z</time>
      </trkpt>
      <trkpt lat="48.4622" lon="7.42547">
        <ele>294.44842529297</ele>
        <time>2017-06-11T07:17:13.000Z</time>
      </trkpt>
      <trkpt lat="48.46221" lon="7.42543">
        <ele>294.78265380859</ele>
        <time>2017-06-11T07:17:16.000Z</time>
      </trkpt>
      <trkpt lat="48.46222" lon="7.4254">
        <ele>294.98028564453</ele>
        <time>2017-06-11T07:17:19.000Z</time>
      </trkpt>
      <trkpt lat="48.46224" lon="7.42537">
        <ele>295.15560913086</ele>
        <time>2017-06-11T07:17:22.000Z</time>
      </trkpt>
      <trkpt lat="48.46227" lon="7.42534">
        <ele>295.23388671875</ele>
        <time>2017-06-11T07:17:24.000Z</time>
      </trkpt>
      <trkpt lat="48.46228" lon="7.4253">
        <ele>295.30087280273</ele>
        <time>2017-06-11T07:17:26.000Z</time>
      </trkpt>
      <trkpt lat="48.46228" lon="7.42523">
        <ele>295.43096923828</ele>
        <time>2017-06-11T07:17:29.000Z</time>
      </trkpt>
      <trkpt lat="48.46229" lon="7.42518">
        <ele>295.63592529297</ele>
        <time>2017-06-11T07:17:31.000Z</time>
      </trkpt>
      <trkpt lat="48.4623" lon="7.42509">
        <ele>296.00924682617</ele>
        <time>2017-06-11T07:17:34.000Z</time>
      </trkpt>
      <trkpt lat="48.4623" lon="7.42501">
        <ele>296.59954833984</ele>
        <time>2017-06-11T07:17:36.000Z</time>
      </trkpt>
      <trkpt lat="48.46231" lon="7.42492">
        <ele>297.29891967773</ele>
        <time>2017-06-11T07:17:39.000Z</time>
      </trkpt>
      <trkpt lat="48.46231" lon="7.42483">
        <ele>298.08047485352</ele>
        <time>2017-06-11T07:17:42.000Z</time>
      </trkpt>
      <trkpt lat="48.46232" lon="7.42469">
        <ele>299.04730224609</ele>
        <time>2017-06-11T07:17:45.000Z</time>
      </trkpt>
      <trkpt lat="48.46233" lon="7.42457">
        <ele>300.07345581055</ele>
        <time>2017-06-11T07:17:48.000Z</time>
      </trkpt>
      <trkpt lat="48.46232" lon="7.4245">
        <ele>301.12573242188</ele>
        <time>2017-06-11T07:17:50.000Z</time>
      </trkpt>
      <trkpt lat="48.46233" lon="7.42439">
        <ele>302.2177734375</ele>
        <time>2017-06-11T07:17:53.000Z</time>
      </trkpt>
      <trkpt lat="48.46236" lon="7.4243">
        <ele>303.16369628906</ele>
        <time>2017-06-11T07:17:56.000Z</time>
      </trkpt>
      <trkpt lat="48.46238" lon="7.42424">
        <ele>303.88879394531</ele>
        <time>2017-06-11T07:17:58.000Z</time>
      </trkpt>
      <trkpt lat="48.4624" lon="7.42417">
        <ele>304.41943359375</ele>
        <time>2017-06-11T07:18:01.000Z</time>
      </trkpt>
      <trkpt lat="48.46242" lon="7.42411">
        <ele>304.81097412109</ele>
        <time>2017-06-11T07:18:03.000Z</time>
      </trkpt>
      <trkpt lat="48.46243" lon="7.42404">
        <ele>305.09713745117</ele>
        <time>2017-06-11T07:18:05.000Z</time>
      </trkpt>
      <trkpt lat="48.46246" lon="7.42394">
        <ele>305.40737915039</ele>
        <time>2017-06-11T07:18:08.000Z</time>
      </trkpt>
      <trkpt lat="48.46249" lon="7.42385">
        <ele>305.69549560547</ele>
        <time>2017-06-11T07:18:11.000Z</time>
      </trkpt>
      <trkpt lat="48.46251" lon="7.42376">
        <ele>305.99438476562</ele>
        <time>2017-06-11T07:18:14.000Z</time>
      </trkpt>
      <trkpt lat="48.46253" lon="7.42369">
        <ele>306.23773193359</ele>
        <time>2017-06-11T07:18:16.000Z</time>
      </trkpt>
      <trkpt lat="48.46256" lon="7.42358">
        <ele>306.46087646484</ele>
        <time>2017-06-11T07:18:19.000Z</time>
      </trkpt>
      <trkpt lat="48.46257" lon="7.42351">
        <ele>306.65921020508</ele>
        <time>2017-06-11T07:18:21.000Z</time>
      </trkpt>
      <trkpt lat="48.46262" lon="7.42343">
        <ele>306.77401733398</ele>
        <time>2017-06-11T07:18:24.000Z</time>
      </trkpt>
      <trkpt lat="48.46265" lon="7.42336">
        <ele>306.75323486328</ele>
        <time>2017-06-11T07:18:27.000Z</time>
      </trkpt>
      <trkpt lat="48.46267" lon="7.42327">
        <ele>306.84405517578</ele>
        <time>2017-06-11T07:18:30.000Z</time>
      </trkpt>
      <trkpt lat="48.4627" lon="7.42319">
        <ele>306.96728515625</ele>
        <time>2017-06-11T07:18:33.000Z</time>
      </trkpt>
      <trkpt lat="48.46274" lon="7.42311">
        <ele>306.98614501953</ele>
        <time>2017-06-11T07:18:36.000Z</time>
      </trkpt>
      <trkpt lat="48.46275" lon="7.42308">
        <ele>307.11828613281</ele>
        <time>2017-06-11T07:18:38.000Z</time>
      </trkpt>
      <trkpt lat="48.46277" lon="7.42303">
        <ele>307.35656738281</ele>
        <time>2017-06-11T07:18:40.000Z</time>
      </trkpt>
      <trkpt lat="48.46276" lon="7.42299">
        <ele>307.60000610352</ele>
        <time>2017-06-11T07:18:42.000Z</time>
      </trkpt>
      <trkpt lat="48.46275" lon="7.42293">
        <ele>307.98217773438</ele>
        <time>2017-06-11T07:18:45.000Z</time>
      </trkpt>
      <trkpt lat="48.46276" lon="7.42288">
        <ele>308.48260498047</ele>
        <time>2017-06-11T07:18:48.000Z</time>
      </trkpt>
      <trkpt lat="48.46277" lon="7.42282">
        <ele>309.06549072266</ele>
        <time>2017-06-11T07:18:51.000Z</time>
      </trkpt>
      <trkpt lat="48.46276" lon="7.42277">
        <ele>309.78253173828</ele>
        <time>2017-06-11T07:18:53.000Z</time>
      </trkpt>
      <trkpt lat="48.46276" lon="7.4227">
        <ele>310.56079101562</ele>
        <time>2017-06-11T07:18:56.000Z</time>
      </trkpt>
      <trkpt lat="48.46278" lon="7.42264">
        <ele>311.13580322266</ele>
        <time>2017-06-11T07:18:59.000Z</time>
      </trkpt>
      <trkpt lat="48.46281" lon="7.42258">
        <ele>311.69247436523</ele>
        <time>2017-06-11T07:19:02.000Z</time>
      </trkpt>
      <trkpt lat="48.46283" lon="7.4225">
        <ele>312.23370361328</ele>
        <time>2017-06-11T07:19:05.000Z</time>
      </trkpt>
      <trkpt lat="48.46285" lon="7.42241">
        <ele>312.61578369141</ele>
        <time>2017-06-11T07:19:08.000Z</time>
      </trkpt>
      <trkpt lat="48.46288" lon="7.42235">
        <ele>312.79559326172</ele>
        <time>2017-06-11T07:19:10.000Z</time>
      </trkpt>
      <trkpt lat="48.46289" lon="7.42229">
        <ele>312.99374389648</ele>
        <time>2017-06-11T07:19:12.000Z</time>
      </trkpt>
      <trkpt lat="48.46289" lon="7.42222">
        <ele>313.25347900391</ele>
        <time>2017-06-11T07:19:14.000Z</time>
      </trkpt>
      <trkpt lat="48.46289" lon="7.42209">
        <ele>313.56719970703</ele>
        <time>2017-06-11T07:19:17.000Z</time>
      </trkpt>
      <trkpt lat="48.46291" lon="7.42202">
        <ele>313.89324951172</ele>
        <time>2017-06-11T07:19:19.000Z</time>
      </trkpt>
      <trkpt lat="48.46296" lon="7.42194">
        <ele>314.2138671875</ele>
        <time>2017-06-11T07:19:22.000Z</time>
      </trkpt>
      <trkpt lat="48.46299" lon="7.42189">
        <ele>314.48602294922</ele>
        <time>2017-06-11T07:19:24.000Z</time>
      </trkpt>
      <trkpt lat="48.46302" lon="7.42182">
        <ele>314.66961669922</ele>
        <time>2017-06-11T07:19:27.000Z</time>
      </trkpt>
      <trkpt lat="48.46304" lon="7.42175">
        <ele>314.73007202148</ele>
        <time>2017-06-11T07:19:30.000Z</time>
      </trkpt>
      <trkpt lat="48.46307" lon="7.42164">
        <ele>314.88342285156</ele>
        <time>2017-06-11T07:19:33.000Z</time>
      </trkpt>
      <trkpt lat="48.46309" lon="7.42153">
        <ele>315.08615112305</ele>
        <time>2017-06-11T07:19:36.000Z</time>
      </trkpt>
      <trkpt lat="48.4631" lon="7.42145">
        <ele>315.31341552734</ele>
        <time>2017-06-11T07:19:38.000Z</time>
      </trkpt>
      <trkpt lat="48.46311" lon="7.42135">
        <ele>315.57464599609</ele>
        <time>2017-06-11T07:19:41.000Z</time>
      </trkpt>
      <trkpt lat="48.46311" lon="7.42129">
        <ele>315.81823730469</ele>
        <time>2017-06-11T07:19:43.000Z</time>
      </trkpt>
      <trkpt lat="48.46311" lon="7.42121">
        <ele>316.01287841797</ele>
        <time>2017-06-11T07:19:46.000Z</time>
      </trkpt>
      <trkpt lat="48.4631" lon="7.42111">
        <ele>316.26623535156</ele>
        <time>2017-06-11T07:19:49.000Z</time>
      </trkpt>
      <trkpt lat="48.46311" lon="7.42104">
        <ele>316.52777099609</ele>
        <time>2017-06-11T07:19:51.000Z</time>
      </trkpt>
      <trkpt lat="48.46309" lon="7.42092">
        <ele>316.83807373047</ele>
        <time>2017-06-11T07:19:54.000Z</time>
      </trkpt>
      <trkpt lat="48.4631" lon="7.42084">
        <ele>317.15243530273</ele>
        <time>2017-06-11T07:19:56.000Z</time>
      </trkpt>
      <trkpt lat="48.46311" lon="7.42075">
        <ele>317.32855224609</ele>
        <time>2017-06-11T07:19:58.000Z</time>
      </trkpt>
      <trkpt lat="48.46312" lon="7.42063">
        <ele>317.29931640625</ele>
        <time>2017-06-11T07:20:00.000Z</time>
      </trkpt>
      <trkpt lat="48.46311" lon="7.42047">
        <ele>317.11093139648</ele>
        <time>2017-06-11T07:20:03.000Z</time>
      </trkpt>
      <trkpt lat="48.46309" lon="7.42038">
        <ele>316.76275634766</ele>
        <time>2017-06-11T07:20:05.000Z</time>
      </trkpt>
      <trkpt lat="48.46309" lon="7.42028">
        <ele>316.30062866211</ele>
        <time>2017-06-11T07:20:07.000Z</time>
      </trkpt>
      <trkpt lat="48.46308" lon="7.42014">
        <ele>315.8203125</ele>
        <time>2017-06-11T07:20:10.000Z</time>
      </trkpt>
      <trkpt lat="48.46306" lon="7.42004">
        <ele>315.43011474609</ele>
        <time>2017-06-11T07:20:12.000Z</time>
      </trkpt>
      <trkpt lat="48.46306" lon="7.41989">
        <ele>315.04891967773</ele>
        <time>2017-06-11T07:20:15.000Z</time>
      </trkpt>
      <trkpt lat="48.46304" lon="7.41974">
        <ele>314.65878295898</ele>
        <time>2017-06-11T07:20:18.000Z</time>
      </trkpt>
      <trkpt lat="48.46299" lon="7.41956">
        <ele>314.34259033203</ele>
        <time>2017-06-11T07:20:21.000Z</time>
      </trkpt>
      <trkpt lat="48.46296" lon="7.41942">
        <ele>314.11810302734</ele>
        <time>2017-06-11T07:20:23.000Z</time>
      </trkpt>
      <trkpt lat="48.46291" lon="7.41921">
        <ele>313.92724609375</ele>
        <time>2017-06-11T07:20:26.000Z</time>
      </trkpt>
      <trkpt lat="48.46281" lon="7.41891">
        <ele>314.13031005859</ele>
        <time>2017-06-11T07:20:29.000Z</time>
      </trkpt>
      <trkpt lat="48.46275" lon="7.41873">
        <ele>314.59454345703</ele>
        <time>2017-06-11T07:20:31.000Z</time>
      </trkpt>
      <trkpt lat="48.46275" lon="7.41859">
        <ele>315.10037231445</ele>
        <time>2017-06-11T07:20:33.000Z</time>
      </trkpt>
      <trkpt lat="48.46273" lon="7.41845">
        <ele>315.64590454102</ele>
        <time>2017-06-11T07:20:35.000Z</time>
      </trkpt>
      <trkpt lat="48.46271" lon="7.41828">
        <ele>316.29672241211</ele>
        <time>2017-06-11T07:20:38.000Z</time>
      </trkpt>
      <trkpt lat="48.46267" lon="7.41812">
        <ele>316.78265380859</ele>
        <time>2017-06-11T07:20:41.000Z</time>
      </trkpt>
      <trkpt lat="48.46264" lon="7.41798">
        <ele>317.1676940918</ele>
        <time>2017-06-11T07:20:43.000Z</time>
      </trkpt>
      <trkpt lat="48.46259" lon="7.41786">
        <ele>317.62216186523</ele>
        <time>2017-06-11T07:20:46.000Z</time>
      </trkpt>
      <trkpt lat="48.46251" lon="7.41769">
        <ele>318.13931274414</ele>
        <time>2017-06-11T07:20:49.000Z</time>
      </trkpt>
      <trkpt lat="48.46248" lon="7.4176">
        <ele>318.57647705078</ele>
        <time>2017-06-11T07:20:51.000Z</time>
      </trkpt>
      <trkpt lat="48.46253" lon="7.41753">
        <ele>318.81857299805</ele>
        <time>2017-06-11T07:20:53.000Z</time>
      </trkpt>
      <trkpt lat="48.46267" lon="7.41755">
        <ele>318.81274414062</ele>
        <time>2017-06-11T07:20:56.000Z</time>
      </trkpt>
      <trkpt lat="48.4628" lon="7.4176">
        <ele>318.54632568359</ele>
        <time>2017-06-11T07:20:59.000Z</time>
      </trkpt>
      <trkpt lat="48.46292" lon="7.41765">
        <ele>318.00228881836</ele>
        <time>2017-06-11T07:21:02.000Z</time>
      </trkpt>
      <trkpt lat="48.46299" lon="7.41769">
        <ele>317.31414794922</ele>
        <time>2017-06-11T07:21:04.000Z</time>
      </trkpt>
      <trkpt lat="48.46309" lon="7.41774">
        <ele>316.50561523438</ele>
        <time>2017-06-11T07:21:07.000Z</time>
      </trkpt>
      <trkpt lat="48.46319" lon="7.41777">
        <ele>315.64840698242</ele>
        <time>2017-06-11T07:21:10.000Z</time>
      </trkpt>
      <trkpt lat="48.46329" lon="7.41778">
        <ele>314.77661132812</ele>
        <time>2017-06-11T07:21:13.000Z</time>
      </trkpt>
      <trkpt lat="48.46337" lon="7.41778">
        <ele>314.00436401367</ele>
        <time>2017-06-11T07:21:15.000Z</time>
      </trkpt>
      <trkpt lat="48.46344" lon="7.41778">
        <ele>313.29272460938</ele>
        <time>2017-06-11T07:21:17.000Z</time>
      </trkpt>
      <trkpt lat="48.4635" lon="7.41778">
        <ele>312.73443603516</ele>
        <time>2017-06-11T07:21:19.000Z</time>
      </trkpt>
      <trkpt lat="48.46358" lon="7.41777">
        <ele>312.32733154297</ele>
        <time>2017-06-11T07:21:22.000Z</time>
      </trkpt>
      <trkpt lat="48.46365" lon="7.41776">
        <ele>312.08154296875</ele>
        <time>2017-06-11T07:21:24.000Z</time>
      </trkpt>
      <trkpt lat="48.46373" lon="7.41774">
        <ele>311.89071655273</ele>
        <time>2017-06-11T07:21:27.000Z</time>
      </trkpt>
      <trkpt lat="48.46382" lon="7.41773">
        <ele>311.72451782227</ele>
        <time>2017-06-11T07:21:30.000Z</time>
      </trkpt>
      <trkpt lat="48.46388" lon="7.41772">
        <ele>311.58380126953</ele>
        <time>2017-06-11T07:21:32.000Z</time>
      </trkpt>
      <trkpt lat="48.46397" lon="7.41769">
        <ele>311.486328125</ele>
        <time>2017-06-11T07:21:35.000Z</time>
      </trkpt>
      <trkpt lat="48.46404" lon="7.41767">
        <ele>311.41751098633</ele>
        <time>2017-06-11T07:21:37.000Z</time>
      </trkpt>
      <trkpt lat="48.4641" lon="7.41764">
        <ele>311.38973999023</ele>
        <time>2017-06-11T07:21:39.000Z</time>
      </trkpt>
      <trkpt lat="48.46419" lon="7.41761">
        <ele>311.41583251953</ele>
        <time>2017-06-11T07:21:42.000Z</time>
      </trkpt>
      <trkpt lat="48.46428" lon="7.41757">
        <ele>311.47796630859</ele>
        <time>2017-06-11T07:21:45.000Z</time>
      </trkpt>
      <trkpt lat="48.46434" lon="7.41754">
        <ele>311.56338500977</ele>
        <time>2017-06-11T07:21:47.000Z</time>
      </trkpt>
      <trkpt lat="48.46444" lon="7.41746">
        <ele>311.69204711914</ele>
        <time>2017-06-11T07:21:50.000Z</time>
      </trkpt>
      <trkpt lat="48.46449" lon="7.41738">
        <ele>311.89987182617</ele>
        <time>2017-06-11T07:21:52.000Z</time>
      </trkpt>
      <trkpt lat="48.46456" lon="7.41728">
        <ele>312.18670654297</ele>
        <time>2017-06-11T07:21:55.000Z</time>
      </trkpt>
      <trkpt lat="48.46461" lon="7.41717">
        <ele>312.57086181641</ele>
        <time>2017-06-11T07:21:58.000Z</time>
      </trkpt>
      <trkpt lat="48.46465" lon="7.41709">
        <ele>313.03460693359</ele>
        <time>2017-06-11T07:22:00.000Z</time>
      </trkpt>
      <trkpt lat="48.46468" lon="7.41701">
        <ele>313.51898193359</ele>
        <time>2017-06-11T07:22:02.000Z</time>
      </trkpt>
      <trkpt lat="48.46471" lon="7.41694">
        <ele>313.99792480469</ele>
        <time>2017-06-11T07:22:04.000Z</time>
      </trkpt>
      <trkpt lat="48.46474" lon="7.41683">
        <ele>314.51202392578</ele>
        <time>2017-06-11T07:22:07.000Z</time>
      </trkpt>
      <trkpt lat="48.46474" lon="7.41671">
        <ele>315.09100341797</ele>
        <time>2017-06-11T07:22:10.000Z</time>
      </trkpt>
      <trkpt lat="48.46474" lon="7.41662">
        <ele>315.70590209961</ele>
        <time>2017-06-11T07:22:13.000Z</time>
      </trkpt>
      <trkpt lat="48.46474" lon="7.41651">
        <ele>316.35638427734</ele>
        <time>2017-06-11T07:22:16.000Z</time>
      </trkpt>
      <trkpt lat="48.46474" lon="7.41644">
        <ele>316.99658203125</ele>
        <time>2017-06-11T07:22:19.000Z</time>
      </trkpt>
      <trkpt lat="48.46479" lon="7.41635">
        <ele>317.52105712891</ele>
        <time>2017-06-11T07:22:22.000Z</time>
      </trkpt>
      <trkpt lat="48.46486" lon="7.41623">
        <ele>317.88848876953</ele>
        <time>2017-06-11T07:22:25.000Z</time>
      </trkpt>
      <trkpt lat="48.4649" lon="7.41615">
        <ele>318.12567138672</ele>
        <time>2017-06-11T07:22:27.000Z</time>
      </trkpt>
      <trkpt lat="48.46496" lon="7.41606">
        <ele>318.24090576172</ele>
        <time>2017-06-11T07:22:29.000Z</time>
      </trkpt>
      <trkpt lat="48.46502" lon="7.41597">
        <ele>318.23248291016</ele>
        <time>2017-06-11T07:22:31.000Z</time>
      </trkpt>
      <trkpt lat="48.4651" lon="7.41583">
        <ele>318.10052490234</ele>
        <time>2017-06-11T07:22:34.000Z</time>
      </trkpt>
      <trkpt lat="48.46515" lon="7.41569">
        <ele>317.90570068359</ele>
        <time>2017-06-11T07:22:37.000Z</time>
      </trkpt>
      <trkpt lat="48.46518" lon="7.4155">
        <ele>317.81021118164</ele>
        <time>2017-06-11T07:22:40.000Z</time>
      </trkpt>
      <trkpt lat="48.46519" lon="7.41529">
        <ele>317.8645324707</ele>
        <time>2017-06-11T07:22:43.000Z</time>
      </trkpt>
      <trkpt lat="48.46523" lon="7.41521">
        <ele>317.93505859375</ele>
        <time>2017-06-11T07:22:45.000Z</time>
      </trkpt>
      <trkpt lat="48.46532" lon="7.41507">
        <ele>317.96826171875</ele>
        <time>2017-06-11T07:22:48.000Z</time>
      </trkpt>
      <trkpt lat="48.46539" lon="7.41496">
        <ele>317.95001220703</ele>
        <time>2017-06-11T07:22:50.000Z</time>
      </trkpt>
      <trkpt lat="48.46542" lon="7.41488">
        <ele>317.82427978516</ele>
        <time>2017-06-11T07:22:52.000Z</time>
      </trkpt>
      <trkpt lat="48.46547" lon="7.41476">
        <ele>317.55908203125</ele>
        <time>2017-06-11T07:22:55.000Z</time>
      </trkpt>
      <trkpt lat="48.46554" lon="7.41462">
        <ele>317.26107788086</ele>
        <time>2017-06-11T07:22:58.000Z</time>
      </trkpt>
      <trkpt lat="48.4656" lon="7.41449">
        <ele>317.08636474609</ele>
        <time>2017-06-11T07:23:01.000Z</time>
      </trkpt>
      <trkpt lat="48.46565" lon="7.41438">
        <ele>316.97161865234</ele>
        <time>2017-06-11T07:23:03.000Z</time>
      </trkpt>
      <trkpt lat="48.46572" lon="7.41425">
        <ele>316.80123901367</ele>
        <time>2017-06-11T07:23:06.000Z</time>
      </trkpt>
      <trkpt lat="48.46578" lon="7.4141">
        <ele>316.63134765625</ele>
        <time>2017-06-11T07:23:09.000Z</time>
      </trkpt>
      <trkpt lat="48.46584" lon="7.414">
        <ele>316.51913452148</ele>
        <time>2017-06-11T07:23:11.000Z</time>
      </trkpt>
      <trkpt lat="48.4659" lon="7.41384">
        <ele>316.48406982422</ele>
        <time>2017-06-11T07:23:14.000Z</time>
      </trkpt>
      <trkpt lat="48.46595" lon="7.41371">
        <ele>316.55673217773</ele>
        <time>2017-06-11T07:23:16.000Z</time>
      </trkpt>
      <trkpt lat="48.46601" lon="7.41355">
        <ele>316.75173950195</ele>
        <time>2017-06-11T07:23:19.000Z</time>
      </trkpt>
      <trkpt lat="48.46604" lon="7.41344">
        <ele>317.05752563477</ele>
        <time>2017-06-11T07:23:21.000Z</time>
      </trkpt>
      <trkpt lat="48.46608" lon="7.41326">
        <ele>317.4518737793</ele>
        <time>2017-06-11T07:23:24.000Z</time>
      </trkpt>
      <trkpt lat="48.46612" lon="7.41307">
        <ele>317.82241821289</ele>
        <time>2017-06-11T07:23:27.000Z</time>
      </trkpt>
      <trkpt lat="48.46615" lon="7.41297">
        <ele>318.07666015625</ele>
        <time>2017-06-11T07:23:29.000Z</time>
      </trkpt>
      <trkpt lat="48.46618" lon="7.41287">
        <ele>318.2815246582</ele>
        <time>2017-06-11T07:23:31.000Z</time>
      </trkpt>
      <trkpt lat="48.46621" lon="7.41271">
        <ele>318.36975097656</ele>
        <time>2017-06-11T07:23:34.000Z</time>
      </trkpt>
      <trkpt lat="48.46624" lon="7.41259">
        <ele>318.35913085938</ele>
        <time>2017-06-11T07:23:36.000Z</time>
      </trkpt>
      <trkpt lat="48.46627" lon="7.41249">
        <ele>318.29052734375</ele>
        <time>2017-06-11T07:23:38.000Z</time>
      </trkpt>
      <trkpt lat="48.46633" lon="7.41227">
        <ele>318.29382324219</ele>
        <time>2017-06-11T07:23:41.000Z</time>
      </trkpt>
      <trkpt lat="48.46637" lon="7.41209">
        <ele>318.33935546875</ele>
        <time>2017-06-11T07:23:44.000Z</time>
      </trkpt>
      <trkpt lat="48.46643" lon="7.41196">
        <ele>318.33544921875</ele>
        <time>2017-06-11T07:23:47.000Z</time>
      </trkpt>
      <trkpt lat="48.46648" lon="7.41179">
        <ele>318.3291015625</ele>
        <time>2017-06-11T07:23:50.000Z</time>
      </trkpt>
      <trkpt lat="48.46652" lon="7.41167">
        <ele>318.35589599609</ele>
        <time>2017-06-11T07:23:52.000Z</time>
      </trkpt>
      <trkpt lat="48.46655" lon="7.41154">
        <ele>318.44393920898</ele>
        <time>2017-06-11T07:23:54.000Z</time>
      </trkpt>
      <trkpt lat="48.46659" lon="7.41137">
        <ele>318.61386108398</ele>
        <time>2017-06-11T07:23:57.000Z</time>
      </trkpt>
      <trkpt lat="48.46662" lon="7.41121">
        <ele>318.94235229492</ele>
        <time>2017-06-11T07:24:00.000Z</time>
      </trkpt>
      <trkpt lat="48.46665" lon="7.41111">
        <ele>319.34796142578</ele>
        <time>2017-06-11T07:24:02.000Z</time>
      </trkpt>
      <trkpt lat="48.46671" lon="7.41095">
        <ele>319.75384521484</ele>
        <time>2017-06-11T07:24:05.000Z</time>
      </trkpt>
      <trkpt lat="48.46675" lon="7.41079">
        <ele>320.17401123047</ele>
        <time>2017-06-11T07:24:08.000Z</time>
      </trkpt>
      <trkpt lat="48.4668" lon="7.41061">
        <ele>320.89776611328</ele>
        <time>2017-06-11T07:24:11.000Z</time>
      </trkpt>
      <trkpt lat="48.46682" lon="7.41047">
        <ele>321.91586303711</ele>
        <time>2017-06-11T07:24:13.000Z</time>
      </trkpt>
      <trkpt lat="48.46682" lon="7.41033">
        <ele>323.35174560547</ele>
        <time>2017-06-11T07:24:16.000Z</time>
      </trkpt>
      <trkpt lat="48.46686" lon="7.41026">
        <ele>324.83892822266</ele>
        <time>2017-06-11T07:24:18.000Z</time>
      </trkpt>
      <trkpt lat="48.46685" lon="7.41024">
        <ele>326.35571289062</ele>
        <time>2017-06-11T07:24:20.000Z</time>
      </trkpt>
      <trkpt lat="48.46687" lon="7.41019">
        <ele>327.54122924805</ele>
        <time>2017-06-11T07:24:23.000Z</time>
      </trkpt>
      <trkpt lat="48.46687" lon="7.41017">
        <ele>328.37780761719</ele>
        <time>2017-06-11T07:24:25.000Z</time>
      </trkpt>
      <trkpt lat="48.46688" lon="7.41015">
        <ele>328.74514770508</ele>
        <time>2017-06-11T07:24:28.000Z</time>
      </trkpt>
      <trkpt lat="48.4669" lon="7.41011">
        <ele>329.12994384766</ele>
        <time>2017-06-11T07:24:31.000Z</time>
      </trkpt>
      <trkpt lat="48.46691" lon="7.41009">
        <ele>329.38836669922</ele>
        <time>2017-06-11T07:24:33.000Z</time>
      </trkpt>
      <trkpt lat="48.46695" lon="7.41006">
        <ele>329.49154663086</ele>
        <time>2017-06-11T07:24:36.000Z</time>
      </trkpt>
      <trkpt lat="48.46698" lon="7.41004">
        <ele>329.5046081543</ele>
        <time>2017-06-11T07:24:38.000Z</time>
      </trkpt>
      <trkpt lat="48.46701" lon="7.41">
        <ele>329.52386474609</ele>
        <time>2017-06-11T07:24:41.000Z</time>
      </trkpt>
      <trkpt lat="48.46704" lon="7.40997">
        <ele>329.46301269531</ele>
        <time>2017-06-11T07:24:44.000Z</time>
      </trkpt>
      <trkpt lat="48.46707" lon="7.40994">
        <ele>329.37905883789</ele>
        <time>2017-06-11T07:24:47.000Z</time>
      </trkpt>
      <trkpt lat="48.46708" lon="7.40993">
        <ele>329.34857177734</ele>
        <time>2017-06-11T07:24:49.000Z</time>
      </trkpt>
      <trkpt lat="48.46712" lon="7.40989">
        <ele>329.34524536133</ele>
        <time>2017-06-11T07:24:52.000Z</time>
      </trkpt>
      <trkpt lat="48.46715" lon="7.40982">
        <ele>329.4970703125</ele>
        <time>2017-06-11T07:24:55.000Z</time>
      </trkpt>
      <trkpt lat="48.46715" lon="7.40979">
        <ele>329.76089477539</ele>
        <time>2017-06-11T07:24:57.000Z</time>
      </trkpt>
      <trkpt lat="48.46716" lon="7.40976">
        <ele>330.10546875</ele>
        <time>2017-06-11T07:24:59.000Z</time>
      </trkpt>
      <trkpt lat="48.46719" lon="7.40974">
        <ele>330.40142822266</ele>
        <time>2017-06-11T07:25:01.000Z</time>
      </trkpt>
      <trkpt lat="48.46721" lon="7.40972">
        <ele>330.70635986328</ele>
        <time>2017-06-11T07:25:03.000Z</time>
      </trkpt>
      <trkpt lat="48.46725" lon="7.40967">
        <ele>330.87866210938</ele>
        <time>2017-06-11T07:25:06.000Z</time>
      </trkpt>
      <trkpt lat="48.46727" lon="7.40964">
        <ele>331.00076293945</ele>
        <time>2017-06-11T07:25:08.000Z</time>
      </trkpt>
      <trkpt lat="48.46729" lon="7.4096">
        <ele>331.13073730469</ele>
        <time>2017-06-11T07:25:10.000Z</time>
      </trkpt>
      <trkpt lat="48.4673" lon="7.40956">
        <ele>331.37509155273</ele>
        <time>2017-06-11T07:25:12.000Z</time>
      </trkpt>
      <trkpt lat="48.4673" lon="7.4095">
        <ele>331.83746337891</ele>
        <time>2017-06-11T07:25:15.000Z</time>
      </trkpt>
      <trkpt lat="48.46732" lon="7.40944">
        <ele>332.45877075195</ele>
        <time>2017-06-11T07:25:18.000Z</time>
      </trkpt>
      <trkpt lat="48.46733" lon="7.40939">
        <ele>333.15505981445</ele>
        <time>2017-06-11T07:25:20.000Z</time>
      </trkpt>
      <trkpt lat="48.46734" lon="7.4093">
        <ele>334.09869384766</ele>
        <time>2017-06-11T07:25:23.000Z</time>
      </trkpt>
      <trkpt lat="48.46735" lon="7.40924">
        <ele>335.16030883789</ele>
        <time>2017-06-11T07:25:25.000Z</time>
      </trkpt>
      <trkpt lat="48.46734" lon="7.40917">
        <ele>336.27172851562</ele>
        <time>2017-06-11T07:25:28.000Z</time>
      </trkpt>
      <trkpt lat="48.46733" lon="7.40913">
        <ele>337.25299072266</ele>
        <time>2017-06-11T07:25:30.000Z</time>
      </trkpt>
      <trkpt lat="48.46732" lon="7.40908">
        <ele>338.1716003418</ele>
        <time>2017-06-11T07:25:33.000Z</time>
      </trkpt>
      <trkpt lat="48.46731" lon="7.40905">
        <ele>338.79244995117</ele>
        <time>2017-06-11T07:25:35.000Z</time>
      </trkpt>
      <trkpt lat="48.46729" lon="7.40898">
        <ele>339.3258972168</ele>
        <time>2017-06-11T07:25:38.000Z</time>
      </trkpt>
      <trkpt lat="48.46726" lon="7.40893">
        <ele>339.70471191406</ele>
        <time>2017-06-11T07:25:41.000Z</time>
      </trkpt>
      <trkpt lat="48.46725" lon="7.40889">
        <ele>340.05493164062</ele>
        <time>2017-06-11T07:25:43.000Z</time>
      </trkpt>
      <trkpt lat="48.46723" lon="7.40885">
        <ele>340.41906738281</ele>
        <time>2017-06-11T07:25:45.000Z</time>
      </trkpt>
      <trkpt lat="48.46721" lon="7.40881">
        <ele>340.85681152344</ele>
        <time>2017-06-11T07:25:47.000Z</time>
      </trkpt>
      <trkpt lat="48.46718" lon="7.40876">
        <ele>341.30358886719</ele>
        <time>2017-06-11T07:25:50.000Z</time>
      </trkpt>
      <trkpt lat="48.46716" lon="7.40872">
        <ele>341.73388671875</ele>
        <time>2017-06-11T07:25:52.000Z</time>
      </trkpt>
      <trkpt lat="48.46713" lon="7.40866">
        <ele>342.22839355469</ele>
        <time>2017-06-11T07:25:55.000Z</time>
      </trkpt>
      <trkpt lat="48.46712" lon="7.40863">
        <ele>342.67529296875</ele>
        <time>2017-06-11T07:25:57.000Z</time>
      </trkpt>
      <trkpt lat="48.4671" lon="7.4086">
        <ele>343.10620117188</ele>
        <time>2017-06-11T07:26:00.000Z</time>
      </trkpt>
      <trkpt lat="48.46708" lon="7.40857">
        <ele>343.51879882812</ele>
        <time>2017-06-11T07:26:02.000Z</time>
      </trkpt>
      <trkpt lat="48.46706" lon="7.40856">
        <ele>343.90930175781</ele>
        <time>2017-06-11T07:26:04.000Z</time>
      </trkpt>
      <trkpt lat="48.46701" lon="7.40855">
        <ele>344.36218261719</ele>
        <time>2017-06-11T07:26:07.000Z</time>
      </trkpt>
      <trkpt lat="48.46696" lon="7.40854">
        <ele>344.95715332031</ele>
        <time>2017-06-11T07:26:10.000Z</time>
      </trkpt>
      <trkpt lat="48.46693" lon="7.40852">
        <ele>345.60546875</ele>
        <time>2017-06-11T07:26:12.000Z</time>
      </trkpt>
      <trkpt lat="48.46688" lon="7.40851">
        <ele>346.33764648438</ele>
        <time>2017-06-11T07:26:15.000Z</time>
      </trkpt>
      <trkpt lat="48.46683" lon="7.4085">
        <ele>347.17175292969</ele>
        <time>2017-06-11T07:26:18.000Z</time>
      </trkpt>
      <trkpt lat="48.46679" lon="7.4085">
        <ele>347.97448730469</ele>
        <time>2017-06-11T07:26:21.000Z</time>
      </trkpt>
      <trkpt lat="48.46676" lon="7.40849">
        <ele>348.70373535156</ele>
        <time>2017-06-11T07:26:23.000Z</time>
      </trkpt>
      <trkpt lat="48.46672" lon="7.40847">
        <ele>349.46435546875</ele>
        <time>2017-06-11T07:26:26.000Z</time>
      </trkpt>
      <trkpt lat="48.46668" lon="7.40847">
        <ele>350.19079589844</ele>
        <time>2017-06-11T07:26:29.000Z</time>
      </trkpt>
      <trkpt lat="48.46666" lon="7.4085">
        <ele>350.80847167969</ele>
        <time>2017-06-11T07:26:32.000Z</time>
      </trkpt>
      <trkpt lat="48.46662" lon="7.40849">
        <ele>351.43603515625</ele>
        <time>2017-06-11T07:26:35.000Z</time>
      </trkpt>
      <trkpt lat="48.46659" lon="7.40847">
        <ele>352.10388183594</ele>
        <time>2017-06-11T07:26:37.000Z</time>
      </trkpt>
      <trkpt lat="48.46652" lon="7.40843">
        <ele>352.86462402344</ele>
        <time>2017-06-11T07:26:40.000Z</time>
      </trkpt>
      <trkpt lat="48.46645" lon="7.40841">
        <ele>353.75134277344</ele>
        <time>2017-06-11T07:26:43.000Z</time>
      </trkpt>
      <trkpt lat="48.46641" lon="7.40841">
        <ele>354.724609375</ele>
        <time>2017-06-11T07:26:45.000Z</time>
      </trkpt>
      <trkpt lat="48.46637" lon="7.4084">
        <ele>355.69970703125</ele>
        <time>2017-06-11T07:26:48.000Z</time>
      </trkpt>
      <trkpt lat="48.46635" lon="7.40839">
        <ele>356.60974121094</ele>
        <time>2017-06-11T07:26:50.000Z</time>
      </trkpt>
      <trkpt lat="48.46632" lon="7.40839">
        <ele>357.37109375</ele>
        <time>2017-06-11T07:26:53.000Z</time>
      </trkpt>
      <trkpt lat="48.46631" lon="7.40839">
        <ele>357.908203125</ele>
        <time>2017-06-11T07:26:55.000Z</time>
      </trkpt>
      <trkpt lat="48.46629" lon="7.40838">
        <ele>358.40148925781</ele>
        <time>2017-06-11T07:26:57.000Z</time>
      </trkpt>
      <trkpt lat="48.46624" lon="7.40836">
        <ele>358.91247558594</ele>
        <time>2017-06-11T07:27:00.000Z</time>
      </trkpt>
      <trkpt lat="48.46622" lon="7.40836">
        <ele>359.43640136719</ele>
        <time>2017-06-11T07:27:02.000Z</time>
      </trkpt>
      <trkpt lat="48.46614" lon="7.40833">
        <ele>360.13418579102</ele>
        <time>2017-06-11T07:27:05.000Z</time>
      </trkpt>
      <trkpt lat="48.46609" lon="7.40829">
        <ele>360.90875244141</ele>
        <time>2017-06-11T07:27:08.000Z</time>
      </trkpt>
      <trkpt lat="48.46605" lon="7.40824">
        <ele>361.66021728516</ele>
        <time>2017-06-11T07:27:11.000Z</time>
      </trkpt>
      <trkpt lat="48.46604" lon="7.40822">
        <ele>362.24456787109</ele>
        <time>2017-06-11T07:27:13.000Z</time>
      </trkpt>
      <trkpt lat="48.46601" lon="7.40816">
        <ele>362.70184326172</ele>
        <time>2017-06-11T07:27:16.000Z</time>
      </trkpt>
      <trkpt lat="48.46599" lon="7.40814">
        <ele>362.94467163086</ele>
        <time>2017-06-11T07:27:18.000Z</time>
      </trkpt>
      <trkpt lat="48.46596" lon="7.40815">
        <ele>363.19696044922</ele>
        <time>2017-06-11T07:27:21.000Z</time>
      </trkpt>
      <trkpt lat="48.46593" lon="7.40814">
        <ele>363.46133422852</ele>
        <time>2017-06-11T07:27:24.000Z</time>
      </trkpt>
      <trkpt lat="48.4659" lon="7.40812">
        <ele>363.80316162109</ele>
        <time>2017-06-11T07:27:26.000Z</time>
      </trkpt>
      <trkpt lat="48.46587" lon="7.4081">
        <ele>364.26385498047</ele>
        <time>2017-06-11T07:27:28.000Z</time>
      </trkpt>
      <trkpt lat="48.46583" lon="7.40805">
        <ele>364.71990966797</ele>
        <time>2017-06-11T07:27:31.000Z</time>
      </trkpt>
      <trkpt lat="48.46579" lon="7.40799">
        <ele>365.17260742188</ele>
        <time>2017-06-11T07:27:34.000Z</time>
      </trkpt>
      <trkpt lat="48.46576" lon="7.40793">
        <ele>365.58197021484</ele>
        <time>2017-06-11T07:27:37.000Z</time>
      </trkpt>
      <trkpt lat="48.46575" lon="7.4079">
        <ele>365.94219970703</ele>
        <time>2017-06-11T07:27:39.000Z</time>
      </trkpt>
      <trkpt lat="48.46574" lon="7.40787">
        <ele>366.25747680664</ele>
        <time>2017-06-11T07:27:42.000Z</time>
      </trkpt>
      <trkpt lat="48.46572" lon="7.40785">
        <ele>366.52288818359</ele>
        <time>2017-06-11T07:27:44.000Z</time>
      </trkpt>
      <trkpt lat="48.4657" lon="7.40781">
        <ele>366.74859619141</ele>
        <time>2017-06-11T07:27:47.000Z</time>
      </trkpt>
      <trkpt lat="48.46567" lon="7.40777">
        <ele>367.05422973633</ele>
        <time>2017-06-11T07:27:50.000Z</time>
      </trkpt>
      <trkpt lat="48.46564" lon="7.40773">
        <ele>367.48458862305</ele>
        <time>2017-06-11T07:27:52.000Z</time>
      </trkpt>
      <trkpt lat="48.4656" lon="7.40769">
        <ele>368.06747436523</ele>
        <time>2017-06-11T07:27:55.000Z</time>
      </trkpt>
      <trkpt lat="48.46557" lon="7.40767">
        <ele>368.76873779297</ele>
        <time>2017-06-11T07:27:57.000Z</time>
      </trkpt>
      <trkpt lat="48.46555" lon="7.40765">
        <ele>369.49542236328</ele>
        <time>2017-06-11T07:28:00.000Z</time>
      </trkpt>
      <trkpt lat="48.46551" lon="7.40759">
        <ele>370.26095581055</ele>
        <time>2017-06-11T07:28:03.000Z</time>
      </trkpt>
      <trkpt lat="48.46548" lon="7.40752">
        <ele>370.9440612793</ele>
        <time>2017-06-11T07:28:06.000Z</time>
      </trkpt>
      <trkpt lat="48.46544" lon="7.40748">
        <ele>371.58502197266</ele>
        <time>2017-06-11T07:28:08.000Z</time>
      </trkpt>
      <trkpt lat="48.46541" lon="7.40747">
        <ele>372.23190307617</ele>
        <time>2017-06-11T07:28:10.000Z</time>
      </trkpt>
      <trkpt lat="48.46536" lon="7.40744">
        <ele>373.01333618164</ele>
        <time>2017-06-11T07:28:13.000Z</time>
      </trkpt>
      <trkpt lat="48.46534" lon="7.40743">
        <ele>373.72100830078</ele>
        <time>2017-06-11T07:28:16.000Z</time>
      </trkpt>
      <trkpt lat="48.46533" lon="7.40741">
        <ele>374.37362670898</ele>
        <time>2017-06-11T07:28:18.000Z</time>
      </trkpt>
      <trkpt lat="48.46531" lon="7.40739">
        <ele>374.93634033203</ele>
        <time>2017-06-11T07:28:21.000Z</time>
      </trkpt>
      <trkpt lat="48.46528" lon="7.40736">
        <ele>375.42742919922</ele>
        <time>2017-06-11T07:28:24.000Z</time>
      </trkpt>
      <trkpt lat="48.46526" lon="7.40733">
        <ele>375.7509765625</ele>
        <time>2017-06-11T07:28:26.000Z</time>
      </trkpt>
      <trkpt lat="48.46521" lon="7.4073">
        <ele>376.16119384766</ele>
        <time>2017-06-11T07:28:29.000Z</time>
      </trkpt>
      <trkpt lat="48.46518" lon="7.40727">
        <ele>376.66165161133</ele>
        <time>2017-06-11T07:28:32.000Z</time>
      </trkpt>
      <trkpt lat="48.46515" lon="7.40723">
        <ele>377.16592407227</ele>
        <time>2017-06-11T07:28:35.000Z</time>
      </trkpt>
      <trkpt lat="48.46512" lon="7.40717">
        <ele>377.55169677734</ele>
        <time>2017-06-11T07:28:37.000Z</time>
      </trkpt>
      <trkpt lat="48.46507" lon="7.40712">
        <ele>377.94921875</ele>
        <time>2017-06-11T07:28:40.000Z</time>
      </trkpt>
      <trkpt lat="48.46506" lon="7.40708">
        <ele>378.11535644531</ele>
        <time>2017-06-11T07:28:42.000Z</time>
      </trkpt>
      <trkpt lat="48.46504" lon="7.40705">
        <ele>378.16494750977</ele>
        <time>2017-06-11T07:28:44.000Z</time>
      </trkpt>
      <trkpt lat="48.46502" lon="7.40705">
        <ele>378.30923461914</ele>
        <time>2017-06-11T07:28:47.000Z</time>
      </trkpt>
      <trkpt lat="48.46497" lon="7.40705">
        <ele>378.83261108398</ele>
        <time>2017-06-11T07:28:50.000Z</time>
      </trkpt>
      <trkpt lat="48.46495" lon="7.40706">
        <ele>379.37759399414</ele>
        <time>2017-06-11T07:28:52.000Z</time>
      </trkpt>
      <trkpt lat="48.46493" lon="7.40704">
        <ele>379.98895263672</ele>
        <time>2017-06-11T07:28:54.000Z</time>
      </trkpt>
      <trkpt lat="48.46489" lon="7.407">
        <ele>380.79803466797</ele>
        <time>2017-06-11T07:28:57.000Z</time>
      </trkpt>
      <trkpt lat="48.46485" lon="7.40699">
        <ele>381.63375854492</ele>
        <time>2017-06-11T07:28:59.000Z</time>
      </trkpt>
      <trkpt lat="48.46481" lon="7.40697">
        <ele>382.32894897461</ele>
        <time>2017-06-11T07:29:02.000Z</time>
      </trkpt>
      <trkpt lat="48.46476" lon="7.40696">
        <ele>383.20416259766</ele>
        <time>2017-06-11T07:29:05.000Z</time>
      </trkpt>
      <trkpt lat="48.46472" lon="7.40692">
        <ele>384.17178344727</ele>
        <time>2017-06-11T07:29:08.000Z</time>
      </trkpt>
      <trkpt lat="48.46469" lon="7.40689">
        <ele>385.03161621094</ele>
        <time>2017-06-11T07:29:11.000Z</time>
      </trkpt>
      <trkpt lat="48.46465" lon="7.40687">
        <ele>385.87310791016</ele>
        <time>2017-06-11T07:29:14.000Z</time>
      </trkpt>
      <trkpt lat="48.46464" lon="7.40684">
        <ele>386.54360961914</ele>
        <time>2017-06-11T07:29:16.000Z</time>
      </trkpt>
      <trkpt lat="48.46462" lon="7.40681">
        <ele>386.87609863281</ele>
        <time>2017-06-11T07:29:18.000Z</time>
      </trkpt>
      <trkpt lat="48.46458" lon="7.40676">
        <ele>387.23141479492</ele>
        <time>2017-06-11T07:29:21.000Z</time>
      </trkpt>
      <trkpt lat="48.46455" lon="7.40673">
        <ele>387.57363891602</ele>
        <time>2017-06-11T07:29:23.000Z</time>
      </trkpt>
      <trkpt lat="48.46453" lon="7.40671">
        <ele>387.80987548828</ele>
        <time>2017-06-11T07:29:25.000Z</time>
      </trkpt>
      <trkpt lat="48.4645" lon="7.40669">
        <ele>388.15283203125</ele>
        <time>2017-06-11T07:29:28.000Z</time>
      </trkpt>
      <trkpt lat="48.46449" lon="7.40667">
        <ele>388.59912109375</ele>
        <time>2017-06-11T07:29:30.000Z</time>
      </trkpt>
      <trkpt lat="48.46446" lon="7.40664">
        <ele>388.96939086914</ele>
        <time>2017-06-11T07:29:32.000Z</time>
      </trkpt>
      <trkpt lat="48.46441" lon="7.40659">
        <ele>389.44134521484</ele>
        <time>2017-06-11T07:29:35.000Z</time>
      </trkpt>
      <trkpt lat="48.46437" lon="7.40655">
        <ele>389.97662353516</ele>
        <time>2017-06-11T07:29:38.000Z</time>
      </trkpt>
      <trkpt lat="48.46434" lon="7.40652">
        <ele>390.47189331055</ele>
        <time>2017-06-11T07:29:41.000Z</time>
      </trkpt>
      <trkpt lat="48.46432" lon="7.40648">
        <ele>390.95092773438</ele>
        <time>2017-06-11T07:29:43.000Z</time>
      </trkpt>
      <trkpt lat="48.46428" lon="7.40644">
        <ele>391.45336914062</ele>
        <time>2017-06-11T07:29:46.000Z</time>
      </trkpt>
      <trkpt lat="48.46423" lon="7.40639">
        <ele>391.96606445312</ele>
        <time>2017-06-11T07:29:49.000Z</time>
      </trkpt>
      <trkpt lat="48.4642" lon="7.40632">
        <ele>392.38134765625</ele>
        <time>2017-06-11T07:29:52.000Z</time>
      </trkpt>
      <trkpt lat="48.46416" lon="7.4063">
        <ele>392.88433837891</ele>
        <time>2017-06-11T07:29:54.000Z</time>
      </trkpt>
      <trkpt lat="48.46412" lon="7.40629">
        <ele>393.65454101562</ele>
        <time>2017-06-11T07:29:57.000Z</time>
      </trkpt>
      <trkpt lat="48.46409" lon="7.40632">
        <ele>394.61859130859</ele>
        <time>2017-06-11T07:29:59.000Z</time>
      </trkpt>
      <trkpt lat="48.46408" lon="7.4064">
        <ele>395.76007080078</ele>
        <time>2017-06-11T07:30:02.000Z</time>
      </trkpt>
      <trkpt lat="48.46407" lon="7.40648">
        <ele>397.14215087891</ele>
        <time>2017-06-11T07:30:05.000Z</time>
      </trkpt>
      <trkpt lat="48.46408" lon="7.40652">
        <ele>398.46670532227</ele>
        <time>2017-06-11T07:30:07.000Z</time>
      </trkpt>
      <trkpt lat="48.4641" lon="7.4066">
        <ele>399.54983520508</ele>
        <time>2017-06-11T07:30:10.000Z</time>
      </trkpt>
      <trkpt lat="48.46412" lon="7.40664">
        <ele>400.38677978516</ele>
        <time>2017-06-11T07:30:12.000Z</time>
      </trkpt>
      <trkpt lat="48.46416" lon="7.40671">
        <ele>400.77694702148</ele>
        <time>2017-06-11T07:30:15.000Z</time>
      </trkpt>
      <trkpt lat="48.4642" lon="7.40677">
        <ele>400.89199829102</ele>
        <time>2017-06-11T07:30:17.000Z</time>
      </trkpt>
      <trkpt lat="48.46423" lon="7.40686">
        <ele>401.00720214844</ele>
        <time>2017-06-11T07:30:20.000Z</time>
      </trkpt>
      <trkpt lat="48.46425" lon="7.4069">
        <ele>401.04336547852</ele>
        <time>2017-06-11T07:30:22.000Z</time>
      </trkpt>
      <trkpt lat="48.46426" lon="7.40698">
        <ele>401.19653320312</ele>
        <time>2017-06-11T07:30:25.000Z</time>
      </trkpt>
      <trkpt lat="48.46427" lon="7.40703">
        <ele>401.63232421875</ele>
        <time>2017-06-11T07:30:27.000Z</time>
      </trkpt>
      <trkpt lat="48.46428" lon="7.40709">
        <ele>402.22079467773</ele>
        <time>2017-06-11T07:30:29.000Z</time>
      </trkpt>
      <trkpt lat="48.46429" lon="7.40717">
        <ele>402.89169311523</ele>
        <time>2017-06-11T07:30:32.000Z</time>
      </trkpt>
      <trkpt lat="48.46429" lon="7.40726">
        <ele>403.82122802734</ele>
        <time>2017-06-11T07:30:35.000Z</time>
      </trkpt>
      <trkpt lat="48.46431" lon="7.40734">
        <ele>404.75311279297</ele>
        <time>2017-06-11T07:30:38.000Z</time>
      </trkpt>
      <trkpt lat="48.46435" lon="7.40742">
        <ele>405.55364990234</ele>
        <time>2017-06-11T07:30:41.000Z</time>
      </trkpt>
      <trkpt lat="48.46437" lon="7.40749">
        <ele>406.32479858398</ele>
        <time>2017-06-11T07:30:44.000Z</time>
      </trkpt>
      <trkpt lat="48.46438" lon="7.40756">
        <ele>406.94912719727</ele>
        <time>2017-06-11T07:30:47.000Z</time>
      </trkpt>
      <trkpt lat="48.4644" lon="7.40761">
        <ele>407.29159545898</ele>
        <time>2017-06-11T07:30:50.000Z</time>
      </trkpt>
      <trkpt lat="48.46441" lon="7.40767">
        <ele>407.521484375</ele>
        <time>2017-06-11T07:30:53.000Z</time>
      </trkpt>
      <trkpt lat="48.46442" lon="7.40776">
        <ele>407.74429321289</ele>
        <time>2017-06-11T07:30:56.000Z</time>
      </trkpt>
      <trkpt lat="48.46442" lon="7.40782">
        <ele>407.89697265625</ele>
        <time>2017-06-11T07:30:58.000Z</time>
      </trkpt>
      <trkpt lat="48.46444" lon="7.4079">
        <ele>407.984375</ele>
        <time>2017-06-11T07:31:01.000Z</time>
      </trkpt>
      <trkpt lat="48.46446" lon="7.40795">
        <ele>408.10375976562</ele>
        <time>2017-06-11T07:31:03.000Z</time>
      </trkpt>
      <trkpt lat="48.46447" lon="7.40801">
        <ele>408.16284179688</ele>
        <time>2017-06-11T07:31:05.000Z</time>
      </trkpt>
      <trkpt lat="48.46448" lon="7.40808">
        <ele>408.2216796875</ele>
        <time>2017-06-11T07:31:08.000Z</time>
      </trkpt>
      <trkpt lat="48.46448" lon="7.4081">
        <ele>408.26977539062</ele>
        <time>2017-06-11T07:31:10.000Z</time>
      </trkpt>
      <trkpt lat="48.46449" lon="7.40815">
        <ele>408.35083007812</ele>
        <time>2017-06-11T07:31:13.000Z</time>
      </trkpt>
      <trkpt lat="48.46449" lon="7.40819">
        <ele>408.4912109375</ele>
        <time>2017-06-11T07:31:15.000Z</time>
      </trkpt>
      <trkpt lat="48.46449" lon="7.40824">
        <ele>408.74243164062</ele>
        <time>2017-06-11T07:31:17.000Z</time>
      </trkpt>
      <trkpt lat="48.4645" lon="7.40831">
        <ele>408.9697265625</ele>
        <time>2017-06-11T07:31:20.000Z</time>
      </trkpt>
      <trkpt lat="48.4645" lon="7.40837">
        <ele>409.14169311523</ele>
        <time>2017-06-11T07:31:23.000Z</time>
      </trkpt>
      <trkpt lat="48.46449" lon="7.40841">
        <ele>409.27697753906</ele>
        <time>2017-06-11T07:31:25.000Z</time>
      </trkpt>
      <trkpt lat="48.46449" lon="7.40847">
        <ele>409.31610107422</ele>
        <time>2017-06-11T07:31:28.000Z</time>
      </trkpt>
      <trkpt lat="48.46448" lon="7.40849">
        <ele>409.25299072266</ele>
        <time>2017-06-11T07:31:30.000Z</time>
      </trkpt>
      <trkpt lat="48.46446" lon="7.40853">
        <ele>409.23406982422</ele>
        <time>2017-06-11T07:31:33.000Z</time>
      </trkpt>
      <trkpt lat="48.46443" lon="7.40855">
        <ele>409.3610534668</ele>
        <time>2017-06-11T07:31:36.000Z</time>
      </trkpt>
      <trkpt lat="48.46442" lon="7.40858">
        <ele>409.53012084961</ele>
        <time>2017-06-11T07:31:38.000Z</time>
      </trkpt>
      <trkpt lat="48.46441" lon="7.40861">
        <ele>409.74008178711</ele>
        <time>2017-06-11T07:31:40.000Z</time>
      </trkpt>
      <trkpt lat="48.46439" lon="7.40864">
        <ele>410.02163696289</ele>
        <time>2017-06-11T07:31:43.000Z</time>
      </trkpt>
      <trkpt lat="48.46438" lon="7.40865">
        <ele>410.26293945312</ele>
        <time>2017-06-11T07:31:45.000Z</time>
      </trkpt>
      <trkpt lat="48.46436" lon="7.40867">
        <ele>410.48333740234</ele>
        <time>2017-06-11T07:31:48.000Z</time>
      </trkpt>
      <trkpt lat="48.46434" lon="7.40868">
        <ele>410.76708984375</ele>
        <time>2017-06-11T07:31:50.000Z</time>
      </trkpt>
      <trkpt lat="48.46431" lon="7.4087">
        <ele>411.14727783203</ele>
        <time>2017-06-11T07:31:52.000Z</time>
      </trkpt>
      <trkpt lat="48.46427" lon="7.40872">
        <ele>411.66143798828</ele>
        <time>2017-06-11T07:31:55.000Z</time>
      </trkpt>
      <trkpt lat="48.46425" lon="7.40873">
        <ele>412.23788452148</ele>
        <time>2017-06-11T07:31:58.000Z</time>
      </trkpt>
      <trkpt lat="48.46424" lon="7.40872">
        <ele>412.76239013672</ele>
        <time>2017-06-11T07:32:00.000Z</time>
      </trkpt>
      <trkpt lat="48.46424" lon="7.40867">
        <ele>413.31747436523</ele>
        <time>2017-06-11T07:32:03.000Z</time>
      </trkpt>
      <trkpt lat="48.46424" lon="7.40861">
        <ele>413.86776733398</ele>
        <time>2017-06-11T07:32:06.000Z</time>
      </trkpt>
      <trkpt lat="48.46425" lon="7.40855">
        <ele>414.31185913086</ele>
        <time>2017-06-11T07:32:09.000Z</time>
      </trkpt>
      <trkpt lat="48.46426" lon="7.40852">
        <ele>414.63198852539</ele>
        <time>2017-06-11T07:32:11.000Z</time>
      </trkpt>
      <trkpt lat="48.46428" lon="7.40849">
        <ele>414.90850830078</ele>
        <time>2017-06-11T07:32:13.000Z</time>
      </trkpt>
      <trkpt lat="48.46428" lon="7.40845">
        <ele>415.09741210938</ele>
        <time>2017-06-11T07:32:15.000Z</time>
      </trkpt>
      <trkpt lat="48.4643" lon="7.40838">
        <ele>415.23544311523</ele>
        <time>2017-06-11T07:32:18.000Z</time>
      </trkpt>
      <trkpt lat="48.46429" lon="7.40833">
        <ele>415.38458251953</ele>
        <time>2017-06-11T07:32:20.000Z</time>
      </trkpt>
      <trkpt lat="48.46428" lon="7.40825">
        <ele>415.52276611328</ele>
        <time>2017-06-11T07:32:23.000Z</time>
      </trkpt>
      <trkpt lat="48.46426" lon="7.40817">
        <ele>415.67315673828</ele>
        <time>2017-06-11T07:32:26.000Z</time>
      </trkpt>
      <trkpt lat="48.46424" lon="7.40811">
        <ele>415.83477783203</ele>
        <time>2017-06-11T07:32:28.000Z</time>
      </trkpt>
      <trkpt lat="48.46422" lon="7.40805">
        <ele>415.99536132812</ele>
        <time>2017-06-11T07:32:30.000Z</time>
      </trkpt>
      <trkpt lat="48.46421" lon="7.40798">
        <ele>416.056640625</ele>
        <time>2017-06-11T07:32:33.000Z</time>
      </trkpt>
      <trkpt lat="48.4642" lon="7.40794">
        <ele>416.14965820312</ele>
        <time>2017-06-11T07:32:35.000Z</time>
      </trkpt>
      <trkpt lat="48.46418" lon="7.40787">
        <ele>416.21875</ele>
        <time>2017-06-11T07:32:38.000Z</time>
      </trkpt>
      <trkpt lat="48.46415" lon="7.40778">
        <ele>416.32763671875</ele>
        <time>2017-06-11T07:32:41.000Z</time>
      </trkpt>
      <trkpt lat="48.46413" lon="7.40773">
        <ele>416.40023803711</ele>
        <time>2017-06-11T07:32:43.000Z</time>
      </trkpt>
      <trkpt lat="48.46409" lon="7.40767">
        <ele>416.60479736328</ele>
        <time>2017-06-11T07:32:46.000Z</time>
      </trkpt>
      <trkpt lat="48.46408" lon="7.40759">
        <ele>416.78680419922</ele>
        <time>2017-06-11T07:32:48.000Z</time>
      </trkpt>
      <trkpt lat="48.46404" lon="7.40748">
        <ele>417.00360107422</ele>
        <time>2017-06-11T07:32:51.000Z</time>
      </trkpt>
      <trkpt lat="48.464" lon="7.40744">
        <ele>417.22637939453</ele>
        <time>2017-06-11T07:32:53.000Z</time>
      </trkpt>
      <trkpt lat="48.46396" lon="7.40741">
        <ele>417.61465454102</ele>
        <time>2017-06-11T07:32:55.000Z</time>
      </trkpt>
      <trkpt lat="48.46391" lon="7.40743">
        <ele>418.24032592773</ele>
        <time>2017-06-11T07:32:58.000Z</time>
      </trkpt>
      <trkpt lat="48.46389" lon="7.40746">
        <ele>419.11767578125</ele>
        <time>2017-06-11T07:33:00.000Z</time>
      </trkpt>
      <trkpt lat="48.46387" lon="7.40752">
        <ele>420.20858764648</ele>
        <time>2017-06-11T07:33:03.000Z</time>
      </trkpt>
      <trkpt lat="48.46386" lon="7.40757">
        <ele>421.34527587891</ele>
        <time>2017-06-11T07:33:05.000Z</time>
      </trkpt>
      <trkpt lat="48.46387" lon="7.40765">
        <ele>422.33038330078</ele>
        <time>2017-06-11T07:33:08.000Z</time>
      </trkpt>
      <trkpt lat="48.46386" lon="7.4077">
        <ele>423.02114868164</ele>
        <time>2017-06-11T07:33:10.000Z</time>
      </trkpt>
      <trkpt lat="48.46388" lon="7.40777">
        <ele>423.49212646484</ele>
        <time>2017-06-11T07:33:13.000Z</time>
      </trkpt>
      <trkpt lat="48.46389" lon="7.40781">
        <ele>423.71923828125</ele>
        <time>2017-06-11T07:33:15.000Z</time>
      </trkpt>
      <trkpt lat="48.46388" lon="7.40785">
        <ele>423.88287353516</ele>
        <time>2017-06-11T07:33:17.000Z</time>
      </trkpt>
      <trkpt lat="48.46387" lon="7.40791">
        <ele>424.16128540039</ele>
        <time>2017-06-11T07:33:20.000Z</time>
      </trkpt>
      <trkpt lat="48.46385" lon="7.40795">
        <ele>424.53051757812</ele>
        <time>2017-06-11T07:33:22.000Z</time>
      </trkpt>
      <trkpt lat="48.46383" lon="7.40803">
        <ele>425.07647705078</ele>
        <time>2017-06-11T07:33:25.000Z</time>
      </trkpt>
      <trkpt lat="48.46381" lon="7.40808">
        <ele>425.78607177734</ele>
        <time>2017-06-11T07:33:27.000Z</time>
      </trkpt>
      <trkpt lat="48.46379" lon="7.40813">
        <ele>426.58587646484</ele>
        <time>2017-06-11T07:33:29.000Z</time>
      </trkpt>
      <trkpt lat="48.46378" lon="7.40819">
        <ele>427.40600585938</ele>
        <time>2017-06-11T07:33:32.000Z</time>
      </trkpt>
      <trkpt lat="48.46375" lon="7.40823">
        <ele>428.23309326172</ele>
        <time>2017-06-11T07:33:35.000Z</time>
      </trkpt>
      <trkpt lat="48.46374" lon="7.40826">
        <ele>428.98138427734</ele>
        <time>2017-06-11T07:33:37.000Z</time>
      </trkpt>
      <trkpt lat="48.46371" lon="7.40829">
        <ele>429.74185180664</ele>
        <time>2017-06-11T07:33:40.000Z</time>
      </trkpt>
      <trkpt lat="48.46369" lon="7.40829">
        <ele>430.46426391602</ele>
        <time>2017-06-11T07:33:42.000Z</time>
      </trkpt>
      <trkpt lat="48.46366" lon="7.40831">
        <ele>431.21600341797</ele>
        <time>2017-06-11T07:33:45.000Z</time>
      </trkpt>
      <trkpt lat="48.46363" lon="7.40836">
        <ele>431.91781616211</ele>
        <time>2017-06-11T07:33:48.000Z</time>
      </trkpt>
      <trkpt lat="48.46361" lon="7.40839">
        <ele>432.55361938477</ele>
        <time>2017-06-11T07:33:50.000Z</time>
      </trkpt>
      <trkpt lat="48.46358" lon="7.40843">
        <ele>433.10928344727</ele>
        <time>2017-06-11T07:33:53.000Z</time>
      </trkpt>
      <trkpt lat="48.46355" lon="7.40845">
        <ele>433.64608764648</ele>
        <time>2017-06-11T07:33:55.000Z</time>
      </trkpt>
      <trkpt lat="48.46353" lon="7.40848">
        <ele>434.06381225586</ele>
        <time>2017-06-11T07:33:58.000Z</time>
      </trkpt>
      <trkpt lat="48.4635" lon="7.40853">
        <ele>434.43139648438</ele>
        <time>2017-06-11T07:34:01.000Z</time>
      </trkpt>
      <trkpt lat="48.46348" lon="7.40856">
        <ele>434.826171875</ele>
        <time>2017-06-11T07:34:03.000Z</time>
      </trkpt>
      <trkpt lat="48.46346" lon="7.4086">
        <ele>435.17156982422</ele>
        <time>2017-06-11T07:34:05.000Z</time>
      </trkpt>
      <trkpt lat="48.46342" lon="7.40864">
        <ele>435.53857421875</ele>
        <time>2017-06-11T07:34:08.000Z</time>
      </trkpt>
      <trkpt lat="48.46339" lon="7.40868">
        <ele>435.93032836914</ele>
        <time>2017-06-11T07:34:11.000Z</time>
      </trkpt>
      <trkpt lat="48.46339" lon="7.40872">
        <ele>436.23724365234</ele>
        <time>2017-06-11T07:34:13.000Z</time>
      </trkpt>
      <trkpt lat="48.46336" lon="7.40875">
        <ele>436.61669921875</ele>
        <time>2017-06-11T07:34:16.000Z</time>
      </trkpt>
      <trkpt lat="48.46331" lon="7.40876">
        <ele>437.20977783203</ele>
        <time>2017-06-11T07:34:19.000Z</time>
      </trkpt>
      <trkpt lat="48.46328" lon="7.4088">
        <ele>437.82885742188</ele>
        <time>2017-06-11T07:34:22.000Z</time>
      </trkpt>
      <trkpt lat="48.46326" lon="7.40884">
        <ele>438.43951416016</ele>
        <time>2017-06-11T07:34:24.000Z</time>
      </trkpt>
      <trkpt lat="48.46323" lon="7.40888">
        <ele>439.18780517578</ele>
        <time>2017-06-11T07:34:26.000Z</time>
      </trkpt>
      <trkpt lat="48.46318" lon="7.40891">
        <ele>440.03848266602</ele>
        <time>2017-06-11T07:34:29.000Z</time>
      </trkpt>
      <trkpt lat="48.46316" lon="7.40895">
        <ele>440.73559570312</ele>
        <time>2017-06-11T07:34:31.000Z</time>
      </trkpt>
      <trkpt lat="48.46313" lon="7.40898">
        <ele>441.44155883789</ele>
        <time>2017-06-11T07:34:33.000Z</time>
      </trkpt>
      <trkpt lat="48.4631" lon="7.40899">
        <ele>442.19692993164</ele>
        <time>2017-06-11T07:34:35.000Z</time>
      </trkpt>
      <trkpt lat="48.46306" lon="7.40901">
        <ele>443.07330322266</ele>
        <time>2017-06-11T07:34:38.000Z</time>
      </trkpt>
      <trkpt lat="48.46304" lon="7.40905">
        <ele>443.75546264648</ele>
        <time>2017-06-11T07:34:41.000Z</time>
      </trkpt>
      <trkpt lat="48.46301" lon="7.40911">
        <ele>444.44100952148</ele>
        <time>2017-06-11T07:34:44.000Z</time>
      </trkpt>
      <trkpt lat="48.46297" lon="7.40915">
        <ele>445.13177490234</ele>
        <time>2017-06-11T07:34:47.000Z</time>
      </trkpt>
      <trkpt lat="48.46293" lon="7.4092">
        <ele>445.75384521484</ele>
        <time>2017-06-11T07:34:50.000Z</time>
      </trkpt>
      <trkpt lat="48.46289" lon="7.40923">
        <ele>446.2294921875</ele>
        <time>2017-06-11T07:34:53.000Z</time>
      </trkpt>
      <trkpt lat="48.46284" lon="7.40926">
        <ele>446.84872436523</ele>
        <time>2017-06-11T07:34:56.000Z</time>
      </trkpt>
      <trkpt lat="48.46279" lon="7.40929">
        <ele>447.55834960938</ele>
        <time>2017-06-11T07:34:59.000Z</time>
      </trkpt>
      <trkpt lat="48.46275" lon="7.40932">
        <ele>448.26913452148</ele>
        <time>2017-06-11T07:35:02.000Z</time>
      </trkpt>
      <trkpt lat="48.46271" lon="7.40937">
        <ele>448.91934204102</ele>
        <time>2017-06-11T07:35:05.000Z</time>
      </trkpt>
      <trkpt lat="48.4627" lon="7.4094">
        <ele>449.45166015625</ele>
        <time>2017-06-11T07:35:07.000Z</time>
      </trkpt>
      <trkpt lat="48.46267" lon="7.40944">
        <ele>449.81332397461</ele>
        <time>2017-06-11T07:35:10.000Z</time>
      </trkpt>
      <trkpt lat="48.46264" lon="7.40945">
        <ele>450.10952758789</ele>
        <time>2017-06-11T07:35:12.000Z</time>
      </trkpt>
      <trkpt lat="48.4626" lon="7.40947">
        <ele>450.41445922852</ele>
        <time>2017-06-11T07:35:15.000Z</time>
      </trkpt>
      <trkpt lat="48.46256" lon="7.4095">
        <ele>450.95663452148</ele>
        <time>2017-06-11T07:35:18.000Z</time>
      </trkpt>
      <trkpt lat="48.46253" lon="7.40953">
        <ele>451.54888916016</ele>
        <time>2017-06-11T07:35:20.000Z</time>
      </trkpt>
      <trkpt lat="48.46251" lon="7.40955">
        <ele>452.23721313477</ele>
        <time>2017-06-11T07:35:22.000Z</time>
      </trkpt>
      <trkpt lat="48.46247" lon="7.40959">
        <ele>452.82870483398</ele>
        <time>2017-06-11T07:35:25.000Z</time>
      </trkpt>
      <trkpt lat="48.46245" lon="7.40961">
        <ele>453.29110717773</ele>
        <time>2017-06-11T07:35:27.000Z</time>
      </trkpt>
      <trkpt lat="48.46241" lon="7.40964">
        <ele>453.60906982422</ele>
        <time>2017-06-11T07:35:30.000Z</time>
      </trkpt>
      <trkpt lat="48.46238" lon="7.40965">
        <ele>453.98382568359</ele>
        <time>2017-06-11T07:35:32.000Z</time>
      </trkpt>
      <trkpt lat="48.46235" lon="7.40966">
        <ele>454.35873413086</ele>
        <time>2017-06-11T07:35:35.000Z</time>
      </trkpt>
      <trkpt lat="48.46232" lon="7.40968">
        <ele>454.73934936523</ele>
        <time>2017-06-11T07:35:37.000Z</time>
      </trkpt>
      <trkpt lat="48.46229" lon="7.4097">
        <ele>455.18295288086</ele>
        <time>2017-06-11T07:35:39.000Z</time>
      </trkpt>
      <trkpt lat="48.46224" lon="7.40971">
        <ele>455.71710205078</ele>
        <time>2017-06-11T07:35:42.000Z</time>
      </trkpt>
      <trkpt lat="48.46221" lon="7.40973">
        <ele>456.22958374023</ele>
        <time>2017-06-11T07:35:44.000Z</time>
      </trkpt>
      <trkpt lat="48.46218" lon="7.40975">
        <ele>456.67831420898</ele>
        <time>2017-06-11T07:35:47.000Z</time>
      </trkpt>
      <trkpt lat="48.46215" lon="7.40979">
        <ele>457.12466430664</ele>
        <time>2017-06-11T07:35:50.000Z</time>
      </trkpt>
      <trkpt lat="48.46211" lon="7.4098">
        <ele>457.59487915039</ele>
        <time>2017-06-11T07:35:52.000Z</time>
      </trkpt>
      <trkpt lat="48.46209" lon="7.40982">
        <ele>457.97152709961</ele>
        <time>2017-06-11T07:35:54.000Z</time>
      </trkpt>
      <trkpt lat="48.46204" lon="7.40985">
        <ele>458.39117431641</ele>
        <time>2017-06-11T07:35:57.000Z</time>
      </trkpt>
      <trkpt lat="48.46201" lon="7.40988">
        <ele>458.84780883789</ele>
        <time>2017-06-11T07:35:59.000Z</time>
      </trkpt>
      <trkpt lat="48.46199" lon="7.40991">
        <ele>459.22445678711</ele>
        <time>2017-06-11T07:36:01.000Z</time>
      </trkpt>
      <trkpt lat="48.46196" lon="7.40993">
        <ele>459.51342773438</ele>
        <time>2017-06-11T07:36:03.000Z</time>
      </trkpt>
      <trkpt lat="48.46191" lon="7.40996">
        <ele>459.85040283203</ele>
        <time>2017-06-11T07:36:06.000Z</time>
      </trkpt>
      <trkpt lat="48.46189" lon="7.40998">
        <ele>460.13140869141</ele>
        <time>2017-06-11T07:36:08.000Z</time>
      </trkpt>
      <trkpt lat="48.46188" lon="7.41001">
        <ele>460.26287841797</ele>
        <time>2017-06-11T07:36:11.000Z</time>
      </trkpt>
      <trkpt lat="48.46185" lon="7.41004">
        <ele>460.41625976562</ele>
        <time>2017-06-11T07:36:13.000Z</time>
      </trkpt>
      <trkpt lat="48.46182" lon="7.41005">
        <ele>460.62442016602</ele>
        <time>2017-06-11T07:36:15.000Z</time>
      </trkpt>
      <trkpt lat="48.46177" lon="7.41008">
        <ele>460.841796875</ele>
        <time>2017-06-11T07:36:18.000Z</time>
      </trkpt>
      <trkpt lat="48.46174" lon="7.4101">
        <ele>461.07266235352</ele>
        <time>2017-06-11T07:36:20.000Z</time>
      </trkpt>
      <trkpt lat="48.4617" lon="7.41012">
        <ele>461.47967529297</ele>
        <time>2017-06-11T07:36:22.000Z</time>
      </trkpt>
      <trkpt lat="48.46166" lon="7.41015">
        <ele>461.96051025391</ele>
        <time>2017-06-11T07:36:25.000Z</time>
      </trkpt>
      <trkpt lat="48.46164" lon="7.41016">
        <ele>462.27618408203</ele>
        <time>2017-06-11T07:36:27.000Z</time>
      </trkpt>
      <trkpt lat="48.46159" lon="7.41018">
        <ele>462.310546875</ele>
        <time>2017-06-11T07:36:30.000Z</time>
      </trkpt>
      <trkpt lat="48.46155" lon="7.4102">
        <ele>462.12890625</ele>
        <time>2017-06-11T07:36:33.000Z</time>
      </trkpt>
      <trkpt lat="48.46152" lon="7.41022">
        <ele>461.75799560547</ele>
        <time>2017-06-11T07:36:35.000Z</time>
      </trkpt>
      <trkpt lat="48.46149" lon="7.41023">
        <ele>461.22372436523</ele>
        <time>2017-06-11T07:36:37.000Z</time>
      </trkpt>
      <trkpt lat="48.46146" lon="7.41025">
        <ele>460.66375732422</ele>
        <time>2017-06-11T07:36:39.000Z</time>
      </trkpt>
      <trkpt lat="48.46141" lon="7.41028">
        <ele>460.08154296875</ele>
        <time>2017-06-11T07:36:42.000Z</time>
      </trkpt>
      <trkpt lat="48.46135" lon="7.4103">
        <ele>459.51455688477</ele>
        <time>2017-06-11T07:36:45.000Z</time>
      </trkpt>
      <trkpt lat="48.46129" lon="7.41029">
        <ele>459.00140380859</ele>
        <time>2017-06-11T07:36:48.000Z</time>
      </trkpt>
      <trkpt lat="48.46124" lon="7.41031">
        <ele>458.48837280273</ele>
        <time>2017-06-11T07:36:51.000Z</time>
      </trkpt>
      <trkpt lat="48.46119" lon="7.41033">
        <ele>457.93692016602</ele>
        <time>2017-06-11T07:36:54.000Z</time>
      </trkpt>
      <trkpt lat="48.46114" lon="7.41034">
        <ele>457.47909545898</ele>
        <time>2017-06-11T07:36:56.000Z</time>
      </trkpt>
      <trkpt lat="48.46108" lon="7.4103">
        <ele>457.24658203125</ele>
        <time>2017-06-11T07:36:59.000Z</time>
      </trkpt>
      <trkpt lat="48.46104" lon="7.41026">
        <ele>457.14346313477</ele>
        <time>2017-06-11T07:37:01.000Z</time>
      </trkpt>
      <trkpt lat="48.461" lon="7.41022">
        <ele>457.24560546875</ele>
        <time>2017-06-11T07:37:04.000Z</time>
      </trkpt>
      <trkpt lat="48.46097" lon="7.41013">
        <ele>457.775390625</ele>
        <time>2017-06-11T07:37:07.000Z</time>
      </trkpt>
      <trkpt lat="48.46095" lon="7.41006">
        <ele>458.57119750977</ele>
        <time>2017-06-11T07:37:09.000Z</time>
      </trkpt>
      <trkpt lat="48.46094" lon="7.40996">
        <ele>459.60018920898</ele>
        <time>2017-06-11T07:37:12.000Z</time>
      </trkpt>
      <trkpt lat="48.46093" lon="7.4099">
        <ele>460.64019775391</ele>
        <time>2017-06-11T07:37:14.000Z</time>
      </trkpt>
      <trkpt lat="48.46091" lon="7.40986">
        <ele>461.66729736328</ele>
        <time>2017-06-11T07:37:16.000Z</time>
      </trkpt>
      <trkpt lat="48.4609" lon="7.40979">
        <ele>462.57046508789</ele>
        <time>2017-06-11T07:37:19.000Z</time>
      </trkpt>
      <trkpt lat="48.4609" lon="7.40971">
        <ele>463.45709228516</ele>
        <time>2017-06-11T07:37:22.000Z</time>
      </trkpt>
      <trkpt lat="48.4609" lon="7.40966">
        <ele>464.15435791016</ele>
        <time>2017-06-11T07:37:24.000Z</time>
      </trkpt>
      <trkpt lat="48.46089" lon="7.40956">
        <ele>464.95156860352</ele>
        <time>2017-06-11T07:37:27.000Z</time>
      </trkpt>
      <trkpt lat="48.46087" lon="7.40949">
        <ele>465.80184936523</ele>
        <time>2017-06-11T07:37:30.000Z</time>
      </trkpt>
      <trkpt lat="48.46085" lon="7.40943">
        <ele>466.59359741211</ele>
        <time>2017-06-11T07:37:33.000Z</time>
      </trkpt>
      <trkpt lat="48.46085" lon="7.40934">
        <ele>467.39575195312</ele>
        <time>2017-06-11T07:37:36.000Z</time>
      </trkpt>
      <trkpt lat="48.46083" lon="7.40927">
        <ele>468.21392822266</ele>
        <time>2017-06-11T07:37:38.000Z</time>
      </trkpt>
      <trkpt lat="48.46082" lon="7.40916">
        <ele>469.02264404297</ele>
        <time>2017-06-11T07:37:41.000Z</time>
      </trkpt>
      <trkpt lat="48.46082" lon="7.40909">
        <ele>469.8408203125</ele>
        <time>2017-06-11T07:37:44.000Z</time>
      </trkpt>
      <trkpt lat="48.46079" lon="7.40903">
        <ele>470.56674194336</ele>
        <time>2017-06-11T07:37:47.000Z</time>
      </trkpt>
      <trkpt lat="48.46078" lon="7.40902">
        <ele>471.08203125</ele>
        <time>2017-06-11T07:37:49.000Z</time>
      </trkpt>
      <trkpt lat="48.46077" lon="7.40898">
        <ele>471.48046875</ele>
        <time>2017-06-11T07:37:52.000Z</time>
      </trkpt>
      <trkpt lat="48.46077" lon="7.40894">
        <ele>471.771484375</ele>
        <time>2017-06-11T07:37:55.000Z</time>
      </trkpt>
      <trkpt lat="48.46074" lon="7.40889">
        <ele>471.869140625</ele>
        <time>2017-06-11T07:37:58.000Z</time>
      </trkpt>
      <trkpt lat="48.46074" lon="7.40884">
        <ele>472.0693359375</ele>
        <time>2017-06-11T07:38:00.000Z</time>
      </trkpt>
      <trkpt lat="48.46075" lon="7.40877">
        <ele>472.58740234375</ele>
        <time>2017-06-11T07:38:03.000Z</time>
      </trkpt>
      <trkpt lat="48.46075" lon="7.4087">
        <ele>473.2451171875</ele>
        <time>2017-06-11T07:38:06.000Z</time>
      </trkpt>
      <trkpt lat="48.46074" lon="7.40863">
        <ele>473.9560546875</ele>
        <time>2017-06-11T07:38:09.000Z</time>
      </trkpt>
      <trkpt lat="48.46074" lon="7.4086">
        <ele>474.78662109375</ele>
        <time>2017-06-11T07:38:11.000Z</time>
      </trkpt>
      <trkpt lat="48.46074" lon="7.40854">
        <ele>475.7158203125</ele>
        <time>2017-06-11T07:38:14.000Z</time>
      </trkpt>
      <trkpt lat="48.46074" lon="7.40851">
        <ele>476.4140625</ele>
        <time>2017-06-11T07:38:16.000Z</time>
      </trkpt>
      <trkpt lat="48.4607" lon="7.40844">
        <ele>476.9140625</ele>
        <time>2017-06-11T07:38:19.000Z</time>
      </trkpt>
      <trkpt lat="48.4607" lon="7.40839">
        <ele>477.37451171875</ele>
        <time>2017-06-11T07:38:21.000Z</time>
      </trkpt>
      <trkpt lat="48.46069" lon="7.40831">
        <ele>477.92993164062</ele>
        <time>2017-06-11T07:38:24.000Z</time>
      </trkpt>
      <trkpt lat="48.46071" lon="7.40822">
        <ele>478.48959350586</ele>
        <time>2017-06-11T07:38:27.000Z</time>
      </trkpt>
      <trkpt lat="48.46072" lon="7.40815">
        <ele>479.07952880859</ele>
        <time>2017-06-11T07:38:30.000Z</time>
      </trkpt>
      <trkpt lat="48.46069" lon="7.40812">
        <ele>479.58782958984</ele>
        <time>2017-06-11T07:38:32.000Z</time>
      </trkpt>
      <trkpt lat="48.46067" lon="7.4081">
        <ele>479.89804077148</ele>
        <time>2017-06-11T07:38:34.000Z</time>
      </trkpt>
      <trkpt lat="48.46067" lon="7.40806">
        <ele>480.06451416016</ele>
        <time>2017-06-11T07:38:36.000Z</time>
      </trkpt>
      <trkpt lat="48.46068" lon="7.40803">
        <ele>480.08343505859</ele>
        <time>2017-06-11T07:38:38.000Z</time>
      </trkpt>
      <trkpt lat="48.46069" lon="7.408">
        <ele>480.10345458984</ele>
        <time>2017-06-11T07:38:40.000Z</time>
      </trkpt>
      <trkpt lat="48.46069" lon="7.40794">
        <ele>480.32681274414</ele>
        <time>2017-06-11T07:38:43.000Z</time>
      </trkpt>
      <trkpt lat="48.46069" lon="7.4079">
        <ele>480.66958618164</ele>
        <time>2017-06-11T07:38:46.000Z</time>
      </trkpt>
      <trkpt lat="48.46069" lon="7.40786">
        <ele>481.03631591797</ele>
        <time>2017-06-11T07:38:48.000Z</time>
      </trkpt>
      <trkpt lat="48.46069" lon="7.40782">
        <ele>481.39373779297</ele>
        <time>2017-06-11T07:38:50.000Z</time>
      </trkpt>
      <trkpt lat="48.4607" lon="7.40775">
        <ele>481.79620361328</ele>
        <time>2017-06-11T07:38:52.000Z</time>
      </trkpt>
      <trkpt lat="48.4607" lon="7.40767">
        <ele>482.14974975586</ele>
        <time>2017-06-11T07:38:55.000Z</time>
      </trkpt>
      <trkpt lat="48.46068" lon="7.40761">
        <ele>482.45745849609</ele>
        <time>2017-06-11T07:38:58.000Z</time>
      </trkpt>
      <trkpt lat="48.46067" lon="7.40757">
        <ele>482.67828369141</ele>
        <time>2017-06-11T07:39:00.000Z</time>
      </trkpt>
      <trkpt lat="48.46063" lon="7.40751">
        <ele>482.68145751953</ele>
        <time>2017-06-11T07:39:03.000Z</time>
      </trkpt>
      <trkpt lat="48.46062" lon="7.40747">
        <ele>482.51165771484</ele>
        <time>2017-06-11T07:39:05.000Z</time>
      </trkpt>
      <trkpt lat="48.46061" lon="7.40743">
        <ele>482.28009033203</ele>
        <time>2017-06-11T07:39:07.000Z</time>
      </trkpt>
      <trkpt lat="48.46059" lon="7.40736">
        <ele>482.07281494141</ele>
        <time>2017-06-11T07:39:10.000Z</time>
      </trkpt>
      <trkpt lat="48.46057" lon="7.40729">
        <ele>481.89337158203</ele>
        <time>2017-06-11T07:39:13.000Z</time>
      </trkpt>
      <trkpt lat="48.46058" lon="7.40721">
        <ele>482.00350952148</ele>
        <time>2017-06-11T07:39:16.000Z</time>
      </trkpt>
      <trkpt lat="48.46058" lon="7.40714">
        <ele>482.23803710938</ele>
        <time>2017-06-11T07:39:19.000Z</time>
      </trkpt>
      <trkpt lat="48.46057" lon="7.40705">
        <ele>482.56582641602</ele>
        <time>2017-06-11T07:39:22.000Z</time>
      </trkpt>
      <trkpt lat="48.46054" lon="7.40698">
        <ele>482.87042236328</ele>
        <time>2017-06-11T07:39:25.000Z</time>
      </trkpt>
      <trkpt lat="48.46053" lon="7.40693">
        <ele>483.24322509766</ele>
        <time>2017-06-11T07:39:27.000Z</time>
      </trkpt>
      <trkpt lat="48.46053" lon="7.40689">
        <ele>483.51058959961</ele>
        <time>2017-06-11T07:39:29.000Z</time>
      </trkpt>
      <trkpt lat="48.46051" lon="7.40681">
        <ele>483.73983764648</ele>
        <time>2017-06-11T07:39:32.000Z</time>
      </trkpt>
      <trkpt lat="48.4605" lon="7.40675">
        <ele>483.94573974609</ele>
        <time>2017-06-11T07:39:34.000Z</time>
      </trkpt>
      <trkpt lat="48.46048" lon="7.40669">
        <ele>484.19473266602</ele>
        <time>2017-06-11T07:39:37.000Z</time>
      </trkpt>
      <trkpt lat="48.46047" lon="7.4067">
        <ele>484.35604858398</ele>
        <time>2017-06-11T07:39:40.000Z</time>
      </trkpt>
      <trkpt lat="48.46046" lon="7.4067">
        <ele>484.42929077148</ele>
        <time>2017-06-11T07:39:54.000Z</time>
      </trkpt>
      <trkpt lat="48.46046" lon="7.4067">
        <ele>484.42929077148</ele>
        <time>2017-06-11T07:40:14.000Z</time>
      </trkpt>
      <trkpt lat="48.46043" lon="7.40671">
        <ele>484.34423828125</ele>
        <time>2017-06-11T07:40:18.000Z</time>
      </trkpt>
      <trkpt lat="48.46042" lon="7.40672">
        <ele>484.14956665039</ele>
        <time>2017-06-11T07:40:21.000Z</time>
      </trkpt>
      <trkpt lat="48.46043" lon="7.40674">
        <ele>483.92733764648</ele>
        <time>2017-06-11T07:40:25.000Z</time>
      </trkpt>
      <trkpt lat="48.46046" lon="7.40674">
        <ele>483.81582641602</ele>
        <time>2017-06-11T07:40:31.000Z</time>
      </trkpt>
      <trkpt lat="48.46045" lon="7.40672">
        <ele>483.77529907227</ele>
        <time>2017-06-11T07:40:39.000Z</time>
      </trkpt>
      <trkpt lat="48.46048" lon="7.4067">
        <ele>483.94027709961</ele>
        <time>2017-06-11T07:40:48.000Z</time>
      </trkpt>
      <trkpt lat="48.46048" lon="7.4067">
        <ele>483.94027709961</ele>
        <time>2017-06-11T07:41:08.000Z</time>
      </trkpt>
      <trkpt lat="48.46045" lon="7.40675">
        <ele>483.99639892578</ele>
        <time>2017-06-11T07:42:50.000Z</time>
      </trkpt>
      <trkpt lat="48.46045" lon="7.40675">
        <ele>483.99639892578</ele>
        <time>2017-06-11T07:43:10.000Z</time>
      </trkpt>
      <trkpt lat="48.46044" lon="7.40674">
        <ele>484.01196289062</ele>
        <time>2017-06-11T07:44:41.000Z</time>
      </trkpt>
      <trkpt lat="48.46044" lon="7.40673">
        <ele>483.97787475586</ele>
        <time>2017-06-11T07:44:43.000Z</time>
      </trkpt>
      <trkpt lat="48.46043" lon="7.40674">
        <ele>483.87670898438</ele>
        <time>2017-06-11T07:44:48.000Z</time>
      </trkpt>
      <trkpt lat="48.46043" lon="7.40674">
        <ele>483.87670898438</ele>
        <time>2017-06-11T07:45:08.000Z</time>
      </trkpt>
      <trkpt lat="48.46042" lon="7.40674">
        <ele>483.61834716797</ele>
        <time>2017-06-11T07:45:25.000Z</time>
      </trkpt>
      <trkpt lat="48.46042" lon="7.40674">
        <ele>483.61834716797</ele>
        <time>2017-06-11T07:45:45.000Z</time>
      </trkpt>
      <trkpt lat="48.46044" lon="7.40674">
        <ele>483.57928466797</ele>
        <time>2017-06-11T07:45:50.000Z</time>
      </trkpt>
      <trkpt lat="48.46046" lon="7.40672">
        <ele>483.69082641602</ele>
        <time>2017-06-11T07:45:52.000Z</time>
      </trkpt>
      <trkpt lat="48.46054" lon="7.40661">
        <ele>484.23178100586</ele>
        <time>2017-06-11T07:45:55.000Z</time>
      </trkpt>
      <trkpt lat="48.46054" lon="7.40656">
        <ele>484.95599365234</ele>
        <time>2017-06-11T07:45:58.000Z</time>
      </trkpt>
      <trkpt lat="48.46051" lon="7.40658">
        <ele>485.61883544922</ele>
        <time>2017-06-11T07:46:00.000Z</time>
      </trkpt>
      <trkpt lat="48.46051" lon="7.40659">
        <ele>486.18246459961</ele>
        <time>2017-06-11T07:46:02.000Z</time>
      </trkpt>
      <trkpt lat="48.46046" lon="7.40662">
        <ele>486.41284179688</ele>
        <time>2017-06-11T07:46:05.000Z</time>
      </trkpt>
      <trkpt lat="48.46049" lon="7.40663">
        <ele>486.22827148438</ele>
        <time>2017-06-11T07:46:09.000Z</time>
      </trkpt>
      <trkpt lat="48.46051" lon="7.40662">
        <ele>485.98022460938</ele>
        <time>2017-06-11T07:46:20.000Z</time>
      </trkpt>
      <trkpt lat="48.46049" lon="7.40661">
        <ele>485.83618164062</ele>
        <time>2017-06-11T07:46:24.000Z</time>
      </trkpt>
      <trkpt lat="48.46049" lon="7.40661">
        <ele>485.83618164062</ele>
        <time>2017-06-11T07:46:44.000Z</time>
      </trkpt>
      <trkpt lat="48.46045" lon="7.40665">
        <ele>485.50155639648</ele>
        <time>2017-06-11T07:46:58.000Z</time>
      </trkpt>
      <trkpt lat="48.46044" lon="7.40665">
        <ele>485.36163330078</ele>
        <time>2017-06-11T07:47:15.000Z</time>
      </trkpt>
      <trkpt lat="48.46045" lon="7.40664">
        <ele>485.24517822266</ele>
        <time>2017-06-11T07:47:19.000Z</time>
      </trkpt>
      <trkpt lat="48.46047" lon="7.40658">
        <ele>485.28546142578</ele>
        <time>2017-06-11T07:47:22.000Z</time>
      </trkpt>
      <trkpt lat="48.46048" lon="7.40655">
        <ele>485.42749023438</ele>
        <time>2017-06-11T07:47:25.000Z</time>
      </trkpt>
      <trkpt lat="48.46047" lon="7.40653">
        <ele>485.82284545898</ele>
        <time>2017-06-11T07:47:28.000Z</time>
      </trkpt>
      <trkpt lat="48.46047" lon="7.40651">
        <ele>486.31533813477</ele>
        <time>2017-06-11T07:47:30.000Z</time>
      </trkpt>
      <trkpt lat="48.46049" lon="7.40646">
        <ele>486.90942382812</ele>
        <time>2017-06-11T07:47:33.000Z</time>
      </trkpt>
      <trkpt lat="48.4605" lon="7.40643">
        <ele>487.39178466797</ele>
        <time>2017-06-11T07:47:35.000Z</time>
      </trkpt>
      <trkpt lat="48.46051" lon="7.40641">
        <ele>487.83917236328</ele>
        <time>2017-06-11T07:47:38.000Z</time>
      </trkpt>
      <trkpt lat="48.46051" lon="7.40639">
        <ele>488.32806396484</ele>
        <time>2017-06-11T07:47:40.000Z</time>
      </trkpt>
      <trkpt lat="48.46051" lon="7.40637">
        <ele>488.80947875977</ele>
        <time>2017-06-11T07:47:45.000Z</time>
      </trkpt>
      <trkpt lat="48.46052" lon="7.40635">
        <ele>489.16534423828</ele>
        <time>2017-06-11T07:47:47.000Z</time>
      </trkpt>
      <trkpt lat="48.46053" lon="7.40635">
        <ele>489.43243408203</ele>
        <time>2017-06-11T07:47:50.000Z</time>
      </trkpt>
      <trkpt lat="48.46053" lon="7.40632">
        <ele>489.69781494141</ele>
        <time>2017-06-11T07:47:54.000Z</time>
      </trkpt>
      <trkpt lat="48.46053" lon="7.4063">
        <ele>489.96514892578</ele>
        <time>2017-06-11T07:47:57.000Z</time>
      </trkpt>
      <trkpt lat="48.46053" lon="7.40629">
        <ele>490.19793701172</ele>
        <time>2017-06-11T07:48:00.000Z</time>
      </trkpt>
      <trkpt lat="48.46052" lon="7.40625">
        <ele>490.46948242188</ele>
        <time>2017-06-11T07:48:02.000Z</time>
      </trkpt>
      <trkpt lat="48.46051" lon="7.40622">
        <ele>490.80120849609</ele>
        <time>2017-06-11T07:48:04.000Z</time>
      </trkpt>
      <trkpt lat="48.46051" lon="7.40619">
        <ele>491.13232421875</ele>
        <time>2017-06-11T07:48:06.000Z</time>
      </trkpt>
      <trkpt lat="48.46051" lon="7.40615">
        <ele>491.52304077148</ele>
        <time>2017-06-11T07:48:09.000Z</time>
      </trkpt>
      <trkpt lat="48.4605" lon="7.40612">
        <ele>491.96719360352</ele>
        <time>2017-06-11T07:48:11.000Z</time>
      </trkpt>
      <trkpt lat="48.4605" lon="7.40608">
        <ele>492.43032836914</ele>
        <time>2017-06-11T07:48:13.000Z</time>
      </trkpt>
      <trkpt lat="48.46051" lon="7.40602">
        <ele>492.97149658203</ele>
        <time>2017-06-11T07:48:16.000Z</time>
      </trkpt>
      <trkpt lat="48.46053" lon="7.40598">
        <ele>493.56698608398</ele>
        <time>2017-06-11T07:48:18.000Z</time>
      </trkpt>
      <trkpt lat="48.46053" lon="7.40596">
        <ele>494.07843017578</ele>
        <time>2017-06-11T07:48:20.000Z</time>
      </trkpt>
      <trkpt lat="48.46052" lon="7.40592">
        <ele>494.63217163086</ele>
        <time>2017-06-11T07:48:23.000Z</time>
      </trkpt>
      <trkpt lat="48.46052" lon="7.40585">
        <ele>495.25927734375</ele>
        <time>2017-06-11T07:48:26.000Z</time>
      </trkpt>
      <trkpt lat="48.46053" lon="7.4058">
        <ele>495.810546875</ele>
        <time>2017-06-11T07:48:28.000Z</time>
      </trkpt>
      <trkpt lat="48.46052" lon="7.40575">
        <ele>496.35409545898</ele>
        <time>2017-06-11T07:48:31.000Z</time>
      </trkpt>
      <trkpt lat="48.4605" lon="7.40571">
        <ele>496.94805908203</ele>
        <time>2017-06-11T07:48:34.000Z</time>
      </trkpt>
      <trkpt lat="48.46048" lon="7.40567">
        <ele>497.53393554688</ele>
        <time>2017-06-11T07:48:37.000Z</time>
      </trkpt>
      <trkpt lat="48.46045" lon="7.40563">
        <ele>498.10589599609</ele>
        <time>2017-06-11T07:48:40.000Z</time>
      </trkpt>
      <trkpt lat="48.46043" lon="7.4056">
        <ele>498.69473266602</ele>
        <time>2017-06-11T07:48:42.000Z</time>
      </trkpt>
      <trkpt lat="48.46043" lon="7.40555">
        <ele>499.29888916016</ele>
        <time>2017-06-11T07:48:45.000Z</time>
      </trkpt>
      <trkpt lat="48.46043" lon="7.40551">
        <ele>499.91772460938</ele>
        <time>2017-06-11T07:48:47.000Z</time>
      </trkpt>
      <trkpt lat="48.46043" lon="7.40544">
        <ele>500.58944702148</ele>
        <time>2017-06-11T07:48:50.000Z</time>
      </trkpt>
      <trkpt lat="48.46041" lon="7.40538">
        <ele>501.3291015625</ele>
        <time>2017-06-11T07:48:53.000Z</time>
      </trkpt>
      <trkpt lat="48.46041" lon="7.40533">
        <ele>502.07452392578</ele>
        <time>2017-06-11T07:48:56.000Z</time>
      </trkpt>
      <trkpt lat="48.46041" lon="7.40529">
        <ele>502.83316040039</ele>
        <time>2017-06-11T07:48:58.000Z</time>
      </trkpt>
      <trkpt lat="48.46041" lon="7.40523">
        <ele>503.61825561523</ele>
        <time>2017-06-11T07:49:01.000Z</time>
      </trkpt>
      <trkpt lat="48.46042" lon="7.40515">
        <ele>504.44668579102</ele>
        <time>2017-06-11T07:49:04.000Z</time>
      </trkpt>
      <trkpt lat="48.46041" lon="7.40508">
        <ele>505.27963256836</ele>
        <time>2017-06-11T07:49:06.000Z</time>
      </trkpt>
      <trkpt lat="48.46039" lon="7.40502">
        <ele>506.27587890625</ele>
        <time>2017-06-11T07:49:08.000Z</time>
      </trkpt>
      <trkpt lat="48.46038" lon="7.40494">
        <ele>507.22055053711</ele>
        <time>2017-06-11T07:49:11.000Z</time>
      </trkpt>
      <trkpt lat="48.46038" lon="7.40484">
        <ele>508.00616455078</ele>
        <time>2017-06-11T07:49:14.000Z</time>
      </trkpt>
      <trkpt lat="48.46038" lon="7.40477">
        <ele>508.62548828125</ele>
        <time>2017-06-11T07:49:17.000Z</time>
      </trkpt>
      <trkpt lat="48.46038" lon="7.40468">
        <ele>508.95172119141</ele>
        <time>2017-06-11T07:49:20.000Z</time>
      </trkpt>
      <trkpt lat="48.46038" lon="7.40462">
        <ele>508.98364257812</ele>
        <time>2017-06-11T07:49:22.000Z</time>
      </trkpt>
      <trkpt lat="48.4604" lon="7.40451">
        <ele>508.69482421875</ele>
        <time>2017-06-11T07:49:25.000Z</time>
      </trkpt>
      <trkpt lat="48.46044" lon="7.4044">
        <ele>508.10830688477</ele>
        <time>2017-06-11T07:49:28.000Z</time>
      </trkpt>
      <trkpt lat="48.46043" lon="7.40429">
        <ele>507.47210693359</ele>
        <time>2017-06-11T07:49:31.000Z</time>
      </trkpt>
      <trkpt lat="48.46043" lon="7.40419">
        <ele>506.84967041016</ele>
        <time>2017-06-11T07:49:34.000Z</time>
      </trkpt>
      <trkpt lat="48.46045" lon="7.40408">
        <ele>505.98754882812</ele>
        <time>2017-06-11T07:49:37.000Z</time>
      </trkpt>
      <trkpt lat="48.46046" lon="7.40401">
        <ele>505.13516235352</ele>
        <time>2017-06-11T07:49:39.000Z</time>
      </trkpt>
      <trkpt lat="48.46049" lon="7.40391">
        <ele>504.31109619141</ele>
        <time>2017-06-11T07:49:42.000Z</time>
      </trkpt>
      <trkpt lat="48.46046" lon="7.40381">
        <ele>503.57559204102</ele>
        <time>2017-06-11T07:49:45.000Z</time>
      </trkpt>
      <trkpt lat="48.46043" lon="7.40375">
        <ele>503.11724853516</ele>
        <time>2017-06-11T07:49:47.000Z</time>
      </trkpt>
      <trkpt lat="48.46043" lon="7.40366">
        <ele>502.89617919922</ele>
        <time>2017-06-11T07:49:50.000Z</time>
      </trkpt>
      <trkpt lat="48.46041" lon="7.40357">
        <ele>502.87750244141</ele>
        <time>2017-06-11T07:49:53.000Z</time>
      </trkpt>
      <trkpt lat="48.46041" lon="7.40352">
        <ele>503.16827392578</ele>
        <time>2017-06-11T07:49:55.000Z</time>
      </trkpt>
      <trkpt lat="48.4604" lon="7.40343">
        <ele>503.35882568359</ele>
        <time>2017-06-11T07:49:58.000Z</time>
      </trkpt>
      <trkpt lat="48.46038" lon="7.40334">
        <ele>503.36614990234</ele>
        <time>2017-06-11T07:50:01.000Z</time>
      </trkpt>
      <trkpt lat="48.46033" lon="7.40325">
        <ele>503.62533569336</ele>
        <time>2017-06-11T07:50:04.000Z</time>
      </trkpt>
      <trkpt lat="48.46028" lon="7.40317">
        <ele>504.15777587891</ele>
        <time>2017-06-11T07:50:07.000Z</time>
      </trkpt>
      <trkpt lat="48.46024" lon="7.40311">
        <ele>504.84970092773</ele>
        <time>2017-06-11T07:50:09.000Z</time>
      </trkpt>
      <trkpt lat="48.46022" lon="7.40302">
        <ele>505.46694946289</ele>
        <time>2017-06-11T07:50:12.000Z</time>
      </trkpt>
      <trkpt lat="48.46021" lon="7.40296">
        <ele>505.927734375</ele>
        <time>2017-06-11T07:50:14.000Z</time>
      </trkpt>
      <trkpt lat="48.46018" lon="7.40288">
        <ele>506.27880859375</ele>
        <time>2017-06-11T07:50:17.000Z</time>
      </trkpt>
      <trkpt lat="48.46017" lon="7.40283">
        <ele>506.3125</ele>
        <time>2017-06-11T07:50:19.000Z</time>
      </trkpt>
      <trkpt lat="48.46014" lon="7.40274">
        <ele>506.1904296875</ele>
        <time>2017-06-11T07:50:22.000Z</time>
      </trkpt>
      <trkpt lat="48.46009" lon="7.40265">
        <ele>506.35888671875</ele>
        <time>2017-06-11T07:50:25.000Z</time>
      </trkpt>
      <trkpt lat="48.46003" lon="7.40257">
        <ele>506.95556640625</ele>
        <time>2017-06-11T07:50:28.000Z</time>
      </trkpt>
      <trkpt lat="48.45998" lon="7.40244">
        <ele>507.35903930664</ele>
        <time>2017-06-11T07:50:31.000Z</time>
      </trkpt>
      <trkpt lat="48.45995" lon="7.4023">
        <ele>507.61773681641</ele>
        <time>2017-06-11T07:50:34.000Z</time>
      </trkpt>
      <trkpt lat="48.45989" lon="7.40221">
        <ele>507.94750976562</ele>
        <time>2017-06-11T07:50:36.000Z</time>
      </trkpt>
      <trkpt lat="48.45982" lon="7.4021">
        <ele>508.30078125</ele>
        <time>2017-06-11T07:50:39.000Z</time>
      </trkpt>
      <trkpt lat="48.45976" lon="7.40203">
        <ele>508.47845458984</ele>
        <time>2017-06-11T07:50:41.000Z</time>
      </trkpt>
      <trkpt lat="48.45971" lon="7.40196">
        <ele>508.83135986328</ele>
        <time>2017-06-11T07:50:43.000Z</time>
      </trkpt>
      <trkpt lat="48.45965" lon="7.40185">
        <ele>509.39105224609</ele>
        <time>2017-06-11T07:50:46.000Z</time>
      </trkpt>
      <trkpt lat="48.45961" lon="7.40177">
        <ele>509.84832763672</ele>
        <time>2017-06-11T07:50:48.000Z</time>
      </trkpt>
      <trkpt lat="48.45956" lon="7.40169">
        <ele>510.11834716797</ele>
        <time>2017-06-11T07:50:50.000Z</time>
      </trkpt>
      <trkpt lat="48.4595" lon="7.40158">
        <ele>510.37973022461</ele>
        <time>2017-06-11T07:50:53.000Z</time>
      </trkpt>
      <trkpt lat="48.45946" lon="7.40153">
        <ele>510.73541259766</ele>
        <time>2017-06-11T07:50:55.000Z</time>
      </trkpt>
      <trkpt lat="48.4594" lon="7.40145">
        <ele>511.33016967773</ele>
        <time>2017-06-11T07:50:57.000Z</time>
      </trkpt>
      <trkpt lat="48.45934" lon="7.40131">
        <ele>512.10040283203</ele>
        <time>2017-06-11T07:50:59.000Z</time>
      </trkpt>
      <trkpt lat="48.45926" lon="7.40105">
        <ele>512.77185058594</ele>
        <time>2017-06-11T07:51:02.000Z</time>
      </trkpt>
      <trkpt lat="48.45921" lon="7.4009">
        <ele>513.33776855469</ele>
        <time>2017-06-11T07:51:04.000Z</time>
      </trkpt>
      <trkpt lat="48.45916" lon="7.40069">
        <ele>514.27819824219</ele>
        <time>2017-06-11T07:51:07.000Z</time>
      </trkpt>
      <trkpt lat="48.45915" lon="7.40058">
        <ele>515.24780273438</ele>
        <time>2017-06-11T07:51:09.000Z</time>
      </trkpt>
      <trkpt lat="48.45916" lon="7.40043">
        <ele>516.19122314453</ele>
        <time>2017-06-11T07:51:12.000Z</time>
      </trkpt>
      <trkpt lat="48.45917" lon="7.40034">
        <ele>517.28662109375</ele>
        <time>2017-06-11T07:51:14.000Z</time>
      </trkpt>
      <trkpt lat="48.45919" lon="7.40018">
        <ele>518.41772460938</ele>
        <time>2017-06-11T07:51:17.000Z</time>
      </trkpt>
      <trkpt lat="48.4592" lon="7.40009">
        <ele>518.99743652344</ele>
        <time>2017-06-11T07:51:19.000Z</time>
      </trkpt>
      <trkpt lat="48.45923" lon="7.39999">
        <ele>519.21160888672</ele>
        <time>2017-06-11T07:51:21.000Z</time>
      </trkpt>
      <trkpt lat="48.45926" lon="7.3999">
        <ele>519.36151123047</ele>
        <time>2017-06-11T07:51:23.000Z</time>
      </trkpt>
      <trkpt lat="48.45929" lon="7.3998">
        <ele>519.490234375</ele>
        <time>2017-06-11T07:51:25.000Z</time>
      </trkpt>
      <trkpt lat="48.45934" lon="7.39965">
        <ele>519.71368408203</ele>
        <time>2017-06-11T07:51:28.000Z</time>
      </trkpt>
      <trkpt lat="48.45938" lon="7.39951">
        <ele>520.02893066406</ele>
        <time>2017-06-11T07:51:31.000Z</time>
      </trkpt>
      <trkpt lat="48.45944" lon="7.39939">
        <ele>520.46276855469</ele>
        <time>2017-06-11T07:51:34.000Z</time>
      </trkpt>
      <trkpt lat="48.45948" lon="7.39932">
        <ele>520.77368164062</ele>
        <time>2017-06-11T07:51:36.000Z</time>
      </trkpt>
      <trkpt lat="48.45953" lon="7.39927">
        <ele>520.85089111328</ele>
        <time>2017-06-11T07:51:38.000Z</time>
      </trkpt>
      <trkpt lat="48.45957" lon="7.39922">
        <ele>520.58239746094</ele>
        <time>2017-06-11T07:51:40.000Z</time>
      </trkpt>
      <trkpt lat="48.45962" lon="7.3992">
        <ele>519.88140869141</ele>
        <time>2017-06-11T07:51:42.000Z</time>
      </trkpt>
      <trkpt lat="48.45967" lon="7.39913">
        <ele>519.03228759766</ele>
        <time>2017-06-11T07:51:45.000Z</time>
      </trkpt>
      <trkpt lat="48.45973" lon="7.39906">
        <ele>518.05480957031</ele>
        <time>2017-06-11T07:51:48.000Z</time>
      </trkpt>
      <trkpt lat="48.45977" lon="7.39902">
        <ele>517.16052246094</ele>
        <time>2017-06-11T07:51:50.000Z</time>
      </trkpt>
      <trkpt lat="48.4598" lon="7.399">
        <ele>516.26702880859</ele>
        <time>2017-06-11T07:51:52.000Z</time>
      </trkpt>
      <trkpt lat="48.45984" lon="7.39896">
        <ele>515.49377441406</ele>
        <time>2017-06-11T07:51:55.000Z</time>
      </trkpt>
      <trkpt lat="48.45988" lon="7.39893">
        <ele>514.71307373047</ele>
        <time>2017-06-11T07:51:58.000Z</time>
      </trkpt>
      <trkpt lat="48.4599" lon="7.39891">
        <ele>514.00164794922</ele>
        <time>2017-06-11T07:52:00.000Z</time>
      </trkpt>
      <trkpt lat="48.45994" lon="7.39886">
        <ele>513.30090332031</ele>
        <time>2017-06-11T07:52:03.000Z</time>
      </trkpt>
      <trkpt lat="48.45997" lon="7.39884">
        <ele>512.68481445312</ele>
        <time>2017-06-11T07:52:05.000Z</time>
      </trkpt>
      <trkpt lat="48.46001" lon="7.39879">
        <ele>512.20648193359</ele>
        <time>2017-06-11T07:52:08.000Z</time>
      </trkpt>
      <trkpt lat="48.46007" lon="7.39877">
        <ele>511.93276977539</ele>
        <time>2017-06-11T07:52:11.000Z</time>
      </trkpt>
      <trkpt lat="48.4601" lon="7.39876">
        <ele>511.76733398438</ele>
        <time>2017-06-11T07:52:13.000Z</time>
      </trkpt>
      <trkpt lat="48.46014" lon="7.39875">
        <ele>511.67449951172</ele>
        <time>2017-06-11T07:52:16.000Z</time>
      </trkpt>
      <trkpt lat="48.46016" lon="7.39874">
        <ele>511.66534423828</ele>
        <time>2017-06-11T07:52:18.000Z</time>
      </trkpt>
      <trkpt lat="48.4602" lon="7.39873">
        <ele>511.71401977539</ele>
        <time>2017-06-11T07:52:20.000Z</time>
      </trkpt>
      <trkpt lat="48.46025" lon="7.39874">
        <ele>511.61196899414</ele>
        <time>2017-06-11T07:52:23.000Z</time>
      </trkpt>
      <trkpt lat="48.46028" lon="7.39876">
        <ele>511.37091064453</ele>
        <time>2017-06-11T07:52:25.000Z</time>
      </trkpt>
      <trkpt lat="48.4603" lon="7.39875">
        <ele>511.15618896484</ele>
        <time>2017-06-11T07:52:27.000Z</time>
      </trkpt>
      <trkpt lat="48.46033" lon="7.39873">
        <ele>511.02288818359</ele>
        <time>2017-06-11T07:52:29.000Z</time>
      </trkpt>
      <trkpt lat="48.4604" lon="7.39872">
        <ele>510.88134765625</ele>
        <time>2017-06-11T07:52:32.000Z</time>
      </trkpt>
      <trkpt lat="48.46045" lon="7.3987">
        <ele>510.85662841797</ele>
        <time>2017-06-11T07:52:35.000Z</time>
      </trkpt>
      <trkpt lat="48.46049" lon="7.39869">
        <ele>510.96148681641</ele>
        <time>2017-06-11T07:52:37.000Z</time>
      </trkpt>
      <trkpt lat="48.46054" lon="7.39867">
        <ele>511.08193969727</ele>
        <time>2017-06-11T07:52:40.000Z</time>
      </trkpt>
      <trkpt lat="48.4606" lon="7.39862">
        <ele>511.35693359375</ele>
        <time>2017-06-11T07:52:43.000Z</time>
      </trkpt>
      <trkpt lat="48.46065" lon="7.39855">
        <ele>511.94805908203</ele>
        <time>2017-06-11T07:52:46.000Z</time>
      </trkpt>
      <trkpt lat="48.46067" lon="7.39851">
        <ele>512.69903564453</ele>
        <time>2017-06-11T07:52:48.000Z</time>
      </trkpt>
      <trkpt lat="48.46069" lon="7.39846">
        <ele>513.68762207031</ele>
        <time>2017-06-11T07:52:50.000Z</time>
      </trkpt>
      <trkpt lat="48.46069" lon="7.39838">
        <ele>515.09118652344</ele>
        <time>2017-06-11T07:52:53.000Z</time>
      </trkpt>
      <trkpt lat="48.46066" lon="7.39831">
        <ele>516.48211669922</ele>
        <time>2017-06-11T07:52:56.000Z</time>
      </trkpt>
      <trkpt lat="48.46062" lon="7.39825">
        <ele>517.44757080078</ele>
        <time>2017-06-11T07:52:59.000Z</time>
      </trkpt>
      <trkpt lat="48.4606" lon="7.39822">
        <ele>518.1513671875</ele>
        <time>2017-06-11T07:53:01.000Z</time>
      </trkpt>
      <trkpt lat="48.46055" lon="7.39818">
        <ele>518.57244873047</ele>
        <time>2017-06-11T07:53:04.000Z</time>
      </trkpt>
      <trkpt lat="48.46051" lon="7.39814">
        <ele>518.48651123047</ele>
        <time>2017-06-11T07:53:07.000Z</time>
      </trkpt>
      <trkpt lat="48.46046" lon="7.39812">
        <ele>518.19323730469</ele>
        <time>2017-06-11T07:53:09.000Z</time>
      </trkpt>
      <trkpt lat="48.46043" lon="7.39811">
        <ele>518.03045654297</ele>
        <time>2017-06-11T07:53:11.000Z</time>
      </trkpt>
      <trkpt lat="48.46038" lon="7.39809">
        <ele>517.94494628906</ele>
        <time>2017-06-11T07:53:14.000Z</time>
      </trkpt>
      <trkpt lat="48.46035" lon="7.39808">
        <ele>517.91473388672</ele>
        <time>2017-06-11T07:53:16.000Z</time>
      </trkpt>
      <trkpt lat="48.46032" lon="7.39808">
        <ele>517.97198486328</ele>
        <time>2017-06-11T07:53:18.000Z</time>
      </trkpt>
      <trkpt lat="48.46027" lon="7.39808">
        <ele>518.08703613281</ele>
        <time>2017-06-11T07:53:21.000Z</time>
      </trkpt>
      <trkpt lat="48.46021" lon="7.39808">
        <ele>518.248046875</ele>
        <time>2017-06-11T07:53:24.000Z</time>
      </trkpt>
      <trkpt lat="48.46015" lon="7.39809">
        <ele>518.48303222656</ele>
        <time>2017-06-11T07:53:27.000Z</time>
      </trkpt>
      <trkpt lat="48.4601" lon="7.3981">
        <ele>518.80139160156</ele>
        <time>2017-06-11T07:53:30.000Z</time>
      </trkpt>
      <trkpt lat="48.46004" lon="7.39812">
        <ele>519.17370605469</ele>
        <time>2017-06-11T07:53:33.000Z</time>
      </trkpt>
      <trkpt lat="48.46" lon="7.39814">
        <ele>519.59948730469</ele>
        <time>2017-06-11T07:53:36.000Z</time>
      </trkpt>
      <trkpt lat="48.45996" lon="7.39814">
        <ele>520.18939208984</ele>
        <time>2017-06-11T07:53:38.000Z</time>
      </trkpt>
      <trkpt lat="48.45992" lon="7.39813">
        <ele>521.03186035156</ele>
        <time>2017-06-11T07:53:41.000Z</time>
      </trkpt>
      <trkpt lat="48.45989" lon="7.39811">
        <ele>521.96722412109</ele>
        <time>2017-06-11T07:53:43.000Z</time>
      </trkpt>
      <trkpt lat="48.45985" lon="7.39808">
        <ele>523.00067138672</ele>
        <time>2017-06-11T07:53:46.000Z</time>
      </trkpt>
      <trkpt lat="48.45983" lon="7.39806">
        <ele>524.09649658203</ele>
        <time>2017-06-11T07:53:48.000Z</time>
      </trkpt>
      <trkpt lat="48.45979" lon="7.39802">
        <ele>525.18389892578</ele>
        <time>2017-06-11T07:53:51.000Z</time>
      </trkpt>
      <trkpt lat="48.45977" lon="7.39797">
        <ele>526.06225585938</ele>
        <time>2017-06-11T07:53:53.000Z</time>
      </trkpt>
      <trkpt lat="48.45972" lon="7.39791">
        <ele>526.98376464844</ele>
        <time>2017-06-11T07:53:56.000Z</time>
      </trkpt>
      <trkpt lat="48.4597" lon="7.39787">
        <ele>527.88854980469</ele>
        <time>2017-06-11T07:53:58.000Z</time>
      </trkpt>
      <trkpt lat="48.45967" lon="7.39781">
        <ele>528.75964355469</ele>
        <time>2017-06-11T07:54:01.000Z</time>
      </trkpt>
      <trkpt lat="48.45963" lon="7.39774">
        <ele>529.65124511719</ele>
        <time>2017-06-11T07:54:04.000Z</time>
      </trkpt>
      <trkpt lat="48.45959" lon="7.39765">
        <ele>530.63421630859</ele>
        <time>2017-06-11T07:54:07.000Z</time>
      </trkpt>
      <trkpt lat="48.45954" lon="7.39756">
        <ele>531.69940185547</ele>
        <time>2017-06-11T07:54:10.000Z</time>
      </trkpt>
      <trkpt lat="48.4595" lon="7.39751">
        <ele>532.80389404297</ele>
        <time>2017-06-11T07:54:12.000Z</time>
      </trkpt>
      <trkpt lat="48.45946" lon="7.39744">
        <ele>533.93731689453</ele>
        <time>2017-06-11T07:54:15.000Z</time>
      </trkpt>
      <trkpt lat="48.45943" lon="7.3974">
        <ele>534.95166015625</ele>
        <time>2017-06-11T07:54:17.000Z</time>
      </trkpt>
      <trkpt lat="48.45938" lon="7.39735">
        <ele>535.97973632812</ele>
        <time>2017-06-11T07:54:20.000Z</time>
      </trkpt>
      <trkpt lat="48.45935" lon="7.39731">
        <ele>536.81555175781</ele>
        <time>2017-06-11T07:54:22.000Z</time>
      </trkpt>
      <trkpt lat="48.45931" lon="7.39725">
        <ele>537.61053466797</ele>
        <time>2017-06-11T07:54:25.000Z</time>
      </trkpt>
      <trkpt lat="48.45926" lon="7.3972">
        <ele>538.48223876953</ele>
        <time>2017-06-11T07:54:28.000Z</time>
      </trkpt>
      <trkpt lat="48.45923" lon="7.39717">
        <ele>539.42504882812</ele>
        <time>2017-06-11T07:54:30.000Z</time>
      </trkpt>
      <trkpt lat="48.4592" lon="7.39714">
        <ele>540.31762695312</ele>
        <time>2017-06-11T07:54:32.000Z</time>
      </trkpt>
      <trkpt lat="48.45915" lon="7.39709">
        <ele>541.32220458984</ele>
        <time>2017-06-11T07:54:35.000Z</time>
      </trkpt>
      <trkpt lat="48.45912" lon="7.39704">
        <ele>542.24029541016</ele>
        <time>2017-06-11T07:54:37.000Z</time>
      </trkpt>
      <trkpt lat="48.45909" lon="7.397">
        <ele>543.01110839844</ele>
        <time>2017-06-11T07:54:39.000Z</time>
      </trkpt>
      <trkpt lat="48.45905" lon="7.39693">
        <ele>543.71081542969</ele>
        <time>2017-06-11T07:54:42.000Z</time>
      </trkpt>
      <trkpt lat="48.45902" lon="7.39687">
        <ele>544.30822753906</ele>
        <time>2017-06-11T07:54:44.000Z</time>
      </trkpt>
      <trkpt lat="48.45897" lon="7.39678">
        <ele>544.82647705078</ele>
        <time>2017-06-11T07:54:47.000Z</time>
      </trkpt>
      <trkpt lat="48.45894" lon="7.3967">
        <ele>545.26696777344</ele>
        <time>2017-06-11T07:54:50.000Z</time>
      </trkpt>
      <trkpt lat="48.45892" lon="7.39664">
        <ele>545.59130859375</ele>
        <time>2017-06-11T07:54:52.000Z</time>
      </trkpt>
      <trkpt lat="48.45889" lon="7.39657">
        <ele>545.77978515625</ele>
        <time>2017-06-11T07:54:54.000Z</time>
      </trkpt>
      <trkpt lat="48.45887" lon="7.39652">
        <ele>545.91394042969</ele>
        <time>2017-06-11T07:54:56.000Z</time>
      </trkpt>
      <trkpt lat="48.45883" lon="7.39642">
        <ele>545.90350341797</ele>
        <time>2017-06-11T07:54:59.000Z</time>
      </trkpt>
      <trkpt lat="48.4588" lon="7.39634">
        <ele>545.87719726562</ele>
        <time>2017-06-11T07:55:01.000Z</time>
      </trkpt>
      <trkpt lat="48.45877" lon="7.39624">
        <ele>545.75457763672</ele>
        <time>2017-06-11T07:55:04.000Z</time>
      </trkpt>
      <trkpt lat="48.45872" lon="7.39613">
        <ele>545.7021484375</ele>
        <time>2017-06-11T07:55:07.000Z</time>
      </trkpt>
      <trkpt lat="48.45869" lon="7.39603">
        <ele>545.55639648438</ele>
        <time>2017-06-11T07:55:09.000Z</time>
      </trkpt>
      <trkpt lat="48.45867" lon="7.39594">
        <ele>545.36682128906</ele>
        <time>2017-06-11T07:55:11.000Z</time>
      </trkpt>
      <trkpt lat="48.45864" lon="7.39586">
        <ele>545.08795166016</ele>
        <time>2017-06-11T07:55:13.000Z</time>
      </trkpt>
      <trkpt lat="48.45863" lon="7.39578">
        <ele>544.74908447266</ele>
        <time>2017-06-11T07:55:15.000Z</time>
      </trkpt>
      <trkpt lat="48.4586" lon="7.39564">
        <ele>544.15734863281</ele>
        <time>2017-06-11T07:55:18.000Z</time>
      </trkpt>
      <trkpt lat="48.45853" lon="7.39547">
        <ele>543.60192871094</ele>
        <time>2017-06-11T07:55:21.000Z</time>
      </trkpt>
      <trkpt lat="48.45847" lon="7.39531">
        <ele>543.05133056641</ele>
        <time>2017-06-11T07:55:24.000Z</time>
      </trkpt>
      <trkpt lat="48.4584" lon="7.39515">
        <ele>542.56506347656</ele>
        <time>2017-06-11T07:55:27.000Z</time>
      </trkpt>
      <trkpt lat="48.45838" lon="7.39504">
        <ele>542.03570556641</ele>
        <time>2017-06-11T07:55:30.000Z</time>
      </trkpt>
      <trkpt lat="48.45834" lon="7.39496">
        <ele>541.73486328125</ele>
        <time>2017-06-11T07:55:32.000Z</time>
      </trkpt>
      <trkpt lat="48.45826" lon="7.39483">
        <ele>541.66223144531</ele>
        <time>2017-06-11T07:55:35.000Z</time>
      </trkpt>
      <trkpt lat="48.4582" lon="7.39473">
        <ele>541.67858886719</ele>
        <time>2017-06-11T07:55:37.000Z</time>
      </trkpt>
      <trkpt lat="48.4581" lon="7.39459">
        <ele>541.94683837891</ele>
        <time>2017-06-11T07:55:40.000Z</time>
      </trkpt>
      <trkpt lat="48.45798" lon="7.39445">
        <ele>542.69366455078</ele>
        <time>2017-06-11T07:55:43.000Z</time>
      </trkpt>
      <trkpt lat="48.45788" lon="7.39431">
        <ele>543.5048828125</ele>
        <time>2017-06-11T07:55:46.000Z</time>
      </trkpt>
      <trkpt lat="48.45781" lon="7.39418">
        <ele>544.09454345703</ele>
        <time>2017-06-11T07:55:48.000Z</time>
      </trkpt>
      <trkpt lat="48.45769" lon="7.39398">
        <ele>544.48651123047</ele>
        <time>2017-06-11T07:55:51.000Z</time>
      </trkpt>
      <trkpt lat="48.45761" lon="7.39386">
        <ele>544.53503417969</ele>
        <time>2017-06-11T07:55:53.000Z</time>
      </trkpt>
      <trkpt lat="48.45752" lon="7.39374">
        <ele>544.16760253906</ele>
        <time>2017-06-11T07:55:55.000Z</time>
      </trkpt>
      <trkpt lat="48.45734" lon="7.39353">
        <ele>543.37103271484</ele>
        <time>2017-06-11T07:55:58.000Z</time>
      </trkpt>
      <trkpt lat="48.4572" lon="7.3934">
        <ele>542.43865966797</ele>
        <time>2017-06-11T07:56:00.000Z</time>
      </trkpt>
      <trkpt lat="48.45699" lon="7.39322">
        <ele>541.54522705078</ele>
        <time>2017-06-11T07:56:03.000Z</time>
      </trkpt>
      <trkpt lat="48.45679" lon="7.39305">
        <ele>540.74719238281</ele>
        <time>2017-06-11T07:56:06.000Z</time>
      </trkpt>
      <trkpt lat="48.4566" lon="7.39286">
        <ele>540.01196289062</ele>
        <time>2017-06-11T07:56:09.000Z</time>
      </trkpt>
      <trkpt lat="48.45647" lon="7.39277">
        <ele>539.70013427734</ele>
        <time>2017-06-11T07:56:11.000Z</time>
      </trkpt>
      <trkpt lat="48.45629" lon="7.39264">
        <ele>539.59020996094</ele>
        <time>2017-06-11T07:56:14.000Z</time>
      </trkpt>
      <trkpt lat="48.45615" lon="7.39252">
        <ele>539.55969238281</ele>
        <time>2017-06-11T07:56:17.000Z</time>
      </trkpt>
      <trkpt lat="48.45596" lon="7.39239">
        <ele>539.43731689453</ele>
        <time>2017-06-11T07:56:20.000Z</time>
      </trkpt>
      <trkpt lat="48.45582" lon="7.39225">
        <ele>538.9580078125</ele>
        <time>2017-06-11T07:56:22.000Z</time>
      </trkpt>
      <trkpt lat="48.45567" lon="7.39216">
        <ele>538.31329345703</ele>
        <time>2017-06-11T07:56:24.000Z</time>
      </trkpt>
      <trkpt lat="48.4555" lon="7.39199">
        <ele>537.15563964844</ele>
        <time>2017-06-11T07:56:27.000Z</time>
      </trkpt>
      <trkpt lat="48.45537" lon="7.39189">
        <ele>535.85852050781</ele>
        <time>2017-06-11T07:56:29.000Z</time>
      </trkpt>
      <trkpt lat="48.45521" lon="7.39174">
        <ele>534.28472900391</ele>
        <time>2017-06-11T07:56:32.000Z</time>
      </trkpt>
      <trkpt lat="48.45502" lon="7.39163">
        <ele>532.9873046875</ele>
        <time>2017-06-11T07:56:35.000Z</time>
      </trkpt>
      <trkpt lat="48.45485" lon="7.39166">
        <ele>531.88140869141</ele>
        <time>2017-06-11T07:56:38.000Z</time>
      </trkpt>
      <trkpt lat="48.45468" lon="7.39162">
        <ele>530.70190429688</ele>
        <time>2017-06-11T07:56:41.000Z</time>
      </trkpt>
      <trkpt lat="48.45457" lon="7.39161">
        <ele>529.45983886719</ele>
        <time>2017-06-11T07:56:43.000Z</time>
      </trkpt>
      <trkpt lat="48.45437" lon="7.39163">
        <ele>528.49182128906</ele>
        <time>2017-06-11T07:56:46.000Z</time>
      </trkpt>
      <trkpt lat="48.45425" lon="7.39167">
        <ele>527.76165771484</ele>
        <time>2017-06-11T07:56:48.000Z</time>
      </trkpt>
      <trkpt lat="48.45414" lon="7.39173">
        <ele>527.18908691406</ele>
        <time>2017-06-11T07:56:50.000Z</time>
      </trkpt>
      <trkpt lat="48.45404" lon="7.3918">
        <ele>527.11773681641</ele>
        <time>2017-06-11T07:56:52.000Z</time>
      </trkpt>
      <trkpt lat="48.4539" lon="7.39188">
        <ele>527.03649902344</ele>
        <time>2017-06-11T07:56:55.000Z</time>
      </trkpt>
      <trkpt lat="48.4538" lon="7.39194">
        <ele>527.02313232422</ele>
        <time>2017-06-11T07:56:57.000Z</time>
      </trkpt>
      <trkpt lat="48.45369" lon="7.39203">
        <ele>526.94543457031</ele>
        <time>2017-06-11T07:57:00.000Z</time>
      </trkpt>
      <trkpt lat="48.45356" lon="7.39211">
        <ele>526.46423339844</ele>
        <time>2017-06-11T07:57:03.000Z</time>
      </trkpt>
      <trkpt lat="48.45345" lon="7.39225">
        <ele>526.32000732422</ele>
        <time>2017-06-11T07:57:06.000Z</time>
      </trkpt>
      <trkpt lat="48.45336" lon="7.39234">
        <ele>526.45190429688</ele>
        <time>2017-06-11T07:57:08.000Z</time>
      </trkpt>
      <trkpt lat="48.45327" lon="7.39241">
        <ele>526.49890136719</ele>
        <time>2017-06-11T07:57:10.000Z</time>
      </trkpt>
      <trkpt lat="48.45313" lon="7.39254">
        <ele>526.32958984375</ele>
        <time>2017-06-11T07:57:13.000Z</time>
      </trkpt>
      <trkpt lat="48.45304" lon="7.39264">
        <ele>526.16198730469</ele>
        <time>2017-06-11T07:57:15.000Z</time>
      </trkpt>
      <trkpt lat="48.45292" lon="7.3928">
        <ele>525.68804931641</ele>
        <time>2017-06-11T07:57:18.000Z</time>
      </trkpt>
      <trkpt lat="48.45284" lon="7.39291">
        <ele>525.10693359375</ele>
        <time>2017-06-11T07:57:20.000Z</time>
      </trkpt>
      <trkpt lat="48.45269" lon="7.39307">
        <ele>524.40856933594</ele>
        <time>2017-06-11T07:57:23.000Z</time>
      </trkpt>
      <trkpt lat="48.4526" lon="7.39317">
        <ele>523.74737548828</ele>
        <time>2017-06-11T07:57:25.000Z</time>
      </trkpt>
      <trkpt lat="48.45248" lon="7.39335">
        <ele>523.17028808594</ele>
        <time>2017-06-11T07:57:28.000Z</time>
      </trkpt>
      <trkpt lat="48.45241" lon="7.39346">
        <ele>522.61926269531</ele>
        <time>2017-06-11T07:57:30.000Z</time>
      </trkpt>
      <trkpt lat="48.45234" lon="7.39362">
        <ele>522.40264892578</ele>
        <time>2017-06-11T07:57:32.000Z</time>
      </trkpt>
      <trkpt lat="48.45221" lon="7.39381">
        <ele>522.43096923828</ele>
        <time>2017-06-11T07:57:35.000Z</time>
      </trkpt>
      <trkpt lat="48.4521" lon="7.39397">
        <ele>522.63708496094</ele>
        <time>2017-06-11T07:57:37.000Z</time>
      </trkpt>
      <trkpt lat="48.45194" lon="7.39418">
        <ele>522.74914550781</ele>
        <time>2017-06-11T07:57:40.000Z</time>
      </trkpt>
      <trkpt lat="48.45181" lon="7.39434">
        <ele>522.82385253906</ele>
        <time>2017-06-11T07:57:42.000Z</time>
      </trkpt>
      <trkpt lat="48.45161" lon="7.39453">
        <ele>522.73510742188</ele>
        <time>2017-06-11T07:57:45.000Z</time>
      </trkpt>
      <trkpt lat="48.45148" lon="7.39461">
        <ele>523.04040527344</ele>
        <time>2017-06-11T07:57:47.000Z</time>
      </trkpt>
      <trkpt lat="48.45137" lon="7.39464">
        <ele>523.51965332031</ele>
        <time>2017-06-11T07:57:49.000Z</time>
      </trkpt>
      <trkpt lat="48.45131" lon="7.39462">
        <ele>523.95684814453</ele>
        <time>2017-06-11T07:57:51.000Z</time>
      </trkpt>
      <trkpt lat="48.45124" lon="7.39465">
        <ele>524.54400634766</ele>
        <time>2017-06-11T07:57:54.000Z</time>
      </trkpt>
      <trkpt lat="48.45123" lon="7.39467">
        <ele>525.16339111328</ele>
        <time>2017-06-11T07:57:56.000Z</time>
      </trkpt>
      <trkpt lat="48.45125" lon="7.39474">
        <ele>525.8818359375</ele>
        <time>2017-06-11T07:57:59.000Z</time>
      </trkpt>
      <trkpt lat="48.45127" lon="7.39474">
        <ele>526.40496826172</ele>
        <time>2017-06-11T07:58:02.000Z</time>
      </trkpt>
      <trkpt lat="48.45127" lon="7.39474">
        <ele>526.40496826172</ele>
        <time>2017-06-11T07:58:22.000Z</time>
      </trkpt>
      <trkpt lat="48.45123" lon="7.39471">
        <ele>526.90148925781</ele>
        <time>2017-06-11T07:58:35.000Z</time>
      </trkpt>
      <trkpt lat="48.45124" lon="7.39471">
        <ele>527.33862304688</ele>
        <time>2017-06-11T07:58:43.000Z</time>
      </trkpt>
      <trkpt lat="48.45126" lon="7.39475">
        <ele>527.90905761719</ele>
        <time>2017-06-11T07:58:46.000Z</time>
      </trkpt>
      <trkpt lat="48.45127" lon="7.39478">
        <ele>528.15222167969</ele>
        <time>2017-06-11T07:58:48.000Z</time>
      </trkpt>
      <trkpt lat="48.45131" lon="7.3948">
        <ele>528.60266113281</ele>
        <time>2017-06-11T07:58:51.000Z</time>
      </trkpt>
      <trkpt lat="48.45135" lon="7.39482">
        <ele>529.44384765625</ele>
        <time>2017-06-11T07:58:54.000Z</time>
      </trkpt>
      <trkpt lat="48.45139" lon="7.39483">
        <ele>530.28857421875</ele>
        <time>2017-06-11T07:58:56.000Z</time>
      </trkpt>
      <trkpt lat="48.45143" lon="7.39483">
        <ele>530.85998535156</ele>
        <time>2017-06-11T07:58:59.000Z</time>
      </trkpt>
      <trkpt lat="48.4515" lon="7.39482">
        <ele>531.3173828125</ele>
        <time>2017-06-11T07:59:02.000Z</time>
      </trkpt>
      <trkpt lat="48.45153" lon="7.39481">
        <ele>531.52142333984</ele>
        <time>2017-06-11T07:59:04.000Z</time>
      </trkpt>
      <trkpt lat="48.45158" lon="7.3948">
        <ele>531.51257324219</ele>
        <time>2017-06-11T07:59:07.000Z</time>
      </trkpt>
      <trkpt lat="48.45161" lon="7.39479">
        <ele>531.38610839844</ele>
        <time>2017-06-11T07:59:09.000Z</time>
      </trkpt>
      <trkpt lat="48.45167" lon="7.39474">
        <ele>531.01379394531</ele>
        <time>2017-06-11T07:59:12.000Z</time>
      </trkpt>
      <trkpt lat="48.4517" lon="7.39471">
        <ele>530.64141845703</ele>
        <time>2017-06-11T07:59:14.000Z</time>
      </trkpt>
      <trkpt lat="48.45175" lon="7.3947">
        <ele>530.64361572266</ele>
        <time>2017-06-11T07:59:16.000Z</time>
      </trkpt>
      <trkpt lat="48.45178" lon="7.39471">
        <ele>530.92962646484</ele>
        <time>2017-06-11T07:59:18.000Z</time>
      </trkpt>
      <trkpt lat="48.45182" lon="7.39468">
        <ele>531.37982177734</ele>
        <time>2017-06-11T07:59:21.000Z</time>
      </trkpt>
      <trkpt lat="48.45187" lon="7.39465">
        <ele>532.27520751953</ele>
        <time>2017-06-11T07:59:24.000Z</time>
      </trkpt>
      <trkpt lat="48.45191" lon="7.3946">
        <ele>533.15014648438</ele>
        <time>2017-06-11T07:59:27.000Z</time>
      </trkpt>
      <trkpt lat="48.45194" lon="7.39458">
        <ele>533.72607421875</ele>
        <time>2017-06-11T07:59:29.000Z</time>
      </trkpt>
      <trkpt lat="48.45197" lon="7.39452">
        <ele>533.99401855469</ele>
        <time>2017-06-11T07:59:32.000Z</time>
      </trkpt>
      <trkpt lat="48.45199" lon="7.3945">
        <ele>534.18658447266</ele>
        <time>2017-06-11T07:59:34.000Z</time>
      </trkpt>
      <trkpt lat="48.45203" lon="7.39448">
        <ele>534.32879638672</ele>
        <time>2017-06-11T07:59:37.000Z</time>
      </trkpt>
      <trkpt lat="48.45205" lon="7.39448">
        <ele>534.62713623047</ele>
        <time>2017-06-11T07:59:39.000Z</time>
      </trkpt>
      <trkpt lat="48.45208" lon="7.39447">
        <ele>535.06219482422</ele>
        <time>2017-06-11T07:59:42.000Z</time>
      </trkpt>
      <trkpt lat="48.45211" lon="7.39445">
        <ele>535.72259521484</ele>
        <time>2017-06-11T07:59:44.000Z</time>
      </trkpt>
      <trkpt lat="48.45214" lon="7.39444">
        <ele>536.50390625</ele>
        <time>2017-06-11T07:59:46.000Z</time>
      </trkpt>
      <trkpt lat="48.45218" lon="7.39441">
        <ele>537.2197265625</ele>
        <time>2017-06-11T07:59:49.000Z</time>
      </trkpt>
      <trkpt lat="48.45221" lon="7.39439">
        <ele>537.82482910156</ele>
        <time>2017-06-11T07:59:51.000Z</time>
      </trkpt>
      <trkpt lat="48.45224" lon="7.39435">
        <ele>538.34466552734</ele>
        <time>2017-06-11T07:59:54.000Z</time>
      </trkpt>
      <trkpt lat="48.45226" lon="7.39432">
        <ele>538.65594482422</ele>
        <time>2017-06-11T07:59:56.000Z</time>
      </trkpt>
      <trkpt lat="48.4523" lon="7.39428">
        <ele>538.87182617188</ele>
        <time>2017-06-11T07:59:59.000Z</time>
      </trkpt>
      <trkpt lat="48.45232" lon="7.39424">
        <ele>539.00830078125</ele>
        <time>2017-06-11T08:00:01.000Z</time>
      </trkpt>
      <trkpt lat="48.45235" lon="7.39421">
        <ele>539.13299560547</ele>
        <time>2017-06-11T08:00:03.000Z</time>
      </trkpt>
      <trkpt lat="48.4524" lon="7.39417">
        <ele>539.31158447266</ele>
        <time>2017-06-11T08:00:06.000Z</time>
      </trkpt>
      <trkpt lat="48.45244" lon="7.39413">
        <ele>539.64715576172</ele>
        <time>2017-06-11T08:00:09.000Z</time>
      </trkpt>
      <trkpt lat="48.45245" lon="7.39412">
        <ele>539.95959472656</ele>
        <time>2017-06-11T08:00:11.000Z</time>
      </trkpt>
      <trkpt lat="48.45248" lon="7.39409">
        <ele>540.35968017578</ele>
        <time>2017-06-11T08:00:14.000Z</time>
      </trkpt>
      <trkpt lat="48.4525" lon="7.39406">
        <ele>540.732421875</ele>
        <time>2017-06-11T08:00:16.000Z</time>
      </trkpt>
      <trkpt lat="48.45253" lon="7.39401">
        <ele>541.02642822266</ele>
        <time>2017-06-11T08:00:19.000Z</time>
      </trkpt>
      <trkpt lat="48.45256" lon="7.39397">
        <ele>541.21502685547</ele>
        <time>2017-06-11T08:00:22.000Z</time>
      </trkpt>
      <trkpt lat="48.45258" lon="7.39395">
        <ele>541.45678710938</ele>
        <time>2017-06-11T08:00:24.000Z</time>
      </trkpt>
      <trkpt lat="48.4526" lon="7.39393">
        <ele>541.6796875</ele>
        <time>2017-06-11T08:00:26.000Z</time>
      </trkpt>
      <trkpt lat="48.45264" lon="7.3939">
        <ele>541.98608398438</ele>
        <time>2017-06-11T08:00:29.000Z</time>
      </trkpt>
      <trkpt lat="48.45267" lon="7.39387">
        <ele>542.35162353516</ele>
        <time>2017-06-11T08:00:32.000Z</time>
      </trkpt>
      <trkpt lat="48.45269" lon="7.39383">
        <ele>542.71508789062</ele>
        <time>2017-06-11T08:00:34.000Z</time>
      </trkpt>
      <trkpt lat="48.45272" lon="7.39379">
        <ele>543.07769775391</ele>
        <time>2017-06-11T08:00:37.000Z</time>
      </trkpt>
      <trkpt lat="48.45276" lon="7.39376">
        <ele>543.54180908203</ele>
        <time>2017-06-11T08:00:40.000Z</time>
      </trkpt>
      <trkpt lat="48.45279" lon="7.39375">
        <ele>544.00720214844</ele>
        <time>2017-06-11T08:00:42.000Z</time>
      </trkpt>
      <trkpt lat="48.4528" lon="7.39373">
        <ele>544.43774414062</ele>
        <time>2017-06-11T08:00:44.000Z</time>
      </trkpt>
      <trkpt lat="48.45283" lon="7.39371">
        <ele>544.9609375</ele>
        <time>2017-06-11T08:00:46.000Z</time>
      </trkpt>
      <trkpt lat="48.45286" lon="7.39368">
        <ele>545.47509765625</ele>
        <time>2017-06-11T08:00:49.000Z</time>
      </trkpt>
      <trkpt lat="48.45288" lon="7.39365">
        <ele>545.87677001953</ele>
        <time>2017-06-11T08:00:52.000Z</time>
      </trkpt>
      <trkpt lat="48.45292" lon="7.39359">
        <ele>546.15374755859</ele>
        <time>2017-06-11T08:00:55.000Z</time>
      </trkpt>
      <trkpt lat="48.45295" lon="7.39354">
        <ele>546.3857421875</ele>
        <time>2017-06-11T08:00:58.000Z</time>
      </trkpt>
      <trkpt lat="48.45297" lon="7.39348">
        <ele>546.32769775391</ele>
        <time>2017-06-11T08:01:01.000Z</time>
      </trkpt>
      <trkpt lat="48.45301" lon="7.39342">
        <ele>546.20275878906</ele>
        <time>2017-06-11T08:01:04.000Z</time>
      </trkpt>
      <trkpt lat="48.45305" lon="7.39339">
        <ele>546.23303222656</ele>
        <time>2017-06-11T08:01:07.000Z</time>
      </trkpt>
      <trkpt lat="48.45309" lon="7.39337">
        <ele>546.48114013672</ele>
        <time>2017-06-11T08:01:09.000Z</time>
      </trkpt>
      <trkpt lat="48.45313" lon="7.39335">
        <ele>546.9228515625</ele>
        <time>2017-06-11T08:01:12.000Z</time>
      </trkpt>
      <trkpt lat="48.45316" lon="7.39333">
        <ele>547.67956542969</ele>
        <time>2017-06-11T08:01:15.000Z</time>
      </trkpt>
      <trkpt lat="48.45319" lon="7.39329">
        <ele>548.53558349609</ele>
        <time>2017-06-11T08:01:18.000Z</time>
      </trkpt>
      <trkpt lat="48.45322" lon="7.39328">
        <ele>549.28430175781</ele>
        <time>2017-06-11T08:01:20.000Z</time>
      </trkpt>
      <trkpt lat="48.45325" lon="7.39326">
        <ele>549.97821044922</ele>
        <time>2017-06-11T08:01:23.000Z</time>
      </trkpt>
      <trkpt lat="48.45328" lon="7.39324">
        <ele>550.60858154297</ele>
        <time>2017-06-11T08:01:25.000Z</time>
      </trkpt>
      <trkpt lat="48.45331" lon="7.3932">
        <ele>551.17321777344</ele>
        <time>2017-06-11T08:01:28.000Z</time>
      </trkpt>
      <trkpt lat="48.45335" lon="7.39317">
        <ele>551.67663574219</ele>
        <time>2017-06-11T08:01:31.000Z</time>
      </trkpt>
      <trkpt lat="48.45337" lon="7.39314">
        <ele>552.09948730469</ele>
        <time>2017-06-11T08:01:33.000Z</time>
      </trkpt>
      <trkpt lat="48.45341" lon="7.39311">
        <ele>552.39147949219</ele>
        <time>2017-06-11T08:01:36.000Z</time>
      </trkpt>
      <trkpt lat="48.45344" lon="7.39309">
        <ele>552.60791015625</ele>
        <time>2017-06-11T08:01:38.000Z</time>
      </trkpt>
      <trkpt lat="48.45348" lon="7.39305">
        <ele>552.74475097656</ele>
        <time>2017-06-11T08:01:41.000Z</time>
      </trkpt>
      <trkpt lat="48.45352" lon="7.39303">
        <ele>553.02960205078</ele>
        <time>2017-06-11T08:01:44.000Z</time>
      </trkpt>
      <trkpt lat="48.45355" lon="7.39302">
        <ele>553.40301513672</ele>
        <time>2017-06-11T08:01:46.000Z</time>
      </trkpt>
      <trkpt lat="48.45358" lon="7.39301">
        <ele>553.86669921875</ele>
        <time>2017-06-11T08:01:48.000Z</time>
      </trkpt>
      <trkpt lat="48.45362" lon="7.39298">
        <ele>554.37664794922</ele>
        <time>2017-06-11T08:01:51.000Z</time>
      </trkpt>
      <trkpt lat="48.45367" lon="7.39294">
        <ele>554.94909667969</ele>
        <time>2017-06-11T08:01:54.000Z</time>
      </trkpt>
      <trkpt lat="48.45371" lon="7.3929">
        <ele>555.3583984375</ele>
        <time>2017-06-11T08:01:57.000Z</time>
      </trkpt>
      <trkpt lat="48.45375" lon="7.39288">
        <ele>555.80578613281</ele>
        <time>2017-06-11T08:02:00.000Z</time>
      </trkpt>
      <trkpt lat="48.45378" lon="7.39285">
        <ele>556.138671875</ele>
        <time>2017-06-11T08:02:03.000Z</time>
      </trkpt>
      <trkpt lat="48.4538" lon="7.39283">
        <ele>556.33514404297</ele>
        <time>2017-06-11T08:02:05.000Z</time>
      </trkpt>
      <trkpt lat="48.45383" lon="7.39279">
        <ele>556.51336669922</ele>
        <time>2017-06-11T08:02:08.000Z</time>
      </trkpt>
      <trkpt lat="48.45386" lon="7.39277">
        <ele>556.7158203125</ele>
        <time>2017-06-11T08:02:10.000Z</time>
      </trkpt>
      <trkpt lat="48.4539" lon="7.39275">
        <ele>556.87121582031</ele>
        <time>2017-06-11T08:02:13.000Z</time>
      </trkpt>
      <trkpt lat="48.45395" lon="7.39272">
        <ele>557.20690917969</ele>
        <time>2017-06-11T08:02:16.000Z</time>
      </trkpt>
      <trkpt lat="48.45398" lon="7.39271">
        <ele>557.7138671875</ele>
        <time>2017-06-11T08:02:18.000Z</time>
      </trkpt>
      <trkpt lat="48.45402" lon="7.3927">
        <ele>558.39764404297</ele>
        <time>2017-06-11T08:02:21.000Z</time>
      </trkpt>
      <trkpt lat="48.45406" lon="7.39267">
        <ele>559.15179443359</ele>
        <time>2017-06-11T08:02:24.000Z</time>
      </trkpt>
      <trkpt lat="48.4541" lon="7.39266">
        <ele>559.91522216797</ele>
        <time>2017-06-11T08:02:26.000Z</time>
      </trkpt>
      <trkpt lat="48.45415" lon="7.39264">
        <ele>560.70471191406</ele>
        <time>2017-06-11T08:02:29.000Z</time>
      </trkpt>
      <trkpt lat="48.45417" lon="7.39262">
        <ele>561.40032958984</ele>
        <time>2017-06-11T08:02:31.000Z</time>
      </trkpt>
      <trkpt lat="48.4542" lon="7.39261">
        <ele>561.80981445312</ele>
        <time>2017-06-11T08:02:33.000Z</time>
      </trkpt>
      <trkpt lat="48.45422" lon="7.39259">
        <ele>561.966796875</ele>
        <time>2017-06-11T08:02:35.000Z</time>
      </trkpt>
      <trkpt lat="48.45426" lon="7.39258">
        <ele>561.94219970703</ele>
        <time>2017-06-11T08:02:38.000Z</time>
      </trkpt>
      <trkpt lat="48.45429" lon="7.39257">
        <ele>561.6689453125</ele>
        <time>2017-06-11T08:02:40.000Z</time>
      </trkpt>
      <trkpt lat="48.45434" lon="7.39258">
        <ele>561.3662109375</ele>
        <time>2017-06-11T08:02:45.000Z</time>
      </trkpt>
      <trkpt lat="48.45438" lon="7.3926">
        <ele>561.2431640625</ele>
        <time>2017-06-11T08:02:46.000Z</time>
      </trkpt>
      <trkpt lat="48.45442" lon="7.3926">
        <ele>561.275390625</ele>
        <time>2017-06-11T08:02:49.000Z</time>
      </trkpt>
      <trkpt lat="48.45446" lon="7.39261">
        <ele>561.419921875</ele>
        <time>2017-06-11T08:02:52.000Z</time>
      </trkpt>
      <trkpt lat="48.45451" lon="7.39262">
        <ele>561.6748046875</ele>
        <time>2017-06-11T08:02:55.000Z</time>
      </trkpt>
      <trkpt lat="48.45455" lon="7.39264">
        <ele>561.9921875</ele>
        <time>2017-06-11T08:02:58.000Z</time>
      </trkpt>
      <trkpt lat="48.45459" lon="7.39266">
        <ele>562.3271484375</ele>
        <time>2017-06-11T08:03:01.000Z</time>
      </trkpt>
      <trkpt lat="48.45465" lon="7.39267">
        <ele>562.66796875</ele>
        <time>2017-06-11T08:03:04.000Z</time>
      </trkpt>
      <trkpt lat="48.45469" lon="7.39269">
        <ele>563.0712890625</ele>
        <time>2017-06-11T08:03:07.000Z</time>
      </trkpt>
      <trkpt lat="48.45471" lon="7.39271">
        <ele>563.5263671875</ele>
        <time>2017-06-11T08:03:09.000Z</time>
      </trkpt>
      <trkpt lat="48.45475" lon="7.39274">
        <ele>564.0107421875</ele>
        <time>2017-06-11T08:03:11.000Z</time>
      </trkpt>
      <trkpt lat="48.45478" lon="7.39278">
        <ele>564.625</ele>
        <time>2017-06-11T08:03:14.000Z</time>
      </trkpt>
      <trkpt lat="48.4548" lon="7.3928">
        <ele>565.3212890625</ele>
        <time>2017-06-11T08:03:16.000Z</time>
      </trkpt>
      <trkpt lat="48.45482" lon="7.39283">
        <ele>566.0908203125</ele>
        <time>2017-06-11T08:03:18.000Z</time>
      </trkpt>
      <trkpt lat="48.45484" lon="7.39288">
        <ele>567.0029296875</ele>
        <time>2017-06-11T08:03:21.000Z</time>
      </trkpt>
      <trkpt lat="48.45486" lon="7.39292">
        <ele>568.0302734375</ele>
        <time>2017-06-11T08:03:24.000Z</time>
      </trkpt>
      <trkpt lat="48.45488" lon="7.39299">
        <ele>569.205078125</ele>
        <time>2017-06-11T08:03:27.000Z</time>
      </trkpt>
      <trkpt lat="48.45491" lon="7.39305">
        <ele>570.6044921875</ele>
        <time>2017-06-11T08:03:30.000Z</time>
      </trkpt>
      <trkpt lat="48.45494" lon="7.39308">
        <ele>572.0166015625</ele>
        <time>2017-06-11T08:03:33.000Z</time>
      </trkpt>
      <trkpt lat="48.45498" lon="7.39313">
        <ele>573.4326171875</ele>
        <time>2017-06-11T08:03:36.000Z</time>
      </trkpt>
      <trkpt lat="48.45501" lon="7.39316">
        <ele>574.77893066406</ele>
        <time>2017-06-11T08:03:38.000Z</time>
      </trkpt>
      <trkpt lat="48.45504" lon="7.3932">
        <ele>575.80206298828</ele>
        <time>2017-06-11T08:03:41.000Z</time>
      </trkpt>
      <trkpt lat="48.45507" lon="7.39322">
        <ele>576.4951171875</ele>
        <time>2017-06-11T08:03:43.000Z</time>
      </trkpt>
      <trkpt lat="48.4551" lon="7.39325">
        <ele>577.01531982422</ele>
        <time>2017-06-11T08:03:45.000Z</time>
      </trkpt>
      <trkpt lat="48.45514" lon="7.39328">
        <ele>577.31506347656</ele>
        <time>2017-06-11T08:03:47.000Z</time>
      </trkpt>
      <trkpt lat="48.4552" lon="7.39335">
        <ele>577.55303955078</ele>
        <time>2017-06-11T08:03:50.000Z</time>
      </trkpt>
      <trkpt lat="48.45523" lon="7.39344">
        <ele>578.11083984375</ele>
        <time>2017-06-11T08:03:53.000Z</time>
      </trkpt>
      <trkpt lat="48.45525" lon="7.3935">
        <ele>578.93237304688</ele>
        <time>2017-06-11T08:03:56.000Z</time>
      </trkpt>
      <trkpt lat="48.45528" lon="7.39354">
        <ele>579.82934570312</ele>
        <time>2017-06-11T08:03:58.000Z</time>
      </trkpt>
      <trkpt lat="48.45531" lon="7.39359">
        <ele>580.82043457031</ele>
        <time>2017-06-11T08:04:01.000Z</time>
      </trkpt>
      <trkpt lat="48.45535" lon="7.39361">
        <ele>581.69714355469</ele>
        <time>2017-06-11T08:04:03.000Z</time>
      </trkpt>
      <trkpt lat="48.45538" lon="7.39366">
        <ele>582.37664794922</ele>
        <time>2017-06-11T08:04:06.000Z</time>
      </trkpt>
      <trkpt lat="48.45539" lon="7.39373">
        <ele>583.07244873047</ele>
        <time>2017-06-11T08:04:09.000Z</time>
      </trkpt>
      <trkpt lat="48.45543" lon="7.39379">
        <ele>583.84613037109</ele>
        <time>2017-06-11T08:04:12.000Z</time>
      </trkpt>
      <trkpt lat="48.45546" lon="7.39382">
        <ele>584.52380371094</ele>
        <time>2017-06-11T08:04:14.000Z</time>
      </trkpt>
      <trkpt lat="48.4555" lon="7.39384">
        <ele>585.19207763672</ele>
        <time>2017-06-11T08:04:16.000Z</time>
      </trkpt>
      <trkpt lat="48.45552" lon="7.39386">
        <ele>585.62719726562</ele>
        <time>2017-06-11T08:04:18.000Z</time>
      </trkpt>
      <trkpt lat="48.45558" lon="7.39388">
        <ele>585.63208007812</ele>
        <time>2017-06-11T08:04:21.000Z</time>
      </trkpt>
      <trkpt lat="48.45562" lon="7.3939">
        <ele>585.35821533203</ele>
        <time>2017-06-11T08:04:23.000Z</time>
      </trkpt>
      <trkpt lat="48.45567" lon="7.39394">
        <ele>585.08093261719</ele>
        <time>2017-06-11T08:04:25.000Z</time>
      </trkpt>
      <trkpt lat="48.4557" lon="7.39396">
        <ele>584.80535888672</ele>
        <time>2017-06-11T08:04:28.000Z</time>
      </trkpt>
      <trkpt lat="48.45574" lon="7.39399">
        <ele>584.51849365234</ele>
        <time>2017-06-11T08:04:31.000Z</time>
      </trkpt>
      <trkpt lat="48.45578" lon="7.39402">
        <ele>584.37390136719</ele>
        <time>2017-06-11T08:04:33.000Z</time>
      </trkpt>
      <trkpt lat="48.45584" lon="7.39405">
        <ele>584.24749755859</ele>
        <time>2017-06-11T08:04:36.000Z</time>
      </trkpt>
      <trkpt lat="48.45587" lon="7.39408">
        <ele>584.07110595703</ele>
        <time>2017-06-11T08:04:38.000Z</time>
      </trkpt>
      <trkpt lat="48.45591" lon="7.39409">
        <ele>583.83917236328</ele>
        <time>2017-06-11T08:04:40.000Z</time>
      </trkpt>
      <trkpt lat="48.45595" lon="7.39412">
        <ele>583.60821533203</ele>
        <time>2017-06-11T08:04:43.000Z</time>
      </trkpt>
      <trkpt lat="48.45599" lon="7.39414">
        <ele>583.34161376953</ele>
        <time>2017-06-11T08:04:45.000Z</time>
      </trkpt>
      <trkpt lat="48.45602" lon="7.39416">
        <ele>583.10699462891</ele>
        <time>2017-06-11T08:04:47.000Z</time>
      </trkpt>
      <trkpt lat="48.45606" lon="7.39417">
        <ele>582.80969238281</ele>
        <time>2017-06-11T08:04:50.000Z</time>
      </trkpt>
      <trkpt lat="48.4561" lon="7.39422">
        <ele>582.66662597656</ele>
        <time>2017-06-11T08:04:52.000Z</time>
      </trkpt>
      <trkpt lat="48.45613" lon="7.39427">
        <ele>582.6875</ele>
        <time>2017-06-11T08:04:54.000Z</time>
      </trkpt>
      <trkpt lat="48.45615" lon="7.39432">
        <ele>582.87170410156</ele>
        <time>2017-06-11T08:04:56.000Z</time>
      </trkpt>
      <trkpt lat="48.45618" lon="7.39436">
        <ele>583.23114013672</ele>
        <time>2017-06-11T08:04:58.000Z</time>
      </trkpt>
      <trkpt lat="48.4562" lon="7.39441">
        <ele>583.82189941406</ele>
        <time>2017-06-11T08:05:01.000Z</time>
      </trkpt>
      <trkpt lat="48.45623" lon="7.39446">
        <ele>584.44323730469</ele>
        <time>2017-06-11T08:05:04.000Z</time>
      </trkpt>
      <trkpt lat="48.45625" lon="7.39449">
        <ele>585.03405761719</ele>
        <time>2017-06-11T08:05:06.000Z</time>
      </trkpt>
      <trkpt lat="48.4563" lon="7.39456">
        <ele>585.66271972656</ele>
        <time>2017-06-11T08:05:09.000Z</time>
      </trkpt>
      <trkpt lat="48.45636" lon="7.3946">
        <ele>586.11560058594</ele>
        <time>2017-06-11T08:05:12.000Z</time>
      </trkpt>
      <trkpt lat="48.45641" lon="7.39464">
        <ele>586.44958496094</ele>
        <time>2017-06-11T08:05:15.000Z</time>
      </trkpt>
      <trkpt lat="48.45643" lon="7.39469">
        <ele>586.7890625</ele>
        <time>2017-06-11T08:05:17.000Z</time>
      </trkpt>
      <trkpt lat="48.45646" lon="7.39473">
        <ele>587.20568847656</ele>
        <time>2017-06-11T08:05:19.000Z</time>
      </trkpt>
      <trkpt lat="48.4565" lon="7.39479">
        <ele>587.54797363281</ele>
        <time>2017-06-11T08:05:22.000Z</time>
      </trkpt>
      <trkpt lat="48.45655" lon="7.39486">
        <ele>588.107421875</ele>
        <time>2017-06-11T08:05:25.000Z</time>
      </trkpt>
      <trkpt lat="48.45658" lon="7.39489">
        <ele>588.73992919922</ele>
        <time>2017-06-11T08:05:27.000Z</time>
      </trkpt>
      <trkpt lat="48.45663" lon="7.39494">
        <ele>589.28936767578</ele>
        <time>2017-06-11T08:05:30.000Z</time>
      </trkpt>
      <trkpt lat="48.45667" lon="7.39498">
        <ele>589.71337890625</ele>
        <time>2017-06-11T08:05:32.000Z</time>
      </trkpt>
      <trkpt lat="48.45671" lon="7.39503">
        <ele>590.08972167969</ele>
        <time>2017-06-11T08:05:35.000Z</time>
      </trkpt>
      <trkpt lat="48.45673" lon="7.39507">
        <ele>590.353515625</ele>
        <time>2017-06-11T08:05:37.000Z</time>
      </trkpt>
      <trkpt lat="48.45676" lon="7.39512">
        <ele>590.55731201172</ele>
        <time>2017-06-11T08:05:40.000Z</time>
      </trkpt>
      <trkpt lat="48.45678" lon="7.39516">
        <ele>590.74530029297</ele>
        <time>2017-06-11T08:05:42.000Z</time>
      </trkpt>
      <trkpt lat="48.4568" lon="7.3952">
        <ele>590.92956542969</ele>
        <time>2017-06-11T08:05:44.000Z</time>
      </trkpt>
      <trkpt lat="48.45683" lon="7.39524">
        <ele>591.0986328125</ele>
        <time>2017-06-11T08:05:47.000Z</time>
      </trkpt>
      <trkpt lat="48.45686" lon="7.39527">
        <ele>591.19921875</ele>
        <time>2017-06-11T08:05:49.000Z</time>
      </trkpt>
      <trkpt lat="48.45688" lon="7.39533">
        <ele>591.35998535156</ele>
        <time>2017-06-11T08:05:52.000Z</time>
      </trkpt>
      <trkpt lat="48.45689" lon="7.39537">
        <ele>591.59436035156</ele>
        <time>2017-06-11T08:05:54.000Z</time>
      </trkpt>
      <trkpt lat="48.45692" lon="7.39542">
        <ele>591.884765625</ele>
        <time>2017-06-11T08:05:57.000Z</time>
      </trkpt>
      <trkpt lat="48.45695" lon="7.39548">
        <ele>592.21667480469</ele>
        <time>2017-06-11T08:06:00.000Z</time>
      </trkpt>
      <trkpt lat="48.45697" lon="7.39555">
        <ele>592.72705078125</ele>
        <time>2017-06-11T08:06:03.000Z</time>
      </trkpt>
      <trkpt lat="48.457" lon="7.3956">
        <ele>593.17346191406</ele>
        <time>2017-06-11T08:06:06.000Z</time>
      </trkpt>
      <trkpt lat="48.45702" lon="7.39565">
        <ele>593.63684082031</ele>
        <time>2017-06-11T08:06:08.000Z</time>
      </trkpt>
      <trkpt lat="48.45704" lon="7.39572">
        <ele>594.1728515625</ele>
        <time>2017-06-11T08:06:11.000Z</time>
      </trkpt>
      <trkpt lat="48.45705" lon="7.39576">
        <ele>594.7119140625</ele>
        <time>2017-06-11T08:06:13.000Z</time>
      </trkpt>
      <trkpt lat="48.45708" lon="7.39582">
        <ele>595.19079589844</ele>
        <time>2017-06-11T08:06:16.000Z</time>
      </trkpt>
      <trkpt lat="48.4571" lon="7.39587">
        <ele>595.7109375</ele>
        <time>2017-06-11T08:06:19.000Z</time>
      </trkpt>
      <trkpt lat="48.45711" lon="7.39592">
        <ele>596.24621582031</ele>
        <time>2017-06-11T08:06:21.000Z</time>
      </trkpt>
      <trkpt lat="48.45713" lon="7.39598">
        <ele>596.72503662109</ele>
        <time>2017-06-11T08:06:24.000Z</time>
      </trkpt>
      <trkpt lat="48.45715" lon="7.39605">
        <ele>597.26623535156</ele>
        <time>2017-06-11T08:06:27.000Z</time>
      </trkpt>
      <trkpt lat="48.45718" lon="7.39612">
        <ele>597.83746337891</ele>
        <time>2017-06-11T08:06:30.000Z</time>
      </trkpt>
      <trkpt lat="48.4572" lon="7.39617">
        <ele>598.42614746094</ele>
        <time>2017-06-11T08:06:32.000Z</time>
      </trkpt>
      <trkpt lat="48.45722" lon="7.39624">
        <ele>598.99133300781</ele>
        <time>2017-06-11T08:06:35.000Z</time>
      </trkpt>
      <trkpt lat="48.45724" lon="7.3963">
        <ele>599.59387207031</ele>
        <time>2017-06-11T08:06:38.000Z</time>
      </trkpt>
      <trkpt lat="48.45726" lon="7.39638">
        <ele>600.21606445312</ele>
        <time>2017-06-11T08:06:41.000Z</time>
      </trkpt>
      <trkpt lat="48.45728" lon="7.39643">
        <ele>600.86444091797</ele>
        <time>2017-06-11T08:06:44.000Z</time>
      </trkpt>
      <trkpt lat="48.45727" lon="7.39648">
        <ele>601.64294433594</ele>
        <time>2017-06-11T08:06:46.000Z</time>
      </trkpt>
      <trkpt lat="48.45725" lon="7.39655">
        <ele>602.66931152344</ele>
        <time>2017-06-11T08:06:49.000Z</time>
      </trkpt>
      <trkpt lat="48.45724" lon="7.39661">
        <ele>603.79968261719</ele>
        <time>2017-06-11T08:06:51.000Z</time>
      </trkpt>
      <trkpt lat="48.45723" lon="7.39665">
        <ele>604.9775390625</ele>
        <time>2017-06-11T08:06:53.000Z</time>
      </trkpt>
      <trkpt lat="48.4572" lon="7.3967">
        <ele>606.3017578125</ele>
        <time>2017-06-11T08:06:56.000Z</time>
      </trkpt>
      <trkpt lat="48.45716" lon="7.39672">
        <ele>607.61004638672</ele>
        <time>2017-06-11T08:06:59.000Z</time>
      </trkpt>
      <trkpt lat="48.45713" lon="7.39673">
        <ele>608.79895019531</ele>
        <time>2017-06-11T08:07:02.000Z</time>
      </trkpt>
      <trkpt lat="48.45711" lon="7.39674">
        <ele>609.85382080078</ele>
        <time>2017-06-11T08:07:04.000Z</time>
      </trkpt>
      <trkpt lat="48.45708" lon="7.39675">
        <ele>610.87176513672</ele>
        <time>2017-06-11T08:07:07.000Z</time>
      </trkpt>
      <trkpt lat="48.45706" lon="7.39675">
        <ele>611.67144775391</ele>
        <time>2017-06-11T08:07:09.000Z</time>
      </trkpt>
      <trkpt lat="48.45704" lon="7.39674">
        <ele>612.35760498047</ele>
        <time>2017-06-11T08:07:11.000Z</time>
      </trkpt>
      <trkpt lat="48.45703" lon="7.39673">
        <ele>612.84942626953</ele>
        <time>2017-06-11T08:07:13.000Z</time>
      </trkpt>
      <trkpt lat="48.457" lon="7.3967">
        <ele>613.30926513672</ele>
        <time>2017-06-11T08:07:17.000Z</time>
      </trkpt>
      <trkpt lat="48.45697" lon="7.39663">
        <ele>613.53002929688</ele>
        <time>2017-06-11T08:07:19.000Z</time>
      </trkpt>
      <trkpt lat="48.45694" lon="7.39658">
        <ele>613.64996337891</ele>
        <time>2017-06-11T08:07:22.000Z</time>
      </trkpt>
      <trkpt lat="48.45691" lon="7.39655">
        <ele>613.73992919922</ele>
        <time>2017-06-11T08:07:25.000Z</time>
      </trkpt>
      <trkpt lat="48.45688" lon="7.39652">
        <ele>613.8447265625</ele>
        <time>2017-06-11T08:07:27.000Z</time>
      </trkpt>
      <trkpt lat="48.45686" lon="7.3965">
        <ele>613.86486816406</ele>
        <time>2017-06-11T08:07:29.000Z</time>
      </trkpt>
      <trkpt lat="48.45683" lon="7.39647">
        <ele>614.02630615234</ele>
        <time>2017-06-11T08:07:32.000Z</time>
      </trkpt>
      <trkpt lat="48.45679" lon="7.39644">
        <ele>614.28631591797</ele>
        <time>2017-06-11T08:07:34.000Z</time>
      </trkpt>
      <trkpt lat="48.45674" lon="7.3964">
        <ele>614.6083984375</ele>
        <time>2017-06-11T08:07:37.000Z</time>
      </trkpt>
      <trkpt lat="48.45667" lon="7.39637">
        <ele>615.15515136719</ele>
        <time>2017-06-11T08:07:40.000Z</time>
      </trkpt>
      <trkpt lat="48.45657" lon="7.39631">
        <ele>615.78643798828</ele>
        <time>2017-06-11T08:07:43.000Z</time>
      </trkpt>
      <trkpt lat="48.45651" lon="7.39627">
        <ele>616.38482666016</ele>
        <time>2017-06-11T08:07:45.000Z</time>
      </trkpt>
      <trkpt lat="48.45643" lon="7.39621">
        <ele>616.90539550781</ele>
        <time>2017-06-11T08:07:48.000Z</time>
      </trkpt>
      <trkpt lat="48.45638" lon="7.39616">
        <ele>617.27941894531</ele>
        <time>2017-06-11T08:07:50.000Z</time>
      </trkpt>
      <trkpt lat="48.4563" lon="7.39611">
        <ele>617.43322753906</ele>
        <time>2017-06-11T08:07:53.000Z</time>
      </trkpt>
      <trkpt lat="48.45625" lon="7.39607">
        <ele>617.52868652344</ele>
        <time>2017-06-11T08:07:55.000Z</time>
      </trkpt>
      <trkpt lat="48.4562" lon="7.39606">
        <ele>617.67565917969</ele>
        <time>2017-06-11T08:07:57.000Z</time>
      </trkpt>
      <trkpt lat="48.45612" lon="7.39606">
        <ele>618.06799316406</ele>
        <time>2017-06-11T08:08:00.000Z</time>
      </trkpt>
      <trkpt lat="48.45606" lon="7.39608">
        <ele>618.67572021484</ele>
        <time>2017-06-11T08:08:02.000Z</time>
      </trkpt>
      <trkpt lat="48.45599" lon="7.3961">
        <ele>619.4638671875</ele>
        <time>2017-06-11T08:08:05.000Z</time>
      </trkpt>
      <trkpt lat="48.45593" lon="7.39609">
        <ele>620.39562988281</ele>
        <time>2017-06-11T08:08:08.000Z</time>
      </trkpt>
      <trkpt lat="48.45587" lon="7.39609">
        <ele>621.37701416016</ele>
        <time>2017-06-11T08:08:11.000Z</time>
      </trkpt>
      <trkpt lat="48.45583" lon="7.39609">
        <ele>622.25897216797</ele>
        <time>2017-06-11T08:08:13.000Z</time>
      </trkpt>
      <trkpt lat="48.45581" lon="7.39609">
        <ele>622.97247314453</ele>
        <time>2017-06-11T08:08:15.000Z</time>
      </trkpt>
      <trkpt lat="48.45582" lon="7.39608">
        <ele>623.38916015625</ele>
        <time>2017-06-11T08:08:23.000Z</time>
      </trkpt>
      <trkpt lat="48.45583" lon="7.39607">
        <ele>623.59460449219</ele>
        <time>2017-06-11T08:08:25.000Z</time>
      </trkpt>
      <trkpt lat="48.45581" lon="7.39604">
        <ele>623.59899902344</ele>
        <time>2017-06-11T08:08:36.000Z</time>
      </trkpt>
      <trkpt lat="48.45581" lon="7.39604">
        <ele>623.59899902344</ele>
        <time>2017-06-11T08:08:56.000Z</time>
      </trkpt>
      <trkpt lat="48.4558" lon="7.39601">
        <ele>623.41149902344</ele>
        <time>2017-06-11T08:09:47.000Z</time>
      </trkpt>
      <trkpt lat="48.45579" lon="7.39599">
        <ele>623.16540527344</ele>
        <time>2017-06-11T08:09:53.000Z</time>
      </trkpt>
      <trkpt lat="48.45579" lon="7.39599">
        <ele>623.16540527344</ele>
        <time>2017-06-11T08:10:13.000Z</time>
      </trkpt>
      <trkpt lat="48.45578" lon="7.396">
        <ele>623.02038574219</ele>
        <time>2017-06-11T08:10:17.000Z</time>
      </trkpt>
      <trkpt lat="48.45578" lon="7.396">
        <ele>623.02038574219</ele>
        <time>2017-06-11T08:10:37.000Z</time>
      </trkpt>
      <trkpt lat="48.45578" lon="7.39602">
        <ele>622.97711181641</ele>
        <time>2017-06-11T08:10:51.000Z</time>
      </trkpt>
      <trkpt lat="48.45573" lon="7.396">
        <ele>623.03662109375</ele>
        <time>2017-06-11T08:10:54.000Z</time>
      </trkpt>
      <trkpt lat="48.45569" lon="7.39599">
        <ele>623.17797851562</ele>
        <time>2017-06-11T08:10:56.000Z</time>
      </trkpt>
      <trkpt lat="48.45562" lon="7.39598">
        <ele>623.47644042969</ele>
        <time>2017-06-11T08:10:59.000Z</time>
      </trkpt>
      <trkpt lat="48.45556" lon="7.39599">
        <ele>623.88464355469</ele>
        <time>2017-06-11T08:11:02.000Z</time>
      </trkpt>
      <trkpt lat="48.45553" lon="7.39602">
        <ele>624.37731933594</ele>
        <time>2017-06-11T08:11:04.000Z</time>
      </trkpt>
      <trkpt lat="48.4555" lon="7.39605">
        <ele>624.94598388672</ele>
        <time>2017-06-11T08:11:07.000Z</time>
      </trkpt>
      <trkpt lat="48.45547" lon="7.39604">
        <ele>625.52752685547</ele>
        <time>2017-06-11T08:11:09.000Z</time>
      </trkpt>
      <trkpt lat="48.45542" lon="7.39603">
        <ele>626.03582763672</ele>
        <time>2017-06-11T08:11:11.000Z</time>
      </trkpt>
      <trkpt lat="48.45535" lon="7.396">
        <ele>626.48547363281</ele>
        <time>2017-06-11T08:11:14.000Z</time>
      </trkpt>
      <trkpt lat="48.45528" lon="7.39599">
        <ele>626.90185546875</ele>
        <time>2017-06-11T08:11:17.000Z</time>
      </trkpt>
      <trkpt lat="48.45524" lon="7.39599">
        <ele>627.27819824219</ele>
        <time>2017-06-11T08:11:19.000Z</time>
      </trkpt>
      <trkpt lat="48.45519" lon="7.39599">
        <ele>627.69989013672</ele>
        <time>2017-06-11T08:11:21.000Z</time>
      </trkpt>
      <trkpt lat="48.45516" lon="7.39597">
        <ele>628.07543945312</ele>
        <time>2017-06-11T08:11:24.000Z</time>
      </trkpt>
      <trkpt lat="48.45504" lon="7.3959">
        <ele>628.46813964844</ele>
        <time>2017-06-11T08:11:27.000Z</time>
      </trkpt>
      <trkpt lat="48.45499" lon="7.3959">
        <ele>628.87335205078</ele>
        <time>2017-06-11T08:11:30.000Z</time>
      </trkpt>
      <trkpt lat="48.45494" lon="7.39592">
        <ele>629.29089355469</ele>
        <time>2017-06-11T08:11:33.000Z</time>
      </trkpt>
      <trkpt lat="48.45492" lon="7.39594">
        <ele>629.69079589844</ele>
        <time>2017-06-11T08:11:35.000Z</time>
      </trkpt>
      <trkpt lat="48.45486" lon="7.39598">
        <ele>630.22003173828</ele>
        <time>2017-06-11T08:11:38.000Z</time>
      </trkpt>
      <trkpt lat="48.45483" lon="7.396">
        <ele>630.73889160156</ele>
        <time>2017-06-11T08:11:40.000Z</time>
      </trkpt>
      <trkpt lat="48.45477" lon="7.39604">
        <ele>631.29797363281</ele>
        <time>2017-06-11T08:11:43.000Z</time>
      </trkpt>
      <trkpt lat="48.45473" lon="7.39607">
        <ele>631.85876464844</ele>
        <time>2017-06-11T08:11:45.000Z</time>
      </trkpt>
      <trkpt lat="48.4547" lon="7.39611">
        <ele>632.47802734375</ele>
        <time>2017-06-11T08:11:47.000Z</time>
      </trkpt>
      <trkpt lat="48.45464" lon="7.39618">
        <ele>633.16729736328</ele>
        <time>2017-06-11T08:11:50.000Z</time>
      </trkpt>
      <trkpt lat="48.45459" lon="7.39623">
        <ele>633.91473388672</ele>
        <time>2017-06-11T08:11:53.000Z</time>
      </trkpt>
      <trkpt lat="48.45455" lon="7.39626">
        <ele>634.60711669922</ele>
        <time>2017-06-11T08:11:55.000Z</time>
      </trkpt>
      <trkpt lat="48.45452" lon="7.39629">
        <ele>635.29919433594</ele>
        <time>2017-06-11T08:11:57.000Z</time>
      </trkpt>
      <trkpt lat="48.45447" lon="7.39635">
        <ele>636.02459716797</ele>
        <time>2017-06-11T08:12:00.000Z</time>
      </trkpt>
      <trkpt lat="48.45444" lon="7.39639">
        <ele>636.65301513672</ele>
        <time>2017-06-11T08:12:02.000Z</time>
      </trkpt>
      <trkpt lat="48.45441" lon="7.39642">
        <ele>637.22515869141</ele>
        <time>2017-06-11T08:12:04.000Z</time>
      </trkpt>
      <trkpt lat="48.45438" lon="7.39645">
        <ele>637.79064941406</ele>
        <time>2017-06-11T08:12:06.000Z</time>
      </trkpt>
      <trkpt lat="48.45435" lon="7.39647">
        <ele>638.32922363281</ele>
        <time>2017-06-11T08:12:08.000Z</time>
      </trkpt>
      <trkpt lat="48.45432" lon="7.3965">
        <ele>638.79040527344</ele>
        <time>2017-06-11T08:12:10.000Z</time>
      </trkpt>
      <trkpt lat="48.45428" lon="7.39653">
        <ele>639.24047851562</ele>
        <time>2017-06-11T08:12:13.000Z</time>
      </trkpt>
      <trkpt lat="48.45425" lon="7.39656">
        <ele>639.67358398438</ele>
        <time>2017-06-11T08:12:16.000Z</time>
      </trkpt>
      <trkpt lat="48.45421" lon="7.3966">
        <ele>640.14471435547</ele>
        <time>2017-06-11T08:12:19.000Z</time>
      </trkpt>
      <trkpt lat="48.45417" lon="7.39662">
        <ele>640.62030029297</ele>
        <time>2017-06-11T08:12:21.000Z</time>
      </trkpt>
      <trkpt lat="48.45413" lon="7.39666">
        <ele>641.01971435547</ele>
        <time>2017-06-11T08:12:24.000Z</time>
      </trkpt>
      <trkpt lat="48.4541" lon="7.39669">
        <ele>641.30755615234</ele>
        <time>2017-06-11T08:12:26.000Z</time>
      </trkpt>
      <trkpt lat="48.45406" lon="7.39672">
        <ele>641.49548339844</ele>
        <time>2017-06-11T08:12:29.000Z</time>
      </trkpt>
      <trkpt lat="48.45401" lon="7.39676">
        <ele>641.55334472656</ele>
        <time>2017-06-11T08:12:32.000Z</time>
      </trkpt>
      <trkpt lat="48.45398" lon="7.39677">
        <ele>641.490234375</ele>
        <time>2017-06-11T08:12:34.000Z</time>
      </trkpt>
      <trkpt lat="48.45395" lon="7.39679">
        <ele>641.38781738281</ele>
        <time>2017-06-11T08:12:36.000Z</time>
      </trkpt>
      <trkpt lat="48.45391" lon="7.39681">
        <ele>641.27844238281</ele>
        <time>2017-06-11T08:12:39.000Z</time>
      </trkpt>
      <trkpt lat="48.45388" lon="7.39683">
        <ele>641.17279052734</ele>
        <time>2017-06-11T08:12:42.000Z</time>
      </trkpt>
      <trkpt lat="48.45384" lon="7.39685">
        <ele>641.03210449219</ele>
        <time>2017-06-11T08:12:45.000Z</time>
      </trkpt>
      <trkpt lat="48.4538" lon="7.39689">
        <ele>640.95068359375</ele>
        <time>2017-06-11T08:12:48.000Z</time>
      </trkpt>
      <trkpt lat="48.45377" lon="7.39693">
        <ele>640.92645263672</ele>
        <time>2017-06-11T08:12:51.000Z</time>
      </trkpt>
      <trkpt lat="48.45373" lon="7.39697">
        <ele>640.94976806641</ele>
        <time>2017-06-11T08:12:54.000Z</time>
      </trkpt>
      <trkpt lat="48.4537" lon="7.39703">
        <ele>641.05303955078</ele>
        <time>2017-06-11T08:12:57.000Z</time>
      </trkpt>
      <trkpt lat="48.45366" lon="7.39709">
        <ele>641.24279785156</ele>
        <time>2017-06-11T08:13:00.000Z</time>
      </trkpt>
      <trkpt lat="48.45361" lon="7.39713">
        <ele>641.45080566406</ele>
        <time>2017-06-11T08:13:03.000Z</time>
      </trkpt>
      <trkpt lat="48.45357" lon="7.39717">
        <ele>641.65881347656</ele>
        <time>2017-06-11T08:13:07.000Z</time>
      </trkpt>
      <trkpt lat="48.45355" lon="7.39722">
        <ele>641.90191650391</ele>
        <time>2017-06-11T08:13:08.000Z</time>
      </trkpt>
      <trkpt lat="48.45351" lon="7.39727">
        <ele>642.12854003906</ele>
        <time>2017-06-11T08:13:11.000Z</time>
      </trkpt>
      <trkpt lat="48.45348" lon="7.39732">
        <ele>642.37518310547</ele>
        <time>2017-06-11T08:13:14.000Z</time>
      </trkpt>
      <trkpt lat="48.45345" lon="7.39736">
        <ele>642.63195800781</ele>
        <time>2017-06-11T08:13:16.000Z</time>
      </trkpt>
      <trkpt lat="48.45342" lon="7.39739">
        <ele>642.88977050781</ele>
        <time>2017-06-11T08:13:18.000Z</time>
      </trkpt>
      <trkpt lat="48.45338" lon="7.39744">
        <ele>643.15643310547</ele>
        <time>2017-06-11T08:13:21.000Z</time>
      </trkpt>
      <trkpt lat="48.45335" lon="7.39749">
        <ele>643.44616699219</ele>
        <time>2017-06-11T08:13:24.000Z</time>
      </trkpt>
      <trkpt lat="48.45333" lon="7.39753">
        <ele>643.74798583984</ele>
        <time>2017-06-11T08:13:26.000Z</time>
      </trkpt>
      <trkpt lat="48.4533" lon="7.39757">
        <ele>644.02905273438</ele>
        <time>2017-06-11T08:13:28.000Z</time>
      </trkpt>
      <trkpt lat="48.45328" lon="7.3976">
        <ele>644.28826904297</ele>
        <time>2017-06-11T08:13:30.000Z</time>
      </trkpt>
      <trkpt lat="48.45324" lon="7.39764">
        <ele>644.47509765625</ele>
        <time>2017-06-11T08:13:33.000Z</time>
      </trkpt>
      <trkpt lat="48.45321" lon="7.3977">
        <ele>644.65881347656</ele>
        <time>2017-06-11T08:13:36.000Z</time>
      </trkpt>
      <trkpt lat="48.45318" lon="7.39775">
        <ele>644.84240722656</ele>
        <time>2017-06-11T08:13:39.000Z</time>
      </trkpt>
      <trkpt lat="48.45316" lon="7.3978">
        <ele>645.08435058594</ele>
        <time>2017-06-11T08:13:42.000Z</time>
      </trkpt>
      <trkpt lat="48.45315" lon="7.39783">
        <ele>645.38269042969</ele>
        <time>2017-06-11T08:13:44.000Z</time>
      </trkpt>
      <trkpt lat="48.45313" lon="7.3979">
        <ele>645.81134033203</ele>
        <time>2017-06-11T08:13:47.000Z</time>
      </trkpt>
      <trkpt lat="48.4531" lon="7.39796">
        <ele>646.26135253906</ele>
        <time>2017-06-11T08:13:50.000Z</time>
      </trkpt>
      <trkpt lat="48.45308" lon="7.39799">
        <ele>646.68054199219</ele>
        <time>2017-06-11T08:13:52.000Z</time>
      </trkpt>
      <trkpt lat="48.45304" lon="7.39805">
        <ele>647.09216308594</ele>
        <time>2017-06-11T08:13:55.000Z</time>
      </trkpt>
      <trkpt lat="48.45302" lon="7.39808">
        <ele>647.48516845703</ele>
        <time>2017-06-11T08:13:57.000Z</time>
      </trkpt>
      <trkpt lat="48.45299" lon="7.39812">
        <ele>647.77972412109</ele>
        <time>2017-06-11T08:14:00.000Z</time>
      </trkpt>
      <trkpt lat="48.45295" lon="7.39816">
        <ele>647.99462890625</ele>
        <time>2017-06-11T08:14:03.000Z</time>
      </trkpt>
      <trkpt lat="48.45293" lon="7.39818">
        <ele>648.1611328125</ele>
        <time>2017-06-11T08:14:05.000Z</time>
      </trkpt>
      <trkpt lat="48.4529" lon="7.3982">
        <ele>648.23773193359</ele>
        <time>2017-06-11T08:14:07.000Z</time>
      </trkpt>
      <trkpt lat="48.45288" lon="7.39823">
        <ele>648.29821777344</ele>
        <time>2017-06-11T08:14:09.000Z</time>
      </trkpt>
      <trkpt lat="48.45284" lon="7.39829">
        <ele>648.40887451172</ele>
        <time>2017-06-11T08:14:12.000Z</time>
      </trkpt>
      <trkpt lat="48.4528" lon="7.39833">
        <ele>648.54876708984</ele>
        <time>2017-06-11T08:14:15.000Z</time>
      </trkpt>
      <trkpt lat="48.45278" lon="7.39839">
        <ele>648.77648925781</ele>
        <time>2017-06-11T08:14:18.000Z</time>
      </trkpt>
      <trkpt lat="48.45275" lon="7.39845">
        <ele>649.10675048828</ele>
        <time>2017-06-11T08:14:21.000Z</time>
      </trkpt>
      <trkpt lat="48.45272" lon="7.39852">
        <ele>649.5322265625</ele>
        <time>2017-06-11T08:14:24.000Z</time>
      </trkpt>
      <trkpt lat="48.45269" lon="7.39855">
        <ele>649.88989257812</ele>
        <time>2017-06-11T08:14:26.000Z</time>
      </trkpt>
      <trkpt lat="48.45266" lon="7.39859">
        <ele>650.26208496094</ele>
        <time>2017-06-11T08:14:28.000Z</time>
      </trkpt>
      <trkpt lat="48.45262" lon="7.39866">
        <ele>650.64306640625</ele>
        <time>2017-06-11T08:14:31.000Z</time>
      </trkpt>
      <trkpt lat="48.45258" lon="7.39871">
        <ele>651.0166015625</ele>
        <time>2017-06-11T08:14:33.000Z</time>
      </trkpt>
      <trkpt lat="48.45253" lon="7.39878">
        <ele>651.35827636719</ele>
        <time>2017-06-11T08:14:36.000Z</time>
      </trkpt>
      <trkpt lat="48.45247" lon="7.39884">
        <ele>651.75952148438</ele>
        <time>2017-06-11T08:14:39.000Z</time>
      </trkpt>
      <trkpt lat="48.45242" lon="7.39885">
        <ele>652.08483886719</ele>
        <time>2017-06-11T08:14:41.000Z</time>
      </trkpt>
      <trkpt lat="48.45234" lon="7.39889">
        <ele>652.30529785156</ele>
        <time>2017-06-11T08:14:44.000Z</time>
      </trkpt>
      <trkpt lat="48.45229" lon="7.39891">
        <ele>652.46978759766</ele>
        <time>2017-06-11T08:14:46.000Z</time>
      </trkpt>
      <trkpt lat="48.45222" lon="7.39896">
        <ele>652.60534667969</ele>
        <time>2017-06-11T08:14:49.000Z</time>
      </trkpt>
      <trkpt lat="48.45215" lon="7.399">
        <ele>652.74151611328</ele>
        <time>2017-06-11T08:14:52.000Z</time>
      </trkpt>
      <trkpt lat="48.45211" lon="7.39904">
        <ele>652.9755859375</ele>
        <time>2017-06-11T08:14:54.000Z</time>
      </trkpt>
      <trkpt lat="48.45205" lon="7.39909">
        <ele>653.35241699219</ele>
        <time>2017-06-11T08:14:57.000Z</time>
      </trkpt>
      <trkpt lat="48.452" lon="7.39913">
        <ele>653.83251953125</ele>
        <time>2017-06-11T08:14:59.000Z</time>
      </trkpt>
      <trkpt lat="48.45195" lon="7.39921">
        <ele>654.52416992188</ele>
        <time>2017-06-11T08:15:02.000Z</time>
      </trkpt>
      <trkpt lat="48.45189" lon="7.39928">
        <ele>655.35992431641</ele>
        <time>2017-06-11T08:15:05.000Z</time>
      </trkpt>
      <trkpt lat="48.45182" lon="7.39933">
        <ele>656.2509765625</ele>
        <time>2017-06-11T08:15:08.000Z</time>
      </trkpt>
      <trkpt lat="48.45177" lon="7.39936">
        <ele>657.10900878906</ele>
        <time>2017-06-11T08:15:10.000Z</time>
      </trkpt>
      <trkpt lat="48.45169" lon="7.3994">
        <ele>657.96234130859</ele>
        <time>2017-06-11T08:15:13.000Z</time>
      </trkpt>
      <trkpt lat="48.45164" lon="7.39944">
        <ele>658.69610595703</ele>
        <time>2017-06-11T08:15:15.000Z</time>
      </trkpt>
      <trkpt lat="48.45159" lon="7.39948">
        <ele>659.42126464844</ele>
        <time>2017-06-11T08:15:17.000Z</time>
      </trkpt>
      <trkpt lat="48.45152" lon="7.39953">
        <ele>660.29235839844</ele>
        <time>2017-06-11T08:15:20.000Z</time>
      </trkpt>
      <trkpt lat="48.45148" lon="7.39957">
        <ele>661.24407958984</ele>
        <time>2017-06-11T08:15:22.000Z</time>
      </trkpt>
      <trkpt lat="48.45142" lon="7.3996">
        <ele>662.29156494141</ele>
        <time>2017-06-11T08:15:25.000Z</time>
      </trkpt>
      <trkpt lat="48.45138" lon="7.39963">
        <ele>663.31921386719</ele>
        <time>2017-06-11T08:15:27.000Z</time>
      </trkpt>
      <trkpt lat="48.45132" lon="7.39965">
        <ele>664.30438232422</ele>
        <time>2017-06-11T08:15:30.000Z</time>
      </trkpt>
      <trkpt lat="48.45129" lon="7.39967">
        <ele>665.12658691406</ele>
        <time>2017-06-11T08:15:32.000Z</time>
      </trkpt>
      <trkpt lat="48.45123" lon="7.39969">
        <ele>665.89782714844</ele>
        <time>2017-06-11T08:15:35.000Z</time>
      </trkpt>
      <trkpt lat="48.45119" lon="7.39971">
        <ele>666.58349609375</ele>
        <time>2017-06-11T08:15:38.000Z</time>
      </trkpt>
      <trkpt lat="48.45116" lon="7.39973">
        <ele>667.23059082031</ele>
        <time>2017-06-11T08:15:40.000Z</time>
      </trkpt>
      <trkpt lat="48.45112" lon="7.39975">
        <ele>667.83477783203</ele>
        <time>2017-06-11T08:15:43.000Z</time>
      </trkpt>
      <trkpt lat="48.45109" lon="7.39977">
        <ele>668.43646240234</ele>
        <time>2017-06-11T08:15:45.000Z</time>
      </trkpt>
      <trkpt lat="48.45106" lon="7.39979">
        <ele>669.00732421875</ele>
        <time>2017-06-11T08:15:48.000Z</time>
      </trkpt>
      <trkpt lat="48.45103" lon="7.39979">
        <ele>669.51123046875</ele>
        <time>2017-06-11T08:15:50.000Z</time>
      </trkpt>
      <trkpt lat="48.451" lon="7.3998">
        <ele>669.97058105469</ele>
        <time>2017-06-11T08:15:52.000Z</time>
      </trkpt>
      <trkpt lat="48.45095" lon="7.3998">
        <ele>670.36633300781</ele>
        <time>2017-06-11T08:15:55.000Z</time>
      </trkpt>
      <trkpt lat="48.45091" lon="7.39981">
        <ele>670.69482421875</ele>
        <time>2017-06-11T08:15:58.000Z</time>
      </trkpt>
      <trkpt lat="48.45087" lon="7.3998">
        <ele>670.94995117188</ele>
        <time>2017-06-11T08:16:01.000Z</time>
      </trkpt>
      <trkpt lat="48.45084" lon="7.3998">
        <ele>671.13708496094</ele>
        <time>2017-06-11T08:16:03.000Z</time>
      </trkpt>
      <trkpt lat="48.45081" lon="7.39979">
        <ele>671.26055908203</ele>
        <time>2017-06-11T08:16:05.000Z</time>
      </trkpt>
      <trkpt lat="48.45077" lon="7.39979">
        <ele>671.33953857422</ele>
        <time>2017-06-11T08:16:08.000Z</time>
      </trkpt>
      <trkpt lat="48.45073" lon="7.39978">
        <ele>671.40405273438</ele>
        <time>2017-06-11T08:16:11.000Z</time>
      </trkpt>
      <trkpt lat="48.4507" lon="7.39978">
        <ele>671.45703125</ele>
        <time>2017-06-11T08:16:13.000Z</time>
      </trkpt>
      <trkpt lat="48.45067" lon="7.39977">
        <ele>671.5283203125</ele>
        <time>2017-06-11T08:16:15.000Z</time>
      </trkpt>
      <trkpt lat="48.45063" lon="7.39977">
        <ele>671.62005615234</ele>
        <time>2017-06-11T08:16:17.000Z</time>
      </trkpt>
      <trkpt lat="48.45059" lon="7.39977">
        <ele>671.763671875</ele>
        <time>2017-06-11T08:16:20.000Z</time>
      </trkpt>
      <trkpt lat="48.45056" lon="7.39978">
        <ele>671.93389892578</ele>
        <time>2017-06-11T08:16:22.000Z</time>
      </trkpt>
      <trkpt lat="48.45051" lon="7.3998">
        <ele>672.21142578125</ele>
        <time>2017-06-11T08:16:25.000Z</time>
      </trkpt>
      <trkpt lat="48.45048" lon="7.39981">
        <ele>672.55743408203</ele>
        <time>2017-06-11T08:16:27.000Z</time>
      </trkpt>
      <trkpt lat="48.45042" lon="7.39982">
        <ele>672.99627685547</ele>
        <time>2017-06-11T08:16:30.000Z</time>
      </trkpt>
      <trkpt lat="48.45039" lon="7.39983">
        <ele>673.43023681641</ele>
        <time>2017-06-11T08:16:32.000Z</time>
      </trkpt>
      <trkpt lat="48.45035" lon="7.39985">
        <ele>673.93432617188</ele>
        <time>2017-06-11T08:16:35.000Z</time>
      </trkpt>
      <trkpt lat="48.45031" lon="7.39988">
        <ele>674.45495605469</ele>
        <time>2017-06-11T08:16:38.000Z</time>
      </trkpt>
      <trkpt lat="48.45027" lon="7.39991">
        <ele>675.02124023438</ele>
        <time>2017-06-11T08:16:41.000Z</time>
      </trkpt>
      <trkpt lat="48.45024" lon="7.39992">
        <ele>675.56506347656</ele>
        <time>2017-06-11T08:16:43.000Z</time>
      </trkpt>
      <trkpt lat="48.4502" lon="7.39994">
        <ele>676.13995361328</ele>
        <time>2017-06-11T08:16:46.000Z</time>
      </trkpt>
      <trkpt lat="48.45017" lon="7.39996">
        <ele>676.66955566406</ele>
        <time>2017-06-11T08:16:48.000Z</time>
      </trkpt>
      <trkpt lat="48.45015" lon="7.39998">
        <ele>677.15069580078</ele>
        <time>2017-06-11T08:16:50.000Z</time>
      </trkpt>
      <trkpt lat="48.45012" lon="7.4">
        <ele>677.60247802734</ele>
        <time>2017-06-11T08:16:52.000Z</time>
      </trkpt>
      <trkpt lat="48.4501" lon="7.40002">
        <ele>678.04479980469</ele>
        <time>2017-06-11T08:16:54.000Z</time>
      </trkpt>
      <trkpt lat="48.45007" lon="7.40005">
        <ele>678.46258544922</ele>
        <time>2017-06-11T08:16:56.000Z</time>
      </trkpt>
      <trkpt lat="48.45004" lon="7.40007">
        <ele>678.87408447266</ele>
        <time>2017-06-11T08:16:58.000Z</time>
      </trkpt>
      <trkpt lat="48.44999" lon="7.4001">
        <ele>679.25860595703</ele>
        <time>2017-06-11T08:17:01.000Z</time>
      </trkpt>
      <trkpt lat="48.44994" lon="7.40014">
        <ele>679.55822753906</ele>
        <time>2017-06-11T08:17:04.000Z</time>
      </trkpt>
      <trkpt lat="48.4499" lon="7.40018">
        <ele>679.80627441406</ele>
        <time>2017-06-11T08:17:06.000Z</time>
      </trkpt>
      <trkpt lat="48.44987" lon="7.4002">
        <ele>679.96154785156</ele>
        <time>2017-06-11T08:17:08.000Z</time>
      </trkpt>
      <trkpt lat="48.44984" lon="7.40021">
        <ele>680.01281738281</ele>
        <time>2017-06-11T08:17:10.000Z</time>
      </trkpt>
      <trkpt lat="48.44979" lon="7.40022">
        <ele>679.96496582031</ele>
        <time>2017-06-11T08:17:13.000Z</time>
      </trkpt>
      <trkpt lat="48.44978" lon="7.40024">
        <ele>679.93005371094</ele>
        <time>2017-06-11T08:17:15.000Z</time>
      </trkpt>
      <trkpt lat="48.44976" lon="7.40027">
        <ele>679.91912841797</ele>
        <time>2017-06-11T08:17:17.000Z</time>
      </trkpt>
      <trkpt lat="48.44972" lon="7.40031">
        <ele>679.96258544922</ele>
        <time>2017-06-11T08:17:20.000Z</time>
      </trkpt>
      <trkpt lat="48.4497" lon="7.40032">
        <ele>680.02868652344</ele>
        <time>2017-06-11T08:17:22.000Z</time>
      </trkpt>
      <trkpt lat="48.44968" lon="7.40033">
        <ele>680.12738037109</ele>
        <time>2017-06-11T08:17:24.000Z</time>
      </trkpt>
      <trkpt lat="48.44965" lon="7.40035">
        <ele>680.21276855469</ele>
        <time>2017-06-11T08:17:26.000Z</time>
      </trkpt>
      <trkpt lat="48.44963" lon="7.40036">
        <ele>680.2529296875</ele>
        <time>2017-06-11T08:17:28.000Z</time>
      </trkpt>
      <trkpt lat="48.4496" lon="7.40038">
        <ele>680.26916503906</ele>
        <time>2017-06-11T08:17:30.000Z</time>
      </trkpt>
      <trkpt lat="48.44956" lon="7.4004">
        <ele>680.28479003906</ele>
        <time>2017-06-11T08:17:33.000Z</time>
      </trkpt>
      <trkpt lat="48.44953" lon="7.40041">
        <ele>680.31787109375</ele>
        <time>2017-06-11T08:17:35.000Z</time>
      </trkpt>
      <trkpt lat="48.44949" lon="7.40044">
        <ele>680.35217285156</ele>
        <time>2017-06-11T08:17:38.000Z</time>
      </trkpt>
      <trkpt lat="48.44945" lon="7.40047">
        <ele>680.42181396484</ele>
        <time>2017-06-11T08:17:41.000Z</time>
      </trkpt>
      <trkpt lat="48.44939" lon="7.40048">
        <ele>680.45086669922</ele>
        <time>2017-06-11T08:17:44.000Z</time>
      </trkpt>
      <trkpt lat="48.44937" lon="7.40048">
        <ele>680.45007324219</ele>
        <time>2017-06-11T08:17:46.000Z</time>
      </trkpt>
      <trkpt lat="48.44934" lon="7.40049">
        <ele>680.41833496094</ele>
        <time>2017-06-11T08:17:48.000Z</time>
      </trkpt>
      <trkpt lat="48.44929" lon="7.40051">
        <ele>680.38714599609</ele>
        <time>2017-06-11T08:17:51.000Z</time>
      </trkpt>
      <trkpt lat="48.44925" lon="7.40052">
        <ele>680.310546875</ele>
        <time>2017-06-11T08:17:53.000Z</time>
      </trkpt>
      <trkpt lat="48.4492" lon="7.40056">
        <ele>680.33557128906</ele>
        <time>2017-06-11T08:17:56.000Z</time>
      </trkpt>
      <trkpt lat="48.44917" lon="7.40058">
        <ele>680.44525146484</ele>
        <time>2017-06-11T08:17:58.000Z</time>
      </trkpt>
      <trkpt lat="48.44912" lon="7.40059">
        <ele>680.46252441406</ele>
        <time>2017-06-11T08:18:01.000Z</time>
      </trkpt>
      <trkpt lat="48.44908" lon="7.40061">
        <ele>680.39440917969</ele>
        <time>2017-06-11T08:18:03.000Z</time>
      </trkpt>
      <trkpt lat="48.44901" lon="7.40064">
        <ele>680.28912353516</ele>
        <time>2017-06-11T08:18:06.000Z</time>
      </trkpt>
      <trkpt lat="48.44896" lon="7.40066">
        <ele>680.07794189453</ele>
        <time>2017-06-11T08:18:08.000Z</time>
      </trkpt>
      <trkpt lat="48.44891" lon="7.40069">
        <ele>679.76989746094</ele>
        <time>2017-06-11T08:18:10.000Z</time>
      </trkpt>
      <trkpt lat="48.44881" lon="7.40073">
        <ele>679.51226806641</ele>
        <time>2017-06-11T08:18:13.000Z</time>
      </trkpt>
      <trkpt lat="48.44869" lon="7.40079">
        <ele>679.29333496094</ele>
        <time>2017-06-11T08:18:16.000Z</time>
      </trkpt>
      <trkpt lat="48.44859" lon="7.40085">
        <ele>679.16516113281</ele>
        <time>2017-06-11T08:18:18.000Z</time>
      </trkpt>
      <trkpt lat="48.44849" lon="7.40091">
        <ele>679.11840820312</ele>
        <time>2017-06-11T08:18:20.000Z</time>
      </trkpt>
      <trkpt lat="48.44834" lon="7.40098">
        <ele>679.14434814453</ele>
        <time>2017-06-11T08:18:23.000Z</time>
      </trkpt>
      <trkpt lat="48.4482" lon="7.40104">
        <ele>679.50866699219</ele>
        <time>2017-06-11T08:18:26.000Z</time>
      </trkpt>
      <trkpt lat="48.44808" lon="7.40112">
        <ele>680.27362060547</ele>
        <time>2017-06-11T08:18:29.000Z</time>
      </trkpt>
      <trkpt lat="48.44796" lon="7.40114">
        <ele>681.12536621094</ele>
        <time>2017-06-11T08:18:32.000Z</time>
      </trkpt>
      <trkpt lat="48.44785" lon="7.40114">
        <ele>681.9580078125</ele>
        <time>2017-06-11T08:18:35.000Z</time>
      </trkpt>
      <trkpt lat="48.44778" lon="7.40114">
        <ele>682.75201416016</ele>
        <time>2017-06-11T08:18:37.000Z</time>
      </trkpt>
      <trkpt lat="48.44768" lon="7.4011">
        <ele>683.11724853516</ele>
        <time>2017-06-11T08:18:40.000Z</time>
      </trkpt>
      <trkpt lat="48.44762" lon="7.40107">
        <ele>682.93597412109</ele>
        <time>2017-06-11T08:18:42.000Z</time>
      </trkpt>
      <trkpt lat="48.44754" lon="7.40101">
        <ele>682.33489990234</ele>
        <time>2017-06-11T08:18:45.000Z</time>
      </trkpt>
      <trkpt lat="48.44747" lon="7.40095">
        <ele>681.50311279297</ele>
        <time>2017-06-11T08:18:47.000Z</time>
      </trkpt>
      <trkpt lat="48.44735" lon="7.40086">
        <ele>680.49255371094</ele>
        <time>2017-06-11T08:18:50.000Z</time>
      </trkpt>
      <trkpt lat="48.44726" lon="7.40079">
        <ele>679.53570556641</ele>
        <time>2017-06-11T08:18:52.000Z</time>
      </trkpt>
      <trkpt lat="48.44712" lon="7.40071">
        <ele>678.73175048828</ele>
        <time>2017-06-11T08:18:55.000Z</time>
      </trkpt>
      <trkpt lat="48.44704" lon="7.40066">
        <ele>678.19891357422</ele>
        <time>2017-06-11T08:18:57.000Z</time>
      </trkpt>
      <trkpt lat="48.44696" lon="7.40061">
        <ele>677.88104248047</ele>
        <time>2017-06-11T08:18:59.000Z</time>
      </trkpt>
      <trkpt lat="48.44688" lon="7.40056">
        <ele>677.74584960938</ele>
        <time>2017-06-11T08:19:01.000Z</time>
      </trkpt>
      <trkpt lat="48.44675" lon="7.40043">
        <ele>677.57147216797</ele>
        <time>2017-06-11T08:19:04.000Z</time>
      </trkpt>
      <trkpt lat="48.44667" lon="7.40031">
        <ele>677.19140625</ele>
        <time>2017-06-11T08:19:06.000Z</time>
      </trkpt>
      <trkpt lat="48.44657" lon="7.40013">
        <ele>676.36749267578</ele>
        <time>2017-06-11T08:19:09.000Z</time>
      </trkpt>
      <trkpt lat="48.44649" lon="7.40004">
        <ele>675.40667724609</ele>
        <time>2017-06-11T08:19:11.000Z</time>
      </trkpt>
      <trkpt lat="48.44642" lon="7.39998">
        <ele>674.45715332031</ele>
        <time>2017-06-11T08:19:13.000Z</time>
      </trkpt>
      <trkpt lat="48.44636" lon="7.3999">
        <ele>673.55926513672</ele>
        <time>2017-06-11T08:19:15.000Z</time>
      </trkpt>
      <trkpt lat="48.4463" lon="7.3998">
        <ele>672.76184082031</ele>
        <time>2017-06-11T08:19:17.000Z</time>
      </trkpt>
      <trkpt lat="48.4462" lon="7.39966">
        <ele>672.29089355469</ele>
        <time>2017-06-11T08:19:20.000Z</time>
      </trkpt>
      <trkpt lat="48.44611" lon="7.39953">
        <ele>671.88696289062</ele>
        <time>2017-06-11T08:19:23.000Z</time>
      </trkpt>
      <trkpt lat="48.446" lon="7.39945">
        <ele>671.63537597656</ele>
        <time>2017-06-11T08:19:26.000Z</time>
      </trkpt>
      <trkpt lat="48.44588" lon="7.39937">
        <ele>671.63427734375</ele>
        <time>2017-06-11T08:19:29.000Z</time>
      </trkpt>
      <trkpt lat="48.44582" lon="7.39931">
        <ele>671.80285644531</ele>
        <time>2017-06-11T08:19:31.000Z</time>
      </trkpt>
      <trkpt lat="48.44572" lon="7.39926">
        <ele>671.98480224609</ele>
        <time>2017-06-11T08:19:34.000Z</time>
      </trkpt>
      <trkpt lat="48.44564" lon="7.39917">
        <ele>672.15216064453</ele>
        <time>2017-06-11T08:19:37.000Z</time>
      </trkpt>
      <trkpt lat="48.44556" lon="7.39907">
        <ele>672.10241699219</ele>
        <time>2017-06-11T08:19:40.000Z</time>
      </trkpt>
      <trkpt lat="48.44552" lon="7.399">
        <ele>671.85943603516</ele>
        <time>2017-06-11T08:19:42.000Z</time>
      </trkpt>
      <trkpt lat="48.44543" lon="7.3989">
        <ele>671.654296875</ele>
        <time>2017-06-11T08:19:45.000Z</time>
      </trkpt>
      <trkpt lat="48.44534" lon="7.39883">
        <ele>671.73443603516</ele>
        <time>2017-06-11T08:19:48.000Z</time>
      </trkpt>
      <trkpt lat="48.44524" lon="7.39874">
        <ele>672.15747070312</ele>
        <time>2017-06-11T08:19:51.000Z</time>
      </trkpt>
      <trkpt lat="48.44515" lon="7.39863">
        <ele>672.95361328125</ele>
        <time>2017-06-11T08:19:54.000Z</time>
      </trkpt>
      <trkpt lat="48.44505" lon="7.39852">
        <ele>674.24481201172</ele>
        <time>2017-06-11T08:19:57.000Z</time>
      </trkpt>
      <trkpt lat="48.44497" lon="7.39846">
        <ele>675.67108154297</ele>
        <time>2017-06-11T08:19:59.000Z</time>
      </trkpt>
      <trkpt lat="48.44484" lon="7.39835">
        <ele>677.01232910156</ele>
        <time>2017-06-11T08:20:02.000Z</time>
      </trkpt>
      <trkpt lat="48.44472" lon="7.39825">
        <ele>678.05444335938</ele>
        <time>2017-06-11T08:20:05.000Z</time>
      </trkpt>
      <trkpt lat="48.44466" lon="7.39818">
        <ele>678.78204345703</ele>
        <time>2017-06-11T08:20:07.000Z</time>
      </trkpt>
      <trkpt lat="48.44456" lon="7.39808">
        <ele>679.08117675781</ele>
        <time>2017-06-11T08:20:10.000Z</time>
      </trkpt>
      <trkpt lat="48.44446" lon="7.39801">
        <ele>679.25048828125</ele>
        <time>2017-06-11T08:20:13.000Z</time>
      </trkpt>
      <trkpt lat="48.44436" lon="7.39791">
        <ele>679.49822998047</ele>
        <time>2017-06-11T08:20:16.000Z</time>
      </trkpt>
      <trkpt lat="48.44431" lon="7.39787">
        <ele>679.86737060547</ele>
        <time>2017-06-11T08:20:18.000Z</time>
      </trkpt>
      <trkpt lat="48.44426" lon="7.39785">
        <ele>680.31353759766</ele>
        <time>2017-06-11T08:20:20.000Z</time>
      </trkpt>
      <trkpt lat="48.44418" lon="7.39783">
        <ele>680.8173828125</ele>
        <time>2017-06-11T08:20:23.000Z</time>
      </trkpt>
      <trkpt lat="48.44413" lon="7.39779">
        <ele>681.22961425781</ele>
        <time>2017-06-11T08:20:25.000Z</time>
      </trkpt>
      <trkpt lat="48.44407" lon="7.39778">
        <ele>681.34881591797</ele>
        <time>2017-06-11T08:20:27.000Z</time>
      </trkpt>
      <trkpt lat="48.44396" lon="7.39775">
        <ele>681.16931152344</ele>
        <time>2017-06-11T08:20:30.000Z</time>
      </trkpt>
      <trkpt lat="48.44389" lon="7.39771">
        <ele>680.85662841797</ele>
        <time>2017-06-11T08:20:32.000Z</time>
      </trkpt>
      <trkpt lat="48.44377" lon="7.39764">
        <ele>680.36541748047</ele>
        <time>2017-06-11T08:20:35.000Z</time>
      </trkpt>
      <trkpt lat="48.44368" lon="7.39757">
        <ele>679.94293212891</ele>
        <time>2017-06-11T08:20:37.000Z</time>
      </trkpt>
      <trkpt lat="48.44348" lon="7.39733">
        <ele>679.66174316406</ele>
        <time>2017-06-11T08:20:40.000Z</time>
      </trkpt>
      <trkpt lat="48.44339" lon="7.39723">
        <ele>679.5185546875</ele>
        <time>2017-06-11T08:20:42.000Z</time>
      </trkpt>
      <trkpt lat="48.44327" lon="7.39706">
        <ele>679.31774902344</ele>
        <time>2017-06-11T08:20:45.000Z</time>
      </trkpt>
      <trkpt lat="48.44315" lon="7.39691">
        <ele>678.99566650391</ele>
        <time>2017-06-11T08:20:48.000Z</time>
      </trkpt>
      <trkpt lat="48.44304" lon="7.39684">
        <ele>678.42077636719</ele>
        <time>2017-06-11T08:20:50.000Z</time>
      </trkpt>
      <trkpt lat="48.44285" lon="7.39665">
        <ele>677.63482666016</ele>
        <time>2017-06-11T08:20:53.000Z</time>
      </trkpt>
      <trkpt lat="48.4427" lon="7.39658">
        <ele>676.56280517578</ele>
        <time>2017-06-11T08:20:55.000Z</time>
      </trkpt>
      <trkpt lat="48.44245" lon="7.39647">
        <ele>675.16979980469</ele>
        <time>2017-06-11T08:20:58.000Z</time>
      </trkpt>
      <trkpt lat="48.44229" lon="7.39647">
        <ele>673.95568847656</ele>
        <time>2017-06-11T08:21:00.000Z</time>
      </trkpt>
      <trkpt lat="48.44209" lon="7.39645">
        <ele>672.90386962891</ele>
        <time>2017-06-11T08:21:03.000Z</time>
      </trkpt>
      <trkpt lat="48.44189" lon="7.39646">
        <ele>672.04150390625</ele>
        <time>2017-06-11T08:21:06.000Z</time>
      </trkpt>
      <trkpt lat="48.44172" lon="7.3965">
        <ele>671.53552246094</ele>
        <time>2017-06-11T08:21:09.000Z</time>
      </trkpt>
      <trkpt lat="48.44159" lon="7.39647">
        <ele>671.40466308594</ele>
        <time>2017-06-11T08:21:11.000Z</time>
      </trkpt>
      <trkpt lat="48.44144" lon="7.3965">
        <ele>671.22521972656</ele>
        <time>2017-06-11T08:21:14.000Z</time>
      </trkpt>
      <trkpt lat="48.44135" lon="7.39649">
        <ele>671.02270507812</ele>
        <time>2017-06-11T08:21:16.000Z</time>
      </trkpt>
      <trkpt lat="48.44122" lon="7.39648">
        <ele>670.76159667969</ele>
        <time>2017-06-11T08:21:19.000Z</time>
      </trkpt>
      <trkpt lat="48.44114" lon="7.39647">
        <ele>670.4501953125</ele>
        <time>2017-06-11T08:21:21.000Z</time>
      </trkpt>
      <trkpt lat="48.44102" lon="7.39642">
        <ele>670.13000488281</ele>
        <time>2017-06-11T08:21:24.000Z</time>
      </trkpt>
      <trkpt lat="48.44093" lon="7.39638">
        <ele>669.82495117188</ele>
        <time>2017-06-11T08:21:26.000Z</time>
      </trkpt>
      <trkpt lat="48.44074" lon="7.39633">
        <ele>669.55657958984</ele>
        <time>2017-06-11T08:21:29.000Z</time>
      </trkpt>
      <trkpt lat="48.44062" lon="7.39631">
        <ele>669.40441894531</ele>
        <time>2017-06-11T08:21:31.000Z</time>
      </trkpt>
      <trkpt lat="48.44046" lon="7.39623">
        <ele>669.37451171875</ele>
        <time>2017-06-11T08:21:33.000Z</time>
      </trkpt>
      <trkpt lat="48.44031" lon="7.39618">
        <ele>669.50048828125</ele>
        <time>2017-06-11T08:21:36.000Z</time>
      </trkpt>
      <trkpt lat="48.44024" lon="7.39619">
        <ele>669.70294189453</ele>
        <time>2017-06-11T08:21:38.000Z</time>
      </trkpt>
      <trkpt lat="48.44008" lon="7.39618">
        <ele>669.99127197266</ele>
        <time>2017-06-11T08:21:41.000Z</time>
      </trkpt>
      <trkpt lat="48.44001" lon="7.39616">
        <ele>670.28601074219</ele>
        <time>2017-06-11T08:21:43.000Z</time>
      </trkpt>
      <trkpt lat="48.43995" lon="7.39609">
        <ele>670.63171386719</ele>
        <time>2017-06-11T08:21:45.000Z</time>
      </trkpt>
      <trkpt lat="48.43985" lon="7.39607">
        <ele>671.06329345703</ele>
        <time>2017-06-11T08:21:48.000Z</time>
      </trkpt>
      <trkpt lat="48.43983" lon="7.39607">
        <ele>671.5029296875</ele>
        <time>2017-06-11T08:21:51.000Z</time>
      </trkpt>
      <trkpt lat="48.43983" lon="7.39607">
        <ele>671.5029296875</ele>
        <time>2017-06-11T08:22:11.000Z</time>
      </trkpt>
      <trkpt lat="48.43983" lon="7.39612">
        <ele>671.84686279297</ele>
        <time>2017-06-11T08:22:18.000Z</time>
      </trkpt>
      <trkpt lat="48.43981" lon="7.39611">
        <ele>672.17419433594</ele>
        <time>2017-06-11T08:23:17.000Z</time>
      </trkpt>
      <trkpt lat="48.43979" lon="7.39609">
        <ele>672.42163085938</ele>
        <time>2017-06-11T08:23:19.000Z</time>
      </trkpt>
      <trkpt lat="48.43976" lon="7.39605">
        <ele>672.57165527344</ele>
        <time>2017-06-11T08:23:21.000Z</time>
      </trkpt>
      <trkpt lat="48.43973" lon="7.39604">
        <ele>672.74194335938</ele>
        <time>2017-06-11T08:23:24.000Z</time>
      </trkpt>
      <trkpt lat="48.43972" lon="7.39603">
        <ele>672.94915771484</ele>
        <time>2017-06-11T08:23:26.000Z</time>
      </trkpt>
      <trkpt lat="48.4397" lon="7.39603">
        <ele>673.15869140625</ele>
        <time>2017-06-11T08:23:29.000Z</time>
      </trkpt>
      <trkpt lat="48.43967" lon="7.39604">
        <ele>673.36779785156</ele>
        <time>2017-06-11T08:23:32.000Z</time>
      </trkpt>
      <trkpt lat="48.43966" lon="7.39604">
        <ele>673.52447509766</ele>
        <time>2017-06-11T08:23:34.000Z</time>
      </trkpt>
      <trkpt lat="48.43964" lon="7.39604">
        <ele>673.66607666016</ele>
        <time>2017-06-11T08:23:36.000Z</time>
      </trkpt>
      <trkpt lat="48.43961" lon="7.39604">
        <ele>673.83453369141</ele>
        <time>2017-06-11T08:23:39.000Z</time>
      </trkpt>
      <trkpt lat="48.4396" lon="7.39605">
        <ele>673.97882080078</ele>
        <time>2017-06-11T08:23:47.000Z</time>
      </trkpt>
      <trkpt lat="48.43957" lon="7.39605">
        <ele>674.13220214844</ele>
        <time>2017-06-11T08:23:50.000Z</time>
      </trkpt>
      <trkpt lat="48.43956" lon="7.39605">
        <ele>674.28601074219</ele>
        <time>2017-06-11T08:23:52.000Z</time>
      </trkpt>
      <trkpt lat="48.43953" lon="7.39605">
        <ele>674.43688964844</ele>
        <time>2017-06-11T08:23:55.000Z</time>
      </trkpt>
      <trkpt lat="48.4395" lon="7.39605">
        <ele>674.59393310547</ele>
        <time>2017-06-11T08:23:58.000Z</time>
      </trkpt>
      <trkpt lat="48.43948" lon="7.39604">
        <ele>674.77563476562</ele>
        <time>2017-06-11T08:24:00.000Z</time>
      </trkpt>
      <trkpt lat="48.43946" lon="7.39603">
        <ele>674.93591308594</ele>
        <time>2017-06-11T08:24:03.000Z</time>
      </trkpt>
      <trkpt lat="48.43942" lon="7.39607">
        <ele>675.12432861328</ele>
        <time>2017-06-11T08:24:06.000Z</time>
      </trkpt>
      <trkpt lat="48.4394" lon="7.39607">
        <ele>675.31048583984</ele>
        <time>2017-06-11T08:24:09.000Z</time>
      </trkpt>
      <trkpt lat="48.43938" lon="7.39607">
        <ele>675.4794921875</ele>
        <time>2017-06-11T08:24:13.000Z</time>
      </trkpt>
      <trkpt lat="48.43937" lon="7.39608">
        <ele>675.64031982422</ele>
        <time>2017-06-11T08:24:15.000Z</time>
      </trkpt>
      <trkpt lat="48.43933" lon="7.39611">
        <ele>675.80554199219</ele>
        <time>2017-06-11T08:24:18.000Z</time>
      </trkpt>
      <trkpt lat="48.43932" lon="7.39612">
        <ele>675.93231201172</ele>
        <time>2017-06-11T08:24:20.000Z</time>
      </trkpt>
      <trkpt lat="48.4393" lon="7.39613">
        <ele>676.05206298828</ele>
        <time>2017-06-11T08:24:24.000Z</time>
      </trkpt>
      <trkpt lat="48.43929" lon="7.39614">
        <ele>676.15832519531</ele>
        <time>2017-06-11T08:24:35.000Z</time>
      </trkpt>
      <trkpt lat="48.43927" lon="7.39617">
        <ele>676.26135253906</ele>
        <time>2017-06-11T08:24:37.000Z</time>
      </trkpt>
      <trkpt lat="48.43925" lon="7.39619">
        <ele>676.34521484375</ele>
        <time>2017-06-11T08:24:39.000Z</time>
      </trkpt>
      <trkpt lat="48.43922" lon="7.39622">
        <ele>676.43975830078</ele>
        <time>2017-06-11T08:24:41.000Z</time>
      </trkpt>
      <trkpt lat="48.43921" lon="7.39624">
        <ele>676.53186035156</ele>
        <time>2017-06-11T08:24:44.000Z</time>
      </trkpt>
      <trkpt lat="48.43919" lon="7.39626">
        <ele>676.61901855469</ele>
        <time>2017-06-11T08:24:46.000Z</time>
      </trkpt>
      <trkpt lat="48.43916" lon="7.3963">
        <ele>676.71350097656</ele>
        <time>2017-06-11T08:24:49.000Z</time>
      </trkpt>
      <trkpt lat="48.43914" lon="7.39637">
        <ele>676.81817626953</ele>
        <time>2017-06-11T08:24:52.000Z</time>
      </trkpt>
      <trkpt lat="48.43911" lon="7.39642">
        <ele>676.97674560547</ele>
        <time>2017-06-11T08:24:55.000Z</time>
      </trkpt>
      <trkpt lat="48.43907" lon="7.39646">
        <ele>677.22442626953</ele>
        <time>2017-06-11T08:24:57.000Z</time>
      </trkpt>
      <trkpt lat="48.43902" lon="7.3965">
        <ele>677.61376953125</ele>
        <time>2017-06-11T08:25:00.000Z</time>
      </trkpt>
      <trkpt lat="48.43898" lon="7.39653">
        <ele>678.09777832031</ele>
        <time>2017-06-11T08:25:02.000Z</time>
      </trkpt>
      <trkpt lat="48.43893" lon="7.39657">
        <ele>678.68914794922</ele>
        <time>2017-06-11T08:25:05.000Z</time>
      </trkpt>
      <trkpt lat="48.4389" lon="7.39658">
        <ele>679.29821777344</ele>
        <time>2017-06-11T08:25:07.000Z</time>
      </trkpt>
      <trkpt lat="48.43888" lon="7.39658">
        <ele>679.87493896484</ele>
        <time>2017-06-11T08:25:09.000Z</time>
      </trkpt>
      <trkpt lat="48.43886" lon="7.39657">
        <ele>680.35498046875</ele>
        <time>2017-06-11T08:25:11.000Z</time>
      </trkpt>
      <trkpt lat="48.4388" lon="7.39655">
        <ele>680.8955078125</ele>
        <time>2017-06-11T08:25:14.000Z</time>
      </trkpt>
      <trkpt lat="48.43876" lon="7.39654">
        <ele>681.44317626953</ele>
        <time>2017-06-11T08:25:16.000Z</time>
      </trkpt>
      <trkpt lat="48.43872" lon="7.39655">
        <ele>682.0302734375</ele>
        <time>2017-06-11T08:25:18.000Z</time>
      </trkpt>
      <trkpt lat="48.43867" lon="7.39657">
        <ele>682.69909667969</ele>
        <time>2017-06-11T08:25:21.000Z</time>
      </trkpt>
      <trkpt lat="48.43865" lon="7.3966">
        <ele>683.40173339844</ele>
        <time>2017-06-11T08:25:23.000Z</time>
      </trkpt>
      <trkpt lat="48.43861" lon="7.39665">
        <ele>684.07073974609</ele>
        <time>2017-06-11T08:25:26.000Z</time>
      </trkpt>
      <trkpt lat="48.43858" lon="7.39667">
        <ele>684.69714355469</ele>
        <time>2017-06-11T08:25:29.000Z</time>
      </trkpt>
      <trkpt lat="48.43857" lon="7.39668">
        <ele>685.20959472656</ele>
        <time>2017-06-11T08:25:32.000Z</time>
      </trkpt>
      <trkpt lat="48.43856" lon="7.39666">
        <ele>685.61389160156</ele>
        <time>2017-06-11T08:25:35.000Z</time>
      </trkpt>
      <trkpt lat="48.43853" lon="7.39666">
        <ele>686.0263671875</ele>
        <time>2017-06-11T08:25:38.000Z</time>
      </trkpt>
      <trkpt lat="48.43848" lon="7.39669">
        <ele>686.42858886719</ele>
        <time>2017-06-11T08:25:41.000Z</time>
      </trkpt>
      <trkpt lat="48.43845" lon="7.39669">
        <ele>686.85003662109</ele>
        <time>2017-06-11T08:25:43.000Z</time>
      </trkpt>
      <trkpt lat="48.43842" lon="7.39671">
        <ele>687.32653808594</ele>
        <time>2017-06-11T08:25:45.000Z</time>
      </trkpt>
      <trkpt lat="48.43837" lon="7.39673">
        <ele>687.9208984375</ele>
        <time>2017-06-11T08:25:48.000Z</time>
      </trkpt>
      <trkpt lat="48.43834" lon="7.39676">
        <ele>688.53356933594</ele>
        <time>2017-06-11T08:25:50.000Z</time>
      </trkpt>
      <trkpt lat="48.4383" lon="7.39681">
        <ele>689.05334472656</ele>
        <time>2017-06-11T08:25:53.000Z</time>
      </trkpt>
      <trkpt lat="48.43828" lon="7.39684">
        <ele>689.47711181641</ele>
        <time>2017-06-11T08:25:55.000Z</time>
      </trkpt>
      <trkpt lat="48.43826" lon="7.3969">
        <ele>689.83923339844</ele>
        <time>2017-06-11T08:25:58.000Z</time>
      </trkpt>
      <trkpt lat="48.43827" lon="7.39698">
        <ele>689.99090576172</ele>
        <time>2017-06-11T08:26:01.000Z</time>
      </trkpt>
      <trkpt lat="48.43826" lon="7.39701">
        <ele>690.0166015625</ele>
        <time>2017-06-11T08:26:03.000Z</time>
      </trkpt>
      <trkpt lat="48.43826" lon="7.39706">
        <ele>689.99298095703</ele>
        <time>2017-06-11T08:26:06.000Z</time>
      </trkpt>
      <trkpt lat="48.43823" lon="7.39715">
        <ele>689.96716308594</ele>
        <time>2017-06-11T08:26:09.000Z</time>
      </trkpt>
      <trkpt lat="48.43821" lon="7.39725">
        <ele>689.96203613281</ele>
        <time>2017-06-11T08:26:12.000Z</time>
      </trkpt>
      <trkpt lat="48.43818" lon="7.3973">
        <ele>690.04681396484</ele>
        <time>2017-06-11T08:26:14.000Z</time>
      </trkpt>
      <trkpt lat="48.43815" lon="7.39739">
        <ele>690.17907714844</ele>
        <time>2017-06-11T08:26:17.000Z</time>
      </trkpt>
      <trkpt lat="48.43816" lon="7.39749">
        <ele>690.26831054688</ele>
        <time>2017-06-11T08:26:19.000Z</time>
      </trkpt>
      <trkpt lat="48.43818" lon="7.39765">
        <ele>690.17932128906</ele>
        <time>2017-06-11T08:26:22.000Z</time>
      </trkpt>
      <trkpt lat="48.43822" lon="7.39776">
        <ele>689.86071777344</ele>
        <time>2017-06-11T08:26:24.000Z</time>
      </trkpt>
      <trkpt lat="48.43826" lon="7.39785">
        <ele>689.33239746094</ele>
        <time>2017-06-11T08:26:26.000Z</time>
      </trkpt>
      <trkpt lat="48.43826" lon="7.3979">
        <ele>688.73669433594</ele>
        <time>2017-06-11T08:26:29.000Z</time>
      </trkpt>
      <trkpt lat="48.43824" lon="7.39792">
        <ele>688.21533203125</ele>
        <time>2017-06-11T08:26:32.000Z</time>
      </trkpt>
      <trkpt lat="48.43819" lon="7.39795">
        <ele>687.96746826172</ele>
        <time>2017-06-11T08:26:35.000Z</time>
      </trkpt>
      <trkpt lat="48.43816" lon="7.39796">
        <ele>688.02581787109</ele>
        <time>2017-06-11T08:26:37.000Z</time>
      </trkpt>
      <trkpt lat="48.43809" lon="7.39799">
        <ele>688.40295410156</ele>
        <time>2017-06-11T08:26:40.000Z</time>
      </trkpt>
      <trkpt lat="48.43803" lon="7.39805">
        <ele>688.95666503906</ele>
        <time>2017-06-11T08:26:43.000Z</time>
      </trkpt>
      <trkpt lat="48.43799" lon="7.39809">
        <ele>689.54626464844</ele>
        <time>2017-06-11T08:26:46.000Z</time>
      </trkpt>
      <trkpt lat="48.43797" lon="7.39811">
        <ele>690.07904052734</ele>
        <time>2017-06-11T08:26:48.000Z</time>
      </trkpt>
      <trkpt lat="48.43795" lon="7.39813">
        <ele>690.53930664062</ele>
        <time>2017-06-11T08:26:50.000Z</time>
      </trkpt>
      <trkpt lat="48.43792" lon="7.39814">
        <ele>690.93420410156</ele>
        <time>2017-06-11T08:26:52.000Z</time>
      </trkpt>
      <trkpt lat="48.43781" lon="7.39816">
        <ele>691.47711181641</ele>
        <time>2017-06-11T08:26:55.000Z</time>
      </trkpt>
      <trkpt lat="48.43773" lon="7.39818">
        <ele>692.18621826172</ele>
        <time>2017-06-11T08:26:57.000Z</time>
      </trkpt>
      <trkpt lat="48.43761" lon="7.3982">
        <ele>693.15637207031</ele>
        <time>2017-06-11T08:27:00.000Z</time>
      </trkpt>
      <trkpt lat="48.43752" lon="7.39819">
        <ele>694.32995605469</ele>
        <time>2017-06-11T08:27:03.000Z</time>
      </trkpt>
      <trkpt lat="48.43745" lon="7.3982">
        <ele>695.50115966797</ele>
        <time>2017-06-11T08:27:06.000Z</time>
      </trkpt>
      <trkpt lat="48.43743" lon="7.39816">
        <ele>696.41906738281</ele>
        <time>2017-06-11T08:27:08.000Z</time>
      </trkpt>
      <trkpt lat="48.4374" lon="7.39808">
        <ele>697.17687988281</ele>
        <time>2017-06-11T08:27:11.000Z</time>
      </trkpt>
      <trkpt lat="48.43734" lon="7.3981">
        <ele>697.646484375</ele>
        <time>2017-06-11T08:27:14.000Z</time>
      </trkpt>
      <trkpt lat="48.43729" lon="7.39816">
        <ele>697.87133789062</ele>
        <time>2017-06-11T08:27:18.000Z</time>
      </trkpt>
      <trkpt lat="48.43724" lon="7.39822">
        <ele>697.99816894531</ele>
        <time>2017-06-11T08:27:20.000Z</time>
      </trkpt>
      <trkpt lat="48.43721" lon="7.39825">
        <ele>698.08044433594</ele>
        <time>2017-06-11T08:27:22.000Z</time>
      </trkpt>
      <trkpt lat="48.43716" lon="7.39827">
        <ele>698.09613037109</ele>
        <time>2017-06-11T08:27:25.000Z</time>
      </trkpt>
      <trkpt lat="48.43715" lon="7.39827">
        <ele>698.08740234375</ele>
        <time>2017-06-11T08:27:29.000Z</time>
      </trkpt>
      <trkpt lat="48.43715" lon="7.39826">
        <ele>698.10028076172</ele>
        <time>2017-06-11T08:27:41.000Z</time>
      </trkpt>
      <trkpt lat="48.43715" lon="7.39826">
        <ele>698.10028076172</ele>
        <time>2017-06-11T08:28:01.000Z</time>
      </trkpt>
      <trkpt lat="48.43714" lon="7.39826">
        <ele>698.12048339844</ele>
        <time>2017-06-11T08:28:15.000Z</time>
      </trkpt>
      <trkpt lat="48.43713" lon="7.3983">
        <ele>698.1181640625</ele>
        <time>2017-06-11T08:28:17.000Z</time>
      </trkpt>
      <trkpt lat="48.43711" lon="7.39838">
        <ele>698.08386230469</ele>
        <time>2017-06-11T08:28:20.000Z</time>
      </trkpt>
      <trkpt lat="48.43709" lon="7.39843">
        <ele>698.03607177734</ele>
        <time>2017-06-11T08:28:22.000Z</time>
      </trkpt>
      <trkpt lat="48.43707" lon="7.3985">
        <ele>697.96203613281</ele>
        <time>2017-06-11T08:28:25.000Z</time>
      </trkpt>
      <trkpt lat="48.43707" lon="7.39856">
        <ele>697.87445068359</ele>
        <time>2017-06-11T08:28:27.000Z</time>
      </trkpt>
      <trkpt lat="48.43706" lon="7.39865">
        <ele>697.79284667969</ele>
        <time>2017-06-11T08:28:30.000Z</time>
      </trkpt>
      <trkpt lat="48.43706" lon="7.39874">
        <ele>697.71649169922</ele>
        <time>2017-06-11T08:28:33.000Z</time>
      </trkpt>
      <trkpt lat="48.43705" lon="7.39879">
        <ele>697.6298828125</ele>
        <time>2017-06-11T08:28:35.000Z</time>
      </trkpt>
      <trkpt lat="48.43703" lon="7.39888">
        <ele>697.52917480469</ele>
        <time>2017-06-11T08:28:38.000Z</time>
      </trkpt>
      <trkpt lat="48.43702" lon="7.39896">
        <ele>697.41278076172</ele>
        <time>2017-06-11T08:28:41.000Z</time>
      </trkpt>
      <trkpt lat="48.437" lon="7.39902">
        <ele>697.29522705078</ele>
        <time>2017-06-11T08:28:43.000Z</time>
      </trkpt>
      <trkpt lat="48.43698" lon="7.39907">
        <ele>697.17736816406</ele>
        <time>2017-06-11T08:28:45.000Z</time>
      </trkpt>
      <trkpt lat="48.43695" lon="7.39915">
        <ele>697.03405761719</ele>
        <time>2017-06-11T08:28:48.000Z</time>
      </trkpt>
      <trkpt lat="48.43694" lon="7.3992">
        <ele>696.92578125</ele>
        <time>2017-06-11T08:28:50.000Z</time>
      </trkpt>
      <trkpt lat="48.43691" lon="7.39927">
        <ele>696.89147949219</ele>
        <time>2017-06-11T08:28:53.000Z</time>
      </trkpt>
      <trkpt lat="48.43688" lon="7.39933">
        <ele>696.92309570312</ele>
        <time>2017-06-11T08:28:56.000Z</time>
      </trkpt>
      <trkpt lat="48.43687" lon="7.39938">
        <ele>697.00994873047</ele>
        <time>2017-06-11T08:28:58.000Z</time>
      </trkpt>
      <trkpt lat="48.43685" lon="7.39942">
        <ele>697.1708984375</ele>
        <time>2017-06-11T08:29:00.000Z</time>
      </trkpt>
      <trkpt lat="48.43683" lon="7.39948">
        <ele>697.36846923828</ele>
        <time>2017-06-11T08:29:03.000Z</time>
      </trkpt>
      <trkpt lat="48.43681" lon="7.39953">
        <ele>697.55401611328</ele>
        <time>2017-06-11T08:29:05.000Z</time>
      </trkpt>
      <trkpt lat="48.43679" lon="7.39959">
        <ele>697.74987792969</ele>
        <time>2017-06-11T08:29:08.000Z</time>
      </trkpt>
      <trkpt lat="48.43677" lon="7.39965">
        <ele>697.96343994141</ele>
        <time>2017-06-11T08:29:11.000Z</time>
      </trkpt>
      <trkpt lat="48.43675" lon="7.39969">
        <ele>698.17919921875</ele>
        <time>2017-06-11T08:29:13.000Z</time>
      </trkpt>
      <trkpt lat="48.43673" lon="7.39976">
        <ele>698.40399169922</ele>
        <time>2017-06-11T08:29:16.000Z</time>
      </trkpt>
      <trkpt lat="48.43671" lon="7.3998">
        <ele>698.63391113281</ele>
        <time>2017-06-11T08:29:18.000Z</time>
      </trkpt>
      <trkpt lat="48.4367" lon="7.39984">
        <ele>698.85034179688</ele>
        <time>2017-06-11T08:29:20.000Z</time>
      </trkpt>
      <trkpt lat="48.43668" lon="7.39991">
        <ele>699.07391357422</ele>
        <time>2017-06-11T08:29:23.000Z</time>
      </trkpt>
      <trkpt lat="48.43666" lon="7.39995">
        <ele>699.30261230469</ele>
        <time>2017-06-11T08:29:25.000Z</time>
      </trkpt>
      <trkpt lat="48.43665" lon="7.39999">
        <ele>699.57775878906</ele>
        <time>2017-06-11T08:29:27.000Z</time>
      </trkpt>
      <trkpt lat="48.43662" lon="7.40005">
        <ele>700.11218261719</ele>
        <time>2017-06-11T08:29:30.000Z</time>
      </trkpt>
      <trkpt lat="48.4366" lon="7.40008">
        <ele>700.77478027344</ele>
        <time>2017-06-11T08:29:32.000Z</time>
      </trkpt>
      <trkpt lat="48.43657" lon="7.40013">
        <ele>701.70684814453</ele>
        <time>2017-06-11T08:29:35.000Z</time>
      </trkpt>
      <trkpt lat="48.43655" lon="7.40019">
        <ele>702.90838623047</ele>
        <time>2017-06-11T08:29:38.000Z</time>
      </trkpt>
      <trkpt lat="48.43653" lon="7.40023">
        <ele>704.22399902344</ele>
        <time>2017-06-11T08:29:40.000Z</time>
      </trkpt>
      <trkpt lat="48.43651" lon="7.40027">
        <ele>705.48107910156</ele>
        <time>2017-06-11T08:29:42.000Z</time>
      </trkpt>
      <trkpt lat="48.43648" lon="7.40032">
        <ele>706.86120605469</ele>
        <time>2017-06-11T08:29:45.000Z</time>
      </trkpt>
      <trkpt lat="48.43646" lon="7.40035">
        <ele>708.11755371094</ele>
        <time>2017-06-11T08:29:47.000Z</time>
      </trkpt>
      <trkpt lat="48.43645" lon="7.40039">
        <ele>709.26452636719</ele>
        <time>2017-06-11T08:29:49.000Z</time>
      </trkpt>
      <trkpt lat="48.43642" lon="7.40045">
        <ele>710.51184082031</ele>
        <time>2017-06-11T08:29:52.000Z</time>
      </trkpt>
      <trkpt lat="48.43641" lon="7.40048">
        <ele>711.71203613281</ele>
        <time>2017-06-11T08:29:54.000Z</time>
      </trkpt>
      <trkpt lat="48.43638" lon="7.40053">
        <ele>712.93914794922</ele>
        <time>2017-06-11T08:29:57.000Z</time>
      </trkpt>
      <trkpt lat="48.43636" lon="7.40057">
        <ele>714.16082763672</ele>
        <time>2017-06-11T08:29:59.000Z</time>
      </trkpt>
      <trkpt lat="48.43635" lon="7.40061">
        <ele>715.38885498047</ele>
        <time>2017-06-11T08:30:01.000Z</time>
      </trkpt>
      <trkpt lat="48.43633" lon="7.40065">
        <ele>716.52294921875</ele>
        <time>2017-06-11T08:30:03.000Z</time>
      </trkpt>
      <trkpt lat="48.43632" lon="7.40069">
        <ele>717.68438720703</ele>
        <time>2017-06-11T08:30:05.000Z</time>
      </trkpt>
      <trkpt lat="48.43629" lon="7.40072">
        <ele>718.73449707031</ele>
        <time>2017-06-11T08:30:07.000Z</time>
      </trkpt>
      <trkpt lat="48.43626" lon="7.40077">
        <ele>719.89025878906</ele>
        <time>2017-06-11T08:30:10.000Z</time>
      </trkpt>
      <trkpt lat="48.43624" lon="7.4008">
        <ele>721.03601074219</ele>
        <time>2017-06-11T08:30:12.000Z</time>
      </trkpt>
      <trkpt lat="48.43621" lon="7.40083">
        <ele>722.18426513672</ele>
        <time>2017-06-11T08:30:14.000Z</time>
      </trkpt>
      <trkpt lat="48.43618" lon="7.40086">
        <ele>723.34167480469</ele>
        <time>2017-06-11T08:30:17.000Z</time>
      </trkpt>
      <trkpt lat="48.43614" lon="7.40085">
        <ele>724.40570068359</ele>
        <time>2017-06-11T08:30:20.000Z</time>
      </trkpt>
      <trkpt lat="48.4361" lon="7.40081">
        <ele>725.16162109375</ele>
        <time>2017-06-11T08:30:23.000Z</time>
      </trkpt>
      <trkpt lat="48.43605" lon="7.40078">
        <ele>725.7236328125</ele>
        <time>2017-06-11T08:30:26.000Z</time>
      </trkpt>
      <trkpt lat="48.43601" lon="7.40074">
        <ele>726.04479980469</ele>
        <time>2017-06-11T08:30:29.000Z</time>
      </trkpt>
      <trkpt lat="48.43595" lon="7.40069">
        <ele>726.13122558594</ele>
        <time>2017-06-11T08:30:32.000Z</time>
      </trkpt>
      <trkpt lat="48.43591" lon="7.40067">
        <ele>726.14318847656</ele>
        <time>2017-06-11T08:30:34.000Z</time>
      </trkpt>
      <trkpt lat="48.43586" lon="7.40063">
        <ele>726.154296875</ele>
        <time>2017-06-11T08:30:37.000Z</time>
      </trkpt>
      <trkpt lat="48.43581" lon="7.40059">
        <ele>726.08734130859</ele>
        <time>2017-06-11T08:30:39.000Z</time>
      </trkpt>
      <trkpt lat="48.43576" lon="7.40054">
        <ele>725.92169189453</ele>
        <time>2017-06-11T08:30:41.000Z</time>
      </trkpt>
      <trkpt lat="48.43569" lon="7.40045">
        <ele>725.52258300781</ele>
        <time>2017-06-11T08:30:44.000Z</time>
      </trkpt>
      <trkpt lat="48.43559" lon="7.40033">
        <ele>724.8193359375</ele>
        <time>2017-06-11T08:30:47.000Z</time>
      </trkpt>
      <trkpt lat="48.43545" lon="7.40018">
        <ele>723.88427734375</ele>
        <time>2017-06-11T08:30:50.000Z</time>
      </trkpt>
      <trkpt lat="48.43537" lon="7.40009">
        <ele>722.94354248047</ele>
        <time>2017-06-11T08:30:52.000Z</time>
      </trkpt>
      <trkpt lat="48.4353" lon="7.40002">
        <ele>722.11267089844</ele>
        <time>2017-06-11T08:30:54.000Z</time>
      </trkpt>
      <trkpt lat="48.43517" lon="7.39994">
        <ele>721.62268066406</ele>
        <time>2017-06-11T08:30:57.000Z</time>
      </trkpt>
      <trkpt lat="48.43507" lon="7.39988">
        <ele>721.47802734375</ele>
        <time>2017-06-11T08:31:00.000Z</time>
      </trkpt>
      <trkpt lat="48.43495" lon="7.39983">
        <ele>721.71838378906</ele>
        <time>2017-06-11T08:31:03.000Z</time>
      </trkpt>
      <trkpt lat="48.43488" lon="7.3998">
        <ele>722.09844970703</ele>
        <time>2017-06-11T08:31:05.000Z</time>
      </trkpt>
      <trkpt lat="48.43483" lon="7.39977">
        <ele>722.49993896484</ele>
        <time>2017-06-11T08:31:07.000Z</time>
      </trkpt>
      <trkpt lat="48.43478" lon="7.39972">
        <ele>722.77075195312</ele>
        <time>2017-06-11T08:31:09.000Z</time>
      </trkpt>
      <trkpt lat="48.43472" lon="7.39966">
        <ele>722.97033691406</ele>
        <time>2017-06-11T08:31:11.000Z</time>
      </trkpt>
      <trkpt lat="48.43465" lon="7.3996">
        <ele>723.05090332031</ele>
        <time>2017-06-11T08:31:13.000Z</time>
      </trkpt>
      <trkpt lat="48.43454" lon="7.3995">
        <ele>723.14611816406</ele>
        <time>2017-06-11T08:31:16.000Z</time>
      </trkpt>
      <trkpt lat="48.43445" lon="7.39947">
        <ele>723.40466308594</ele>
        <time>2017-06-11T08:31:19.000Z</time>
      </trkpt>
      <trkpt lat="48.43439" lon="7.39943">
        <ele>723.80743408203</ele>
        <time>2017-06-11T08:31:21.000Z</time>
      </trkpt>
      <trkpt lat="48.43433" lon="7.39937">
        <ele>724.28924560547</ele>
        <time>2017-06-11T08:31:23.000Z</time>
      </trkpt>
      <trkpt lat="48.43427" lon="7.39933">
        <ele>724.87646484375</ele>
        <time>2017-06-11T08:31:25.000Z</time>
      </trkpt>
      <trkpt lat="48.43419" lon="7.3993">
        <ele>725.65026855469</ele>
        <time>2017-06-11T08:31:28.000Z</time>
      </trkpt>
      <trkpt lat="48.43414" lon="7.39931">
        <ele>726.28436279297</ele>
        <time>2017-06-11T08:31:30.000Z</time>
      </trkpt>
      <trkpt lat="48.43406" lon="7.39931">
        <ele>726.748046875</ele>
        <time>2017-06-11T08:31:33.000Z</time>
      </trkpt>
      <trkpt lat="48.43399" lon="7.39928">
        <ele>727.05633544922</ele>
        <time>2017-06-11T08:31:36.000Z</time>
      </trkpt>
      <trkpt lat="48.43396" lon="7.39924">
        <ele>727.16583251953</ele>
        <time>2017-06-11T08:31:38.000Z</time>
      </trkpt>
      <trkpt lat="48.4339" lon="7.39922">
        <ele>726.95672607422</ele>
        <time>2017-06-11T08:31:41.000Z</time>
      </trkpt>
      <trkpt lat="48.43387" lon="7.39924">
        <ele>726.70770263672</ele>
        <time>2017-06-11T08:31:43.000Z</time>
      </trkpt>
      <trkpt lat="48.43383" lon="7.39926">
        <ele>726.51037597656</ele>
        <time>2017-06-11T08:31:46.000Z</time>
      </trkpt>
      <trkpt lat="48.43382" lon="7.39928">
        <ele>726.38958740234</ele>
        <time>2017-06-11T08:31:48.000Z</time>
      </trkpt>
      <trkpt lat="48.43377" lon="7.39929">
        <ele>726.31469726562</ele>
        <time>2017-06-11T08:31:51.000Z</time>
      </trkpt>
      <trkpt lat="48.43372" lon="7.3993">
        <ele>726.27844238281</ele>
        <time>2017-06-11T08:31:54.000Z</time>
      </trkpt>
      <trkpt lat="48.43371" lon="7.39931">
        <ele>726.23645019531</ele>
        <time>2017-06-11T08:31:56.000Z</time>
      </trkpt>
      <trkpt lat="48.43367" lon="7.39934">
        <ele>726.20574951172</ele>
        <time>2017-06-11T08:31:59.000Z</time>
      </trkpt>
      <trkpt lat="48.43364" lon="7.39937">
        <ele>726.17956542969</ele>
        <time>2017-06-11T08:32:01.000Z</time>
      </trkpt>
      <trkpt lat="48.43359" lon="7.39941">
        <ele>726.19384765625</ele>
        <time>2017-06-11T08:32:04.000Z</time>
      </trkpt>
      <trkpt lat="48.43356" lon="7.39946">
        <ele>726.26019287109</ele>
        <time>2017-06-11T08:32:07.000Z</time>
      </trkpt>
      <trkpt lat="48.43354" lon="7.3995">
        <ele>726.36572265625</ele>
        <time>2017-06-11T08:32:09.000Z</time>
      </trkpt>
      <trkpt lat="48.43352" lon="7.39954">
        <ele>726.49249267578</ele>
        <time>2017-06-11T08:32:11.000Z</time>
      </trkpt>
      <trkpt lat="48.43347" lon="7.3996">
        <ele>726.65222167969</ele>
        <time>2017-06-11T08:32:14.000Z</time>
      </trkpt>
      <trkpt lat="48.43343" lon="7.39963">
        <ele>726.8017578125</ele>
        <time>2017-06-11T08:32:17.000Z</time>
      </trkpt>
      <trkpt lat="48.4334" lon="7.39964">
        <ele>726.90802001953</ele>
        <time>2017-06-11T08:32:19.000Z</time>
      </trkpt>
      <trkpt lat="48.43336" lon="7.39964">
        <ele>726.96643066406</ele>
        <time>2017-06-11T08:32:22.000Z</time>
      </trkpt>
      <trkpt lat="48.43332" lon="7.39966">
        <ele>727.02197265625</ele>
        <time>2017-06-11T08:32:24.000Z</time>
      </trkpt>
      <trkpt lat="48.43324" lon="7.39971">
        <ele>727.20281982422</ele>
        <time>2017-06-11T08:32:27.000Z</time>
      </trkpt>
      <trkpt lat="48.43317" lon="7.39976">
        <ele>727.53894042969</ele>
        <time>2017-06-11T08:32:29.000Z</time>
      </trkpt>
      <trkpt lat="48.43309" lon="7.39981">
        <ele>728.08728027344</ele>
        <time>2017-06-11T08:32:32.000Z</time>
      </trkpt>
      <trkpt lat="48.43303" lon="7.39982">
        <ele>728.76623535156</ele>
        <time>2017-06-11T08:32:34.000Z</time>
      </trkpt>
      <trkpt lat="48.43297" lon="7.39981">
        <ele>729.47882080078</ele>
        <time>2017-06-11T08:32:37.000Z</time>
      </trkpt>
      <trkpt lat="48.4329" lon="7.39982">
        <ele>730.15905761719</ele>
        <time>2017-06-11T08:32:40.000Z</time>
      </trkpt>
      <trkpt lat="48.43283" lon="7.39983">
        <ele>730.79748535156</ele>
        <time>2017-06-11T08:32:43.000Z</time>
      </trkpt>
      <trkpt lat="48.43278" lon="7.39985">
        <ele>731.35968017578</ele>
        <time>2017-06-11T08:32:45.000Z</time>
      </trkpt>
      <trkpt lat="48.43273" lon="7.39988">
        <ele>731.96160888672</ele>
        <time>2017-06-11T08:32:47.000Z</time>
      </trkpt>
      <trkpt lat="48.43265" lon="7.39991">
        <ele>732.71838378906</ele>
        <time>2017-06-11T08:32:50.000Z</time>
      </trkpt>
      <trkpt lat="48.43256" lon="7.39995">
        <ele>733.60546875</ele>
        <time>2017-06-11T08:32:53.000Z</time>
      </trkpt>
      <trkpt lat="48.43248" lon="7.39999">
        <ele>734.62255859375</ele>
        <time>2017-06-11T08:32:56.000Z</time>
      </trkpt>
      <trkpt lat="48.43241" lon="7.40002">
        <ele>735.67547607422</ele>
        <time>2017-06-11T08:32:59.000Z</time>
      </trkpt>
      <trkpt lat="48.43234" lon="7.40004">
        <ele>736.68884277344</ele>
        <time>2017-06-11T08:33:02.000Z</time>
      </trkpt>
      <trkpt lat="48.4323" lon="7.40004">
        <ele>737.55487060547</ele>
        <time>2017-06-11T08:33:04.000Z</time>
      </trkpt>
      <trkpt lat="48.43228" lon="7.40006">
        <ele>738.21258544922</ele>
        <time>2017-06-11T08:33:06.000Z</time>
      </trkpt>
      <trkpt lat="48.43225" lon="7.40009">
        <ele>738.75177001953</ele>
        <time>2017-06-11T08:33:09.000Z</time>
      </trkpt>
      <trkpt lat="48.43225" lon="7.40009">
        <ele>738.75177001953</ele>
        <time>2017-06-11T08:33:29.000Z</time>
      </trkpt>
      <trkpt lat="48.43226" lon="7.40011">
        <ele>739.15051269531</ele>
        <time>2017-06-11T08:34:10.000Z</time>
      </trkpt>
      <trkpt lat="48.43226" lon="7.40011">
        <ele>739.15051269531</ele>
        <time>2017-06-11T08:34:30.000Z</time>
      </trkpt>
      <trkpt lat="48.43225" lon="7.40011">
        <ele>739.46551513672</ele>
        <time>2017-06-11T08:35:32.000Z</time>
      </trkpt>
      <trkpt lat="48.43221" lon="7.40014">
        <ele>739.83483886719</ele>
        <time>2017-06-11T08:35:35.000Z</time>
      </trkpt>
      <trkpt lat="48.43218" lon="7.40017">
        <ele>740.25445556641</ele>
        <time>2017-06-11T08:35:37.000Z</time>
      </trkpt>
      <trkpt lat="48.43216" lon="7.4002">
        <ele>740.65826416016</ele>
        <time>2017-06-11T08:35:39.000Z</time>
      </trkpt>
      <trkpt lat="48.43213" lon="7.40023">
        <ele>741.16967773438</ele>
        <time>2017-06-11T08:35:41.000Z</time>
      </trkpt>
      <trkpt lat="48.43209" lon="7.40024">
        <ele>741.71862792969</ele>
        <time>2017-06-11T08:35:43.000Z</time>
      </trkpt>
      <trkpt lat="48.43207" lon="7.40026">
        <ele>742.24951171875</ele>
        <time>2017-06-11T08:35:45.000Z</time>
      </trkpt>
      <trkpt lat="48.43203" lon="7.40031">
        <ele>742.8525390625</ele>
        <time>2017-06-11T08:35:48.000Z</time>
      </trkpt>
      <trkpt lat="48.43198" lon="7.40032">
        <ele>743.42578125</ele>
        <time>2017-06-11T08:35:51.000Z</time>
      </trkpt>
      <trkpt lat="48.43193" lon="7.40029">
        <ele>743.8623046875</ele>
        <time>2017-06-11T08:35:54.000Z</time>
      </trkpt>
      <trkpt lat="48.43188" lon="7.40027">
        <ele>744.26141357422</ele>
        <time>2017-06-11T08:35:57.000Z</time>
      </trkpt>
      <trkpt lat="48.43184" lon="7.40027">
        <ele>744.5869140625</ele>
        <time>2017-06-11T08:35:59.000Z</time>
      </trkpt>
      <trkpt lat="48.4318" lon="7.40025">
        <ele>744.75183105469</ele>
        <time>2017-06-11T08:36:02.000Z</time>
      </trkpt>
      <trkpt lat="48.43173" lon="7.40023">
        <ele>744.86798095703</ele>
        <time>2017-06-11T08:36:05.000Z</time>
      </trkpt>
      <trkpt lat="48.43168" lon="7.40024">
        <ele>745.0859375</ele>
        <time>2017-06-11T08:36:07.000Z</time>
      </trkpt>
      <trkpt lat="48.43165" lon="7.40025">
        <ele>745.34716796875</ele>
        <time>2017-06-11T08:36:09.000Z</time>
      </trkpt>
      <trkpt lat="48.43161" lon="7.40027">
        <ele>745.71228027344</ele>
        <time>2017-06-11T08:36:11.000Z</time>
      </trkpt>
      <trkpt lat="48.43157" lon="7.40028">
        <ele>746.18737792969</ele>
        <time>2017-06-11T08:36:13.000Z</time>
      </trkpt>
      <trkpt lat="48.43149" lon="7.4003">
        <ele>746.82592773438</ele>
        <time>2017-06-11T08:36:16.000Z</time>
      </trkpt>
      <trkpt lat="48.43137" lon="7.40033">
        <ele>747.68005371094</ele>
        <time>2017-06-11T08:36:19.000Z</time>
      </trkpt>
      <trkpt lat="48.43128" lon="7.40033">
        <ele>748.64440917969</ele>
        <time>2017-06-11T08:36:22.000Z</time>
      </trkpt>
      <trkpt lat="48.43124" lon="7.40035">
        <ele>749.57983398438</ele>
        <time>2017-06-11T08:36:25.000Z</time>
      </trkpt>
      <trkpt lat="48.43122" lon="7.40036">
        <ele>750.45056152344</ele>
        <time>2017-06-11T08:36:28.000Z</time>
      </trkpt>
      <trkpt lat="48.43121" lon="7.40037">
        <ele>751.17510986328</ele>
        <time>2017-06-11T08:36:30.000Z</time>
      </trkpt>
      <trkpt lat="48.43119" lon="7.40038">
        <ele>751.63739013672</ele>
        <time>2017-06-11T08:36:32.000Z</time>
      </trkpt>
      <trkpt lat="48.43116" lon="7.40038">
        <ele>751.99328613281</ele>
        <time>2017-06-11T08:36:36.000Z</time>
      </trkpt>
      <trkpt lat="48.43112" lon="7.40037">
        <ele>752.27954101562</ele>
        <time>2017-06-11T08:36:38.000Z</time>
      </trkpt>
      <trkpt lat="48.43106" lon="7.40033">
        <ele>752.49694824219</ele>
        <time>2017-06-11T08:36:41.000Z</time>
      </trkpt>
      <trkpt lat="48.43101" lon="7.40024">
        <ele>752.53271484375</ele>
        <time>2017-06-11T08:36:44.000Z</time>
      </trkpt>
      <trkpt lat="48.43093" lon="7.40012">
        <ele>752.38006591797</ele>
        <time>2017-06-11T08:36:47.000Z</time>
      </trkpt>
      <trkpt lat="48.43087" lon="7.40007">
        <ele>752.15667724609</ele>
        <time>2017-06-11T08:36:49.000Z</time>
      </trkpt>
      <trkpt lat="48.43077" lon="7.39999">
        <ele>751.97290039062</ele>
        <time>2017-06-11T08:36:52.000Z</time>
      </trkpt>
      <trkpt lat="48.43073" lon="7.39991">
        <ele>751.82214355469</ele>
        <time>2017-06-11T08:36:54.000Z</time>
      </trkpt>
      <trkpt lat="48.43066" lon="7.39982">
        <ele>751.87567138672</ele>
        <time>2017-06-11T08:36:57.000Z</time>
      </trkpt>
      <trkpt lat="48.43061" lon="7.39971">
        <ele>752.09411621094</ele>
        <time>2017-06-11T08:37:00.000Z</time>
      </trkpt>
      <trkpt lat="48.43059" lon="7.39961">
        <ele>752.22448730469</ele>
        <time>2017-06-11T08:37:02.000Z</time>
      </trkpt>
      <trkpt lat="48.43059" lon="7.39944">
        <ele>752.01159667969</ele>
        <time>2017-06-11T08:37:05.000Z</time>
      </trkpt>
      <trkpt lat="48.4306" lon="7.39926">
        <ele>751.45727539062</ele>
        <time>2017-06-11T08:37:08.000Z</time>
      </trkpt>
      <trkpt lat="48.4306" lon="7.39913">
        <ele>750.67266845703</ele>
        <time>2017-06-11T08:37:11.000Z</time>
      </trkpt>
      <trkpt lat="48.4306" lon="7.39904">
        <ele>749.84393310547</ele>
        <time>2017-06-11T08:37:13.000Z</time>
      </trkpt>
      <trkpt lat="48.43061" lon="7.3989">
        <ele>749.01654052734</ele>
        <time>2017-06-11T08:37:16.000Z</time>
      </trkpt>
      <trkpt lat="48.43062" lon="7.39871">
        <ele>748.34704589844</ele>
        <time>2017-06-11T08:37:19.000Z</time>
      </trkpt>
      <trkpt lat="48.43063" lon="7.39853">
        <ele>747.92956542969</ele>
        <time>2017-06-11T08:37:22.000Z</time>
      </trkpt>
      <trkpt lat="48.43063" lon="7.39844">
        <ele>747.63995361328</ele>
        <time>2017-06-11T08:37:24.000Z</time>
      </trkpt>
      <trkpt lat="48.43063" lon="7.39835">
        <ele>747.33447265625</ele>
        <time>2017-06-11T08:37:26.000Z</time>
      </trkpt>
      <trkpt lat="48.43067" lon="7.39821">
        <ele>746.92120361328</ele>
        <time>2017-06-11T08:37:29.000Z</time>
      </trkpt>
      <trkpt lat="48.43069" lon="7.39811">
        <ele>746.51092529297</ele>
        <time>2017-06-11T08:37:31.000Z</time>
      </trkpt>
      <trkpt lat="48.4307" lon="7.39801">
        <ele>746.09436035156</ele>
        <time>2017-06-11T08:37:33.000Z</time>
      </trkpt>
      <trkpt lat="48.43071" lon="7.39789">
        <ele>745.60461425781</ele>
        <time>2017-06-11T08:37:36.000Z</time>
      </trkpt>
      <trkpt lat="48.43074" lon="7.39781">
        <ele>745.01086425781</ele>
        <time>2017-06-11T08:37:38.000Z</time>
      </trkpt>
      <trkpt lat="48.43077" lon="7.3977">
        <ele>744.50183105469</ele>
        <time>2017-06-11T08:37:40.000Z</time>
      </trkpt>
      <trkpt lat="48.43078" lon="7.3976">
        <ele>744.01477050781</ele>
        <time>2017-06-11T08:37:42.000Z</time>
      </trkpt>
      <trkpt lat="48.4308" lon="7.39742">
        <ele>743.48510742188</ele>
        <time>2017-06-11T08:37:45.000Z</time>
      </trkpt>
      <trkpt lat="48.43079" lon="7.39724">
        <ele>743.02136230469</ele>
        <time>2017-06-11T08:37:48.000Z</time>
      </trkpt>
      <trkpt lat="48.43076" lon="7.39707">
        <ele>742.70123291016</ele>
        <time>2017-06-11T08:37:51.000Z</time>
      </trkpt>
      <trkpt lat="48.43074" lon="7.39698">
        <ele>742.46917724609</ele>
        <time>2017-06-11T08:37:53.000Z</time>
      </trkpt>
      <trkpt lat="48.43069" lon="7.3968">
        <ele>742.29602050781</ele>
        <time>2017-06-11T08:37:56.000Z</time>
      </trkpt>
      <trkpt lat="48.43064" lon="7.39668">
        <ele>742.20477294922</ele>
        <time>2017-06-11T08:37:58.000Z</time>
      </trkpt>
      <trkpt lat="48.43053" lon="7.39651">
        <ele>741.79150390625</ele>
        <time>2017-06-11T08:38:01.000Z</time>
      </trkpt>
      <trkpt lat="48.43047" lon="7.39649">
        <ele>741.35314941406</ele>
        <time>2017-06-11T08:38:03.000Z</time>
      </trkpt>
      <trkpt lat="48.43042" lon="7.39649">
        <ele>740.9541015625</ele>
        <time>2017-06-11T08:38:05.000Z</time>
      </trkpt>
      <trkpt lat="48.43038" lon="7.39651">
        <ele>740.65490722656</ele>
        <time>2017-06-11T08:38:08.000Z</time>
      </trkpt>
      <trkpt lat="48.43034" lon="7.39654">
        <ele>740.51892089844</ele>
        <time>2017-06-11T08:38:16.000Z</time>
      </trkpt>
      <trkpt lat="48.43033" lon="7.39657">
        <ele>740.84637451172</ele>
        <time>2017-06-11T08:38:25.000Z</time>
      </trkpt>
      <trkpt lat="48.43031" lon="7.39661">
        <ele>741.33636474609</ele>
        <time>2017-06-11T08:38:28.000Z</time>
      </trkpt>
      <trkpt lat="48.43024" lon="7.39665">
        <ele>741.98358154297</ele>
        <time>2017-06-11T08:38:31.000Z</time>
      </trkpt>
      <trkpt lat="48.4302" lon="7.39667">
        <ele>742.66845703125</ele>
        <time>2017-06-11T08:38:33.000Z</time>
      </trkpt>
      <trkpt lat="48.43016" lon="7.3967">
        <ele>743.32092285156</ele>
        <time>2017-06-11T08:38:35.000Z</time>
      </trkpt>
      <trkpt lat="48.43011" lon="7.39674">
        <ele>744.01696777344</ele>
        <time>2017-06-11T08:38:37.000Z</time>
      </trkpt>
      <trkpt lat="48.43005" lon="7.3968">
        <ele>744.78485107422</ele>
        <time>2017-06-11T08:38:40.000Z</time>
      </trkpt>
      <trkpt lat="48.42998" lon="7.39684">
        <ele>745.55554199219</ele>
        <time>2017-06-11T08:38:43.000Z</time>
      </trkpt>
      <trkpt lat="48.42991" lon="7.39686">
        <ele>746.28509521484</ele>
        <time>2017-06-11T08:38:47.000Z</time>
      </trkpt>
      <trkpt lat="48.42985" lon="7.39683">
        <ele>746.859375</ele>
        <time>2017-06-11T08:38:49.000Z</time>
      </trkpt>
      <trkpt lat="48.42982" lon="7.39681">
        <ele>747.22332763672</ele>
        <time>2017-06-11T08:38:51.000Z</time>
      </trkpt>
      <trkpt lat="48.42976" lon="7.39682">
        <ele>747.41961669922</ele>
        <time>2017-06-11T08:38:54.000Z</time>
      </trkpt>
      <trkpt lat="48.4297" lon="7.39685">
        <ele>747.53594970703</ele>
        <time>2017-06-11T08:38:56.000Z</time>
      </trkpt>
      <trkpt lat="48.42964" lon="7.39688">
        <ele>747.65899658203</ele>
        <time>2017-06-11T08:38:59.000Z</time>
      </trkpt>
      <trkpt lat="48.42959" lon="7.3969">
        <ele>747.89874267578</ele>
        <time>2017-06-11T08:39:02.000Z</time>
      </trkpt>
      <trkpt lat="48.42956" lon="7.39691">
        <ele>748.21490478516</ele>
        <time>2017-06-11T08:39:04.000Z</time>
      </trkpt>
      <trkpt lat="48.42953" lon="7.39692">
        <ele>748.52984619141</ele>
        <time>2017-06-11T08:39:07.000Z</time>
      </trkpt>
      <trkpt lat="48.4295" lon="7.39693">
        <ele>748.75518798828</ele>
        <time>2017-06-11T08:39:09.000Z</time>
      </trkpt>
      <trkpt lat="48.42945" lon="7.39692">
        <ele>748.91455078125</ele>
        <time>2017-06-11T08:39:12.000Z</time>
      </trkpt>
      <trkpt lat="48.42942" lon="7.39691">
        <ele>748.97393798828</ele>
        <time>2017-06-11T08:39:14.000Z</time>
      </trkpt>
      <trkpt lat="48.42936" lon="7.39687">
        <ele>748.95227050781</ele>
        <time>2017-06-11T08:39:17.000Z</time>
      </trkpt>
      <trkpt lat="48.42925" lon="7.39681">
        <ele>748.80139160156</ele>
        <time>2017-06-11T08:39:20.000Z</time>
      </trkpt>
      <trkpt lat="48.4292" lon="7.39677">
        <ele>748.56982421875</ele>
        <time>2017-06-11T08:39:22.000Z</time>
      </trkpt>
      <trkpt lat="48.42917" lon="7.39673">
        <ele>748.27392578125</ele>
        <time>2017-06-11T08:39:24.000Z</time>
      </trkpt>
      <trkpt lat="48.42913" lon="7.39671">
        <ele>747.85827636719</ele>
        <time>2017-06-11T08:39:26.000Z</time>
      </trkpt>
      <trkpt lat="48.42907" lon="7.39669">
        <ele>747.26043701172</ele>
        <time>2017-06-11T08:39:29.000Z</time>
      </trkpt>
      <trkpt lat="48.42904" lon="7.39671">
        <ele>746.67352294922</ele>
        <time>2017-06-11T08:39:31.000Z</time>
      </trkpt>
      <trkpt lat="48.42899" lon="7.39678">
        <ele>746.09899902344</ele>
        <time>2017-06-11T08:39:34.000Z</time>
      </trkpt>
      <trkpt lat="48.42897" lon="7.39683">
        <ele>745.59722900391</ele>
        <time>2017-06-11T08:39:36.000Z</time>
      </trkpt>
      <trkpt lat="48.42899" lon="7.3969">
        <ele>745.40155029297</ele>
        <time>2017-06-11T08:39:38.000Z</time>
      </trkpt>
      <trkpt lat="48.42902" lon="7.39698">
        <ele>745.69049072266</ele>
        <time>2017-06-11T08:39:41.000Z</time>
      </trkpt>
      <trkpt lat="48.42906" lon="7.39704">
        <ele>746.31707763672</ele>
        <time>2017-06-11T08:39:44.000Z</time>
      </trkpt>
      <trkpt lat="48.42907" lon="7.39712">
        <ele>747.19165039062</ele>
        <time>2017-06-11T08:39:47.000Z</time>
      </trkpt>
      <trkpt lat="48.42905" lon="7.39718">
        <ele>748.08044433594</ele>
        <time>2017-06-11T08:39:49.000Z</time>
      </trkpt>
      <trkpt lat="48.42904" lon="7.39722">
        <ele>748.85754394531</ele>
        <time>2017-06-11T08:39:51.000Z</time>
      </trkpt>
      <trkpt lat="48.42904" lon="7.3973">
        <ele>749.49188232422</ele>
        <time>2017-06-11T08:39:54.000Z</time>
      </trkpt>
      <trkpt lat="48.42903" lon="7.39737">
        <ele>749.94897460938</ele>
        <time>2017-06-11T08:39:56.000Z</time>
      </trkpt>
      <trkpt lat="48.429" lon="7.39746">
        <ele>750.240234375</ele>
        <time>2017-06-11T08:39:59.000Z</time>
      </trkpt>
      <trkpt lat="48.42899" lon="7.39752">
        <ele>750.53918457031</ele>
        <time>2017-06-11T08:40:01.000Z</time>
      </trkpt>
      <trkpt lat="48.42901" lon="7.39762">
        <ele>750.95635986328</ele>
        <time>2017-06-11T08:40:04.000Z</time>
      </trkpt>
      <trkpt lat="48.42901" lon="7.39771">
        <ele>751.33905029297</ele>
        <time>2017-06-11T08:40:06.000Z</time>
      </trkpt>
      <trkpt lat="48.42899" lon="7.39783">
        <ele>751.60363769531</ele>
        <time>2017-06-11T08:40:08.000Z</time>
      </trkpt>
      <trkpt lat="48.42895" lon="7.39807">
        <ele>751.82482910156</ele>
        <time>2017-06-11T08:40:11.000Z</time>
      </trkpt>
      <trkpt lat="48.42896" lon="7.39819">
        <ele>752.14227294922</ele>
        <time>2017-06-11T08:40:13.000Z</time>
      </trkpt>
      <trkpt lat="48.42898" lon="7.39821">
        <ele>752.40484619141</ele>
        <time>2017-06-11T08:40:16.000Z</time>
      </trkpt>
      <trkpt lat="48.42898" lon="7.39818">
        <ele>752.58703613281</ele>
        <time>2017-06-11T08:40:25.000Z</time>
      </trkpt>
      <trkpt lat="48.42898" lon="7.39818">
        <ele>752.58703613281</ele>
        <time>2017-06-11T08:40:45.000Z</time>
      </trkpt>
      <trkpt lat="48.42899" lon="7.3982">
        <ele>752.83087158203</ele>
        <time>2017-06-11T08:41:02.000Z</time>
      </trkpt>
      <trkpt lat="48.42898" lon="7.39821">
        <ele>753.05920410156</ele>
        <time>2017-06-11T08:41:14.000Z</time>
      </trkpt>
      <trkpt lat="48.42894" lon="7.39827">
        <ele>752.9765625</ele>
        <time>2017-06-11T08:41:17.000Z</time>
      </trkpt>
      <trkpt lat="48.4289" lon="7.39835">
        <ele>752.66156005859</ele>
        <time>2017-06-11T08:41:19.000Z</time>
      </trkpt>
      <trkpt lat="48.42887" lon="7.39841">
        <ele>752.27722167969</ele>
        <time>2017-06-11T08:41:21.000Z</time>
      </trkpt>
      <trkpt lat="48.42886" lon="7.39842">
        <ele>751.85498046875</ele>
        <time>2017-06-11T08:41:24.000Z</time>
      </trkpt>
      <trkpt lat="48.42884" lon="7.39844">
        <ele>751.38342285156</ele>
        <time>2017-06-11T08:41:27.000Z</time>
      </trkpt>
      <trkpt lat="48.42883" lon="7.39846">
        <ele>751.04608154297</ele>
        <time>2017-06-11T08:41:29.000Z</time>
      </trkpt>
      <trkpt lat="48.42882" lon="7.39849">
        <ele>750.80816650391</ele>
        <time>2017-06-11T08:41:32.000Z</time>
      </trkpt>
      <trkpt lat="48.42882" lon="7.39851">
        <ele>750.67980957031</ele>
        <time>2017-06-11T08:41:34.000Z</time>
      </trkpt>
      <trkpt lat="48.42883" lon="7.39854">
        <ele>750.62188720703</ele>
        <time>2017-06-11T08:41:36.000Z</time>
      </trkpt>
      <trkpt lat="48.42883" lon="7.39857">
        <ele>750.65417480469</ele>
        <time>2017-06-11T08:41:39.000Z</time>
      </trkpt>
      <trkpt lat="48.42881" lon="7.39859">
        <ele>750.69158935547</ele>
        <time>2017-06-11T08:41:41.000Z</time>
      </trkpt>
      <trkpt lat="48.42881" lon="7.39862">
        <ele>750.78546142578</ele>
        <time>2017-06-11T08:41:44.000Z</time>
      </trkpt>
      <trkpt lat="48.42881" lon="7.39865">
        <ele>750.87738037109</ele>
        <time>2017-06-11T08:41:48.000Z</time>
      </trkpt>
      <trkpt lat="48.4288" lon="7.39869">
        <ele>750.89642333984</ele>
        <time>2017-06-11T08:41:50.000Z</time>
      </trkpt>
      <trkpt lat="48.42878" lon="7.39875">
        <ele>750.88519287109</ele>
        <time>2017-06-11T08:41:53.000Z</time>
      </trkpt>
      <trkpt lat="48.42877" lon="7.39878">
        <ele>750.91076660156</ele>
        <time>2017-06-11T08:41:55.000Z</time>
      </trkpt>
      <trkpt lat="48.42876" lon="7.39884">
        <ele>750.92810058594</ele>
        <time>2017-06-11T08:41:58.000Z</time>
      </trkpt>
      <trkpt lat="48.42876" lon="7.39888">
        <ele>750.94293212891</ele>
        <time>2017-06-11T08:42:00.000Z</time>
      </trkpt>
      <trkpt lat="48.42872" lon="7.39897">
        <ele>750.93005371094</ele>
        <time>2017-06-11T08:42:03.000Z</time>
      </trkpt>
      <trkpt lat="48.42872" lon="7.39904">
        <ele>751.03515625</ele>
        <time>2017-06-11T08:42:06.000Z</time>
      </trkpt>
      <trkpt lat="48.42873" lon="7.39912">
        <ele>751.26232910156</ele>
        <time>2017-06-11T08:42:09.000Z</time>
      </trkpt>
      <trkpt lat="48.42879" lon="7.39918">
        <ele>751.72033691406</ele>
        <time>2017-06-11T08:42:12.000Z</time>
      </trkpt>
      <trkpt lat="48.42884" lon="7.39922">
        <ele>752.39050292969</ele>
        <time>2017-06-11T08:42:14.000Z</time>
      </trkpt>
      <trkpt lat="48.42887" lon="7.39924">
        <ele>753.22637939453</ele>
        <time>2017-06-11T08:42:16.000Z</time>
      </trkpt>
      <trkpt lat="48.42888" lon="7.39929">
        <ele>754.08270263672</ele>
        <time>2017-06-11T08:42:19.000Z</time>
      </trkpt>
      <trkpt lat="48.42887" lon="7.39934">
        <ele>754.90264892578</ele>
        <time>2017-06-11T08:42:21.000Z</time>
      </trkpt>
      <trkpt lat="48.42887" lon="7.3994">
        <ele>755.55517578125</ele>
        <time>2017-06-11T08:42:23.000Z</time>
      </trkpt>
      <trkpt lat="48.42885" lon="7.39948">
        <ele>756.10913085938</ele>
        <time>2017-06-11T08:42:26.000Z</time>
      </trkpt>
      <trkpt lat="48.42884" lon="7.39953">
        <ele>756.60327148438</ele>
        <time>2017-06-11T08:42:28.000Z</time>
      </trkpt>
      <trkpt lat="48.42883" lon="7.39958">
        <ele>757.03894042969</ele>
        <time>2017-06-11T08:42:31.000Z</time>
      </trkpt>
      <trkpt lat="48.42884" lon="7.39965">
        <ele>757.53271484375</ele>
        <time>2017-06-11T08:42:34.000Z</time>
      </trkpt>
      <trkpt lat="48.42884" lon="7.3997">
        <ele>758.06378173828</ele>
        <time>2017-06-11T08:42:37.000Z</time>
      </trkpt>
      <trkpt lat="48.42884" lon="7.39976">
        <ele>758.57629394531</ele>
        <time>2017-06-11T08:42:40.000Z</time>
      </trkpt>
      <trkpt lat="48.42885" lon="7.3998">
        <ele>759.13635253906</ele>
        <time>2017-06-11T08:42:42.000Z</time>
      </trkpt>
      <trkpt lat="48.42887" lon="7.39985">
        <ele>759.74548339844</ele>
        <time>2017-06-11T08:42:45.000Z</time>
      </trkpt>
      <trkpt lat="48.42888" lon="7.3999">
        <ele>760.33837890625</ele>
        <time>2017-06-11T08:42:48.000Z</time>
      </trkpt>
      <trkpt lat="48.42888" lon="7.39994">
        <ele>760.89514160156</ele>
        <time>2017-06-11T08:42:50.000Z</time>
      </trkpt>
      <trkpt lat="48.42889" lon="7.39999">
        <ele>761.46978759766</ele>
        <time>2017-06-11T08:42:52.000Z</time>
      </trkpt>
      <trkpt lat="48.42891" lon="7.40006">
        <ele>762.14562988281</ele>
        <time>2017-06-11T08:42:55.000Z</time>
      </trkpt>
      <trkpt lat="48.4289" lon="7.40011">
        <ele>762.87030029297</ele>
        <time>2017-06-11T08:42:58.000Z</time>
      </trkpt>
      <trkpt lat="48.42891" lon="7.40017">
        <ele>763.63488769531</ele>
        <time>2017-06-11T08:43:01.000Z</time>
      </trkpt>
      <trkpt lat="48.4289" lon="7.40019">
        <ele>764.37066650391</ele>
        <time>2017-06-11T08:43:04.000Z</time>
      </trkpt>
      <trkpt lat="48.42889" lon="7.40023">
        <ele>765.05529785156</ele>
        <time>2017-06-11T08:43:06.000Z</time>
      </trkpt>
      <trkpt lat="48.42887" lon="7.40028">
        <ele>765.64367675781</ele>
        <time>2017-06-11T08:43:09.000Z</time>
      </trkpt>
      <trkpt lat="48.42885" lon="7.40033">
        <ele>766.18078613281</ele>
        <time>2017-06-11T08:43:12.000Z</time>
      </trkpt>
      <trkpt lat="48.42885" lon="7.40038">
        <ele>766.67852783203</ele>
        <time>2017-06-11T08:43:15.000Z</time>
      </trkpt>
      <trkpt lat="48.42884" lon="7.40041">
        <ele>767.17578125</ele>
        <time>2017-06-11T08:43:17.000Z</time>
      </trkpt>
      <trkpt lat="48.42883" lon="7.40047">
        <ele>767.73742675781</ele>
        <time>2017-06-11T08:43:20.000Z</time>
      </trkpt>
      <trkpt lat="48.42882" lon="7.4005">
        <ele>768.27282714844</ele>
        <time>2017-06-11T08:43:23.000Z</time>
      </trkpt>
      <trkpt lat="48.42881" lon="7.40053">
        <ele>768.77062988281</ele>
        <time>2017-06-11T08:43:26.000Z</time>
      </trkpt>
      <trkpt lat="48.42883" lon="7.40054">
        <ele>769.18737792969</ele>
        <time>2017-06-11T08:43:38.000Z</time>
      </trkpt>
      <trkpt lat="48.42882" lon="7.40056">
        <ele>769.58642578125</ele>
        <time>2017-06-11T08:43:40.000Z</time>
      </trkpt>
      <trkpt lat="48.42881" lon="7.40059">
        <ele>769.92565917969</ele>
        <time>2017-06-11T08:43:42.000Z</time>
      </trkpt>
      <trkpt lat="48.4288" lon="7.40061">
        <ele>770.21234130859</ele>
        <time>2017-06-11T08:43:44.000Z</time>
      </trkpt>
      <trkpt lat="48.42878" lon="7.40063">
        <ele>770.43432617188</ele>
        <time>2017-06-11T08:43:46.000Z</time>
      </trkpt>
      <trkpt lat="48.42877" lon="7.40064">
        <ele>770.62316894531</ele>
        <time>2017-06-11T08:43:48.000Z</time>
      </trkpt>
      <trkpt lat="48.42876" lon="7.40067">
        <ele>770.82501220703</ele>
        <time>2017-06-11T08:43:51.000Z</time>
      </trkpt>
      <trkpt lat="48.42874" lon="7.40071">
        <ele>771.02673339844</ele>
        <time>2017-06-11T08:43:54.000Z</time>
      </trkpt>
      <trkpt lat="48.42872" lon="7.40073">
        <ele>771.212890625</ele>
        <time>2017-06-11T08:43:56.000Z</time>
      </trkpt>
      <trkpt lat="48.4287" lon="7.40076">
        <ele>771.41271972656</ele>
        <time>2017-06-11T08:43:59.000Z</time>
      </trkpt>
      <trkpt lat="48.42869" lon="7.40078">
        <ele>771.63946533203</ele>
        <time>2017-06-11T08:44:01.000Z</time>
      </trkpt>
      <trkpt lat="48.42868" lon="7.40082">
        <ele>771.91131591797</ele>
        <time>2017-06-11T08:44:04.000Z</time>
      </trkpt>
      <trkpt lat="48.42867" lon="7.40087">
        <ele>772.21911621094</ele>
        <time>2017-06-11T08:44:07.000Z</time>
      </trkpt>
      <trkpt lat="48.42864" lon="7.40091">
        <ele>772.5576171875</ele>
        <time>2017-06-11T08:44:10.000Z</time>
      </trkpt>
      <trkpt lat="48.42864" lon="7.40094">
        <ele>772.95440673828</ele>
        <time>2017-06-11T08:44:12.000Z</time>
      </trkpt>
      <trkpt lat="48.42864" lon="7.40098">
        <ele>773.39538574219</ele>
        <time>2017-06-11T08:44:14.000Z</time>
      </trkpt>
      <trkpt lat="48.42863" lon="7.40103">
        <ele>773.87353515625</ele>
        <time>2017-06-11T08:44:17.000Z</time>
      </trkpt>
      <trkpt lat="48.42863" lon="7.40109">
        <ele>774.37823486328</ele>
        <time>2017-06-11T08:44:20.000Z</time>
      </trkpt>
      <trkpt lat="48.42864" lon="7.40115">
        <ele>775.02325439453</ele>
        <time>2017-06-11T08:44:23.000Z</time>
      </trkpt>
      <trkpt lat="48.42865" lon="7.40118">
        <ele>775.68981933594</ele>
        <time>2017-06-11T08:44:25.000Z</time>
      </trkpt>
      <trkpt lat="48.42864" lon="7.40123">
        <ele>776.39373779297</ele>
        <time>2017-06-11T08:44:28.000Z</time>
      </trkpt>
      <trkpt lat="48.42865" lon="7.40129">
        <ele>777.12463378906</ele>
        <time>2017-06-11T08:44:31.000Z</time>
      </trkpt>
      <trkpt lat="48.42865" lon="7.40132">
        <ele>777.80499267578</ele>
        <time>2017-06-11T08:44:34.000Z</time>
      </trkpt>
      <trkpt lat="48.42865" lon="7.40136">
        <ele>778.40075683594</ele>
        <time>2017-06-11T08:44:37.000Z</time>
      </trkpt>
      <trkpt lat="48.42865" lon="7.40138">
        <ele>778.9404296875</ele>
        <time>2017-06-11T08:44:39.000Z</time>
      </trkpt>
      <trkpt lat="48.42865" lon="7.4014">
        <ele>779.421875</ele>
        <time>2017-06-11T08:44:41.000Z</time>
      </trkpt>
      <trkpt lat="48.42865" lon="7.40145">
        <ele>779.86364746094</ele>
        <time>2017-06-11T08:44:44.000Z</time>
      </trkpt>
      <trkpt lat="48.42865" lon="7.40147">
        <ele>780.25561523438</ele>
        <time>2017-06-11T08:44:46.000Z</time>
      </trkpt>
      <trkpt lat="48.42863" lon="7.40149">
        <ele>780.556640625</ele>
        <time>2017-06-11T08:44:48.000Z</time>
      </trkpt>
      <trkpt lat="48.42862" lon="7.40149">
        <ele>780.78747558594</ele>
        <time>2017-06-11T08:45:08.000Z</time>
      </trkpt>
      <trkpt lat="48.4286" lon="7.40152">
        <ele>780.99969482422</ele>
        <time>2017-06-11T08:45:15.000Z</time>
      </trkpt>
      <trkpt lat="48.42859" lon="7.40153">
        <ele>781.10430908203</ele>
        <time>2017-06-11T08:45:20.000Z</time>
      </trkpt>
      <trkpt lat="48.42856" lon="7.40156">
        <ele>781.18603515625</ele>
        <time>2017-06-11T08:45:22.000Z</time>
      </trkpt>
      <trkpt lat="48.42855" lon="7.40158">
        <ele>781.29718017578</ele>
        <time>2017-06-11T08:45:24.000Z</time>
      </trkpt>
      <trkpt lat="48.42852" lon="7.40163">
        <ele>781.52069091797</ele>
        <time>2017-06-11T08:45:27.000Z</time>
      </trkpt>
      <trkpt lat="48.42852" lon="7.40165">
        <ele>781.76049804688</ele>
        <time>2017-06-11T08:45:29.000Z</time>
      </trkpt>
      <trkpt lat="48.42848" lon="7.4017">
        <ele>782.02868652344</ele>
        <time>2017-06-11T08:45:32.000Z</time>
      </trkpt>
      <trkpt lat="48.42844" lon="7.40175">
        <ele>782.30401611328</ele>
        <time>2017-06-11T08:45:35.000Z</time>
      </trkpt>
      <trkpt lat="48.42843" lon="7.40178">
        <ele>782.59265136719</ele>
        <time>2017-06-11T08:45:37.000Z</time>
      </trkpt>
      <trkpt lat="48.4284" lon="7.40183">
        <ele>782.8623046875</ele>
        <time>2017-06-11T08:45:40.000Z</time>
      </trkpt>
      <trkpt lat="48.42838" lon="7.40186">
        <ele>783.10479736328</ele>
        <time>2017-06-11T08:45:43.000Z</time>
      </trkpt>
      <trkpt lat="48.42838" lon="7.40188">
        <ele>783.34252929688</ele>
        <time>2017-06-11T08:45:52.000Z</time>
      </trkpt>
      <trkpt lat="48.42838" lon="7.40189">
        <ele>783.58575439453</ele>
        <time>2017-06-11T08:45:58.000Z</time>
      </trkpt>
      <trkpt lat="48.42838" lon="7.40193">
        <ele>783.85845947266</ele>
        <time>2017-06-11T08:46:01.000Z</time>
      </trkpt>
      <trkpt lat="48.42836" lon="7.40197">
        <ele>784.13098144531</ele>
        <time>2017-06-11T08:46:04.000Z</time>
      </trkpt>
      <trkpt lat="48.42835" lon="7.40201">
        <ele>784.4521484375</ele>
        <time>2017-06-11T08:46:07.000Z</time>
      </trkpt>
      <trkpt lat="48.42834" lon="7.40205">
        <ele>784.80969238281</ele>
        <time>2017-06-11T08:46:10.000Z</time>
      </trkpt>
      <trkpt lat="48.42833" lon="7.40207">
        <ele>785.17059326172</ele>
        <time>2017-06-11T08:46:12.000Z</time>
      </trkpt>
      <trkpt lat="48.42833" lon="7.40209">
        <ele>785.4951171875</ele>
        <time>2017-06-11T08:46:14.000Z</time>
      </trkpt>
      <trkpt lat="48.42834" lon="7.40212">
        <ele>785.81878662109</ele>
        <time>2017-06-11T08:46:16.000Z</time>
      </trkpt>
      <trkpt lat="48.42833" lon="7.40213">
        <ele>786.09393310547</ele>
        <time>2017-06-11T08:46:19.000Z</time>
      </trkpt>
      <trkpt lat="48.42832" lon="7.40213">
        <ele>786.27307128906</ele>
        <time>2017-06-11T08:46:33.000Z</time>
      </trkpt>
      <trkpt lat="48.42831" lon="7.40213">
        <ele>786.39929199219</ele>
        <time>2017-06-11T08:46:38.000Z</time>
      </trkpt>
      <trkpt lat="48.4283" lon="7.40215">
        <ele>786.47491455078</ele>
        <time>2017-06-11T08:46:40.000Z</time>
      </trkpt>
      <trkpt lat="48.42826" lon="7.40218">
        <ele>786.52697753906</ele>
        <time>2017-06-11T08:46:43.000Z</time>
      </trkpt>
      <trkpt lat="48.42825" lon="7.40221">
        <ele>786.58044433594</ele>
        <time>2017-06-11T08:46:45.000Z</time>
      </trkpt>
      <trkpt lat="48.42823" lon="7.40225">
        <ele>786.74530029297</ele>
        <time>2017-06-11T08:46:48.000Z</time>
      </trkpt>
      <trkpt lat="48.42822" lon="7.40228">
        <ele>786.97998046875</ele>
        <time>2017-06-11T08:46:50.000Z</time>
      </trkpt>
      <trkpt lat="48.4282" lon="7.40232">
        <ele>787.30499267578</ele>
        <time>2017-06-11T08:46:53.000Z</time>
      </trkpt>
      <trkpt lat="48.42818" lon="7.40234">
        <ele>787.62286376953</ele>
        <time>2017-06-11T08:46:55.000Z</time>
      </trkpt>
      <trkpt lat="48.42815" lon="7.40238">
        <ele>787.96856689453</ele>
        <time>2017-06-11T08:46:58.000Z</time>
      </trkpt>
      <trkpt lat="48.42812" lon="7.40241">
        <ele>788.28515625</ele>
        <time>2017-06-11T08:47:01.000Z</time>
      </trkpt>
      <trkpt lat="48.42809" lon="7.40243">
        <ele>788.56329345703</ele>
        <time>2017-06-11T08:47:03.000Z</time>
      </trkpt>
      <trkpt lat="48.42806" lon="7.40245">
        <ele>788.78063964844</ele>
        <time>2017-06-11T08:47:05.000Z</time>
      </trkpt>
      <trkpt lat="48.42803" lon="7.40247">
        <ele>789.00256347656</ele>
        <time>2017-06-11T08:47:07.000Z</time>
      </trkpt>
      <trkpt lat="48.42799" lon="7.40249">
        <ele>789.21105957031</ele>
        <time>2017-06-11T08:47:10.000Z</time>
      </trkpt>
      <trkpt lat="48.42796" lon="7.4025">
        <ele>789.36993408203</ele>
        <time>2017-06-11T08:47:13.000Z</time>
      </trkpt>
      <trkpt lat="48.42794" lon="7.40251">
        <ele>789.517578125</ele>
        <time>2017-06-11T08:47:16.000Z</time>
      </trkpt>
      <trkpt lat="48.42794" lon="7.40254">
        <ele>789.68737792969</ele>
        <time>2017-06-11T08:47:19.000Z</time>
      </trkpt>
      <trkpt lat="48.42794" lon="7.40256">
        <ele>789.85931396484</ele>
        <time>2017-06-11T08:47:21.000Z</time>
      </trkpt>
      <trkpt lat="48.42795" lon="7.40261">
        <ele>790.09783935547</ele>
        <time>2017-06-11T08:47:24.000Z</time>
      </trkpt>
      <trkpt lat="48.42798" lon="7.40265">
        <ele>790.44165039062</ele>
        <time>2017-06-11T08:47:27.000Z</time>
      </trkpt>
      <trkpt lat="48.42802" lon="7.40269">
        <ele>790.87023925781</ele>
        <time>2017-06-11T08:47:30.000Z</time>
      </trkpt>
      <trkpt lat="48.42806" lon="7.4027">
        <ele>791.29217529297</ele>
        <time>2017-06-11T08:47:32.000Z</time>
      </trkpt>
      <trkpt lat="48.42811" lon="7.40277">
        <ele>791.82592773438</ele>
        <time>2017-06-11T08:47:35.000Z</time>
      </trkpt>
      <trkpt lat="48.42813" lon="7.40282">
        <ele>792.34979248047</ele>
        <time>2017-06-11T08:47:37.000Z</time>
      </trkpt>
      <trkpt lat="48.42815" lon="7.40287">
        <ele>792.86022949219</ele>
        <time>2017-06-11T08:47:39.000Z</time>
      </trkpt>
      <trkpt lat="48.42817" lon="7.40294">
        <ele>793.40588378906</ele>
        <time>2017-06-11T08:47:41.000Z</time>
      </trkpt>
      <trkpt lat="48.42819" lon="7.403">
        <ele>794.01629638672</ele>
        <time>2017-06-11T08:47:43.000Z</time>
      </trkpt>
      <trkpt lat="48.42822" lon="7.40308">
        <ele>794.61828613281</ele>
        <time>2017-06-11T08:47:46.000Z</time>
      </trkpt>
      <trkpt lat="48.42826" lon="7.40314">
        <ele>795.22863769531</ele>
        <time>2017-06-11T08:47:49.000Z</time>
      </trkpt>
      <trkpt lat="48.42831" lon="7.40323">
        <ele>795.86871337891</ele>
        <time>2017-06-11T08:47:52.000Z</time>
      </trkpt>
      <trkpt lat="48.42836" lon="7.40331">
        <ele>796.46978759766</ele>
        <time>2017-06-11T08:47:55.000Z</time>
      </trkpt>
      <trkpt lat="48.42843" lon="7.40339">
        <ele>796.95666503906</ele>
        <time>2017-06-11T08:47:58.000Z</time>
      </trkpt>
      <trkpt lat="48.42849" lon="7.40346">
        <ele>797.29113769531</ele>
        <time>2017-06-11T08:48:01.000Z</time>
      </trkpt>
      <trkpt lat="48.42853" lon="7.40351">
        <ele>797.48718261719</ele>
        <time>2017-06-11T08:48:03.000Z</time>
      </trkpt>
      <trkpt lat="48.42857" lon="7.40357">
        <ele>797.541015625</ele>
        <time>2017-06-11T08:48:06.000Z</time>
      </trkpt>
      <trkpt lat="48.42858" lon="7.4036">
        <ele>797.49938964844</ele>
        <time>2017-06-11T08:48:09.000Z</time>
      </trkpt>
      <trkpt lat="48.42858" lon="7.4036">
        <ele>797.49938964844</ele>
        <time>2017-06-11T08:48:29.000Z</time>
      </trkpt>
      <trkpt lat="48.42861" lon="7.40355">
        <ele>797.38641357422</ele>
        <time>2017-06-11T08:49:08.000Z</time>
      </trkpt>
      <trkpt lat="48.42861" lon="7.40355">
        <ele>797.38641357422</ele>
        <time>2017-06-11T08:49:28.000Z</time>
      </trkpt>
      <trkpt lat="48.42862" lon="7.40356">
        <ele>797.27331542969</ele>
        <time>2017-06-11T08:50:00.000Z</time>
      </trkpt>
      <trkpt lat="48.42863" lon="7.40358">
        <ele>797.17401123047</ele>
        <time>2017-06-11T08:50:02.000Z</time>
      </trkpt>
      <trkpt lat="48.42867" lon="7.40357">
        <ele>797.02197265625</ele>
        <time>2017-06-11T08:50:05.000Z</time>
      </trkpt>
      <trkpt lat="48.4287" lon="7.40354">
        <ele>796.82220458984</ele>
        <time>2017-06-11T08:50:07.000Z</time>
      </trkpt>
      <trkpt lat="48.42871" lon="7.40351">
        <ele>796.64575195312</ele>
        <time>2017-06-11T08:50:09.000Z</time>
      </trkpt>
      <trkpt lat="48.42873" lon="7.4035">
        <ele>796.44860839844</ele>
        <time>2017-06-11T08:50:12.000Z</time>
      </trkpt>
      <trkpt lat="48.42878" lon="7.40348">
        <ele>796.17883300781</ele>
        <time>2017-06-11T08:50:15.000Z</time>
      </trkpt>
      <trkpt lat="48.42883" lon="7.40347">
        <ele>795.90948486328</ele>
        <time>2017-06-11T08:50:17.000Z</time>
      </trkpt>
      <trkpt lat="48.42886" lon="7.40343">
        <ele>795.62463378906</ele>
        <time>2017-06-11T08:50:19.000Z</time>
      </trkpt>
      <trkpt lat="48.42892" lon="7.4034">
        <ele>795.30792236328</ele>
        <time>2017-06-11T08:50:22.000Z</time>
      </trkpt>
      <trkpt lat="48.42904" lon="7.40331">
        <ele>794.84222412109</ele>
        <time>2017-06-11T08:50:25.000Z</time>
      </trkpt>
      <trkpt lat="48.42913" lon="7.40324">
        <ele>794.30548095703</ele>
        <time>2017-06-11T08:50:27.000Z</time>
      </trkpt>
      <trkpt lat="48.42925" lon="7.40319">
        <ele>793.68347167969</ele>
        <time>2017-06-11T08:50:29.000Z</time>
      </trkpt>
      <trkpt lat="48.42937" lon="7.40315">
        <ele>792.98693847656</ele>
        <time>2017-06-11T08:50:31.000Z</time>
      </trkpt>
      <trkpt lat="48.42955" lon="7.4031">
        <ele>792.17199707031</ele>
        <time>2017-06-11T08:50:34.000Z</time>
      </trkpt>
      <trkpt lat="48.42965" lon="7.40305">
        <ele>791.43328857422</ele>
        <time>2017-06-11T08:50:36.000Z</time>
      </trkpt>
      <trkpt lat="48.42977" lon="7.403">
        <ele>790.73522949219</ele>
        <time>2017-06-11T08:50:39.000Z</time>
      </trkpt>
      <trkpt lat="48.42985" lon="7.40297">
        <ele>790.11376953125</ele>
        <time>2017-06-11T08:50:41.000Z</time>
      </trkpt>
      <trkpt lat="48.42998" lon="7.40289">
        <ele>789.53686523438</ele>
        <time>2017-06-11T08:50:44.000Z</time>
      </trkpt>
      <trkpt lat="48.43011" lon="7.40283">
        <ele>788.98480224609</ele>
        <time>2017-06-11T08:50:47.000Z</time>
      </trkpt>
      <trkpt lat="48.43019" lon="7.4028">
        <ele>788.40795898438</ele>
        <time>2017-06-11T08:50:49.000Z</time>
      </trkpt>
      <trkpt lat="48.43031" lon="7.40281">
        <ele>787.74871826172</ele>
        <time>2017-06-11T08:50:52.000Z</time>
      </trkpt>
      <trkpt lat="48.43044" lon="7.40282">
        <ele>786.95690917969</ele>
        <time>2017-06-11T08:50:55.000Z</time>
      </trkpt>
      <trkpt lat="48.43053" lon="7.40284">
        <ele>786.07525634766</ele>
        <time>2017-06-11T08:50:58.000Z</time>
      </trkpt>
      <trkpt lat="48.43061" lon="7.40285">
        <ele>785.21038818359</ele>
        <time>2017-06-11T08:51:01.000Z</time>
      </trkpt>
      <trkpt lat="48.43071" lon="7.40278">
        <ele>784.44201660156</ele>
        <time>2017-06-11T08:51:04.000Z</time>
      </trkpt>
      <trkpt lat="48.43078" lon="7.40264">
        <ele>784.00341796875</ele>
        <time>2017-06-11T08:51:07.000Z</time>
      </trkpt>
      <trkpt lat="48.43084" lon="7.4026">
        <ele>783.77551269531</ele>
        <time>2017-06-11T08:51:09.000Z</time>
      </trkpt>
      <trkpt lat="48.43099" lon="7.40254">
        <ele>783.47448730469</ele>
        <time>2017-06-11T08:51:12.000Z</time>
      </trkpt>
      <trkpt lat="48.43114" lon="7.40244">
        <ele>782.96643066406</ele>
        <time>2017-06-11T08:51:15.000Z</time>
      </trkpt>
      <trkpt lat="48.43125" lon="7.40239">
        <ele>782.14605712891</ele>
        <time>2017-06-11T08:51:17.000Z</time>
      </trkpt>
      <trkpt lat="48.43142" lon="7.40236">
        <ele>780.75793457031</ele>
        <time>2017-06-11T08:51:20.000Z</time>
      </trkpt>
      <trkpt lat="48.43152" lon="7.40239">
        <ele>779.17639160156</ele>
        <time>2017-06-11T08:51:22.000Z</time>
      </trkpt>
      <trkpt lat="48.43169" lon="7.40238">
        <ele>777.46691894531</ele>
        <time>2017-06-11T08:51:25.000Z</time>
      </trkpt>
      <trkpt lat="48.4318" lon="7.40235">
        <ele>775.82580566406</ele>
        <time>2017-06-11T08:51:27.000Z</time>
      </trkpt>
      <trkpt lat="48.43189" lon="7.4023">
        <ele>774.29296875</ele>
        <time>2017-06-11T08:51:29.000Z</time>
      </trkpt>
      <trkpt lat="48.43195" lon="7.40222">
        <ele>772.9833984375</ele>
        <time>2017-06-11T08:51:31.000Z</time>
      </trkpt>
      <trkpt lat="48.43202" lon="7.40212">
        <ele>771.61938476562</ele>
        <time>2017-06-11T08:51:34.000Z</time>
      </trkpt>
      <trkpt lat="48.43209" lon="7.4021">
        <ele>770.47009277344</ele>
        <time>2017-06-11T08:51:36.000Z</time>
      </trkpt>
      <trkpt lat="48.43226" lon="7.40212">
        <ele>769.26892089844</ele>
        <time>2017-06-11T08:51:39.000Z</time>
      </trkpt>
      <trkpt lat="48.43238" lon="7.40219">
        <ele>768.07281494141</ele>
        <time>2017-06-11T08:51:41.000Z</time>
      </trkpt>
      <trkpt lat="48.43254" lon="7.40223">
        <ele>766.81085205078</ele>
        <time>2017-06-11T08:51:44.000Z</time>
      </trkpt>
      <trkpt lat="48.4327" lon="7.40221">
        <ele>765.63360595703</ele>
        <time>2017-06-11T08:51:47.000Z</time>
      </trkpt>
      <trkpt lat="48.43282" lon="7.4022">
        <ele>764.52490234375</ele>
        <time>2017-06-11T08:51:49.000Z</time>
      </trkpt>
      <trkpt lat="48.43292" lon="7.40223">
        <ele>763.68811035156</ele>
        <time>2017-06-11T08:51:51.000Z</time>
      </trkpt>
      <trkpt lat="48.43305" lon="7.40221">
        <ele>762.95153808594</ele>
        <time>2017-06-11T08:51:54.000Z</time>
      </trkpt>
      <trkpt lat="48.43312" lon="7.40218">
        <ele>762.39855957031</ele>
        <time>2017-06-11T08:51:56.000Z</time>
      </trkpt>
      <trkpt lat="48.43319" lon="7.40218">
        <ele>761.94006347656</ele>
        <time>2017-06-11T08:51:58.000Z</time>
      </trkpt>
      <trkpt lat="48.43327" lon="7.40221">
        <ele>761.54663085938</ele>
        <time>2017-06-11T08:52:00.000Z</time>
      </trkpt>
      <trkpt lat="48.43334" lon="7.40221">
        <ele>761.1669921875</ele>
        <time>2017-06-11T08:52:02.000Z</time>
      </trkpt>
      <trkpt lat="48.43344" lon="7.40219">
        <ele>760.81408691406</ele>
        <time>2017-06-11T08:52:05.000Z</time>
      </trkpt>
      <trkpt lat="48.4335" lon="7.40217">
        <ele>760.47784423828</ele>
        <time>2017-06-11T08:52:07.000Z</time>
      </trkpt>
      <trkpt lat="48.4336" lon="7.40215">
        <ele>760.08959960938</ele>
        <time>2017-06-11T08:52:10.000Z</time>
      </trkpt>
      <trkpt lat="48.4337" lon="7.40215">
        <ele>759.65447998047</ele>
        <time>2017-06-11T08:52:13.000Z</time>
      </trkpt>
      <trkpt lat="48.43382" lon="7.40219">
        <ele>759.23425292969</ele>
        <time>2017-06-11T08:52:16.000Z</time>
      </trkpt>
      <trkpt lat="48.4339" lon="7.4022">
        <ele>758.87316894531</ele>
        <time>2017-06-11T08:52:18.000Z</time>
      </trkpt>
      <trkpt lat="48.43394" lon="7.40219">
        <ele>758.53259277344</ele>
        <time>2017-06-11T08:52:21.000Z</time>
      </trkpt>
      <trkpt lat="48.43394" lon="7.40218">
        <ele>758.27893066406</ele>
        <time>2017-06-11T08:52:24.000Z</time>
      </trkpt>
      <trkpt lat="48.43396" lon="7.40218">
        <ele>758.09228515625</ele>
        <time>2017-06-11T08:52:26.000Z</time>
      </trkpt>
      <trkpt lat="48.43398" lon="7.40218">
        <ele>757.9453125</ele>
        <time>2017-06-11T08:52:28.000Z</time>
      </trkpt>
      <trkpt lat="48.43403" lon="7.40215">
        <ele>757.73486328125</ele>
        <time>2017-06-11T08:52:31.000Z</time>
      </trkpt>
      <trkpt lat="48.43412" lon="7.40212">
        <ele>757.43811035156</ele>
        <time>2017-06-11T08:52:34.000Z</time>
      </trkpt>
      <trkpt lat="48.4342" lon="7.40215">
        <ele>757.15759277344</ele>
        <time>2017-06-11T08:52:36.000Z</time>
      </trkpt>
      <trkpt lat="48.43426" lon="7.40219">
        <ele>756.91491699219</ele>
        <time>2017-06-11T08:52:38.000Z</time>
      </trkpt>
      <trkpt lat="48.43431" lon="7.4022">
        <ele>756.64447021484</ele>
        <time>2017-06-11T08:52:41.000Z</time>
      </trkpt>
      <trkpt lat="48.43436" lon="7.40224">
        <ele>756.52648925781</ele>
        <time>2017-06-11T08:52:44.000Z</time>
      </trkpt>
      <trkpt lat="48.43442" lon="7.40229">
        <ele>756.58905029297</ele>
        <time>2017-06-11T08:52:47.000Z</time>
      </trkpt>
      <trkpt lat="48.43447" lon="7.4023">
        <ele>756.64288330078</ele>
        <time>2017-06-11T08:52:49.000Z</time>
      </trkpt>
      <trkpt lat="48.43456" lon="7.4023">
        <ele>756.60852050781</ele>
        <time>2017-06-11T08:52:52.000Z</time>
      </trkpt>
      <trkpt lat="48.43459" lon="7.40233">
        <ele>756.64025878906</ele>
        <time>2017-06-11T08:52:54.000Z</time>
      </trkpt>
      <trkpt lat="48.43464" lon="7.40235">
        <ele>756.61993408203</ele>
        <time>2017-06-11T08:52:56.000Z</time>
      </trkpt>
      <trkpt lat="48.43473" lon="7.40238">
        <ele>756.56878662109</ele>
        <time>2017-06-11T08:52:59.000Z</time>
      </trkpt>
      <trkpt lat="48.43477" lon="7.40241">
        <ele>756.56945800781</ele>
        <time>2017-06-11T08:53:01.000Z</time>
      </trkpt>
      <trkpt lat="48.43481" lon="7.40244">
        <ele>756.68035888672</ele>
        <time>2017-06-11T08:53:03.000Z</time>
      </trkpt>
      <trkpt lat="48.43485" lon="7.40247">
        <ele>756.79681396484</ele>
        <time>2017-06-11T08:53:05.000Z</time>
      </trkpt>
      <trkpt lat="48.43491" lon="7.40251">
        <ele>756.93176269531</ele>
        <time>2017-06-11T08:53:07.000Z</time>
      </trkpt>
      <trkpt lat="48.43496" lon="7.40254">
        <ele>756.94360351562</ele>
        <time>2017-06-11T08:53:10.000Z</time>
      </trkpt>
      <trkpt lat="48.43496" lon="7.40252">
        <ele>756.96545410156</ele>
        <time>2017-06-11T08:53:13.000Z</time>
      </trkpt>
      <trkpt lat="48.43495" lon="7.4025">
        <ele>757.00378417969</ele>
        <time>2017-06-11T08:53:15.000Z</time>
      </trkpt>
      <trkpt lat="48.43494" lon="7.4024">
        <ele>756.75793457031</ele>
        <time>2017-06-11T08:53:18.000Z</time>
      </trkpt>
      <trkpt lat="48.43496" lon="7.40231">
        <ele>756.26318359375</ele>
        <time>2017-06-11T08:53:21.000Z</time>
      </trkpt>
      <trkpt lat="48.435" lon="7.40226">
        <ele>755.70349121094</ele>
        <time>2017-06-11T08:53:24.000Z</time>
      </trkpt>
      <trkpt lat="48.43504" lon="7.40224">
        <ele>755.01751708984</ele>
        <time>2017-06-11T08:53:26.000Z</time>
      </trkpt>
      <trkpt lat="48.4351" lon="7.40221">
        <ele>754.17517089844</ele>
        <time>2017-06-11T08:53:29.000Z</time>
      </trkpt>
      <trkpt lat="48.43517" lon="7.40216">
        <ele>753.42590332031</ele>
        <time>2017-06-11T08:53:32.000Z</time>
      </trkpt>
      <trkpt lat="48.43522" lon="7.40216">
        <ele>752.86279296875</ele>
        <time>2017-06-11T08:53:35.000Z</time>
      </trkpt>
      <trkpt lat="48.43529" lon="7.40217">
        <ele>752.47302246094</ele>
        <time>2017-06-11T08:53:38.000Z</time>
      </trkpt>
      <trkpt lat="48.43538" lon="7.40217">
        <ele>752.13635253906</ele>
        <time>2017-06-11T08:53:42.000Z</time>
      </trkpt>
      <trkpt lat="48.43545" lon="7.40219">
        <ele>751.91931152344</ele>
        <time>2017-06-11T08:53:44.000Z</time>
      </trkpt>
      <trkpt lat="48.4355" lon="7.40221">
        <ele>751.89343261719</ele>
        <time>2017-06-11T08:53:46.000Z</time>
      </trkpt>
      <trkpt lat="48.43555" lon="7.40223">
        <ele>751.943359375</ele>
        <time>2017-06-11T08:53:48.000Z</time>
      </trkpt>
      <trkpt lat="48.43563" lon="7.40226">
        <ele>752.02233886719</ele>
        <time>2017-06-11T08:53:51.000Z</time>
      </trkpt>
      <trkpt lat="48.4357" lon="7.40232">
        <ele>752.26892089844</ele>
        <time>2017-06-11T08:53:54.000Z</time>
      </trkpt>
      <trkpt lat="48.43575" lon="7.40237">
        <ele>752.595703125</ele>
        <time>2017-06-11T08:53:56.000Z</time>
      </trkpt>
      <trkpt lat="48.43581" lon="7.40243">
        <ele>753.02478027344</ele>
        <time>2017-06-11T08:53:59.000Z</time>
      </trkpt>
      <trkpt lat="48.43588" lon="7.40249">
        <ele>753.52416992188</ele>
        <time>2017-06-11T08:54:02.000Z</time>
      </trkpt>
      <trkpt lat="48.43592" lon="7.40254">
        <ele>753.97808837891</ele>
        <time>2017-06-11T08:54:04.000Z</time>
      </trkpt>
      <trkpt lat="48.43599" lon="7.40261">
        <ele>754.25567626953</ele>
        <time>2017-06-11T08:54:07.000Z</time>
      </trkpt>
      <trkpt lat="48.43606" lon="7.40268">
        <ele>754.42541503906</ele>
        <time>2017-06-11T08:54:10.000Z</time>
      </trkpt>
      <trkpt lat="48.43613" lon="7.40275">
        <ele>754.482421875</ele>
        <time>2017-06-11T08:54:13.000Z</time>
      </trkpt>
      <trkpt lat="48.43619" lon="7.40283">
        <ele>754.50402832031</ele>
        <time>2017-06-11T08:54:16.000Z</time>
      </trkpt>
      <trkpt lat="48.43626" lon="7.40292">
        <ele>754.64471435547</ele>
        <time>2017-06-11T08:54:19.000Z</time>
      </trkpt>
      <trkpt lat="48.4363" lon="7.40297">
        <ele>754.90881347656</ele>
        <time>2017-06-11T08:54:21.000Z</time>
      </trkpt>
      <trkpt lat="48.43636" lon="7.40306">
        <ele>755.33959960938</ele>
        <time>2017-06-11T08:54:24.000Z</time>
      </trkpt>
      <trkpt lat="48.43641" lon="7.4031">
        <ele>755.84680175781</ele>
        <time>2017-06-11T08:54:26.000Z</time>
      </trkpt>
      <trkpt lat="48.43647" lon="7.40316">
        <ele>756.45751953125</ele>
        <time>2017-06-11T08:54:29.000Z</time>
      </trkpt>
      <trkpt lat="48.43651" lon="7.4032">
        <ele>757.09210205078</ele>
        <time>2017-06-11T08:54:31.000Z</time>
      </trkpt>
      <trkpt lat="48.43655" lon="7.40327">
        <ele>757.828125</ele>
        <time>2017-06-11T08:54:34.000Z</time>
      </trkpt>
      <trkpt lat="48.43656" lon="7.40328">
        <ele>758.43536376953</ele>
        <time>2017-06-11T08:54:36.000Z</time>
      </trkpt>
      <trkpt lat="48.43655" lon="7.40329">
        <ele>758.95324707031</ele>
        <time>2017-06-11T08:54:38.000Z</time>
      </trkpt>
      <trkpt lat="48.43655" lon="7.40329">
        <ele>758.95324707031</ele>
        <time>2017-06-11T08:54:58.000Z</time>
      </trkpt>
      <trkpt lat="48.43656" lon="7.40332">
        <ele>759.365234375</ele>
        <time>2017-06-11T08:55:28.000Z</time>
      </trkpt>
      <trkpt lat="48.43657" lon="7.40333">
        <ele>759.70379638672</ele>
        <time>2017-06-11T08:55:31.000Z</time>
      </trkpt>
      <trkpt lat="48.43657" lon="7.40333">
        <ele>759.70379638672</ele>
        <time>2017-06-11T08:55:51.000Z</time>
      </trkpt>
      <trkpt lat="48.43658" lon="7.40334">
        <ele>759.87646484375</ele>
        <time>2017-06-11T08:57:04.000Z</time>
      </trkpt>
      <trkpt lat="48.43661" lon="7.40336">
        <ele>760.06610107422</ele>
        <time>2017-06-11T08:57:07.000Z</time>
      </trkpt>
      <trkpt lat="48.43663" lon="7.40336">
        <ele>760.27178955078</ele>
        <time>2017-06-11T08:57:09.000Z</time>
      </trkpt>
      <trkpt lat="48.43664" lon="7.40336">
        <ele>760.44873046875</ele>
        <time>2017-06-11T08:57:11.000Z</time>
      </trkpt>
      <trkpt lat="48.43666" lon="7.40334">
        <ele>760.60583496094</ele>
        <time>2017-06-11T08:57:13.000Z</time>
      </trkpt>
      <trkpt lat="48.43668" lon="7.4033">
        <ele>760.62744140625</ele>
        <time>2017-06-11T08:57:16.000Z</time>
      </trkpt>
      <trkpt lat="48.43669" lon="7.40325">
        <ele>760.45471191406</ele>
        <time>2017-06-11T08:57:19.000Z</time>
      </trkpt>
      <trkpt lat="48.4367" lon="7.40323">
        <ele>760.15344238281</ele>
        <time>2017-06-11T08:57:21.000Z</time>
      </trkpt>
      <trkpt lat="48.43674" lon="7.40319">
        <ele>759.61535644531</ele>
        <time>2017-06-11T08:57:24.000Z</time>
      </trkpt>
      <trkpt lat="48.43677" lon="7.40318">
        <ele>758.90850830078</ele>
        <time>2017-06-11T08:57:26.000Z</time>
      </trkpt>
      <trkpt lat="48.43684" lon="7.40322">
        <ele>758.18218994141</ele>
        <time>2017-06-11T08:57:29.000Z</time>
      </trkpt>
      <trkpt lat="48.4369" lon="7.4033">
        <ele>757.57214355469</ele>
        <time>2017-06-11T08:57:32.000Z</time>
      </trkpt>
      <trkpt lat="48.43696" lon="7.40336">
        <ele>756.99719238281</ele>
        <time>2017-06-11T08:57:34.000Z</time>
      </trkpt>
      <trkpt lat="48.43706" lon="7.40348">
        <ele>756.57110595703</ele>
        <time>2017-06-11T08:57:37.000Z</time>
      </trkpt>
      <trkpt lat="48.43711" lon="7.40355">
        <ele>756.31140136719</ele>
        <time>2017-06-11T08:57:39.000Z</time>
      </trkpt>
      <trkpt lat="48.43713" lon="7.40357">
        <ele>756.16619873047</ele>
        <time>2017-06-11T08:57:41.000Z</time>
      </trkpt>
      <trkpt lat="48.43714" lon="7.40355">
        <ele>755.99182128906</ele>
        <time>2017-06-11T08:57:44.000Z</time>
      </trkpt>
      <trkpt lat="48.43715" lon="7.40353">
        <ele>755.82800292969</ele>
        <time>2017-06-11T08:57:47.000Z</time>
      </trkpt>
      <trkpt lat="48.43715" lon="7.40351">
        <ele>755.65460205078</ele>
        <time>2017-06-11T08:57:49.000Z</time>
      </trkpt>
      <trkpt lat="48.43715" lon="7.40349">
        <ele>755.40808105469</ele>
        <time>2017-06-11T08:57:52.000Z</time>
      </trkpt>
      <trkpt lat="48.43713" lon="7.40347">
        <ele>755.16906738281</ele>
        <time>2017-06-11T08:57:55.000Z</time>
      </trkpt>
      <trkpt lat="48.43713" lon="7.40345">
        <ele>754.96710205078</ele>
        <time>2017-06-11T08:57:58.000Z</time>
      </trkpt>
      <trkpt lat="48.43712" lon="7.40343">
        <ele>754.78649902344</ele>
        <time>2017-06-11T08:58:01.000Z</time>
      </trkpt>
      <trkpt lat="48.43713" lon="7.40342">
        <ele>754.62255859375</ele>
        <time>2017-06-11T08:58:08.000Z</time>
      </trkpt>
      <trkpt lat="48.43713" lon="7.4034">
        <ele>754.45788574219</ele>
        <time>2017-06-11T08:58:10.000Z</time>
      </trkpt>
      <trkpt lat="48.43712" lon="7.40332">
        <ele>754.13299560547</ele>
        <time>2017-06-11T08:58:13.000Z</time>
      </trkpt>
      <trkpt lat="48.43711" lon="7.40322">
        <ele>753.60778808594</ele>
        <time>2017-06-11T08:58:15.000Z</time>
      </trkpt>
      <trkpt lat="48.43708" lon="7.40315">
        <ele>753.00225830078</ele>
        <time>2017-06-11T08:58:17.000Z</time>
      </trkpt>
      <trkpt lat="48.43705" lon="7.40308">
        <ele>752.37683105469</ele>
        <time>2017-06-11T08:58:19.000Z</time>
      </trkpt>
      <trkpt lat="48.43699" lon="7.40294">
        <ele>751.66241455078</ele>
        <time>2017-06-11T08:58:22.000Z</time>
      </trkpt>
      <trkpt lat="48.43692" lon="7.40283">
        <ele>751.04699707031</ele>
        <time>2017-06-11T08:58:25.000Z</time>
      </trkpt>
      <trkpt lat="48.43687" lon="7.40274">
        <ele>750.64501953125</ele>
        <time>2017-06-11T08:58:27.000Z</time>
      </trkpt>
      <trkpt lat="48.43684" lon="7.40268">
        <ele>750.31671142578</ele>
        <time>2017-06-11T08:58:29.000Z</time>
      </trkpt>
      <trkpt lat="48.43682" lon="7.40259">
        <ele>749.88494873047</ele>
        <time>2017-06-11T08:58:32.000Z</time>
      </trkpt>
      <trkpt lat="48.43682" lon="7.40253">
        <ele>749.4267578125</ele>
        <time>2017-06-11T08:58:35.000Z</time>
      </trkpt>
      <trkpt lat="48.43682" lon="7.40255">
        <ele>749.09698486328</ele>
        <time>2017-06-11T08:58:38.000Z</time>
      </trkpt>
      <trkpt lat="48.43683" lon="7.40256">
        <ele>748.79174804688</ele>
        <time>2017-06-11T08:58:41.000Z</time>
      </trkpt>
      <trkpt lat="48.43682" lon="7.40257">
        <ele>748.58337402344</ele>
        <time>2017-06-11T08:58:44.000Z</time>
      </trkpt>
      <trkpt lat="48.43681" lon="7.40257">
        <ele>748.60382080078</ele>
        <time>2017-06-11T08:58:46.000Z</time>
      </trkpt>
      <trkpt lat="48.43679" lon="7.40258">
        <ele>748.87573242188</ele>
        <time>2017-06-11T08:58:49.000Z</time>
      </trkpt>
      <trkpt lat="48.43678" lon="7.40259">
        <ele>749.15032958984</ele>
        <time>2017-06-11T08:59:03.000Z</time>
      </trkpt>
      <trkpt lat="48.43678" lon="7.40258">
        <ele>749.39111328125</ele>
        <time>2017-06-11T08:59:08.000Z</time>
      </trkpt>
      <trkpt lat="48.43678" lon="7.40256">
        <ele>749.52062988281</ele>
        <time>2017-06-11T08:59:11.000Z</time>
      </trkpt>
      <trkpt lat="48.43678" lon="7.40254">
        <ele>749.56530761719</ele>
        <time>2017-06-11T08:59:14.000Z</time>
      </trkpt>
      <trkpt lat="48.43676" lon="7.40251">
        <ele>749.53332519531</ele>
        <time>2017-06-11T08:59:16.000Z</time>
      </trkpt>
      <trkpt lat="48.43673" lon="7.40248">
        <ele>749.43444824219</ele>
        <time>2017-06-11T08:59:19.000Z</time>
      </trkpt>
      <trkpt lat="48.43672" lon="7.40249">
        <ele>749.40710449219</ele>
        <time>2017-06-11T08:59:22.000Z</time>
      </trkpt>
      <trkpt lat="48.43672" lon="7.40247">
        <ele>749.37420654297</ele>
        <time>2017-06-11T08:59:25.000Z</time>
      </trkpt>
      <trkpt lat="48.43673" lon="7.40241">
        <ele>749.13726806641</ele>
        <time>2017-06-11T08:59:28.000Z</time>
      </trkpt>
      <trkpt lat="48.43673" lon="7.40238">
        <ele>748.72863769531</ele>
        <time>2017-06-11T08:59:31.000Z</time>
      </trkpt>
      <trkpt lat="48.43671" lon="7.40234">
        <ele>748.26159667969</ele>
        <time>2017-06-11T08:59:34.000Z</time>
      </trkpt>
      <trkpt lat="48.43671" lon="7.40232">
        <ele>747.6884765625</ele>
        <time>2017-06-11T08:59:36.000Z</time>
      </trkpt>
      <trkpt lat="48.43668" lon="7.40229">
        <ele>747.17706298828</ele>
        <time>2017-06-11T08:59:39.000Z</time>
      </trkpt>
      <trkpt lat="48.4367" lon="7.40227">
        <ele>746.74780273438</ele>
        <time>2017-06-11T08:59:44.000Z</time>
      </trkpt>
      <trkpt lat="48.4367" lon="7.40218">
        <ele>746.13250732422</ele>
        <time>2017-06-11T08:59:47.000Z</time>
      </trkpt>
      <trkpt lat="48.43669" lon="7.4021">
        <ele>745.31561279297</ele>
        <time>2017-06-11T08:59:49.000Z</time>
      </trkpt>
      <trkpt lat="48.43667" lon="7.40199">
        <ele>744.18341064453</ele>
        <time>2017-06-11T08:59:52.000Z</time>
      </trkpt>
      <trkpt lat="48.43661" lon="7.40185">
        <ele>742.64440917969</ele>
        <time>2017-06-11T08:59:55.000Z</time>
      </trkpt>
      <trkpt lat="48.43655" lon="7.40172">
        <ele>740.90954589844</ele>
        <time>2017-06-11T08:59:57.000Z</time>
      </trkpt>
      <trkpt lat="48.43649" lon="7.40156">
        <ele>738.99975585938</ele>
        <time>2017-06-11T08:59:59.000Z</time>
      </trkpt>
      <trkpt lat="48.43642" lon="7.40131">
        <ele>736.53253173828</ele>
        <time>2017-06-11T09:00:02.000Z</time>
      </trkpt>
      <trkpt lat="48.43638" lon="7.40108">
        <ele>733.66265869141</ele>
        <time>2017-06-11T09:00:05.000Z</time>
      </trkpt>
      <trkpt lat="48.4364" lon="7.40095">
        <ele>730.60369873047</ele>
        <time>2017-06-11T09:00:07.000Z</time>
      </trkpt>
      <trkpt lat="48.43642" lon="7.40088">
        <ele>727.52355957031</ele>
        <time>2017-06-11T09:00:10.000Z</time>
      </trkpt>
      <trkpt lat="48.43645" lon="7.40085">
        <ele>724.76647949219</ele>
        <time>2017-06-11T09:00:12.000Z</time>
      </trkpt>
      <trkpt lat="48.43647" lon="7.40086">
        <ele>722.79998779297</ele>
        <time>2017-06-11T09:00:27.000Z</time>
      </trkpt>
      <trkpt lat="48.43646" lon="7.40084">
        <ele>721.5810546875</ele>
        <time>2017-06-11T09:00:32.000Z</time>
      </trkpt>
      <trkpt lat="48.43643" lon="7.40084">
        <ele>721.05456542969</ele>
        <time>2017-06-11T09:00:37.000Z</time>
      </trkpt>
      <trkpt lat="48.43643" lon="7.40081">
        <ele>720.75207519531</ele>
        <time>2017-06-11T09:00:40.000Z</time>
      </trkpt>
      <trkpt lat="48.43643" lon="7.40078">
        <ele>720.52600097656</ele>
        <time>2017-06-11T09:00:42.000Z</time>
      </trkpt>
      <trkpt lat="48.43644" lon="7.40075">
        <ele>720.18859863281</ele>
        <time>2017-06-11T09:00:45.000Z</time>
      </trkpt>
      <trkpt lat="48.43645" lon="7.40071">
        <ele>719.681640625</ele>
        <time>2017-06-11T09:00:47.000Z</time>
      </trkpt>
      <trkpt lat="48.43647" lon="7.40061">
        <ele>718.61120605469</ele>
        <time>2017-06-11T09:00:50.000Z</time>
      </trkpt>
      <trkpt lat="48.43649" lon="7.40053">
        <ele>717.28576660156</ele>
        <time>2017-06-11T09:00:53.000Z</time>
      </trkpt>
      <trkpt lat="48.43654" lon="7.4004">
        <ele>715.36578369141</ele>
        <time>2017-06-11T09:00:56.000Z</time>
      </trkpt>
      <trkpt lat="48.43663" lon="7.4002">
        <ele>712.49700927734</ele>
        <time>2017-06-11T09:00:59.000Z</time>
      </trkpt>
      <trkpt lat="48.43674" lon="7.39995">
        <ele>708.83874511719</ele>
        <time>2017-06-11T09:01:02.000Z</time>
      </trkpt>
      <trkpt lat="48.43681" lon="7.39977">
        <ele>705.48822021484</ele>
        <time>2017-06-11T09:01:04.000Z</time>
      </trkpt>
      <trkpt lat="48.43688" lon="7.39948">
        <ele>702.30084228516</ele>
        <time>2017-06-11T09:01:07.000Z</time>
      </trkpt>
      <trkpt lat="48.43699" lon="7.39916">
        <ele>699.61791992188</ele>
        <time>2017-06-11T09:01:10.000Z</time>
      </trkpt>
      <trkpt lat="48.4371" lon="7.39879">
        <ele>698.16821289062</ele>
        <time>2017-06-11T09:01:13.000Z</time>
      </trkpt>
      <trkpt lat="48.43712" lon="7.39859">
        <ele>697.74322509766</ele>
        <time>2017-06-11T09:01:15.000Z</time>
      </trkpt>
      <trkpt lat="48.43712" lon="7.39833">
        <ele>697.52392578125</ele>
        <time>2017-06-11T09:01:18.000Z</time>
      </trkpt>
      <trkpt lat="48.43711" lon="7.39813">
        <ele>697.73626708984</ele>
        <time>2017-06-11T09:01:21.000Z</time>
      </trkpt>
      <trkpt lat="48.43713" lon="7.39802">
        <ele>698.24456787109</ele>
        <time>2017-06-11T09:01:24.000Z</time>
      </trkpt>
      <trkpt lat="48.43714" lon="7.39796">
        <ele>698.65777587891</ele>
        <time>2017-06-11T09:01:26.000Z</time>
      </trkpt>
      <trkpt lat="48.4372" lon="7.39792">
        <ele>699.00573730469</ele>
        <time>2017-06-11T09:01:28.000Z</time>
      </trkpt>
      <trkpt lat="48.43725" lon="7.39794">
        <ele>699.24493408203</ele>
        <time>2017-06-11T09:01:30.000Z</time>
      </trkpt>
      <trkpt lat="48.43735" lon="7.39804">
        <ele>699.13110351562</ele>
        <time>2017-06-11T09:01:33.000Z</time>
      </trkpt>
      <trkpt lat="48.43742" lon="7.39809">
        <ele>698.84216308594</ele>
        <time>2017-06-11T09:01:35.000Z</time>
      </trkpt>
      <trkpt lat="48.43748" lon="7.39806">
        <ele>698.49047851562</ele>
        <time>2017-06-11T09:01:37.000Z</time>
      </trkpt>
      <trkpt lat="48.4375" lon="7.39806">
        <ele>698.12860107422</ele>
        <time>2017-06-11T09:01:39.000Z</time>
      </trkpt>
      <trkpt lat="48.43759" lon="7.39804">
        <ele>697.59753417969</ele>
        <time>2017-06-11T09:01:42.000Z</time>
      </trkpt>
      <trkpt lat="48.43767" lon="7.398">
        <ele>697.02770996094</ele>
        <time>2017-06-11T09:01:45.000Z</time>
      </trkpt>
      <trkpt lat="48.43776" lon="7.39793">
        <ele>696.32989501953</ele>
        <time>2017-06-11T09:01:48.000Z</time>
      </trkpt>
      <trkpt lat="48.43783" lon="7.3979">
        <ele>695.47863769531</ele>
        <time>2017-06-11T09:01:50.000Z</time>
      </trkpt>
      <trkpt lat="48.43793" lon="7.39786">
        <ele>694.39318847656</ele>
        <time>2017-06-11T09:01:52.000Z</time>
      </trkpt>
      <trkpt lat="48.43808" lon="7.39777">
        <ele>693.20642089844</ele>
        <time>2017-06-11T09:01:55.000Z</time>
      </trkpt>
      <trkpt lat="48.43814" lon="7.39764">
        <ele>692.13635253906</ele>
        <time>2017-06-11T09:01:57.000Z</time>
      </trkpt>
      <trkpt lat="48.4382" lon="7.39751">
        <ele>691.20416259766</ele>
        <time>2017-06-11T09:01:59.000Z</time>
      </trkpt>
      <trkpt lat="48.43827" lon="7.39739">
        <ele>690.30731201172</ele>
        <time>2017-06-11T09:02:02.000Z</time>
      </trkpt>
      <trkpt lat="48.43834" lon="7.39715">
        <ele>689.62188720703</ele>
        <time>2017-06-11T09:02:04.000Z</time>
      </trkpt>
      <trkpt lat="48.43835" lon="7.39699">
        <ele>689.31652832031</ele>
        <time>2017-06-11T09:02:06.000Z</time>
      </trkpt>
      <trkpt lat="48.43834" lon="7.39684">
        <ele>689.17718505859</ele>
        <time>2017-06-11T09:02:09.000Z</time>
      </trkpt>
      <trkpt lat="48.43835" lon="7.39691">
        <ele>689.05456542969</ele>
        <time>2017-06-11T09:02:17.000Z</time>
      </trkpt>
      <trkpt lat="48.43835" lon="7.39692">
        <ele>689.08026123047</ele>
        <time>2017-06-11T09:02:19.000Z</time>
      </trkpt>
      <trkpt lat="48.43832" lon="7.39693">
        <ele>689.22863769531</ele>
        <time>2017-06-11T09:02:27.000Z</time>
      </trkpt>
      <trkpt lat="48.43834" lon="7.39693">
        <ele>689.30389404297</ele>
        <time>2017-06-11T09:02:35.000Z</time>
      </trkpt>
      <trkpt lat="48.43837" lon="7.39688">
        <ele>689.19696044922</ele>
        <time>2017-06-11T09:02:38.000Z</time>
      </trkpt>
      <trkpt lat="48.43846" lon="7.39675">
        <ele>688.89294433594</ele>
        <time>2017-06-11T09:02:41.000Z</time>
      </trkpt>
      <trkpt lat="48.43855" lon="7.39668">
        <ele>688.30938720703</ele>
        <time>2017-06-11T09:02:43.000Z</time>
      </trkpt>
      <trkpt lat="48.43867" lon="7.39669">
        <ele>687.26306152344</ele>
        <time>2017-06-11T09:02:46.000Z</time>
      </trkpt>
      <trkpt lat="48.43873" lon="7.39669">
        <ele>686.02478027344</ele>
        <time>2017-06-11T09:02:49.000Z</time>
      </trkpt>
      <trkpt lat="48.43877" lon="7.39665">
        <ele>684.78039550781</ele>
        <time>2017-06-11T09:02:51.000Z</time>
      </trkpt>
      <trkpt lat="48.43884" lon="7.39662">
        <ele>683.56536865234</ele>
        <time>2017-06-11T09:02:53.000Z</time>
      </trkpt>
      <trkpt lat="48.43898" lon="7.39662">
        <ele>682.16638183594</ele>
        <time>2017-06-11T09:02:56.000Z</time>
      </trkpt>
      <trkpt lat="48.43915" lon="7.39653">
        <ele>680.62756347656</ele>
        <time>2017-06-11T09:02:59.000Z</time>
      </trkpt>
      <trkpt lat="48.43925" lon="7.39639">
        <ele>679.19055175781</ele>
        <time>2017-06-11T09:03:02.000Z</time>
      </trkpt>
      <trkpt lat="48.43929" lon="7.3963">
        <ele>677.84057617188</ele>
        <time>2017-06-11T09:03:05.000Z</time>
      </trkpt>
      <trkpt lat="48.43932" lon="7.39624">
        <ele>676.70391845703</ele>
        <time>2017-06-11T09:03:08.000Z</time>
      </trkpt>
      <trkpt lat="48.43939" lon="7.3962">
        <ele>675.93719482422</ele>
        <time>2017-06-11T09:03:11.000Z</time>
      </trkpt>
      <trkpt lat="48.4395" lon="7.39615">
        <ele>675.56457519531</ele>
        <time>2017-06-11T09:03:14.000Z</time>
      </trkpt>
      <trkpt lat="48.4396" lon="7.39616">
        <ele>675.14776611328</ele>
        <time>2017-06-11T09:03:16.000Z</time>
      </trkpt>
      <trkpt lat="48.43975" lon="7.39615">
        <ele>674.52020263672</ele>
        <time>2017-06-11T09:03:19.000Z</time>
      </trkpt>
      <trkpt lat="48.43985" lon="7.39612">
        <ele>673.77600097656</ele>
        <time>2017-06-11T09:03:22.000Z</time>
      </trkpt>
      <trkpt lat="48.43992" lon="7.39612">
        <ele>673.00958251953</ele>
        <time>2017-06-11T09:03:24.000Z</time>
      </trkpt>
      <trkpt lat="48.44006" lon="7.39617">
        <ele>672.20593261719</ele>
        <time>2017-06-11T09:03:27.000Z</time>
      </trkpt>
      <trkpt lat="48.44015" lon="7.39623">
        <ele>671.48352050781</ele>
        <time>2017-06-11T09:03:29.000Z</time>
      </trkpt>
      <trkpt lat="48.44029" lon="7.39632">
        <ele>670.892578125</ele>
        <time>2017-06-11T09:03:32.000Z</time>
      </trkpt>
      <trkpt lat="48.44041" lon="7.3963">
        <ele>670.4033203125</ele>
        <time>2017-06-11T09:03:35.000Z</time>
      </trkpt>
      <trkpt lat="48.44049" lon="7.39623">
        <ele>670.01690673828</ele>
        <time>2017-06-11T09:03:37.000Z</time>
      </trkpt>
      <trkpt lat="48.44062" lon="7.39612">
        <ele>669.78204345703</ele>
        <time>2017-06-11T09:03:40.000Z</time>
      </trkpt>
      <trkpt lat="48.44069" lon="7.39605">
        <ele>669.59759521484</ele>
        <time>2017-06-11T09:03:42.000Z</time>
      </trkpt>
      <trkpt lat="48.44081" lon="7.39594">
        <ele>669.44396972656</ele>
        <time>2017-06-11T09:03:45.000Z</time>
      </trkpt>
      <trkpt lat="48.44094" lon="7.3958">
        <ele>669.23962402344</ele>
        <time>2017-06-11T09:03:48.000Z</time>
      </trkpt>
      <trkpt lat="48.44106" lon="7.39564">
        <ele>668.75219726562</ele>
        <time>2017-06-11T09:03:51.000Z</time>
      </trkpt>
      <trkpt lat="48.44113" lon="7.39553">
        <ele>668.12878417969</ele>
        <time>2017-06-11T09:03:53.000Z</time>
      </trkpt>
      <trkpt lat="48.44122" lon="7.39537">
        <ele>667.30834960938</ele>
        <time>2017-06-11T09:03:56.000Z</time>
      </trkpt>
      <trkpt lat="48.44125" lon="7.39527">
        <ele>666.42126464844</ele>
        <time>2017-06-11T09:03:58.000Z</time>
      </trkpt>
      <trkpt lat="48.44128" lon="7.39508">
        <ele>665.35235595703</ele>
        <time>2017-06-11T09:04:01.000Z</time>
      </trkpt>
      <trkpt lat="48.4413" lon="7.39496">
        <ele>664.39093017578</ele>
        <time>2017-06-11T09:04:03.000Z</time>
      </trkpt>
      <trkpt lat="48.44133" lon="7.39485">
        <ele>663.41387939453</ele>
        <time>2017-06-11T09:04:06.000Z</time>
      </trkpt>
      <trkpt lat="48.44135" lon="7.39476">
        <ele>662.51330566406</ele>
        <time>2017-06-11T09:04:08.000Z</time>
      </trkpt>
      <trkpt lat="48.44137" lon="7.39467">
        <ele>661.59313964844</ele>
        <time>2017-06-11T09:04:10.000Z</time>
      </trkpt>
      <trkpt lat="48.44142" lon="7.39456">
        <ele>660.80108642578</ele>
        <time>2017-06-11T09:04:13.000Z</time>
      </trkpt>
      <trkpt lat="48.44147" lon="7.39453">
        <ele>660.22045898438</ele>
        <time>2017-06-11T09:04:16.000Z</time>
      </trkpt>
      <trkpt lat="48.44157" lon="7.39447">
        <ele>659.88317871094</ele>
        <time>2017-06-11T09:04:19.000Z</time>
      </trkpt>
      <trkpt lat="48.44166" lon="7.39442">
        <ele>659.75061035156</ele>
        <time>2017-06-11T09:04:22.000Z</time>
      </trkpt>
      <trkpt lat="48.44172" lon="7.39439">
        <ele>659.68713378906</ele>
        <time>2017-06-11T09:04:25.000Z</time>
      </trkpt>
      <trkpt lat="48.44177" lon="7.39437">
        <ele>659.70520019531</ele>
        <time>2017-06-11T09:04:27.000Z</time>
      </trkpt>
      <trkpt lat="48.44184" lon="7.39435">
        <ele>659.61273193359</ele>
        <time>2017-06-11T09:04:30.000Z</time>
      </trkpt>
      <trkpt lat="48.44187" lon="7.39434">
        <ele>659.41125488281</ele>
        <time>2017-06-11T09:04:32.000Z</time>
      </trkpt>
      <trkpt lat="48.44193" lon="7.39431">
        <ele>659.06237792969</ele>
        <time>2017-06-11T09:04:35.000Z</time>
      </trkpt>
      <trkpt lat="48.44201" lon="7.39427">
        <ele>658.67736816406</ele>
        <time>2017-06-11T09:04:37.000Z</time>
      </trkpt>
      <trkpt lat="48.44207" lon="7.39424">
        <ele>658.23352050781</ele>
        <time>2017-06-11T09:04:39.000Z</time>
      </trkpt>
      <trkpt lat="48.44218" lon="7.39419">
        <ele>657.70690917969</ele>
        <time>2017-06-11T09:04:42.000Z</time>
      </trkpt>
      <trkpt lat="48.44231" lon="7.39412">
        <ele>656.96441650391</ele>
        <time>2017-06-11T09:04:45.000Z</time>
      </trkpt>
      <trkpt lat="48.44241" lon="7.39408">
        <ele>656.11444091797</ele>
        <time>2017-06-11T09:04:47.000Z</time>
      </trkpt>
      <trkpt lat="48.44253" lon="7.39401">
        <ele>655.14599609375</ele>
        <time>2017-06-11T09:04:50.000Z</time>
      </trkpt>
      <trkpt lat="48.44261" lon="7.39398">
        <ele>654.18695068359</ele>
        <time>2017-06-11T09:04:53.000Z</time>
      </trkpt>
      <trkpt lat="48.44268" lon="7.394">
        <ele>653.40441894531</ele>
        <time>2017-06-11T09:04:56.000Z</time>
      </trkpt>
      <trkpt lat="48.44276" lon="7.39397">
        <ele>652.78686523438</ele>
        <time>2017-06-11T09:04:59.000Z</time>
      </trkpt>
      <trkpt lat="48.44291" lon="7.39388">
        <ele>652.10314941406</ele>
        <time>2017-06-11T09:05:02.000Z</time>
      </trkpt>
      <trkpt lat="48.44302" lon="7.39379">
        <ele>651.43444824219</ele>
        <time>2017-06-11T09:05:05.000Z</time>
      </trkpt>
      <trkpt lat="48.44305" lon="7.39365">
        <ele>650.57629394531</ele>
        <time>2017-06-11T09:05:08.000Z</time>
      </trkpt>
      <trkpt lat="48.44311" lon="7.39342">
        <ele>649.21142578125</ele>
        <time>2017-06-11T09:05:11.000Z</time>
      </trkpt>
      <trkpt lat="48.4432" lon="7.39327">
        <ele>647.68493652344</ele>
        <time>2017-06-11T09:05:13.000Z</time>
      </trkpt>
      <trkpt lat="48.44333" lon="7.39309">
        <ele>646.18975830078</ele>
        <time>2017-06-11T09:05:16.000Z</time>
      </trkpt>
      <trkpt lat="48.44343" lon="7.39302">
        <ele>644.80120849609</ele>
        <time>2017-06-11T09:05:18.000Z</time>
      </trkpt>
      <trkpt lat="48.44358" lon="7.39295">
        <ele>643.56677246094</ele>
        <time>2017-06-11T09:05:21.000Z</time>
      </trkpt>
      <trkpt lat="48.44376" lon="7.3928">
        <ele>642.56140136719</ele>
        <time>2017-06-11T09:05:25.000Z</time>
      </trkpt>
      <trkpt lat="48.44393" lon="7.39257">
        <ele>641.44604492188</ele>
        <time>2017-06-11T09:05:27.000Z</time>
      </trkpt>
      <trkpt lat="48.44408" lon="7.39243">
        <ele>640.29895019531</ele>
        <time>2017-06-11T09:05:29.000Z</time>
      </trkpt>
      <trkpt lat="48.44419" lon="7.39239">
        <ele>639.16546630859</ele>
        <time>2017-06-11T09:05:31.000Z</time>
      </trkpt>
      <trkpt lat="48.44441" lon="7.39239">
        <ele>638.22784423828</ele>
        <time>2017-06-11T09:05:34.000Z</time>
      </trkpt>
      <trkpt lat="48.44456" lon="7.39245">
        <ele>637.70275878906</ele>
        <time>2017-06-11T09:05:36.000Z</time>
      </trkpt>
      <trkpt lat="48.4448" lon="7.39252">
        <ele>637.72723388672</ele>
        <time>2017-06-11T09:05:39.000Z</time>
      </trkpt>
      <trkpt lat="48.44493" lon="7.39243">
        <ele>637.88201904297</ele>
        <time>2017-06-11T09:05:41.000Z</time>
      </trkpt>
      <trkpt lat="48.4451" lon="7.39233">
        <ele>637.83337402344</ele>
        <time>2017-06-11T09:05:43.000Z</time>
      </trkpt>
      <trkpt lat="48.44534" lon="7.39222">
        <ele>637.20739746094</ele>
        <time>2017-06-11T09:05:46.000Z</time>
      </trkpt>
      <trkpt lat="48.44545" lon="7.3922">
        <ele>636.24865722656</ele>
        <time>2017-06-11T09:05:48.000Z</time>
      </trkpt>
      <trkpt lat="48.44567" lon="7.3922">
        <ele>634.83074951172</ele>
        <time>2017-06-11T09:05:51.000Z</time>
      </trkpt>
      <trkpt lat="48.44584" lon="7.39217">
        <ele>633.26623535156</ele>
        <time>2017-06-11T09:05:54.000Z</time>
      </trkpt>
      <trkpt lat="48.44599" lon="7.39214">
        <ele>631.64916992188</ele>
        <time>2017-06-11T09:05:56.000Z</time>
      </trkpt>
      <trkpt lat="48.44614" lon="7.39228">
        <ele>630.53039550781</ele>
        <time>2017-06-11T09:05:59.000Z</time>
      </trkpt>
      <trkpt lat="48.44621" lon="7.39235">
        <ele>629.58959960938</ele>
        <time>2017-06-11T09:06:01.000Z</time>
      </trkpt>
      <trkpt lat="48.44631" lon="7.39244">
        <ele>628.89270019531</ele>
        <time>2017-06-11T09:06:04.000Z</time>
      </trkpt>
      <trkpt lat="48.44637" lon="7.39249">
        <ele>628.41387939453</ele>
        <time>2017-06-11T09:06:06.000Z</time>
      </trkpt>
      <trkpt lat="48.44645" lon="7.39256">
        <ele>628.28991699219</ele>
        <time>2017-06-11T09:06:09.000Z</time>
      </trkpt>
      <trkpt lat="48.44648" lon="7.39259">
        <ele>628.16784667969</ele>
        <time>2017-06-11T09:06:11.000Z</time>
      </trkpt>
      <trkpt lat="48.4465" lon="7.3926">
        <ele>628.01568603516</ele>
        <time>2017-06-11T09:06:14.000Z</time>
      </trkpt>
      <trkpt lat="48.44654" lon="7.39262">
        <ele>627.81433105469</ele>
        <time>2017-06-11T09:06:21.000Z</time>
      </trkpt>
      <trkpt lat="48.44659" lon="7.39263">
        <ele>627.58264160156</ele>
        <time>2017-06-11T09:06:34.000Z</time>
      </trkpt>
      <trkpt lat="48.4466" lon="7.39263">
        <ele>627.33978271484</ele>
        <time>2017-06-11T09:06:37.000Z</time>
      </trkpt>
      <trkpt lat="48.4466" lon="7.39263">
        <ele>627.33978271484</ele>
        <time>2017-06-11T09:06:57.000Z</time>
      </trkpt>
      <trkpt lat="48.44664" lon="7.39265">
        <ele>627.04827880859</ele>
        <time>2017-06-11T09:07:13.000Z</time>
      </trkpt>
      <trkpt lat="48.44679" lon="7.39252">
        <ele>625.67205810547</ele>
        <time>2017-06-11T09:07:17.000Z</time>
      </trkpt>
      <trkpt lat="48.44691" lon="7.39243">
        <ele>623.55059814453</ele>
        <time>2017-06-11T09:07:20.000Z</time>
      </trkpt>
      <trkpt lat="48.44702" lon="7.39226">
        <ele>620.76434326172</ele>
        <time>2017-06-11T09:07:23.000Z</time>
      </trkpt>
      <trkpt lat="48.4471" lon="7.39199">
        <ele>617.56854248047</ele>
        <time>2017-06-11T09:07:26.000Z</time>
      </trkpt>
      <trkpt lat="48.44717" lon="7.39171">
        <ele>614.24945068359</ele>
        <time>2017-06-11T09:07:29.000Z</time>
      </trkpt>
      <trkpt lat="48.4472" lon="7.39156">
        <ele>611.89337158203</ele>
        <time>2017-06-11T09:07:31.000Z</time>
      </trkpt>
      <trkpt lat="48.44733" lon="7.39142">
        <ele>609.94354248047</ele>
        <time>2017-06-11T09:07:34.000Z</time>
      </trkpt>
      <trkpt lat="48.44748" lon="7.39125">
        <ele>608.39904785156</ele>
        <time>2017-06-11T09:07:37.000Z</time>
      </trkpt>
      <trkpt lat="48.44754" lon="7.39116">
        <ele>607.07647705078</ele>
        <time>2017-06-11T09:07:39.000Z</time>
      </trkpt>
      <trkpt lat="48.44761" lon="7.39106">
        <ele>605.73187255859</ele>
        <time>2017-06-11T09:07:41.000Z</time>
      </trkpt>
      <trkpt lat="48.44773" lon="7.39093">
        <ele>604.26354980469</ele>
        <time>2017-06-11T09:07:44.000Z</time>
      </trkpt>
      <trkpt lat="48.44783" lon="7.39082">
        <ele>603.11779785156</ele>
        <time>2017-06-11T09:07:47.000Z</time>
      </trkpt>
      <trkpt lat="48.44787" lon="7.39072">
        <ele>602.16986083984</ele>
        <time>2017-06-11T09:07:49.000Z</time>
      </trkpt>
      <trkpt lat="48.44794" lon="7.39062">
        <ele>601.2568359375</ele>
        <time>2017-06-11T09:07:51.000Z</time>
      </trkpt>
      <trkpt lat="48.44801" lon="7.39057">
        <ele>600.4111328125</ele>
        <time>2017-06-11T09:07:53.000Z</time>
      </trkpt>
      <trkpt lat="48.44819" lon="7.39047">
        <ele>599.60601806641</ele>
        <time>2017-06-11T09:07:56.000Z</time>
      </trkpt>
      <trkpt lat="48.44829" lon="7.39039">
        <ele>598.84497070312</ele>
        <time>2017-06-11T09:07:58.000Z</time>
      </trkpt>
      <trkpt lat="48.44843" lon="7.39027">
        <ele>597.81958007812</ele>
        <time>2017-06-11T09:08:01.000Z</time>
      </trkpt>
      <trkpt lat="48.44854" lon="7.39014">
        <ele>596.61456298828</ele>
        <time>2017-06-11T09:08:04.000Z</time>
      </trkpt>
      <trkpt lat="48.4486" lon="7.39003">
        <ele>595.54168701172</ele>
        <time>2017-06-11T09:08:06.000Z</time>
      </trkpt>
      <trkpt lat="48.44862" lon="7.38977">
        <ele>594.16632080078</ele>
        <time>2017-06-11T09:08:09.000Z</time>
      </trkpt>
      <trkpt lat="48.44865" lon="7.38957">
        <ele>592.35302734375</ele>
        <time>2017-06-11T09:08:12.000Z</time>
      </trkpt>
      <trkpt lat="48.44866" lon="7.38955">
        <ele>590.88067626953</ele>
        <time>2017-06-11T09:08:14.000Z</time>
      </trkpt>
      <trkpt lat="48.44866" lon="7.38958">
        <ele>589.81274414062</ele>
        <time>2017-06-11T09:08:31.000Z</time>
      </trkpt>
      <trkpt lat="48.44868" lon="7.38958">
        <ele>588.71215820312</ele>
        <time>2017-06-11T09:08:33.000Z</time>
      </trkpt>
      <trkpt lat="48.44873" lon="7.38958">
        <ele>588.04400634766</ele>
        <time>2017-06-11T09:08:36.000Z</time>
      </trkpt>
      <trkpt lat="48.44881" lon="7.38961">
        <ele>587.69348144531</ele>
        <time>2017-06-11T09:08:39.000Z</time>
      </trkpt>
      <trkpt lat="48.44886" lon="7.38968">
        <ele>587.36242675781</ele>
        <time>2017-06-11T09:08:41.000Z</time>
      </trkpt>
      <trkpt lat="48.44889" lon="7.38974">
        <ele>586.95379638672</ele>
        <time>2017-06-11T09:08:43.000Z</time>
      </trkpt>
      <trkpt lat="48.44892" lon="7.38977">
        <ele>586.50939941406</ele>
        <time>2017-06-11T09:08:46.000Z</time>
      </trkpt>
      <trkpt lat="48.44893" lon="7.38977">
        <ele>586.13146972656</ele>
        <time>2017-06-11T09:08:50.000Z</time>
      </trkpt>
      <trkpt lat="48.44896" lon="7.38978">
        <ele>585.85076904297</ele>
        <time>2017-06-11T09:08:53.000Z</time>
      </trkpt>
      <trkpt lat="48.44899" lon="7.38981">
        <ele>585.49792480469</ele>
        <time>2017-06-11T09:08:55.000Z</time>
      </trkpt>
      <trkpt lat="48.44907" lon="7.38987">
        <ele>584.87994384766</ele>
        <time>2017-06-11T09:08:58.000Z</time>
      </trkpt>
      <trkpt lat="48.44911" lon="7.38989">
        <ele>584.18225097656</ele>
        <time>2017-06-11T09:09:01.000Z</time>
      </trkpt>
      <trkpt lat="48.44921" lon="7.38989">
        <ele>583.09710693359</ele>
        <time>2017-06-11T09:09:04.000Z</time>
      </trkpt>
      <trkpt lat="48.44928" lon="7.38992">
        <ele>581.66448974609</ele>
        <time>2017-06-11T09:09:06.000Z</time>
      </trkpt>
      <trkpt lat="48.4494" lon="7.38993">
        <ele>579.67242431641</ele>
        <time>2017-06-11T09:09:09.000Z</time>
      </trkpt>
      <trkpt lat="48.44949" lon="7.3899">
        <ele>577.52423095703</ele>
        <time>2017-06-11T09:09:11.000Z</time>
      </trkpt>
      <trkpt lat="48.44958" lon="7.38984">
        <ele>575.13348388672</ele>
        <time>2017-06-11T09:09:14.000Z</time>
      </trkpt>
      <trkpt lat="48.44967" lon="7.38981">
        <ele>572.73553466797</ele>
        <time>2017-06-11T09:09:17.000Z</time>
      </trkpt>
      <trkpt lat="48.44971" lon="7.38976">
        <ele>570.65850830078</ele>
        <time>2017-06-11T09:09:19.000Z</time>
      </trkpt>
      <trkpt lat="48.44975" lon="7.38972">
        <ele>569.14495849609</ele>
        <time>2017-06-11T09:09:21.000Z</time>
      </trkpt>
      <trkpt lat="48.44979" lon="7.38971">
        <ele>567.83740234375</ele>
        <time>2017-06-11T09:09:24.000Z</time>
      </trkpt>
      <trkpt lat="48.44981" lon="7.38973">
        <ele>566.86541748047</ele>
        <time>2017-06-11T09:09:26.000Z</time>
      </trkpt>
      <trkpt lat="48.44981" lon="7.38977">
        <ele>566.234375</ele>
        <time>2017-06-11T09:09:28.000Z</time>
      </trkpt>
      <trkpt lat="48.44983" lon="7.38983">
        <ele>565.44067382812</ele>
        <time>2017-06-11T09:09:31.000Z</time>
      </trkpt>
      <trkpt lat="48.44987" lon="7.38985">
        <ele>564.54699707031</ele>
        <time>2017-06-11T09:09:33.000Z</time>
      </trkpt>
      <trkpt lat="48.4499" lon="7.38987">
        <ele>563.65948486328</ele>
        <time>2017-06-11T09:09:35.000Z</time>
      </trkpt>
      <trkpt lat="48.44991" lon="7.38992">
        <ele>562.64044189453</ele>
        <time>2017-06-11T09:09:38.000Z</time>
      </trkpt>
      <trkpt lat="48.44992" lon="7.38997">
        <ele>561.58526611328</ele>
        <time>2017-06-11T09:09:40.000Z</time>
      </trkpt>
      <trkpt lat="48.44993" lon="7.39005">
        <ele>560.38616943359</ele>
        <time>2017-06-11T09:09:43.000Z</time>
      </trkpt>
      <trkpt lat="48.44993" lon="7.39019">
        <ele>558.74603271484</ele>
        <time>2017-06-11T09:09:46.000Z</time>
      </trkpt>
      <trkpt lat="48.44992" lon="7.39028">
        <ele>556.89898681641</ele>
        <time>2017-06-11T09:09:49.000Z</time>
      </trkpt>
      <trkpt lat="48.44991" lon="7.39034">
        <ele>555.00726318359</ele>
        <time>2017-06-11T09:09:51.000Z</time>
      </trkpt>
      <trkpt lat="48.4499" lon="7.39035">
        <ele>553.25408935547</ele>
        <time>2017-06-11T09:09:54.000Z</time>
      </trkpt>
      <trkpt lat="48.44989" lon="7.39043">
        <ele>551.55578613281</ele>
        <time>2017-06-11T09:10:03.000Z</time>
      </trkpt>
      <trkpt lat="48.44989" lon="7.39045">
        <ele>550.47717285156</ele>
        <time>2017-06-11T09:10:06.000Z</time>
      </trkpt>
      <trkpt lat="48.44992" lon="7.39051">
        <ele>549.32855224609</ele>
        <time>2017-06-11T09:10:11.000Z</time>
      </trkpt>
      <trkpt lat="48.44993" lon="7.39053">
        <ele>548.24560546875</ele>
        <time>2017-06-11T09:10:15.000Z</time>
      </trkpt>
      <trkpt lat="48.44998" lon="7.39053">
        <ele>546.89178466797</ele>
        <time>2017-06-11T09:10:23.000Z</time>
      </trkpt>
      <trkpt lat="48.44997" lon="7.39055">
        <ele>545.84484863281</ele>
        <time>2017-06-11T09:10:32.000Z</time>
      </trkpt>
      <trkpt lat="48.44994" lon="7.39059">
        <ele>544.83947753906</ele>
        <time>2017-06-11T09:10:34.000Z</time>
      </trkpt>
      <trkpt lat="48.44988" lon="7.39064">
        <ele>544.36120605469</ele>
        <time>2017-06-11T09:10:37.000Z</time>
      </trkpt>
      <trkpt lat="48.44981" lon="7.39076">
        <ele>543.84136962891</ele>
        <time>2017-06-11T09:10:40.000Z</time>
      </trkpt>
      <trkpt lat="48.4497" lon="7.3909">
        <ele>543.5322265625</ele>
        <time>2017-06-11T09:10:43.000Z</time>
      </trkpt>
      <trkpt lat="48.4496" lon="7.39108">
        <ele>542.98718261719</ele>
        <time>2017-06-11T09:10:46.000Z</time>
      </trkpt>
      <trkpt lat="48.44954" lon="7.39114">
        <ele>542.48797607422</ele>
        <time>2017-06-11T09:10:48.000Z</time>
      </trkpt>
      <trkpt lat="48.44938" lon="7.39129">
        <ele>542.14147949219</ele>
        <time>2017-06-11T09:10:51.000Z</time>
      </trkpt>
      <trkpt lat="48.44926" lon="7.39148">
        <ele>541.8466796875</ele>
        <time>2017-06-11T09:10:54.000Z</time>
      </trkpt>
      <trkpt lat="48.44909" lon="7.39176">
        <ele>541.62414550781</ele>
        <time>2017-06-11T09:10:57.000Z</time>
      </trkpt>
      <trkpt lat="48.44896" lon="7.39188">
        <ele>542.34729003906</ele>
        <time>2017-06-11T09:10:59.000Z</time>
      </trkpt>
      <trkpt lat="48.44893" lon="7.39211">
        <ele>542.52233886719</ele>
        <time>2017-06-11T09:11:01.000Z</time>
      </trkpt>
      <trkpt lat="48.44885" lon="7.39229">
        <ele>542.59930419922</ele>
        <time>2017-06-11T09:11:03.000Z</time>
      </trkpt>
      <trkpt lat="48.44872" lon="7.39256">
        <ele>543.03332519531</ele>
        <time>2017-06-11T09:11:06.000Z</time>
      </trkpt>
      <trkpt lat="48.44856" lon="7.39285">
        <ele>544.00274658203</ele>
        <time>2017-06-11T09:11:09.000Z</time>
      </trkpt>
      <trkpt lat="48.44852" lon="7.39303">
        <ele>544.28723144531</ele>
        <time>2017-06-11T09:11:11.000Z</time>
      </trkpt>
      <trkpt lat="48.44859" lon="7.39318">
        <ele>544.32507324219</ele>
        <time>2017-06-11T09:11:13.000Z</time>
      </trkpt>
      <trkpt lat="48.44858" lon="7.39346">
        <ele>544.03387451172</ele>
        <time>2017-06-11T09:11:16.000Z</time>
      </trkpt>
      <trkpt lat="48.4486" lon="7.39369">
        <ele>543.29699707031</ele>
        <time>2017-06-11T09:11:19.000Z</time>
      </trkpt>
      <trkpt lat="48.4486" lon="7.39397">
        <ele>542.01934814453</ele>
        <time>2017-06-11T09:11:22.000Z</time>
      </trkpt>
      <trkpt lat="48.44854" lon="7.39431">
        <ele>541.3271484375</ele>
        <time>2017-06-11T09:11:25.000Z</time>
      </trkpt>
      <trkpt lat="48.44846" lon="7.39463">
        <ele>542.22894287109</ele>
        <time>2017-06-11T09:11:28.000Z</time>
      </trkpt>
      <trkpt lat="48.44846" lon="7.39494">
        <ele>543.73858642578</ele>
        <time>2017-06-11T09:11:31.000Z</time>
      </trkpt>
      <trkpt lat="48.44852" lon="7.39509">
        <ele>545.59814453125</ele>
        <time>2017-06-11T09:11:33.000Z</time>
      </trkpt>
      <trkpt lat="48.44854" lon="7.39512">
        <ele>547.50952148438</ele>
        <time>2017-06-11T09:11:36.000Z</time>
      </trkpt>
      <trkpt lat="48.44856" lon="7.39511">
        <ele>548.76177978516</ele>
        <time>2017-06-11T09:11:39.000Z</time>
      </trkpt>
      <trkpt lat="48.44853" lon="7.39515">
        <ele>549.34210205078</ele>
        <time>2017-06-11T09:11:43.000Z</time>
      </trkpt>
      <trkpt lat="48.44855" lon="7.39514">
        <ele>549.49963378906</ele>
        <time>2017-06-11T09:11:47.000Z</time>
      </trkpt>
      <trkpt lat="48.44854" lon="7.39514">
        <ele>549.58508300781</ele>
        <time>2017-06-11T09:11:52.000Z</time>
      </trkpt>
      <trkpt lat="48.44855" lon="7.39517">
        <ele>549.67791748047</ele>
        <time>2017-06-11T09:11:55.000Z</time>
      </trkpt>
      <trkpt lat="48.44862" lon="7.39522">
        <ele>549.83459472656</ele>
        <time>2017-06-11T09:11:58.000Z</time>
      </trkpt>
      <trkpt lat="48.44873" lon="7.39523">
        <ele>549.63250732422</ele>
        <time>2017-06-11T09:12:01.000Z</time>
      </trkpt>
      <trkpt lat="48.44887" lon="7.39523">
        <ele>549.19677734375</ele>
        <time>2017-06-11T09:12:04.000Z</time>
      </trkpt>
      <trkpt lat="48.44891" lon="7.39523">
        <ele>548.65826416016</ele>
        <time>2017-06-11T09:12:06.000Z</time>
      </trkpt>
      <trkpt lat="48.449" lon="7.39524">
        <ele>547.90625</ele>
        <time>2017-06-11T09:12:09.000Z</time>
      </trkpt>
      <trkpt lat="48.44908" lon="7.39522">
        <ele>546.92932128906</ele>
        <time>2017-06-11T09:12:11.000Z</time>
      </trkpt>
      <trkpt lat="48.44915" lon="7.39518">
        <ele>545.74475097656</ele>
        <time>2017-06-11T09:12:13.000Z</time>
      </trkpt>
      <trkpt lat="48.44922" lon="7.39512">
        <ele>544.66754150391</ele>
        <time>2017-06-11T09:12:15.000Z</time>
      </trkpt>
      <trkpt lat="48.44928" lon="7.39507">
        <ele>543.51989746094</ele>
        <time>2017-06-11T09:12:17.000Z</time>
      </trkpt>
      <trkpt lat="48.44936" lon="7.39501">
        <ele>542.36260986328</ele>
        <time>2017-06-11T09:12:19.000Z</time>
      </trkpt>
      <trkpt lat="48.44952" lon="7.39488">
        <ele>541.05505371094</ele>
        <time>2017-06-11T09:12:22.000Z</time>
      </trkpt>
      <trkpt lat="48.44991" lon="7.39484">
        <ele>540.48767089844</ele>
        <time>2017-06-11T09:12:26.000Z</time>
      </trkpt>
      <trkpt lat="48.45007" lon="7.39475">
        <ele>539.40283203125</ele>
        <time>2017-06-11T09:12:29.000Z</time>
      </trkpt>
      <trkpt lat="48.45013" lon="7.3947">
        <ele>537.92718505859</ele>
        <time>2017-06-11T09:12:32.000Z</time>
      </trkpt>
      <trkpt lat="48.45017" lon="7.39469">
        <ele>536.44812011719</ele>
        <time>2017-06-11T09:12:34.000Z</time>
      </trkpt>
      <trkpt lat="48.45021" lon="7.39467">
        <ele>535.11981201172</ele>
        <time>2017-06-11T09:12:36.000Z</time>
      </trkpt>
      <trkpt lat="48.45026" lon="7.39463">
        <ele>533.06311035156</ele>
        <time>2017-06-11T09:12:39.000Z</time>
      </trkpt>
      <trkpt lat="48.45033" lon="7.39459">
        <ele>531.26165771484</ele>
        <time>2017-06-11T09:12:42.000Z</time>
      </trkpt>
      <trkpt lat="48.45038" lon="7.39457">
        <ele>529.76330566406</ele>
        <time>2017-06-11T09:12:44.000Z</time>
      </trkpt>
      <trkpt lat="48.45049" lon="7.39458">
        <ele>528.29412841797</ele>
        <time>2017-06-11T09:12:47.000Z</time>
      </trkpt>
      <trkpt lat="48.45058" lon="7.39458">
        <ele>526.83386230469</ele>
        <time>2017-06-11T09:12:50.000Z</time>
      </trkpt>
      <trkpt lat="48.45065" lon="7.39459">
        <ele>525.67004394531</ele>
        <time>2017-06-11T09:12:52.000Z</time>
      </trkpt>
      <trkpt lat="48.4507" lon="7.39464">
        <ele>525.19683837891</ele>
        <time>2017-06-11T09:12:55.000Z</time>
      </trkpt>
      <trkpt lat="48.45073" lon="7.3947">
        <ele>525.26800537109</ele>
        <time>2017-06-11T09:12:57.000Z</time>
      </trkpt>
      <trkpt lat="48.45078" lon="7.39473">
        <ele>525.56683349609</ele>
        <time>2017-06-11T09:12:59.000Z</time>
      </trkpt>
      <trkpt lat="48.45082" lon="7.39475">
        <ele>526.14831542969</ele>
        <time>2017-06-11T09:13:02.000Z</time>
      </trkpt>
      <trkpt lat="48.45086" lon="7.39475">
        <ele>526.78619384766</ele>
        <time>2017-06-11T09:13:04.000Z</time>
      </trkpt>
      <trkpt lat="48.4509" lon="7.39475">
        <ele>527.19030761719</ele>
        <time>2017-06-11T09:13:06.000Z</time>
      </trkpt>
      <trkpt lat="48.45097" lon="7.39476">
        <ele>527.45037841797</ele>
        <time>2017-06-11T09:13:09.000Z</time>
      </trkpt>
      <trkpt lat="48.45102" lon="7.39478">
        <ele>527.7626953125</ele>
        <time>2017-06-11T09:13:11.000Z</time>
      </trkpt>
      <trkpt lat="48.45104" lon="7.39479">
        <ele>528.12951660156</ele>
        <time>2017-06-11T09:13:13.000Z</time>
      </trkpt>
      <trkpt lat="48.45106" lon="7.39481">
        <ele>528.66174316406</ele>
        <time>2017-06-11T09:13:16.000Z</time>
      </trkpt>
      <trkpt lat="48.45107" lon="7.39483">
        <ele>529.30114746094</ele>
        <time>2017-06-11T09:13:19.000Z</time>
      </trkpt>
      <trkpt lat="48.4511" lon="7.39481">
        <ele>529.68798828125</ele>
        <time>2017-06-11T09:13:22.000Z</time>
      </trkpt>
      <trkpt lat="48.45113" lon="7.3948">
        <ele>529.88513183594</ele>
        <time>2017-06-11T09:13:24.000Z</time>
      </trkpt>
      <trkpt lat="48.45116" lon="7.39479">
        <ele>529.91741943359</ele>
        <time>2017-06-11T09:13:27.000Z</time>
      </trkpt>
      <trkpt lat="48.45117" lon="7.39477">
        <ele>529.72302246094</ele>
        <time>2017-06-11T09:13:29.000Z</time>
      </trkpt>
      <trkpt lat="48.45118" lon="7.39475">
        <ele>529.32586669922</ele>
        <time>2017-06-11T09:13:32.000Z</time>
      </trkpt>
      <trkpt lat="48.45121" lon="7.39474">
        <ele>528.93292236328</ele>
        <time>2017-06-11T09:13:35.000Z</time>
      </trkpt>
      <trkpt lat="48.45122" lon="7.39474">
        <ele>528.58526611328</ele>
        <time>2017-06-11T09:13:38.000Z</time>
      </trkpt>
      <trkpt lat="48.45121" lon="7.39472">
        <ele>528.16271972656</ele>
        <time>2017-06-11T09:13:43.000Z</time>
      </trkpt>
      <trkpt lat="48.45121" lon="7.39469">
        <ele>527.65979003906</ele>
        <time>2017-06-11T09:13:46.000Z</time>
      </trkpt>
      <trkpt lat="48.45124" lon="7.39467">
        <ele>527.16320800781</ele>
        <time>2017-06-11T09:13:49.000Z</time>
      </trkpt>
      <trkpt lat="48.45126" lon="7.39468">
        <ele>526.83288574219</ele>
        <time>2017-06-11T09:13:51.000Z</time>
      </trkpt>
      <trkpt lat="48.45129" lon="7.39467">
        <ele>526.4755859375</ele>
        <time>2017-06-11T09:13:58.000Z</time>
      </trkpt>
      <trkpt lat="48.45129" lon="7.39467">
        <ele>526.4755859375</ele>
        <time>2017-06-11T09:14:18.000Z</time>
      </trkpt>
      <trkpt lat="48.45132" lon="7.39468">
        <ele>526.35034179688</ele>
        <time>2017-06-11T09:14:37.000Z</time>
      </trkpt>
      <trkpt lat="48.45134" lon="7.39467">
        <ele>526.3486328125</ele>
        <time>2017-06-11T09:14:40.000Z</time>
      </trkpt>
      <trkpt lat="48.45135" lon="7.39468">
        <ele>526.46856689453</ele>
        <time>2017-06-11T09:14:42.000Z</time>
      </trkpt>
      <trkpt lat="48.45136" lon="7.39468">
        <ele>526.50903320312</ele>
        <time>2017-06-11T09:14:44.000Z</time>
      </trkpt>
      <trkpt lat="48.45137" lon="7.39466">
        <ele>526.45593261719</ele>
        <time>2017-06-11T09:14:47.000Z</time>
      </trkpt>
      <trkpt lat="48.45144" lon="7.39468">
        <ele>526.51379394531</ele>
        <time>2017-06-11T09:14:50.000Z</time>
      </trkpt>
      <trkpt lat="48.45153" lon="7.3947">
        <ele>526.81372070312</ele>
        <time>2017-06-11T09:14:53.000Z</time>
      </trkpt>
      <trkpt lat="48.4516" lon="7.39469">
        <ele>527.05236816406</ele>
        <time>2017-06-11T09:14:56.000Z</time>
      </trkpt>
      <trkpt lat="48.45165" lon="7.39468">
        <ele>527.22760009766</ele>
        <time>2017-06-11T09:14:58.000Z</time>
      </trkpt>
      <trkpt lat="48.45169" lon="7.39466">
        <ele>527.60925292969</ele>
        <time>2017-06-11T09:15:00.000Z</time>
      </trkpt>
      <trkpt lat="48.45174" lon="7.39465">
        <ele>528.09442138672</ele>
        <time>2017-06-11T09:15:03.000Z</time>
      </trkpt>
      <trkpt lat="48.45179" lon="7.3946">
        <ele>528.40002441406</ele>
        <time>2017-06-11T09:15:06.000Z</time>
      </trkpt>
      <trkpt lat="48.45181" lon="7.39457">
        <ele>528.73345947266</ele>
        <time>2017-06-11T09:15:08.000Z</time>
      </trkpt>
      <trkpt lat="48.45187" lon="7.39449">
        <ele>529.09942626953</ele>
        <time>2017-06-11T09:15:11.000Z</time>
      </trkpt>
      <trkpt lat="48.45191" lon="7.39444">
        <ele>529.37536621094</ele>
        <time>2017-06-11T09:15:13.000Z</time>
      </trkpt>
      <trkpt lat="48.45197" lon="7.39438">
        <ele>529.34124755859</ele>
        <time>2017-06-11T09:15:16.000Z</time>
      </trkpt>
      <trkpt lat="48.45201" lon="7.3943">
        <ele>529.15716552734</ele>
        <time>2017-06-11T09:15:19.000Z</time>
      </trkpt>
      <trkpt lat="48.45203" lon="7.39426">
        <ele>528.95428466797</ele>
        <time>2017-06-11T09:15:21.000Z</time>
      </trkpt>
      <trkpt lat="48.45206" lon="7.39422">
        <ele>528.76739501953</ele>
        <time>2017-06-11T09:15:23.000Z</time>
      </trkpt>
      <trkpt lat="48.45212" lon="7.39415">
        <ele>528.61407470703</ele>
        <time>2017-06-11T09:15:26.000Z</time>
      </trkpt>
      <trkpt lat="48.45218" lon="7.39408">
        <ele>528.57257080078</ele>
        <time>2017-06-11T09:15:29.000Z</time>
      </trkpt>
      <trkpt lat="48.4522" lon="7.39405">
        <ele>528.65155029297</ele>
        <time>2017-06-11T09:15:31.000Z</time>
      </trkpt>
      <trkpt lat="48.45222" lon="7.39398">
        <ele>528.64465332031</ele>
        <time>2017-06-11T09:15:34.000Z</time>
      </trkpt>
      <trkpt lat="48.45226" lon="7.39393">
        <ele>528.62915039062</ele>
        <time>2017-06-11T09:15:36.000Z</time>
      </trkpt>
      <trkpt lat="48.45231" lon="7.39385">
        <ele>528.53765869141</ele>
        <time>2017-06-11T09:15:39.000Z</time>
      </trkpt>
      <trkpt lat="48.45235" lon="7.39375">
        <ele>528.22326660156</ele>
        <time>2017-06-11T09:15:42.000Z</time>
      </trkpt>
      <trkpt lat="48.45243" lon="7.39364">
        <ele>527.87854003906</ele>
        <time>2017-06-11T09:15:45.000Z</time>
      </trkpt>
      <trkpt lat="48.45249" lon="7.39358">
        <ele>527.77081298828</ele>
        <time>2017-06-11T09:15:47.000Z</time>
      </trkpt>
      <trkpt lat="48.45258" lon="7.39349">
        <ele>528.00012207031</ele>
        <time>2017-06-11T09:15:50.000Z</time>
      </trkpt>
      <trkpt lat="48.45263" lon="7.39344">
        <ele>528.37438964844</ele>
        <time>2017-06-11T09:15:52.000Z</time>
      </trkpt>
      <trkpt lat="48.45271" lon="7.39334">
        <ele>529.07019042969</ele>
        <time>2017-06-11T09:15:55.000Z</time>
      </trkpt>
      <trkpt lat="48.45275" lon="7.39327">
        <ele>529.7734375</ele>
        <time>2017-06-11T09:15:57.000Z</time>
      </trkpt>
      <trkpt lat="48.45279" lon="7.39323">
        <ele>530.46484375</ele>
        <time>2017-06-11T09:15:59.000Z</time>
      </trkpt>
      <trkpt lat="48.45283" lon="7.39316">
        <ele>530.7978515625</ele>
        <time>2017-06-11T09:16:01.000Z</time>
      </trkpt>
      <trkpt lat="48.45287" lon="7.3931">
        <ele>531.00958251953</ele>
        <time>2017-06-11T09:16:03.000Z</time>
      </trkpt>
      <trkpt lat="48.45294" lon="7.39302">
        <ele>531.11053466797</ele>
        <time>2017-06-11T09:16:06.000Z</time>
      </trkpt>
      <trkpt lat="48.45299" lon="7.39296">
        <ele>531.32287597656</ele>
        <time>2017-06-11T09:16:08.000Z</time>
      </trkpt>
      <trkpt lat="48.45303" lon="7.39291">
        <ele>531.52886962891</ele>
        <time>2017-06-11T09:16:10.000Z</time>
      </trkpt>
      <trkpt lat="48.4531" lon="7.39287">
        <ele>532.04473876953</ele>
        <time>2017-06-11T09:16:13.000Z</time>
      </trkpt>
      <trkpt lat="48.45314" lon="7.39284">
        <ele>532.77862548828</ele>
        <time>2017-06-11T09:16:15.000Z</time>
      </trkpt>
      <trkpt lat="48.4532" lon="7.39277">
        <ele>533.47277832031</ele>
        <time>2017-06-11T09:16:18.000Z</time>
      </trkpt>
      <trkpt lat="48.45324" lon="7.39271">
        <ele>534.029296875</ele>
        <time>2017-06-11T09:16:20.000Z</time>
      </trkpt>
      <trkpt lat="48.45332" lon="7.39262">
        <ele>534.57244873047</ele>
        <time>2017-06-11T09:16:23.000Z</time>
      </trkpt>
      <trkpt lat="48.4534" lon="7.39257">
        <ele>535.09594726562</ele>
        <time>2017-06-11T09:16:26.000Z</time>
      </trkpt>
      <trkpt lat="48.4535" lon="7.39252">
        <ele>535.78857421875</ele>
        <time>2017-06-11T09:16:29.000Z</time>
      </trkpt>
      <trkpt lat="48.45358" lon="7.39244">
        <ele>536.39074707031</ele>
        <time>2017-06-11T09:16:32.000Z</time>
      </trkpt>
      <trkpt lat="48.45363" lon="7.39238">
        <ele>536.92132568359</ele>
        <time>2017-06-11T09:16:34.000Z</time>
      </trkpt>
      <trkpt lat="48.4537" lon="7.39227">
        <ele>536.99761962891</ele>
        <time>2017-06-11T09:16:37.000Z</time>
      </trkpt>
      <trkpt lat="48.45378" lon="7.39218">
        <ele>536.62921142578</ele>
        <time>2017-06-11T09:16:40.000Z</time>
      </trkpt>
      <trkpt lat="48.45384" lon="7.39209">
        <ele>535.59191894531</ele>
        <time>2017-06-11T09:16:42.000Z</time>
      </trkpt>
      <trkpt lat="48.45396" lon="7.39198">
        <ele>534.44354248047</ele>
        <time>2017-06-11T09:16:45.000Z</time>
      </trkpt>
      <trkpt lat="48.45407" lon="7.39191">
        <ele>533.59259033203</ele>
        <time>2017-06-11T09:16:48.000Z</time>
      </trkpt>
      <trkpt lat="48.45417" lon="7.39182">
        <ele>532.95043945312</ele>
        <time>2017-06-11T09:16:51.000Z</time>
      </trkpt>
      <trkpt lat="48.45429" lon="7.39175">
        <ele>532.05712890625</ele>
        <time>2017-06-11T09:16:54.000Z</time>
      </trkpt>
      <trkpt lat="48.45444" lon="7.39168">
        <ele>531.12646484375</ele>
        <time>2017-06-11T09:16:57.000Z</time>
      </trkpt>
      <trkpt lat="48.45451" lon="7.39165">
        <ele>530.30633544922</ele>
        <time>2017-06-11T09:16:59.000Z</time>
      </trkpt>
      <trkpt lat="48.45458" lon="7.39165">
        <ele>529.41174316406</ele>
        <time>2017-06-11T09:17:01.000Z</time>
      </trkpt>
      <trkpt lat="48.45468" lon="7.39162">
        <ele>528.60632324219</ele>
        <time>2017-06-11T09:17:04.000Z</time>
      </trkpt>
      <trkpt lat="48.45477" lon="7.39162">
        <ele>528.38293457031</ele>
        <time>2017-06-11T09:17:07.000Z</time>
      </trkpt>
      <trkpt lat="48.4549" lon="7.39162">
        <ele>528.68096923828</ele>
        <time>2017-06-11T09:17:10.000Z</time>
      </trkpt>
      <trkpt lat="48.45502" lon="7.39163">
        <ele>529.14337158203</ele>
        <time>2017-06-11T09:17:13.000Z</time>
      </trkpt>
      <trkpt lat="48.45512" lon="7.39167">
        <ele>529.52404785156</ele>
        <time>2017-06-11T09:17:16.000Z</time>
      </trkpt>
      <trkpt lat="48.4552" lon="7.39173">
        <ele>530.06506347656</ele>
        <time>2017-06-11T09:17:19.000Z</time>
      </trkpt>
      <trkpt lat="48.45528" lon="7.39179">
        <ele>530.56506347656</ele>
        <time>2017-06-11T09:17:21.000Z</time>
      </trkpt>
      <trkpt lat="48.45536" lon="7.39187">
        <ele>531.10412597656</ele>
        <time>2017-06-11T09:17:23.000Z</time>
      </trkpt>
      <trkpt lat="48.45545" lon="7.39196">
        <ele>531.82305908203</ele>
        <time>2017-06-11T09:17:25.000Z</time>
      </trkpt>
      <trkpt lat="48.45557" lon="7.3921">
        <ele>532.99230957031</ele>
        <time>2017-06-11T09:17:28.000Z</time>
      </trkpt>
      <trkpt lat="48.45573" lon="7.39227">
        <ele>534.58575439453</ele>
        <time>2017-06-11T09:17:31.000Z</time>
      </trkpt>
      <trkpt lat="48.45583" lon="7.39235">
        <ele>536.23547363281</ele>
        <time>2017-06-11T09:17:33.000Z</time>
      </trkpt>
      <trkpt lat="48.45596" lon="7.39245">
        <ele>537.85162353516</ele>
        <time>2017-06-11T09:17:36.000Z</time>
      </trkpt>
      <trkpt lat="48.45607" lon="7.3925">
        <ele>539.10345458984</ele>
        <time>2017-06-11T09:17:39.000Z</time>
      </trkpt>
      <trkpt lat="48.45615" lon="7.39252">
        <ele>539.7333984375</ele>
        <time>2017-06-11T09:17:41.000Z</time>
      </trkpt>
      <trkpt lat="48.45625" lon="7.39257">
        <ele>539.75152587891</ele>
        <time>2017-06-11T09:17:44.000Z</time>
      </trkpt>
      <trkpt lat="48.4563" lon="7.39262">
        <ele>539.70080566406</ele>
        <time>2017-06-11T09:17:46.000Z</time>
      </trkpt>
      <trkpt lat="48.45636" lon="7.3927">
        <ele>539.55358886719</ele>
        <time>2017-06-11T09:17:49.000Z</time>
      </trkpt>
      <trkpt lat="48.45642" lon="7.39277">
        <ele>539.55407714844</ele>
        <time>2017-06-11T09:17:52.000Z</time>
      </trkpt>
      <trkpt lat="48.4565" lon="7.39283">
        <ele>539.70397949219</ele>
        <time>2017-06-11T09:17:55.000Z</time>
      </trkpt>
      <trkpt lat="48.45656" lon="7.39288">
        <ele>539.93798828125</ele>
        <time>2017-06-11T09:17:57.000Z</time>
      </trkpt>
      <trkpt lat="48.45665" lon="7.39298">
        <ele>540.16943359375</ele>
        <time>2017-06-11T09:18:00.000Z</time>
      </trkpt>
      <trkpt lat="48.45675" lon="7.39308">
        <ele>540.38421630859</ele>
        <time>2017-06-11T09:18:04.000Z</time>
      </trkpt>
      <trkpt lat="48.45683" lon="7.39314">
        <ele>540.49005126953</ele>
        <time>2017-06-11T09:18:06.000Z</time>
      </trkpt>
      <trkpt lat="48.45686" lon="7.39316">
        <ele>540.59130859375</ele>
        <time>2017-06-11T09:18:08.000Z</time>
      </trkpt>
      <trkpt lat="48.45692" lon="7.39322">
        <ele>540.73645019531</ele>
        <time>2017-06-11T09:18:11.000Z</time>
      </trkpt>
      <trkpt lat="48.45697" lon="7.39328">
        <ele>540.8837890625</ele>
        <time>2017-06-11T09:18:13.000Z</time>
      </trkpt>
      <trkpt lat="48.45702" lon="7.39333">
        <ele>540.9716796875</ele>
        <time>2017-06-11T09:18:16.000Z</time>
      </trkpt>
      <trkpt lat="48.4571" lon="7.39337">
        <ele>541.04064941406</ele>
        <time>2017-06-11T09:18:19.000Z</time>
      </trkpt>
      <trkpt lat="48.45716" lon="7.39341">
        <ele>541.14471435547</ele>
        <time>2017-06-11T09:18:21.000Z</time>
      </trkpt>
      <trkpt lat="48.45725" lon="7.39351">
        <ele>541.41296386719</ele>
        <time>2017-06-11T09:18:24.000Z</time>
      </trkpt>
      <trkpt lat="48.45731" lon="7.39362">
        <ele>541.88488769531</ele>
        <time>2017-06-11T09:18:28.000Z</time>
      </trkpt>
      <trkpt lat="48.45736" lon="7.39368">
        <ele>542.49298095703</ele>
        <time>2017-06-11T09:18:29.000Z</time>
      </trkpt>
      <trkpt lat="48.45739" lon="7.39374">
        <ele>543.30218505859</ele>
        <time>2017-06-11T09:18:31.000Z</time>
      </trkpt>
      <trkpt lat="48.45747" lon="7.39382">
        <ele>544.18585205078</ele>
        <time>2017-06-11T09:18:34.000Z</time>
      </trkpt>
      <trkpt lat="48.45752" lon="7.39387">
        <ele>544.89556884766</ele>
        <time>2017-06-11T09:18:36.000Z</time>
      </trkpt>
      <trkpt lat="48.45757" lon="7.39393">
        <ele>545.36608886719</ele>
        <time>2017-06-11T09:18:38.000Z</time>
      </trkpt>
      <trkpt lat="48.45764" lon="7.394">
        <ele>545.654296875</ele>
        <time>2017-06-11T09:18:41.000Z</time>
      </trkpt>
      <trkpt lat="48.45768" lon="7.39406">
        <ele>545.8388671875</ele>
        <time>2017-06-11T09:18:43.000Z</time>
      </trkpt>
      <trkpt lat="48.45774" lon="7.39418">
        <ele>546.11578369141</ele>
        <time>2017-06-11T09:18:46.000Z</time>
      </trkpt>
      <trkpt lat="48.4578" lon="7.39428">
        <ele>546.35583496094</ele>
        <time>2017-06-11T09:18:49.000Z</time>
      </trkpt>
      <trkpt lat="48.4579" lon="7.39437">
        <ele>546.30126953125</ele>
        <time>2017-06-11T09:18:52.000Z</time>
      </trkpt>
      <trkpt lat="48.45795" lon="7.39445">
        <ele>546.24951171875</ele>
        <time>2017-06-11T09:18:55.000Z</time>
      </trkpt>
      <trkpt lat="48.45799" lon="7.39458">
        <ele>546.29608154297</ele>
        <time>2017-06-11T09:18:58.000Z</time>
      </trkpt>
      <trkpt lat="48.45811" lon="7.39473">
        <ele>545.91589355469</ele>
        <time>2017-06-11T09:19:01.000Z</time>
      </trkpt>
      <trkpt lat="48.45818" lon="7.39482">
        <ele>545.41815185547</ele>
        <time>2017-06-11T09:19:03.000Z</time>
      </trkpt>
      <trkpt lat="48.45826" lon="7.39499">
        <ele>545.12310791016</ele>
        <time>2017-06-11T09:19:06.000Z</time>
      </trkpt>
      <trkpt lat="48.45831" lon="7.39508">
        <ele>544.87219238281</ele>
        <time>2017-06-11T09:19:08.000Z</time>
      </trkpt>
      <trkpt lat="48.45837" lon="7.39523">
        <ele>544.60437011719</ele>
        <time>2017-06-11T09:19:11.000Z</time>
      </trkpt>
      <trkpt lat="48.45844" lon="7.39535">
        <ele>544.42547607422</ele>
        <time>2017-06-11T09:19:13.000Z</time>
      </trkpt>
      <trkpt lat="48.45855" lon="7.39554">
        <ele>544.15045166016</ele>
        <time>2017-06-11T09:19:16.000Z</time>
      </trkpt>
      <trkpt lat="48.45863" lon="7.39575">
        <ele>543.93542480469</ele>
        <time>2017-06-11T09:19:19.000Z</time>
      </trkpt>
      <trkpt lat="48.45874" lon="7.39597">
        <ele>543.56652832031</ele>
        <time>2017-06-11T09:19:22.000Z</time>
      </trkpt>
      <trkpt lat="48.45881" lon="7.39611">
        <ele>542.91949462891</ele>
        <time>2017-06-11T09:19:24.000Z</time>
      </trkpt>
      <trkpt lat="48.45887" lon="7.39635">
        <ele>542.69305419922</ele>
        <time>2017-06-11T09:19:27.000Z</time>
      </trkpt>
      <trkpt lat="48.45893" lon="7.39659">
        <ele>543.02630615234</ele>
        <time>2017-06-11T09:19:30.000Z</time>
      </trkpt>
      <trkpt lat="48.459" lon="7.39678">
        <ele>543.35272216797</ele>
        <time>2017-06-11T09:19:32.000Z</time>
      </trkpt>
      <trkpt lat="48.45913" lon="7.39703">
        <ele>543.50378417969</ele>
        <time>2017-06-11T09:19:35.000Z</time>
      </trkpt>
      <trkpt lat="48.45924" lon="7.39717">
        <ele>543.3623046875</ele>
        <time>2017-06-11T09:19:37.000Z</time>
      </trkpt>
      <trkpt lat="48.45945" lon="7.39743">
        <ele>542.06188964844</ele>
        <time>2017-06-11T09:19:40.000Z</time>
      </trkpt>
      <trkpt lat="48.45963" lon="7.3977">
        <ele>539.34448242188</ele>
        <time>2017-06-11T09:19:43.000Z</time>
      </trkpt>
      <trkpt lat="48.45982" lon="7.39794">
        <ele>535.50451660156</ele>
        <time>2017-06-11T09:19:46.000Z</time>
      </trkpt>
      <trkpt lat="48.45991" lon="7.39811">
        <ele>531.55517578125</ele>
        <time>2017-06-11T09:19:48.000Z</time>
      </trkpt>
      <trkpt lat="48.46004" lon="7.39813">
        <ele>527.36944580078</ele>
        <time>2017-06-11T09:19:50.000Z</time>
      </trkpt>
      <trkpt lat="48.46016" lon="7.39813">
        <ele>523.95440673828</ele>
        <time>2017-06-11T09:19:52.000Z</time>
      </trkpt>
      <trkpt lat="48.4602" lon="7.39809">
        <ele>521.49542236328</ele>
        <time>2017-06-11T09:19:55.000Z</time>
      </trkpt>
      <trkpt lat="48.46018" lon="7.39809">
        <ele>520.17761230469</ele>
        <time>2017-06-11T09:20:00.000Z</time>
      </trkpt>
      <trkpt lat="48.46014" lon="7.39806">
        <ele>519.27307128906</ele>
        <time>2017-06-11T09:20:03.000Z</time>
      </trkpt>
      <trkpt lat="48.4601" lon="7.39808">
        <ele>519.11602783203</ele>
        <time>2017-06-11T09:20:06.000Z</time>
      </trkpt>
      <trkpt lat="48.46006" lon="7.3981">
        <ele>519.17272949219</ele>
        <time>2017-06-11T09:20:09.000Z</time>
      </trkpt>
      <trkpt lat="48.46" lon="7.39812">
        <ele>519.43304443359</ele>
        <time>2017-06-11T09:20:12.000Z</time>
      </trkpt>
      <trkpt lat="48.45997" lon="7.39814">
        <ele>519.90887451172</ele>
        <time>2017-06-11T09:20:15.000Z</time>
      </trkpt>
      <trkpt lat="48.45995" lon="7.39818">
        <ele>520.60235595703</ele>
        <time>2017-06-11T09:20:18.000Z</time>
      </trkpt>
      <trkpt lat="48.45994" lon="7.3982">
        <ele>521.34753417969</ele>
        <time>2017-06-11T09:20:20.000Z</time>
      </trkpt>
      <trkpt lat="48.45993" lon="7.39826">
        <ele>522.18048095703</ele>
        <time>2017-06-11T09:20:23.000Z</time>
      </trkpt>
      <trkpt lat="48.45993" lon="7.3983">
        <ele>522.99383544922</ele>
        <time>2017-06-11T09:20:25.000Z</time>
      </trkpt>
      <trkpt lat="48.45992" lon="7.39834">
        <ele>523.60314941406</ele>
        <time>2017-06-11T09:20:27.000Z</time>
      </trkpt>
      <trkpt lat="48.4599" lon="7.39838">
        <ele>523.98107910156</ele>
        <time>2017-06-11T09:20:29.000Z</time>
      </trkpt>
      <trkpt lat="48.45986" lon="7.39841">
        <ele>524.39202880859</ele>
        <time>2017-06-11T09:20:32.000Z</time>
      </trkpt>
      <trkpt lat="48.45982" lon="7.39842">
        <ele>524.85717773438</ele>
        <time>2017-06-11T09:20:35.000Z</time>
      </trkpt>
      <trkpt lat="48.45983" lon="7.39844">
        <ele>525.15490722656</ele>
        <time>2017-06-11T09:20:40.000Z</time>
      </trkpt>
      <trkpt lat="48.45982" lon="7.39844">
        <ele>525.48889160156</ele>
        <time>2017-06-11T09:20:52.000Z</time>
      </trkpt>
      <trkpt lat="48.45979" lon="7.39847">
        <ele>525.95043945312</ele>
        <time>2017-06-11T09:20:54.000Z</time>
      </trkpt>
      <trkpt lat="48.45974" lon="7.3985">
        <ele>526.44079589844</ele>
        <time>2017-06-11T09:20:57.000Z</time>
      </trkpt>
      <trkpt lat="48.45971" lon="7.3985">
        <ele>526.94738769531</ele>
        <time>2017-06-11T09:20:59.000Z</time>
      </trkpt>
      <trkpt lat="48.45966" lon="7.39848">
        <ele>527.98291015625</ele>
        <time>2017-06-11T09:21:02.000Z</time>
      </trkpt>
      <trkpt lat="48.45962" lon="7.39847">
        <ele>529.236328125</ele>
        <time>2017-06-11T09:21:05.000Z</time>
      </trkpt>
      <trkpt lat="48.45958" lon="7.39847">
        <ele>530.72247314453</ele>
        <time>2017-06-11T09:21:08.000Z</time>
      </trkpt>
      <trkpt lat="48.45955" lon="7.39847">
        <ele>532.23754882812</ele>
        <time>2017-06-11T09:21:10.000Z</time>
      </trkpt>
      <trkpt lat="48.45949" lon="7.39848">
        <ele>533.85150146484</ele>
        <time>2017-06-11T09:21:13.000Z</time>
      </trkpt>
      <trkpt lat="48.45944" lon="7.39851">
        <ele>535.29254150391</ele>
        <time>2017-06-11T09:21:16.000Z</time>
      </trkpt>
      <trkpt lat="48.45938" lon="7.39853">
        <ele>536.79455566406</ele>
        <time>2017-06-11T09:21:18.000Z</time>
      </trkpt>
      <trkpt lat="48.45932" lon="7.39856">
        <ele>538.33288574219</ele>
        <time>2017-06-11T09:21:20.000Z</time>
      </trkpt>
      <trkpt lat="48.45922" lon="7.39861">
        <ele>540.19079589844</ele>
        <time>2017-06-11T09:21:23.000Z</time>
      </trkpt>
      <trkpt lat="48.45916" lon="7.39867">
        <ele>541.97399902344</ele>
        <time>2017-06-11T09:21:26.000Z</time>
      </trkpt>
      <trkpt lat="48.45913" lon="7.39871">
        <ele>543.55450439453</ele>
        <time>2017-06-11T09:21:28.000Z</time>
      </trkpt>
      <trkpt lat="48.45908" lon="7.39875">
        <ele>545.10009765625</ele>
        <time>2017-06-11T09:21:31.000Z</time>
      </trkpt>
      <trkpt lat="48.45902" lon="7.39876">
        <ele>546.68591308594</ele>
        <time>2017-06-11T09:21:34.000Z</time>
      </trkpt>
      <trkpt lat="48.45895" lon="7.3988">
        <ele>548.12145996094</ele>
        <time>2017-06-11T09:21:37.000Z</time>
      </trkpt>
      <trkpt lat="48.45889" lon="7.39884">
        <ele>549.66998291016</ele>
        <time>2017-06-11T09:21:40.000Z</time>
      </trkpt>
      <trkpt lat="48.45882" lon="7.39889">
        <ele>551.57824707031</ele>
        <time>2017-06-11T09:21:43.000Z</time>
      </trkpt>
      <trkpt lat="48.45876" lon="7.39893">
        <ele>553.53387451172</ele>
        <time>2017-06-11T09:21:46.000Z</time>
      </trkpt>
      <trkpt lat="48.45871" lon="7.39896">
        <ele>555.40283203125</ele>
        <time>2017-06-11T09:21:48.000Z</time>
      </trkpt>
      <trkpt lat="48.45867" lon="7.39899">
        <ele>557.18133544922</ele>
        <time>2017-06-11T09:21:50.000Z</time>
      </trkpt>
      <trkpt lat="48.4586" lon="7.39906">
        <ele>558.98370361328</ele>
        <time>2017-06-11T09:21:53.000Z</time>
      </trkpt>
      <trkpt lat="48.45855" lon="7.39913">
        <ele>560.71868896484</ele>
        <time>2017-06-11T09:21:56.000Z</time>
      </trkpt>
      <trkpt lat="48.4585" lon="7.3992">
        <ele>562.30169677734</ele>
        <time>2017-06-11T09:21:59.000Z</time>
      </trkpt>
      <trkpt lat="48.45848" lon="7.39926">
        <ele>563.6005859375</ele>
        <time>2017-06-11T09:22:01.000Z</time>
      </trkpt>
      <trkpt lat="48.45844" lon="7.39933">
        <ele>564.70739746094</ele>
        <time>2017-06-11T09:22:04.000Z</time>
      </trkpt>
      <trkpt lat="48.4584" lon="7.39935">
        <ele>565.62878417969</ele>
        <time>2017-06-11T09:22:06.000Z</time>
      </trkpt>
      <trkpt lat="48.45838" lon="7.39939">
        <ele>566.31237792969</ele>
        <time>2017-06-11T09:22:08.000Z</time>
      </trkpt>
      <trkpt lat="48.45835" lon="7.39944">
        <ele>566.90148925781</ele>
        <time>2017-06-11T09:22:11.000Z</time>
      </trkpt>
      <trkpt lat="48.45833" lon="7.39948">
        <ele>567.54443359375</ele>
        <time>2017-06-11T09:22:13.000Z</time>
      </trkpt>
      <trkpt lat="48.45829" lon="7.39954">
        <ele>568.19903564453</ele>
        <time>2017-06-11T09:22:16.000Z</time>
      </trkpt>
      <trkpt lat="48.45826" lon="7.39961">
        <ele>568.69177246094</ele>
        <time>2017-06-11T09:22:19.000Z</time>
      </trkpt>
      <trkpt lat="48.45824" lon="7.39968">
        <ele>569.08740234375</ele>
        <time>2017-06-11T09:22:22.000Z</time>
      </trkpt>
      <trkpt lat="48.45823" lon="7.39976">
        <ele>569.28479003906</ele>
        <time>2017-06-11T09:22:25.000Z</time>
      </trkpt>
      <trkpt lat="48.45821" lon="7.39981">
        <ele>569.3818359375</ele>
        <time>2017-06-11T09:22:27.000Z</time>
      </trkpt>
      <trkpt lat="48.45818" lon="7.39988">
        <ele>569.4736328125</ele>
        <time>2017-06-11T09:22:30.000Z</time>
      </trkpt>
      <trkpt lat="48.45816" lon="7.39991">
        <ele>569.56823730469</ele>
        <time>2017-06-11T09:22:32.000Z</time>
      </trkpt>
      <trkpt lat="48.45814" lon="7.39997">
        <ele>569.62133789062</ele>
        <time>2017-06-11T09:22:35.000Z</time>
      </trkpt>
      <trkpt lat="48.45813" lon="7.40005">
        <ele>569.66625976562</ele>
        <time>2017-06-11T09:22:38.000Z</time>
      </trkpt>
      <trkpt lat="48.45813" lon="7.40013">
        <ele>569.60418701172</ele>
        <time>2017-06-11T09:22:41.000Z</time>
      </trkpt>
      <trkpt lat="48.45813" lon="7.40018">
        <ele>569.31372070312</ele>
        <time>2017-06-11T09:22:43.000Z</time>
      </trkpt>
      <trkpt lat="48.45812" lon="7.40023">
        <ele>568.99475097656</ele>
        <time>2017-06-11T09:22:45.000Z</time>
      </trkpt>
      <trkpt lat="48.4581" lon="7.40028">
        <ele>568.84985351562</ele>
        <time>2017-06-11T09:22:48.000Z</time>
      </trkpt>
      <trkpt lat="48.45809" lon="7.40035">
        <ele>568.72796630859</ele>
        <time>2017-06-11T09:22:51.000Z</time>
      </trkpt>
      <trkpt lat="48.45807" lon="7.40039">
        <ele>568.84759521484</ele>
        <time>2017-06-11T09:22:53.000Z</time>
      </trkpt>
      <trkpt lat="48.45802" lon="7.40046">
        <ele>569.4697265625</ele>
        <time>2017-06-11T09:22:56.000Z</time>
      </trkpt>
      <trkpt lat="48.45801" lon="7.40053">
        <ele>570.12579345703</ele>
        <time>2017-06-11T09:22:58.000Z</time>
      </trkpt>
      <trkpt lat="48.45797" lon="7.4006">
        <ele>570.90447998047</ele>
        <time>2017-06-11T09:23:01.000Z</time>
      </trkpt>
      <trkpt lat="48.45793" lon="7.40067">
        <ele>572.13513183594</ele>
        <time>2017-06-11T09:23:04.000Z</time>
      </trkpt>
      <trkpt lat="48.45791" lon="7.40076">
        <ele>573.29217529297</ele>
        <time>2017-06-11T09:23:07.000Z</time>
      </trkpt>
      <trkpt lat="48.45792" lon="7.40085">
        <ele>573.86920166016</ele>
        <time>2017-06-11T09:23:10.000Z</time>
      </trkpt>
      <trkpt lat="48.45795" lon="7.40092">
        <ele>574.19946289062</ele>
        <time>2017-06-11T09:23:13.000Z</time>
      </trkpt>
      <trkpt lat="48.45797" lon="7.40099">
        <ele>574.12127685547</ele>
        <time>2017-06-11T09:23:15.000Z</time>
      </trkpt>
      <trkpt lat="48.45801" lon="7.40111">
        <ele>573.34875488281</ele>
        <time>2017-06-11T09:23:18.000Z</time>
      </trkpt>
      <trkpt lat="48.45805" lon="7.40119">
        <ele>572.189453125</ele>
        <time>2017-06-11T09:23:20.000Z</time>
      </trkpt>
      <trkpt lat="48.45808" lon="7.40127">
        <ele>570.8935546875</ele>
        <time>2017-06-11T09:23:22.000Z</time>
      </trkpt>
      <trkpt lat="48.45812" lon="7.40135">
        <ele>569.40197753906</ele>
        <time>2017-06-11T09:23:25.000Z</time>
      </trkpt>
      <trkpt lat="48.45815" lon="7.40139">
        <ele>567.80487060547</ele>
        <time>2017-06-11T09:23:27.000Z</time>
      </trkpt>
      <trkpt lat="48.45818" lon="7.40146">
        <ele>566.16845703125</ele>
        <time>2017-06-11T09:23:30.000Z</time>
      </trkpt>
      <trkpt lat="48.45821" lon="7.40151">
        <ele>564.52178955078</ele>
        <time>2017-06-11T09:23:32.000Z</time>
      </trkpt>
      <trkpt lat="48.45826" lon="7.40157">
        <ele>562.79382324219</ele>
        <time>2017-06-11T09:23:35.000Z</time>
      </trkpt>
      <trkpt lat="48.45829" lon="7.40164">
        <ele>561.16064453125</ele>
        <time>2017-06-11T09:23:37.000Z</time>
      </trkpt>
      <trkpt lat="48.45832" lon="7.40175">
        <ele>559.71752929688</ele>
        <time>2017-06-11T09:23:40.000Z</time>
      </trkpt>
      <trkpt lat="48.45836" lon="7.40185">
        <ele>558.59106445312</ele>
        <time>2017-06-11T09:23:43.000Z</time>
      </trkpt>
      <trkpt lat="48.45839" lon="7.4019">
        <ele>557.77581787109</ele>
        <time>2017-06-11T09:23:45.000Z</time>
      </trkpt>
      <trkpt lat="48.45843" lon="7.40196">
        <ele>557.32891845703</ele>
        <time>2017-06-11T09:23:47.000Z</time>
      </trkpt>
      <trkpt lat="48.45848" lon="7.40204">
        <ele>557.14947509766</ele>
        <time>2017-06-11T09:23:50.000Z</time>
      </trkpt>
      <trkpt lat="48.45853" lon="7.40211">
        <ele>556.96466064453</ele>
        <time>2017-06-11T09:23:53.000Z</time>
      </trkpt>
      <trkpt lat="48.45856" lon="7.40215">
        <ele>556.78271484375</ele>
        <time>2017-06-11T09:23:55.000Z</time>
      </trkpt>
      <trkpt lat="48.45862" lon="7.40221">
        <ele>556.44952392578</ele>
        <time>2017-06-11T09:23:58.000Z</time>
      </trkpt>
      <trkpt lat="48.45865" lon="7.40227">
        <ele>556.20617675781</ele>
        <time>2017-06-11T09:24:00.000Z</time>
      </trkpt>
      <trkpt lat="48.45866" lon="7.40232">
        <ele>556.11187744141</ele>
        <time>2017-06-11T09:24:03.000Z</time>
      </trkpt>
      <trkpt lat="48.45867" lon="7.40237">
        <ele>556.25622558594</ele>
        <time>2017-06-11T09:24:05.000Z</time>
      </trkpt>
      <trkpt lat="48.45867" lon="7.40241">
        <ele>556.59558105469</ele>
        <time>2017-06-11T09:24:07.000Z</time>
      </trkpt>
      <trkpt lat="48.45868" lon="7.40244">
        <ele>557.21154785156</ele>
        <time>2017-06-11T09:24:09.000Z</time>
      </trkpt>
      <trkpt lat="48.4587" lon="7.4025">
        <ele>557.84680175781</ele>
        <time>2017-06-11T09:24:12.000Z</time>
      </trkpt>
      <trkpt lat="48.45871" lon="7.40253">
        <ele>558.38043212891</ele>
        <time>2017-06-11T09:24:14.000Z</time>
      </trkpt>
      <trkpt lat="48.4587" lon="7.40258">
        <ele>558.90740966797</ele>
        <time>2017-06-11T09:24:17.000Z</time>
      </trkpt>
      <trkpt lat="48.45872" lon="7.40265">
        <ele>559.33868408203</ele>
        <time>2017-06-11T09:24:20.000Z</time>
      </trkpt>
      <trkpt lat="48.45872" lon="7.40269">
        <ele>559.7861328125</ele>
        <time>2017-06-11T09:24:22.000Z</time>
      </trkpt>
      <trkpt lat="48.45873" lon="7.40274">
        <ele>560.25646972656</ele>
        <time>2017-06-11T09:24:24.000Z</time>
      </trkpt>
      <trkpt lat="48.45877" lon="7.40283">
        <ele>560.65209960938</ele>
        <time>2017-06-11T09:24:27.000Z</time>
      </trkpt>
      <trkpt lat="48.45881" lon="7.40293">
        <ele>560.90417480469</ele>
        <time>2017-06-11T09:24:30.000Z</time>
      </trkpt>
      <trkpt lat="48.45888" lon="7.40306">
        <ele>560.94329833984</ele>
        <time>2017-06-11T09:24:33.000Z</time>
      </trkpt>
      <trkpt lat="48.45892" lon="7.40316">
        <ele>560.86846923828</ele>
        <time>2017-06-11T09:24:36.000Z</time>
      </trkpt>
      <trkpt lat="48.45896" lon="7.40326">
        <ele>560.74688720703</ele>
        <time>2017-06-11T09:24:39.000Z</time>
      </trkpt>
      <trkpt lat="48.45898" lon="7.40334">
        <ele>560.70031738281</ele>
        <time>2017-06-11T09:24:42.000Z</time>
      </trkpt>
      <trkpt lat="48.45899" lon="7.40341">
        <ele>560.55804443359</ele>
        <time>2017-06-11T09:24:45.000Z</time>
      </trkpt>
      <trkpt lat="48.45898" lon="7.40346">
        <ele>560.62683105469</ele>
        <time>2017-06-11T09:24:47.000Z</time>
      </trkpt>
      <trkpt lat="48.45897" lon="7.40352">
        <ele>560.74621582031</ele>
        <time>2017-06-11T09:24:50.000Z</time>
      </trkpt>
      <trkpt lat="48.45896" lon="7.40358">
        <ele>560.83544921875</ele>
        <time>2017-06-11T09:24:52.000Z</time>
      </trkpt>
      <trkpt lat="48.45896" lon="7.40364">
        <ele>560.89782714844</ele>
        <time>2017-06-11T09:24:54.000Z</time>
      </trkpt>
      <trkpt lat="48.45893" lon="7.40371">
        <ele>561.16931152344</ele>
        <time>2017-06-11T09:24:57.000Z</time>
      </trkpt>
      <trkpt lat="48.45888" lon="7.40378">
        <ele>561.60321044922</ele>
        <time>2017-06-11T09:25:00.000Z</time>
      </trkpt>
      <trkpt lat="48.45883" lon="7.40385">
        <ele>562.24346923828</ele>
        <time>2017-06-11T09:25:03.000Z</time>
      </trkpt>
      <trkpt lat="48.4588" lon="7.40389">
        <ele>563.03283691406</ele>
        <time>2017-06-11T09:25:05.000Z</time>
      </trkpt>
      <trkpt lat="48.45875" lon="7.40397">
        <ele>564.03826904297</ele>
        <time>2017-06-11T09:25:08.000Z</time>
      </trkpt>
      <trkpt lat="48.45869" lon="7.40403">
        <ele>565.16229248047</ele>
        <time>2017-06-11T09:25:11.000Z</time>
      </trkpt>
      <trkpt lat="48.45862" lon="7.40407">
        <ele>566.39562988281</ele>
        <time>2017-06-11T09:25:14.000Z</time>
      </trkpt>
      <trkpt lat="48.45853" lon="7.4041">
        <ele>567.80017089844</ele>
        <time>2017-06-11T09:25:17.000Z</time>
      </trkpt>
      <trkpt lat="48.45847" lon="7.40415">
        <ele>569.33160400391</ele>
        <time>2017-06-11T09:25:19.000Z</time>
      </trkpt>
      <trkpt lat="48.45841" lon="7.40422">
        <ele>570.69268798828</ele>
        <time>2017-06-11T09:25:21.000Z</time>
      </trkpt>
      <trkpt lat="48.45832" lon="7.40435">
        <ele>571.64807128906</ele>
        <time>2017-06-11T09:25:24.000Z</time>
      </trkpt>
      <trkpt lat="48.45825" lon="7.40444">
        <ele>572.27453613281</ele>
        <time>2017-06-11T09:25:27.000Z</time>
      </trkpt>
      <trkpt lat="48.45819" lon="7.40448">
        <ele>572.63952636719</ele>
        <time>2017-06-11T09:25:29.000Z</time>
      </trkpt>
      <trkpt lat="48.45808" lon="7.40454">
        <ele>573.03820800781</ele>
        <time>2017-06-11T09:25:32.000Z</time>
      </trkpt>
      <trkpt lat="48.45797" lon="7.40465">
        <ele>573.58416748047</ele>
        <time>2017-06-11T09:25:35.000Z</time>
      </trkpt>
      <trkpt lat="48.45789" lon="7.40475">
        <ele>574.37121582031</ele>
        <time>2017-06-11T09:25:37.000Z</time>
      </trkpt>
      <trkpt lat="48.45778" lon="7.40489">
        <ele>575.25207519531</ele>
        <time>2017-06-11T09:25:40.000Z</time>
      </trkpt>
      <trkpt lat="48.4577" lon="7.40499">
        <ele>575.99334716797</ele>
        <time>2017-06-11T09:25:43.000Z</time>
      </trkpt>
      <trkpt lat="48.4577" lon="7.40502">
        <ele>576.34802246094</ele>
        <time>2017-06-11T09:25:45.000Z</time>
      </trkpt>
      <trkpt lat="48.45771" lon="7.40505">
        <ele>576.30340576172</ele>
        <time>2017-06-11T09:25:48.000Z</time>
      </trkpt>
      <trkpt lat="48.45775" lon="7.40506">
        <ele>575.89172363281</ele>
        <time>2017-06-11T09:25:51.000Z</time>
      </trkpt>
      <trkpt lat="48.45779" lon="7.40506">
        <ele>575.09051513672</ele>
        <time>2017-06-11T09:25:53.000Z</time>
      </trkpt>
      <trkpt lat="48.45785" lon="7.40505">
        <ele>573.91638183594</ele>
        <time>2017-06-11T09:25:55.000Z</time>
      </trkpt>
      <trkpt lat="48.45795" lon="7.40503">
        <ele>572.29809570312</ele>
        <time>2017-06-11T09:25:58.000Z</time>
      </trkpt>
      <trkpt lat="48.458" lon="7.405">
        <ele>570.64477539062</ele>
        <time>2017-06-11T09:26:01.000Z</time>
      </trkpt>
      <trkpt lat="48.45807" lon="7.405">
        <ele>568.84252929688</ele>
        <time>2017-06-11T09:26:04.000Z</time>
      </trkpt>
      <trkpt lat="48.45809" lon="7.40503">
        <ele>567.09197998047</ele>
        <time>2017-06-11T09:26:06.000Z</time>
      </trkpt>
      <trkpt lat="48.45805" lon="7.40509">
        <ele>565.66607666016</ele>
        <time>2017-06-11T09:26:09.000Z</time>
      </trkpt>
      <trkpt lat="48.45799" lon="7.40519">
        <ele>564.72698974609</ele>
        <time>2017-06-11T09:26:12.000Z</time>
      </trkpt>
      <trkpt lat="48.45796" lon="7.40529">
        <ele>563.77911376953</ele>
        <time>2017-06-11T09:26:14.000Z</time>
      </trkpt>
      <trkpt lat="48.45795" lon="7.40536">
        <ele>563.06640625</ele>
        <time>2017-06-11T09:26:16.000Z</time>
      </trkpt>
      <trkpt lat="48.45795" lon="7.40543">
        <ele>562.32995605469</ele>
        <time>2017-06-11T09:26:19.000Z</time>
      </trkpt>
      <trkpt lat="48.45794" lon="7.4055">
        <ele>561.3759765625</ele>
        <time>2017-06-11T09:26:21.000Z</time>
      </trkpt>
      <trkpt lat="48.45792" lon="7.4056">
        <ele>560.15075683594</ele>
        <time>2017-06-11T09:26:24.000Z</time>
      </trkpt>
      <trkpt lat="48.45793" lon="7.40569">
        <ele>558.75701904297</ele>
        <time>2017-06-11T09:26:26.000Z</time>
      </trkpt>
      <trkpt lat="48.45794" lon="7.40581">
        <ele>556.93115234375</ele>
        <time>2017-06-11T09:26:29.000Z</time>
      </trkpt>
      <trkpt lat="48.4579" lon="7.40587">
        <ele>555.45031738281</ele>
        <time>2017-06-11T09:26:32.000Z</time>
      </trkpt>
      <trkpt lat="48.45791" lon="7.40593">
        <ele>553.912109375</ele>
        <time>2017-06-11T09:26:35.000Z</time>
      </trkpt>
      <trkpt lat="48.45797" lon="7.40589">
        <ele>552.36633300781</ele>
        <time>2017-06-11T09:26:37.000Z</time>
      </trkpt>
      <trkpt lat="48.45805" lon="7.4058">
        <ele>550.93328857422</ele>
        <time>2017-06-11T09:26:39.000Z</time>
      </trkpt>
      <trkpt lat="48.45816" lon="7.40564">
        <ele>549.83959960938</ele>
        <time>2017-06-11T09:26:42.000Z</time>
      </trkpt>
      <trkpt lat="48.45822" lon="7.40559">
        <ele>548.45684814453</ele>
        <time>2017-06-11T09:26:44.000Z</time>
      </trkpt>
      <trkpt lat="48.45828" lon="7.40556">
        <ele>547.01849365234</ele>
        <time>2017-06-11T09:26:47.000Z</time>
      </trkpt>
      <trkpt lat="48.45829" lon="7.40559">
        <ele>545.69665527344</ele>
        <time>2017-06-11T09:26:50.000Z</time>
      </trkpt>
      <trkpt lat="48.45826" lon="7.40564">
        <ele>544.63269042969</ele>
        <time>2017-06-11T09:26:52.000Z</time>
      </trkpt>
      <trkpt lat="48.45821" lon="7.40579">
        <ele>543.47088623047</ele>
        <time>2017-06-11T09:26:55.000Z</time>
      </trkpt>
      <trkpt lat="48.45819" lon="7.40593">
        <ele>542.18249511719</ele>
        <time>2017-06-11T09:26:57.000Z</time>
      </trkpt>
      <trkpt lat="48.45815" lon="7.40607">
        <ele>541.07244873047</ele>
        <time>2017-06-11T09:26:59.000Z</time>
      </trkpt>
      <trkpt lat="48.45807" lon="7.40625">
        <ele>540.19702148438</ele>
        <time>2017-06-11T09:27:02.000Z</time>
      </trkpt>
      <trkpt lat="48.45804" lon="7.40639">
        <ele>539.1474609375</ele>
        <time>2017-06-11T09:27:04.000Z</time>
      </trkpt>
      <trkpt lat="48.45804" lon="7.40662">
        <ele>537.62255859375</ele>
        <time>2017-06-11T09:27:07.000Z</time>
      </trkpt>
      <trkpt lat="48.45804" lon="7.40679">
        <ele>535.78479003906</ele>
        <time>2017-06-11T09:27:09.000Z</time>
      </trkpt>
      <trkpt lat="48.45804" lon="7.40696">
        <ele>533.41864013672</ele>
        <time>2017-06-11T09:27:11.000Z</time>
      </trkpt>
      <trkpt lat="48.45801" lon="7.4072">
        <ele>530.29644775391</ele>
        <time>2017-06-11T09:27:14.000Z</time>
      </trkpt>
      <trkpt lat="48.45796" lon="7.40734">
        <ele>527.26806640625</ele>
        <time>2017-06-11T09:27:16.000Z</time>
      </trkpt>
      <trkpt lat="48.45789" lon="7.4075">
        <ele>525.01513671875</ele>
        <time>2017-06-11T09:27:19.000Z</time>
      </trkpt>
      <trkpt lat="48.45786" lon="7.40757">
        <ele>523.34826660156</ele>
        <time>2017-06-11T09:27:21.000Z</time>
      </trkpt>
      <trkpt lat="48.45784" lon="7.40762">
        <ele>522.296875</ele>
        <time>2017-06-11T09:27:23.000Z</time>
      </trkpt>
      <trkpt lat="48.45784" lon="7.40773">
        <ele>521.46887207031</ele>
        <time>2017-06-11T09:27:26.000Z</time>
      </trkpt>
      <trkpt lat="48.45789" lon="7.40779">
        <ele>520.10107421875</ele>
        <time>2017-06-11T09:27:28.000Z</time>
      </trkpt>
      <trkpt lat="48.45801" lon="7.40767">
        <ele>518.32562255859</ele>
        <time>2017-06-11T09:27:31.000Z</time>
      </trkpt>
      <trkpt lat="48.4581" lon="7.40756">
        <ele>516.39685058594</ele>
        <time>2017-06-11T09:27:33.000Z</time>
      </trkpt>
      <trkpt lat="48.45818" lon="7.40745">
        <ele>514.341796875</ele>
        <time>2017-06-11T09:27:36.000Z</time>
      </trkpt>
      <trkpt lat="48.45826" lon="7.40732">
        <ele>512.544921875</ele>
        <time>2017-06-11T09:27:39.000Z</time>
      </trkpt>
      <trkpt lat="48.45832" lon="7.40724">
        <ele>511.22869873047</ele>
        <time>2017-06-11T09:27:41.000Z</time>
      </trkpt>
      <trkpt lat="48.45836" lon="7.40713">
        <ele>510.42178344727</ele>
        <time>2017-06-11T09:27:43.000Z</time>
      </trkpt>
      <trkpt lat="48.45838" lon="7.40699">
        <ele>510.18008422852</ele>
        <time>2017-06-11T09:27:45.000Z</time>
      </trkpt>
      <trkpt lat="48.4584" lon="7.40689">
        <ele>510.26010131836</ele>
        <time>2017-06-11T09:27:47.000Z</time>
      </trkpt>
      <trkpt lat="48.45845" lon="7.40682">
        <ele>510.43081665039</ele>
        <time>2017-06-11T09:27:49.000Z</time>
      </trkpt>
      <trkpt lat="48.45846" lon="7.40681">
        <ele>510.67669677734</ele>
        <time>2017-06-11T09:27:51.000Z</time>
      </trkpt>
      <trkpt lat="48.45848" lon="7.40681">
        <ele>510.78253173828</ele>
        <time>2017-06-11T09:27:54.000Z</time>
      </trkpt>
      <trkpt lat="48.45851" lon="7.40683">
        <ele>510.16131591797</ele>
        <time>2017-06-11T09:27:57.000Z</time>
      </trkpt>
      <trkpt lat="48.45852" lon="7.40684">
        <ele>509.27108764648</ele>
        <time>2017-06-11T09:28:00.000Z</time>
      </trkpt>
      <trkpt lat="48.45853" lon="7.40686">
        <ele>508.36758422852</ele>
        <time>2017-06-11T09:28:03.000Z</time>
      </trkpt>
      <trkpt lat="48.45852" lon="7.40689">
        <ele>507.56723022461</ele>
        <time>2017-06-11T09:28:06.000Z</time>
      </trkpt>
      <trkpt lat="48.45852" lon="7.4069">
        <ele>506.85733032227</ele>
        <time>2017-06-11T09:28:11.000Z</time>
      </trkpt>
      <trkpt lat="48.45852" lon="7.40691">
        <ele>506.41186523438</ele>
        <time>2017-06-11T09:28:22.000Z</time>
      </trkpt>
      <trkpt lat="48.45852" lon="7.40693">
        <ele>506.07064819336</ele>
        <time>2017-06-11T09:28:29.000Z</time>
      </trkpt>
      <trkpt lat="48.45853" lon="7.40695">
        <ele>505.77621459961</ele>
        <time>2017-06-11T09:28:35.000Z</time>
      </trkpt>
      <trkpt lat="48.45852" lon="7.40697">
        <ele>505.48666381836</ele>
        <time>2017-06-11T09:28:38.000Z</time>
      </trkpt>
      <trkpt lat="48.45853" lon="7.40695">
        <ele>505.19122314453</ele>
        <time>2017-06-11T09:28:44.000Z</time>
      </trkpt>
      <trkpt lat="48.45856" lon="7.40688">
        <ele>504.92718505859</ele>
        <time>2017-06-11T09:28:46.000Z</time>
      </trkpt>
      <trkpt lat="48.4586" lon="7.4068">
        <ele>504.68057250977</ele>
        <time>2017-06-11T09:28:48.000Z</time>
      </trkpt>
      <trkpt lat="48.45866" lon="7.40666">
        <ele>504.48406982422</ele>
        <time>2017-06-11T09:28:51.000Z</time>
      </trkpt>
      <trkpt lat="48.45872" lon="7.40656">
        <ele>504.29849243164</ele>
        <time>2017-06-11T09:28:53.000Z</time>
      </trkpt>
      <trkpt lat="48.45879" lon="7.40638">
        <ele>504.42514038086</ele>
        <time>2017-06-11T09:28:56.000Z</time>
      </trkpt>
      <trkpt lat="48.45888" lon="7.40624">
        <ele>504.72280883789</ele>
        <time>2017-06-11T09:28:59.000Z</time>
      </trkpt>
      <trkpt lat="48.45908" lon="7.40614">
        <ele>504.23007202148</ele>
        <time>2017-06-11T09:29:02.000Z</time>
      </trkpt>
      <trkpt lat="48.45919" lon="7.40615">
        <ele>502.97271728516</ele>
        <time>2017-06-11T09:29:04.000Z</time>
      </trkpt>
      <trkpt lat="48.45936" lon="7.40615">
        <ele>501.40551757812</ele>
        <time>2017-06-11T09:29:07.000Z</time>
      </trkpt>
      <trkpt lat="48.45954" lon="7.40619">
        <ele>499.02163696289</ele>
        <time>2017-06-11T09:29:10.000Z</time>
      </trkpt>
      <trkpt lat="48.45967" lon="7.40623">
        <ele>496.07632446289</ele>
        <time>2017-06-11T09:29:12.000Z</time>
      </trkpt>
      <trkpt lat="48.45986" lon="7.40628">
        <ele>493.36572265625</ele>
        <time>2017-06-11T09:29:15.000Z</time>
      </trkpt>
      <trkpt lat="48.45996" lon="7.40657">
        <ele>489.94058227539</ele>
        <time>2017-06-11T09:29:18.000Z</time>
      </trkpt>
      <trkpt lat="48.46008" lon="7.40672">
        <ele>486.37689208984</ele>
        <time>2017-06-11T09:29:20.000Z</time>
      </trkpt>
      <trkpt lat="48.46026" lon="7.40684">
        <ele>483.609375</ele>
        <time>2017-06-11T09:29:23.000Z</time>
      </trkpt>
      <trkpt lat="48.46035" lon="7.40695">
        <ele>481.3984375</ele>
        <time>2017-06-11T09:29:25.000Z</time>
      </trkpt>
      <trkpt lat="48.46037" lon="7.40692">
        <ele>479.85675048828</ele>
        <time>2017-06-11T09:29:28.000Z</time>
      </trkpt>
      <trkpt lat="48.46038" lon="7.4069">
        <ele>479.96759033203</ele>
        <time>2017-06-11T09:29:30.000Z</time>
      </trkpt>
      <trkpt lat="48.46039" lon="7.4069">
        <ele>480.54458618164</ele>
        <time>2017-06-11T09:29:32.000Z</time>
      </trkpt>
      <trkpt lat="48.46041" lon="7.40692">
        <ele>480.89883422852</ele>
        <time>2017-06-11T09:29:34.000Z</time>
      </trkpt>
      <trkpt lat="48.4604" lon="7.40693">
        <ele>481.11785888672</ele>
        <time>2017-06-11T09:29:37.000Z</time>
      </trkpt>
      <trkpt lat="48.46042" lon="7.40693">
        <ele>481.3095703125</ele>
        <time>2017-06-11T09:29:39.000Z</time>
      </trkpt>
      <trkpt lat="48.46043" lon="7.40693">
        <ele>481.41445922852</ele>
        <time>2017-06-11T09:29:45.000Z</time>
      </trkpt>
      <trkpt lat="48.46043" lon="7.40692">
        <ele>481.52899169922</ele>
        <time>2017-06-11T09:29:49.000Z</time>
      </trkpt>
      <trkpt lat="48.46045" lon="7.40691">
        <ele>481.71279907227</ele>
        <time>2017-06-11T09:29:55.000Z</time>
      </trkpt>
      <trkpt lat="48.46048" lon="7.40687">
        <ele>482.09344482422</ele>
        <time>2017-06-11T09:30:05.000Z</time>
      </trkpt>
      <trkpt lat="48.46052" lon="7.40697">
        <ele>482.41961669922</ele>
        <time>2017-06-11T09:30:08.000Z</time>
      </trkpt>
      <trkpt lat="48.46054" lon="7.40708">
        <ele>482.6162109375</ele>
        <time>2017-06-11T09:30:10.000Z</time>
      </trkpt>
      <trkpt lat="48.46057" lon="7.40735">
        <ele>482.54257202148</ele>
        <time>2017-06-11T09:30:13.000Z</time>
      </trkpt>
      <trkpt lat="48.46062" lon="7.40756">
        <ele>482.33636474609</ele>
        <time>2017-06-11T09:30:15.000Z</time>
      </trkpt>
      <trkpt lat="48.4606" lon="7.4078">
        <ele>481.58505249023</ele>
        <time>2017-06-11T09:30:17.000Z</time>
      </trkpt>
      <trkpt lat="48.46061" lon="7.40819">
        <ele>480.36663818359</ele>
        <time>2017-06-11T09:30:20.000Z</time>
      </trkpt>
      <trkpt lat="48.46064" lon="7.40845">
        <ele>478.92495727539</ele>
        <time>2017-06-11T09:30:22.000Z</time>
      </trkpt>
      <trkpt lat="48.46067" lon="7.40878">
        <ele>476.98364257812</ele>
        <time>2017-06-11T09:30:25.000Z</time>
      </trkpt>
      <trkpt lat="48.46069" lon="7.40899">
        <ele>474.55404663086</ele>
        <time>2017-06-11T09:30:27.000Z</time>
      </trkpt>
      <trkpt lat="48.4607" lon="7.4093">
        <ele>471.79730224609</ele>
        <time>2017-06-11T09:30:30.000Z</time>
      </trkpt>
      <trkpt lat="48.46076" lon="7.40948">
        <ele>469.412109375</ele>
        <time>2017-06-11T09:30:32.000Z</time>
      </trkpt>
      <trkpt lat="48.46091" lon="7.40978">
        <ele>467.17724609375</ele>
        <time>2017-06-11T09:30:35.000Z</time>
      </trkpt>
      <trkpt lat="48.46097" lon="7.41001">
        <ele>465.15533447266</ele>
        <time>2017-06-11T09:30:37.000Z</time>
      </trkpt>
      <trkpt lat="48.46108" lon="7.41029">
        <ele>462.74838256836</ele>
        <time>2017-06-11T09:30:40.000Z</time>
      </trkpt>
      <trkpt lat="48.46121" lon="7.41038">
        <ele>460.82949829102</ele>
        <time>2017-06-11T09:30:42.000Z</time>
      </trkpt>
      <trkpt lat="48.46144" lon="7.41035">
        <ele>459.31134033203</ele>
        <time>2017-06-11T09:30:45.000Z</time>
      </trkpt>
      <trkpt lat="48.46161" lon="7.41029">
        <ele>458.35821533203</ele>
        <time>2017-06-11T09:30:47.000Z</time>
      </trkpt>
      <trkpt lat="48.46173" lon="7.41022">
        <ele>457.91812133789</ele>
        <time>2017-06-11T09:30:49.000Z</time>
      </trkpt>
      <trkpt lat="48.462" lon="7.41004">
        <ele>457.83160400391</ele>
        <time>2017-06-11T09:30:52.000Z</time>
      </trkpt>
      <trkpt lat="48.46215" lon="7.40992">
        <ele>457.70272827148</ele>
        <time>2017-06-11T09:30:54.000Z</time>
      </trkpt>
      <trkpt lat="48.46237" lon="7.40974">
        <ele>456.82885742188</ele>
        <time>2017-06-11T09:30:57.000Z</time>
      </trkpt>
      <trkpt lat="48.46262" lon="7.40955">
        <ele>454.85272216797</ele>
        <time>2017-06-11T09:31:00.000Z</time>
      </trkpt>
      <trkpt lat="48.46289" lon="7.40932">
        <ele>451.99438476562</ele>
        <time>2017-06-11T09:31:03.000Z</time>
      </trkpt>
      <trkpt lat="48.4632" lon="7.40905">
        <ele>448.69403076172</ele>
        <time>2017-06-11T09:31:06.000Z</time>
      </trkpt>
      <trkpt lat="48.46337" lon="7.40886">
        <ele>444.85830688477</ele>
        <time>2017-06-11T09:31:08.000Z</time>
      </trkpt>
      <trkpt lat="48.46356" lon="7.40867">
        <ele>440.73013305664</ele>
        <time>2017-06-11T09:31:10.000Z</time>
      </trkpt>
      <trkpt lat="48.4637" lon="7.40846">
        <ele>436.91714477539</ele>
        <time>2017-06-11T09:31:12.000Z</time>
      </trkpt>
      <trkpt lat="48.46385" lon="7.40818">
        <ele>433.30093383789</ele>
        <time>2017-06-11T09:31:15.000Z</time>
      </trkpt>
      <trkpt lat="48.46392" lon="7.40802">
        <ele>430.13012695312</ele>
        <time>2017-06-11T09:31:17.000Z</time>
      </trkpt>
      <trkpt lat="48.46391" lon="7.40777">
        <ele>427.51007080078</ele>
        <time>2017-06-11T09:31:20.000Z</time>
      </trkpt>
      <trkpt lat="48.4639" lon="7.40754">
        <ele>425.3935546875</ele>
        <time>2017-06-11T09:31:23.000Z</time>
      </trkpt>
      <trkpt lat="48.464" lon="7.40754">
        <ele>423.11297607422</ele>
        <time>2017-06-11T09:31:26.000Z</time>
      </trkpt>
      <trkpt lat="48.46406" lon="7.40763">
        <ele>421.291015625</ele>
        <time>2017-06-11T09:31:29.000Z</time>
      </trkpt>
      <trkpt lat="48.46412" lon="7.40775">
        <ele>419.85604858398</ele>
        <time>2017-06-11T09:31:31.000Z</time>
      </trkpt>
      <trkpt lat="48.46424" lon="7.40796">
        <ele>418.27001953125</ele>
        <time>2017-06-11T09:31:34.000Z</time>
      </trkpt>
      <trkpt lat="48.46428" lon="7.40821">
        <ele>416.99551391602</ele>
        <time>2017-06-11T09:31:36.000Z</time>
      </trkpt>
      <trkpt lat="48.46426" lon="7.40858">
        <ele>416.09048461914</ele>
        <time>2017-06-11T09:31:39.000Z</time>
      </trkpt>
      <trkpt lat="48.46424" lon="7.40876">
        <ele>415.17315673828</ele>
        <time>2017-06-11T09:31:41.000Z</time>
      </trkpt>
      <trkpt lat="48.46429" lon="7.40886">
        <ele>413.99502563477</ele>
        <time>2017-06-11T09:31:43.000Z</time>
      </trkpt>
      <trkpt lat="48.46435" lon="7.40886">
        <ele>412.92163085938</ele>
        <time>2017-06-11T09:31:46.000Z</time>
      </trkpt>
      <trkpt lat="48.46437" lon="7.40887">
        <ele>411.64151000977</ele>
        <time>2017-06-11T09:31:48.000Z</time>
      </trkpt>
      <trkpt lat="48.46437" lon="7.40888">
        <ele>410.49185180664</ele>
        <time>2017-06-11T09:31:50.000Z</time>
      </trkpt>
      <trkpt lat="48.46439" lon="7.40893">
        <ele>409.45693969727</ele>
        <time>2017-06-11T09:31:52.000Z</time>
      </trkpt>
      <trkpt lat="48.46442" lon="7.40896">
        <ele>408.60122680664</ele>
        <time>2017-06-11T09:31:54.000Z</time>
      </trkpt>
      <trkpt lat="48.46449" lon="7.40897">
        <ele>407.73712158203</ele>
        <time>2017-06-11T09:31:57.000Z</time>
      </trkpt>
      <trkpt lat="48.46451" lon="7.40895">
        <ele>406.91668701172</ele>
        <time>2017-06-11T09:31:59.000Z</time>
      </trkpt>
      <trkpt lat="48.46456" lon="7.40896">
        <ele>405.89056396484</ele>
        <time>2017-06-11T09:32:02.000Z</time>
      </trkpt>
      <trkpt lat="48.46459" lon="7.40896">
        <ele>404.86102294922</ele>
        <time>2017-06-11T09:32:05.000Z</time>
      </trkpt>
      <trkpt lat="48.46462" lon="7.40892">
        <ele>403.95050048828</ele>
        <time>2017-06-11T09:32:07.000Z</time>
      </trkpt>
      <trkpt lat="48.46473" lon="7.40887">
        <ele>402.90029907227</ele>
        <time>2017-06-11T09:32:10.000Z</time>
      </trkpt>
      <trkpt lat="48.4648" lon="7.40888">
        <ele>401.54571533203</ele>
        <time>2017-06-11T09:32:12.000Z</time>
      </trkpt>
      <trkpt lat="48.46487" lon="7.40887">
        <ele>400.11401367188</ele>
        <time>2017-06-11T09:32:14.000Z</time>
      </trkpt>
      <trkpt lat="48.46494" lon="7.40884">
        <ele>398.49630737305</ele>
        <time>2017-06-11T09:32:16.000Z</time>
      </trkpt>
      <trkpt lat="48.46504" lon="7.40879">
        <ele>396.42230224609</ele>
        <time>2017-06-11T09:32:19.000Z</time>
      </trkpt>
      <trkpt lat="48.46513" lon="7.40875">
        <ele>394.30554199219</ele>
        <time>2017-06-11T09:32:22.000Z</time>
      </trkpt>
      <trkpt lat="48.46518" lon="7.40873">
        <ele>392.2258605957</ele>
        <time>2017-06-11T09:32:24.000Z</time>
      </trkpt>
      <trkpt lat="48.46523" lon="7.40873">
        <ele>390.20648193359</ele>
        <time>2017-06-11T09:32:26.000Z</time>
      </trkpt>
      <trkpt lat="48.46527" lon="7.40874">
        <ele>388.22314453125</ele>
        <time>2017-06-11T09:32:29.000Z</time>
      </trkpt>
      <trkpt lat="48.46533" lon="7.4087">
        <ele>386.46594238281</ele>
        <time>2017-06-11T09:32:31.000Z</time>
      </trkpt>
      <trkpt lat="48.46536" lon="7.40869">
        <ele>384.98205566406</ele>
        <time>2017-06-11T09:32:33.000Z</time>
      </trkpt>
      <trkpt lat="48.46539" lon="7.40871">
        <ele>383.66711425781</ele>
        <time>2017-06-11T09:32:35.000Z</time>
      </trkpt>
      <trkpt lat="48.46545" lon="7.40866">
        <ele>382.31213378906</ele>
        <time>2017-06-11T09:32:38.000Z</time>
      </trkpt>
      <trkpt lat="48.46547" lon="7.40862">
        <ele>381.12048339844</ele>
        <time>2017-06-11T09:32:40.000Z</time>
      </trkpt>
      <trkpt lat="48.46552" lon="7.4086">
        <ele>379.9267578125</ele>
        <time>2017-06-11T09:32:43.000Z</time>
      </trkpt>
      <trkpt lat="48.46556" lon="7.40859">
        <ele>378.70788574219</ele>
        <time>2017-06-11T09:32:45.000Z</time>
      </trkpt>
      <trkpt lat="48.4656" lon="7.40857">
        <ele>377.44653320312</ele>
        <time>2017-06-11T09:32:47.000Z</time>
      </trkpt>
      <trkpt lat="48.46564" lon="7.40854">
        <ele>376.23059082031</ele>
        <time>2017-06-11T09:32:50.000Z</time>
      </trkpt>
      <trkpt lat="48.46569" lon="7.40854">
        <ele>374.82800292969</ele>
        <time>2017-06-11T09:32:53.000Z</time>
      </trkpt>
      <trkpt lat="48.46575" lon="7.40854">
        <ele>373.44470214844</ele>
        <time>2017-06-11T09:32:56.000Z</time>
      </trkpt>
      <trkpt lat="48.46579" lon="7.40851">
        <ele>372.04077148438</ele>
        <time>2017-06-11T09:32:58.000Z</time>
      </trkpt>
      <trkpt lat="48.46584" lon="7.40842">
        <ele>370.61071777344</ele>
        <time>2017-06-11T09:33:01.000Z</time>
      </trkpt>
      <trkpt lat="48.46588" lon="7.40838">
        <ele>369.3095703125</ele>
        <time>2017-06-11T09:33:04.000Z</time>
      </trkpt>
      <trkpt lat="48.46589" lon="7.40837">
        <ele>368.28369140625</ele>
        <time>2017-06-11T09:33:07.000Z</time>
      </trkpt>
      <trkpt lat="48.4659" lon="7.40836">
        <ele>367.51013183594</ele>
        <time>2017-06-11T09:33:10.000Z</time>
      </trkpt>
      <trkpt lat="48.46601" lon="7.40841">
        <ele>366.59106445312</ele>
        <time>2017-06-11T09:33:13.000Z</time>
      </trkpt>
      <trkpt lat="48.46611" lon="7.40847">
        <ele>365.54748535156</ele>
        <time>2017-06-11T09:33:15.000Z</time>
      </trkpt>
      <trkpt lat="48.46622" lon="7.40854">
        <ele>364.19470214844</ele>
        <time>2017-06-11T09:33:17.000Z</time>
      </trkpt>
      <trkpt lat="48.46636" lon="7.40861">
        <ele>362.3232421875</ele>
        <time>2017-06-11T09:33:19.000Z</time>
      </trkpt>
      <trkpt lat="48.46663" lon="7.40869">
        <ele>359.46447753906</ele>
        <time>2017-06-11T09:33:22.000Z</time>
      </trkpt>
      <trkpt lat="48.46698" lon="7.40872">
        <ele>355.74560546875</ele>
        <time>2017-06-11T09:33:25.000Z</time>
      </trkpt>
      <trkpt lat="48.46714" lon="7.40884">
        <ele>351.80163574219</ele>
        <time>2017-06-11T09:33:27.000Z</time>
      </trkpt>
      <trkpt lat="48.46725" lon="7.40919">
        <ele>347.73257446289</ele>
        <time>2017-06-11T09:33:30.000Z</time>
      </trkpt>
      <trkpt lat="48.46735" lon="7.40931">
        <ele>343.40008544922</ele>
        <time>2017-06-11T09:33:32.000Z</time>
      </trkpt>
      <trkpt lat="48.46741" lon="7.40943">
        <ele>339.48031616211</ele>
        <time>2017-06-11T09:33:34.000Z</time>
      </trkpt>
      <trkpt lat="48.46727" lon="7.40965">
        <ele>336.50036621094</ele>
        <time>2017-06-11T09:33:37.000Z</time>
      </trkpt>
      <trkpt lat="48.46716" lon="7.40982">
        <ele>333.89456176758</ele>
        <time>2017-06-11T09:33:39.000Z</time>
      </trkpt>
      <trkpt lat="48.46678" lon="7.41013">
        <ele>332.21038818359</ele>
        <time>2017-06-11T09:33:43.000Z</time>
      </trkpt>
      <trkpt lat="48.46676" lon="7.41058">
        <ele>329.91070556641</ele>
        <time>2017-06-11T09:33:46.000Z</time>
      </trkpt>
      <trkpt lat="48.46672" lon="7.41078">
        <ele>327.75616455078</ele>
        <time>2017-06-11T09:33:48.000Z</time>
      </trkpt>
      <trkpt lat="48.46662" lon="7.41104">
        <ele>325.81604003906</ele>
        <time>2017-06-11T09:33:51.000Z</time>
      </trkpt>
      <trkpt lat="48.46654" lon="7.4113">
        <ele>323.97164916992</ele>
        <time>2017-06-11T09:33:54.000Z</time>
      </trkpt>
      <trkpt lat="48.46651" lon="7.41147">
        <ele>321.64901733398</ele>
        <time>2017-06-11T09:33:56.000Z</time>
      </trkpt>
      <trkpt lat="48.46647" lon="7.41173">
        <ele>320.51211547852</ele>
        <time>2017-06-11T09:33:59.000Z</time>
      </trkpt>
      <trkpt lat="48.46643" lon="7.41189">
        <ele>319.83987426758</ele>
        <time>2017-06-11T09:34:01.000Z</time>
      </trkpt>
      <trkpt lat="48.46635" lon="7.41212">
        <ele>319.34512329102</ele>
        <time>2017-06-11T09:34:04.000Z</time>
      </trkpt>
      <trkpt lat="48.46633" lon="7.4123">
        <ele>318.8528137207</ele>
        <time>2017-06-11T09:34:06.000Z</time>
      </trkpt>
      <trkpt lat="48.46629" lon="7.41246">
        <ele>318.4775390625</ele>
        <time>2017-06-11T09:34:08.000Z</time>
      </trkpt>
      <trkpt lat="48.46623" lon="7.41269">
        <ele>318.34631347656</ele>
        <time>2017-06-11T09:34:11.000Z</time>
      </trkpt>
      <trkpt lat="48.46616" lon="7.41284">
        <ele>318.38024902344</ele>
        <time>2017-06-11T09:34:13.000Z</time>
      </trkpt>
      <trkpt lat="48.46609" lon="7.41309">
        <ele>318.384765625</ele>
        <time>2017-06-11T09:34:16.000Z</time>
      </trkpt>
      <trkpt lat="48.46606" lon="7.41324">
        <ele>318.51953125</ele>
        <time>2017-06-11T09:34:18.000Z</time>
      </trkpt>
      <trkpt lat="48.46597" lon="7.41344">
        <ele>318.67260742188</ele>
        <time>2017-06-11T09:34:21.000Z</time>
      </trkpt>
      <trkpt lat="48.46592" lon="7.41365">
        <ele>318.66677856445</ele>
        <time>2017-06-11T09:34:24.000Z</time>
      </trkpt>
      <trkpt lat="48.46585" lon="7.41377">
        <ele>318.54244995117</ele>
        <time>2017-06-11T09:34:26.000Z</time>
      </trkpt>
      <trkpt lat="48.46579" lon="7.41389">
        <ele>318.37463378906</ele>
        <time>2017-06-11T09:34:28.000Z</time>
      </trkpt>
      <trkpt lat="48.46572" lon="7.41408">
        <ele>318.12881469727</ele>
        <time>2017-06-11T09:34:31.000Z</time>
      </trkpt>
      <trkpt lat="48.46564" lon="7.41425">
        <ele>317.89572143555</ele>
        <time>2017-06-11T09:34:34.000Z</time>
      </trkpt>
      <trkpt lat="48.46555" lon="7.41441">
        <ele>317.93109130859</ele>
        <time>2017-06-11T09:34:37.000Z</time>
      </trkpt>
      <trkpt lat="48.46546" lon="7.41457">
        <ele>318.03329467773</ele>
        <time>2017-06-11T09:34:40.000Z</time>
      </trkpt>
      <trkpt lat="48.46541" lon="7.41469">
        <ele>318.17193603516</ele>
        <time>2017-06-11T09:34:42.000Z</time>
      </trkpt>
      <trkpt lat="48.46532" lon="7.41486">
        <ele>318.42047119141</ele>
        <time>2017-06-11T09:34:45.000Z</time>
      </trkpt>
      <trkpt lat="48.46527" lon="7.41498">
        <ele>318.66693115234</ele>
        <time>2017-06-11T09:34:47.000Z</time>
      </trkpt>
      <trkpt lat="48.46519" lon="7.41516">
        <ele>318.86248779297</ele>
        <time>2017-06-11T09:34:50.000Z</time>
      </trkpt>
      <trkpt lat="48.46515" lon="7.41527">
        <ele>319.01577758789</ele>
        <time>2017-06-11T09:34:52.000Z</time>
      </trkpt>
      <trkpt lat="48.46512" lon="7.41546">
        <ele>319.05767822266</ele>
        <time>2017-06-11T09:34:55.000Z</time>
      </trkpt>
      <trkpt lat="48.46512" lon="7.41559">
        <ele>318.93927001953</ele>
        <time>2017-06-11T09:34:57.000Z</time>
      </trkpt>
      <trkpt lat="48.46511" lon="7.41572">
        <ele>318.69921875</ele>
        <time>2017-06-11T09:34:59.000Z</time>
      </trkpt>
      <trkpt lat="48.46507" lon="7.41584">
        <ele>318.43838500977</ele>
        <time>2017-06-11T09:35:01.000Z</time>
      </trkpt>
      <trkpt lat="48.46497" lon="7.41599">
        <ele>318.26272583008</ele>
        <time>2017-06-11T09:35:04.000Z</time>
      </trkpt>
      <trkpt lat="48.46488" lon="7.41613">
        <ele>318.20452880859</ele>
        <time>2017-06-11T09:35:07.000Z</time>
      </trkpt>
      <trkpt lat="48.46482" lon="7.41623">
        <ele>318.27465820312</ele>
        <time>2017-06-11T09:35:09.000Z</time>
      </trkpt>
      <trkpt lat="48.46474" lon="7.41636">
        <ele>318.44024658203</ele>
        <time>2017-06-11T09:35:12.000Z</time>
      </trkpt>
      <trkpt lat="48.46471" lon="7.41644">
        <ele>318.54019165039</ele>
        <time>2017-06-11T09:35:14.000Z</time>
      </trkpt>
      <trkpt lat="48.46469" lon="7.41655">
        <ele>318.41467285156</ele>
        <time>2017-06-11T09:35:16.000Z</time>
      </trkpt>
      <trkpt lat="48.46469" lon="7.4168">
        <ele>317.92611694336</ele>
        <time>2017-06-11T09:35:19.000Z</time>
      </trkpt>
      <trkpt lat="48.46467" lon="7.41699">
        <ele>317.1481628418</ele>
        <time>2017-06-11T09:35:21.000Z</time>
      </trkpt>
      <trkpt lat="48.46462" lon="7.41717">
        <ele>316.14028930664</ele>
        <time>2017-06-11T09:35:23.000Z</time>
      </trkpt>
      <trkpt lat="48.46446" lon="7.41738">
        <ele>314.98406982422</ele>
        <time>2017-06-11T09:35:26.000Z</time>
      </trkpt>
      <trkpt lat="48.46429" lon="7.4175">
        <ele>313.90124511719</ele>
        <time>2017-06-11T09:35:29.000Z</time>
      </trkpt>
      <trkpt lat="48.46416" lon="7.41755">
        <ele>313.15267944336</ele>
        <time>2017-06-11T09:35:31.000Z</time>
      </trkpt>
      <trkpt lat="48.46404" lon="7.41759">
        <ele>312.66461181641</ele>
        <time>2017-06-11T09:35:33.000Z</time>
      </trkpt>
      <trkpt lat="48.46386" lon="7.41763">
        <ele>312.42474365234</ele>
        <time>2017-06-11T09:35:36.000Z</time>
      </trkpt>
      <trkpt lat="48.46374" lon="7.41766">
        <ele>312.37557983398</ele>
        <time>2017-06-11T09:35:38.000Z</time>
      </trkpt>
      <trkpt lat="48.46363" lon="7.41767">
        <ele>312.40637207031</ele>
        <time>2017-06-11T09:35:40.000Z</time>
      </trkpt>
      <trkpt lat="48.4635" lon="7.41769">
        <ele>312.49224853516</ele>
        <time>2017-06-11T09:35:42.000Z</time>
      </trkpt>
      <trkpt lat="48.46338" lon="7.41769">
        <ele>312.67623901367</ele>
        <time>2017-06-11T09:35:44.000Z</time>
      </trkpt>
      <trkpt lat="48.4632" lon="7.41766">
        <ele>313.11834716797</ele>
        <time>2017-06-11T09:35:47.000Z</time>
      </trkpt>
      <trkpt lat="48.46301" lon="7.41762">
        <ele>313.83520507812</ele>
        <time>2017-06-11T09:35:50.000Z</time>
      </trkpt>
      <trkpt lat="48.46282" lon="7.41757">
        <ele>314.77337646484</ele>
        <time>2017-06-11T09:35:53.000Z</time>
      </trkpt>
      <trkpt lat="48.46263" lon="7.41754">
        <ele>315.87924194336</ele>
        <time>2017-06-11T09:35:56.000Z</time>
      </trkpt>
      <trkpt lat="48.46249" lon="7.41756">
        <ele>317.06289672852</ele>
        <time>2017-06-11T09:35:59.000Z</time>
      </trkpt>
      <trkpt lat="48.46246" lon="7.41767">
        <ele>318.05209350586</ele>
        <time>2017-06-11T09:36:01.000Z</time>
      </trkpt>
      <trkpt lat="48.46263" lon="7.41787">
        <ele>318.51647949219</ele>
        <time>2017-06-11T09:36:04.000Z</time>
      </trkpt>
      <trkpt lat="48.46267" lon="7.4181">
        <ele>318.61126708984</ele>
        <time>2017-06-11T09:36:07.000Z</time>
      </trkpt>
      <trkpt lat="48.46267" lon="7.41823">
        <ele>318.4694519043</ele>
        <time>2017-06-11T09:36:09.000Z</time>
      </trkpt>
      <trkpt lat="48.46263" lon="7.41845">
        <ele>318.26284790039</ele>
        <time>2017-06-11T09:36:12.000Z</time>
      </trkpt>
      <trkpt lat="48.46268" lon="7.41854">
        <ele>317.83197021484</ele>
        <time>2017-06-11T09:36:14.000Z</time>
      </trkpt>
      <trkpt lat="48.4627" lon="7.41864">
        <ele>317.59213256836</ele>
        <time>2017-06-11T09:36:16.000Z</time>
      </trkpt>
      <trkpt lat="48.4627" lon="7.4188">
        <ele>317.4250793457</ele>
        <time>2017-06-11T09:36:19.000Z</time>
      </trkpt>
      <trkpt lat="48.46272" lon="7.41894">
        <ele>317.20635986328</ele>
        <time>2017-06-11T09:36:22.000Z</time>
      </trkpt>
      <trkpt lat="48.46272" lon="7.41908">
        <ele>316.89312744141</ele>
        <time>2017-06-11T09:36:25.000Z</time>
      </trkpt>
      <trkpt lat="48.46275" lon="7.41921">
        <ele>316.6936340332</ele>
        <time>2017-06-11T09:36:28.000Z</time>
      </trkpt>
      <trkpt lat="48.46278" lon="7.41928">
        <ele>316.4548034668</ele>
        <time>2017-06-11T09:36:30.000Z</time>
      </trkpt>
      <trkpt lat="48.46283" lon="7.41939">
        <ele>316.17623901367</ele>
        <time>2017-06-11T09:36:33.000Z</time>
      </trkpt>
      <trkpt lat="48.46286" lon="7.41948">
        <ele>315.95443725586</ele>
        <time>2017-06-11T09:36:35.000Z</time>
      </trkpt>
      <trkpt lat="48.46288" lon="7.41956">
        <ele>315.75262451172</ele>
        <time>2017-06-11T09:36:37.000Z</time>
      </trkpt>
      <trkpt lat="48.46291" lon="7.41969">
        <ele>315.58181762695</ele>
        <time>2017-06-11T09:36:40.000Z</time>
      </trkpt>
      <trkpt lat="48.46292" lon="7.41981">
        <ele>315.55767822266</ele>
        <time>2017-06-11T09:36:43.000Z</time>
      </trkpt>
      <trkpt lat="48.46292" lon="7.41995">
        <ele>315.69293212891</ele>
        <time>2017-06-11T09:36:46.000Z</time>
      </trkpt>
      <trkpt lat="48.46291" lon="7.42005">
        <ele>315.94076538086</ele>
        <time>2017-06-11T09:36:48.000Z</time>
      </trkpt>
      <trkpt lat="48.46294" lon="7.42024">
        <ele>316.27816772461</ele>
        <time>2017-06-11T09:36:51.000Z</time>
      </trkpt>
      <trkpt lat="48.46299" lon="7.42045">
        <ele>316.67645263672</ele>
        <time>2017-06-11T09:36:54.000Z</time>
      </trkpt>
      <trkpt lat="48.46305" lon="7.42066">
        <ele>317.05133056641</ele>
        <time>2017-06-11T09:36:57.000Z</time>
      </trkpt>
      <trkpt lat="48.46307" lon="7.42086">
        <ele>317.41641235352</ele>
        <time>2017-06-11T09:37:00.000Z</time>
      </trkpt>
      <trkpt lat="48.46308" lon="7.42097">
        <ele>317.59909057617</ele>
        <time>2017-06-11T09:37:02.000Z</time>
      </trkpt>
      <trkpt lat="48.46305" lon="7.42109">
        <ele>317.66293334961</ele>
        <time>2017-06-11T09:37:04.000Z</time>
      </trkpt>
      <trkpt lat="48.46302" lon="7.42125">
        <ele>317.65310668945</ele>
        <time>2017-06-11T09:37:07.000Z</time>
      </trkpt>
      <trkpt lat="48.46297" lon="7.42138">
        <ele>317.64224243164</ele>
        <time>2017-06-11T09:37:09.000Z</time>
      </trkpt>
      <trkpt lat="48.46289" lon="7.42158">
        <ele>317.65127563477</ele>
        <time>2017-06-11T09:37:12.000Z</time>
      </trkpt>
      <trkpt lat="48.46286" lon="7.42177">
        <ele>317.62173461914</ele>
        <time>2017-06-11T09:37:14.000Z</time>
      </trkpt>
      <trkpt lat="48.46284" lon="7.42196">
        <ele>317.41418457031</ele>
        <time>2017-06-11T09:37:16.000Z</time>
      </trkpt>
      <trkpt lat="48.4628" lon="7.42223">
        <ele>317.03216552734</ele>
        <time>2017-06-11T09:37:19.000Z</time>
      </trkpt>
      <trkpt lat="48.46276" lon="7.42238">
        <ele>316.59503173828</ele>
        <time>2017-06-11T09:37:21.000Z</time>
      </trkpt>
      <trkpt lat="48.46271" lon="7.4225">
        <ele>316.16015625</ele>
        <time>2017-06-11T09:37:23.000Z</time>
      </trkpt>
      <trkpt lat="48.46266" lon="7.42263">
        <ele>315.76516723633</ele>
        <time>2017-06-11T09:37:25.000Z</time>
      </trkpt>
      <trkpt lat="48.46262" lon="7.42277">
        <ele>315.40313720703</ele>
        <time>2017-06-11T09:37:27.000Z</time>
      </trkpt>
      <trkpt lat="48.46258" lon="7.42302">
        <ele>314.82620239258</ele>
        <time>2017-06-11T09:37:30.000Z</time>
      </trkpt>
      <trkpt lat="48.46255" lon="7.4232">
        <ele>313.97470092773</ele>
        <time>2017-06-11T09:37:32.000Z</time>
      </trkpt>
      <trkpt lat="48.46252" lon="7.42352">
        <ele>312.53298950195</ele>
        <time>2017-06-11T09:37:35.000Z</time>
      </trkpt>
      <trkpt lat="48.46249" lon="7.42375">
        <ele>310.85916137695</ele>
        <time>2017-06-11T09:37:37.000Z</time>
      </trkpt>
      <trkpt lat="48.46242" lon="7.42404">
        <ele>309.10855102539</ele>
        <time>2017-06-11T09:37:40.000Z</time>
      </trkpt>
      <trkpt lat="48.46236" lon="7.42415">
        <ele>307.82363891602</ele>
        <time>2017-06-11T09:37:42.000Z</time>
      </trkpt>
      <trkpt lat="48.4623" lon="7.42426">
        <ele>306.84613037109</ele>
        <time>2017-06-11T09:37:45.000Z</time>
      </trkpt>
      <trkpt lat="48.46229" lon="7.42441">
        <ele>306.0715637207</ele>
        <time>2017-06-11T09:37:48.000Z</time>
      </trkpt>
      <trkpt lat="48.46228" lon="7.42458">
        <ele>305.30917358398</ele>
        <time>2017-06-11T09:37:51.000Z</time>
      </trkpt>
      <trkpt lat="48.46231" lon="7.42471">
        <ele>304.35858154297</ele>
        <time>2017-06-11T09:37:53.000Z</time>
      </trkpt>
      <trkpt lat="48.4623" lon="7.42483">
        <ele>303.140625</ele>
        <time>2017-06-11T09:37:56.000Z</time>
      </trkpt>
      <trkpt lat="48.46225" lon="7.42499">
        <ele>301.78161621094</ele>
        <time>2017-06-11T09:37:59.000Z</time>
      </trkpt>
      <trkpt lat="48.46225" lon="7.4251">
        <ele>300.47528076172</ele>
        <time>2017-06-11T09:38:01.000Z</time>
      </trkpt>
      <trkpt lat="48.46224" lon="7.42528">
        <ele>299.07473754883</ele>
        <time>2017-06-11T09:38:04.000Z</time>
      </trkpt>
      <trkpt lat="48.4622" lon="7.4254">
        <ele>298.01593017578</ele>
        <time>2017-06-11T09:38:07.000Z</time>
      </trkpt>
      <trkpt lat="48.46214" lon="7.4255">
        <ele>297.21069335938</ele>
        <time>2017-06-11T09:38:10.000Z</time>
      </trkpt>
      <trkpt lat="48.4621" lon="7.4256">
        <ele>296.46307373047</ele>
        <time>2017-06-11T09:38:12.000Z</time>
      </trkpt>
      <trkpt lat="48.46205" lon="7.42575">
        <ele>295.84307861328</ele>
        <time>2017-06-11T09:38:15.000Z</time>
      </trkpt>
      <trkpt lat="48.46202" lon="7.4259">
        <ele>295.39248657227</ele>
        <time>2017-06-11T09:38:18.000Z</time>
      </trkpt>
      <trkpt lat="48.46201" lon="7.42603">
        <ele>294.759765625</ele>
        <time>2017-06-11T09:38:21.000Z</time>
      </trkpt>
      <trkpt lat="48.46201" lon="7.42611">
        <ele>293.91058349609</ele>
        <time>2017-06-11T09:38:23.000Z</time>
      </trkpt>
      <trkpt lat="48.46199" lon="7.42619">
        <ele>293.01016235352</ele>
        <time>2017-06-11T09:38:25.000Z</time>
      </trkpt>
      <trkpt lat="48.46199" lon="7.42636">
        <ele>291.82794189453</ele>
        <time>2017-06-11T09:38:28.000Z</time>
      </trkpt>
      <trkpt lat="48.46202" lon="7.42655">
        <ele>290.22451782227</ele>
        <time>2017-06-11T09:38:31.000Z</time>
      </trkpt>
      <trkpt lat="48.462" lon="7.42672">
        <ele>288.59713745117</ele>
        <time>2017-06-11T09:38:34.000Z</time>
      </trkpt>
      <trkpt lat="48.46197" lon="7.42683">
        <ele>287.13613891602</ele>
        <time>2017-06-11T09:38:36.000Z</time>
      </trkpt>
      <trkpt lat="48.46195" lon="7.42693">
        <ele>285.73129272461</ele>
        <time>2017-06-11T09:38:38.000Z</time>
      </trkpt>
      <trkpt lat="48.46191" lon="7.42707">
        <ele>284.66046142578</ele>
        <time>2017-06-11T09:38:41.000Z</time>
      </trkpt>
      <trkpt lat="48.46186" lon="7.42719">
        <ele>284.27740478516</ele>
        <time>2017-06-11T09:38:44.000Z</time>
      </trkpt>
      <trkpt lat="48.46183" lon="7.42726">
        <ele>284.19500732422</ele>
        <time>2017-06-11T09:38:46.000Z</time>
      </trkpt>
      <trkpt lat="48.46177" lon="7.42736">
        <ele>284.25006103516</ele>
        <time>2017-06-11T09:38:49.000Z</time>
      </trkpt>
      <trkpt lat="48.46171" lon="7.42741">
        <ele>284.58624267578</ele>
        <time>2017-06-11T09:38:52.000Z</time>
      </trkpt>
      <trkpt lat="48.46165" lon="7.42747">
        <ele>285.06097412109</ele>
        <time>2017-06-11T09:38:54.000Z</time>
      </trkpt>
      <trkpt lat="48.46157" lon="7.42762">
        <ele>285.06658935547</ele>
        <time>2017-06-11T09:38:57.000Z</time>
      </trkpt>
      <trkpt lat="48.46152" lon="7.42775">
        <ele>284.67947387695</ele>
        <time>2017-06-11T09:38:59.000Z</time>
      </trkpt>
      <trkpt lat="48.46144" lon="7.42788">
        <ele>283.74932861328</ele>
        <time>2017-06-11T09:39:01.000Z</time>
      </trkpt>
      <trkpt lat="48.46132" lon="7.42805">
        <ele>282.08697509766</ele>
        <time>2017-06-11T09:39:04.000Z</time>
      </trkpt>
      <trkpt lat="48.46125" lon="7.42818">
        <ele>279.95581054688</ele>
        <time>2017-06-11T09:39:07.000Z</time>
      </trkpt>
      <trkpt lat="48.4612" lon="7.42832">
        <ele>277.77294921875</ele>
        <time>2017-06-11T09:39:10.000Z</time>
      </trkpt>
      <trkpt lat="48.46116" lon="7.4284">
        <ele>275.79077148438</ele>
        <time>2017-06-11T09:39:12.000Z</time>
      </trkpt>
      <trkpt lat="48.46111" lon="7.42851">
        <ele>273.94976806641</ele>
        <time>2017-06-11T09:39:15.000Z</time>
      </trkpt>
      <trkpt lat="48.46108" lon="7.42869">
        <ele>272.15655517578</ele>
        <time>2017-06-11T09:39:18.000Z</time>
      </trkpt>
      <trkpt lat="48.46104" lon="7.42881">
        <ele>270.44668579102</ele>
        <time>2017-06-11T09:39:20.000Z</time>
      </trkpt>
      <trkpt lat="48.46099" lon="7.42893">
        <ele>268.921875</ele>
        <time>2017-06-11T09:39:22.000Z</time>
      </trkpt>
      <trkpt lat="48.46092" lon="7.42912">
        <ele>267.10437011719</ele>
        <time>2017-06-11T09:39:25.000Z</time>
      </trkpt>
      <trkpt lat="48.46087" lon="7.42924">
        <ele>265.35165405273</ele>
        <time>2017-06-11T09:39:27.000Z</time>
      </trkpt>
      <trkpt lat="48.4608" lon="7.42943">
        <ele>263.73175048828</ele>
        <time>2017-06-11T09:39:30.000Z</time>
      </trkpt>
      <trkpt lat="48.46077" lon="7.42952">
        <ele>262.23526000977</ele>
        <time>2017-06-11T09:39:32.000Z</time>
      </trkpt>
      <trkpt lat="48.46075" lon="7.4296">
        <ele>260.89810180664</ele>
        <time>2017-06-11T09:39:34.000Z</time>
      </trkpt>
      <trkpt lat="48.46072" lon="7.42973">
        <ele>259.78408813477</ele>
        <time>2017-06-11T09:39:37.000Z</time>
      </trkpt>
      <trkpt lat="48.46078" lon="7.42989">
        <ele>258.57952880859</ele>
        <time>2017-06-11T09:39:40.000Z</time>
      </trkpt>
      <trkpt lat="48.46091" lon="7.42995">
        <ele>257.51788330078</ele>
        <time>2017-06-11T09:39:43.000Z</time>
      </trkpt>
      <trkpt lat="48.46098" lon="7.42999">
        <ele>256.49743652344</ele>
        <time>2017-06-11T09:39:45.000Z</time>
      </trkpt>
      <trkpt lat="48.46107" lon="7.43005">
        <ele>255.46939086914</ele>
        <time>2017-06-11T09:39:47.000Z</time>
      </trkpt>
      <trkpt lat="48.46124" lon="7.43015">
        <ele>254.39057922363</ele>
        <time>2017-06-11T09:39:50.000Z</time>
      </trkpt>
      <trkpt lat="48.46144" lon="7.43026">
        <ele>253.24955749512</ele>
        <time>2017-06-11T09:39:53.000Z</time>
      </trkpt>
      <trkpt lat="48.46161" lon="7.43035">
        <ele>251.98970031738</ele>
        <time>2017-06-11T09:39:55.000Z</time>
      </trkpt>
      <trkpt lat="48.46176" lon="7.43043">
        <ele>250.60342407227</ele>
        <time>2017-06-11T09:39:57.000Z</time>
      </trkpt>
      <trkpt lat="48.46199" lon="7.43049">
        <ele>249.13528442383</ele>
        <time>2017-06-11T09:40:00.000Z</time>
      </trkpt>
      <trkpt lat="48.46215" lon="7.43049">
        <ele>247.90591430664</ele>
        <time>2017-06-11T09:40:02.000Z</time>
      </trkpt>
      <trkpt lat="48.46238" lon="7.4305">
        <ele>246.9134979248</ele>
        <time>2017-06-11T09:40:05.000Z</time>
      </trkpt>
      <trkpt lat="48.46257" lon="7.43051">
        <ele>246.11860656738</ele>
        <time>2017-06-11T09:40:08.000Z</time>
      </trkpt>
      <trkpt lat="48.46269" lon="7.43053">
        <ele>245.48403930664</ele>
        <time>2017-06-11T09:40:10.000Z</time>
      </trkpt>
      <trkpt lat="48.46284" lon="7.43056">
        <ele>244.94648742676</ele>
        <time>2017-06-11T09:40:13.000Z</time>
      </trkpt>
      <trkpt lat="48.46295" lon="7.43054">
        <ele>244.41159057617</ele>
        <time>2017-06-11T09:40:15.000Z</time>
      </trkpt>
      <trkpt lat="48.46305" lon="7.43056">
        <ele>243.92236328125</ele>
        <time>2017-06-11T09:40:17.000Z</time>
      </trkpt>
      <trkpt lat="48.46315" lon="7.4306">
        <ele>243.43566894531</ele>
        <time>2017-06-11T09:40:19.000Z</time>
      </trkpt>
      <trkpt lat="48.46329" lon="7.43067">
        <ele>242.90026855469</ele>
        <time>2017-06-11T09:40:22.000Z</time>
      </trkpt>
      <trkpt lat="48.4634" lon="7.43076">
        <ele>242.4273223877</ele>
        <time>2017-06-11T09:40:25.000Z</time>
      </trkpt>
      <trkpt lat="48.46344" lon="7.43092">
        <ele>241.96130371094</ele>
        <time>2017-06-11T09:40:27.000Z</time>
      </trkpt>
      <trkpt lat="48.46343" lon="7.43121">
        <ele>241.50019836426</ele>
        <time>2017-06-11T09:40:30.000Z</time>
      </trkpt>
      <trkpt lat="48.46342" lon="7.43137">
        <ele>241.09713745117</ele>
        <time>2017-06-11T09:40:32.000Z</time>
      </trkpt>
      <trkpt lat="48.46342" lon="7.4316">
        <ele>240.78730773926</ele>
        <time>2017-06-11T09:40:35.000Z</time>
      </trkpt>
      <trkpt lat="48.46344" lon="7.43179">
        <ele>240.47724914551</ele>
        <time>2017-06-11T09:40:38.000Z</time>
      </trkpt>
      <trkpt lat="48.46349" lon="7.43205">
        <ele>240.12236022949</ele>
        <time>2017-06-11T09:40:41.000Z</time>
      </trkpt>
      <trkpt lat="48.46352" lon="7.43224">
        <ele>239.77587890625</ele>
        <time>2017-06-11T09:40:43.000Z</time>
      </trkpt>
      <trkpt lat="48.46355" lon="7.43252">
        <ele>239.37817382812</ele>
        <time>2017-06-11T09:40:46.000Z</time>
      </trkpt>
      <trkpt lat="48.46354" lon="7.4327">
        <ele>239.00149536133</ele>
        <time>2017-06-11T09:40:48.000Z</time>
      </trkpt>
      <trkpt lat="48.46346" lon="7.43297">
        <ele>238.63980102539</ele>
        <time>2017-06-11T09:40:51.000Z</time>
      </trkpt>
      <trkpt lat="48.4634" lon="7.43315">
        <ele>238.36450195312</ele>
        <time>2017-06-11T09:40:53.000Z</time>
      </trkpt>
      <trkpt lat="48.46329" lon="7.4334">
        <ele>238.20544433594</ele>
        <time>2017-06-11T09:40:56.000Z</time>
      </trkpt>
      <trkpt lat="48.4633" lon="7.43356">
        <ele>238.21884155273</ele>
        <time>2017-06-11T09:40:58.000Z</time>
      </trkpt>
      <trkpt lat="48.46333" lon="7.43379">
        <ele>238.37631225586</ele>
        <time>2017-06-11T09:41:01.000Z</time>
      </trkpt>
      <trkpt lat="48.46335" lon="7.43402">
        <ele>238.68783569336</ele>
        <time>2017-06-11T09:41:04.000Z</time>
      </trkpt>
      <trkpt lat="48.46334" lon="7.43427">
        <ele>239.06050109863</ele>
        <time>2017-06-11T09:41:07.000Z</time>
      </trkpt>
      <trkpt lat="48.46331" lon="7.43446">
        <ele>239.34555053711</ele>
        <time>2017-06-11T09:41:09.000Z</time>
      </trkpt>
      <trkpt lat="48.46333" lon="7.43464">
        <ele>239.51557922363</ele>
        <time>2017-06-11T09:41:11.000Z</time>
      </trkpt>
      <trkpt lat="48.46333" lon="7.4349">
        <ele>239.52075195312</ele>
        <time>2017-06-11T09:41:14.000Z</time>
      </trkpt>
      <trkpt lat="48.46334" lon="7.43516">
        <ele>239.39579772949</ele>
        <time>2017-06-11T09:41:17.000Z</time>
      </trkpt>
      <trkpt lat="48.46338" lon="7.43543">
        <ele>239.20425415039</ele>
        <time>2017-06-11T09:41:20.000Z</time>
      </trkpt>
      <trkpt lat="48.46341" lon="7.43561">
        <ele>239.03276062012</ele>
        <time>2017-06-11T09:41:22.000Z</time>
      </trkpt>
      <trkpt lat="48.46344" lon="7.43587">
        <ele>238.85444641113</ele>
        <time>2017-06-11T09:41:25.000Z</time>
      </trkpt>
      <trkpt lat="48.46345" lon="7.43604">
        <ele>238.65083312988</ele>
        <time>2017-06-11T09:41:27.000Z</time>
      </trkpt>
      <trkpt lat="48.46346" lon="7.4362">
        <ele>238.39755249023</ele>
        <time>2017-06-11T09:41:29.000Z</time>
      </trkpt>
      <trkpt lat="48.46351" lon="7.43642">
        <ele>238.04306030273</ele>
        <time>2017-06-11T09:41:32.000Z</time>
      </trkpt>
      <trkpt lat="48.46357" lon="7.43668">
        <ele>237.5729675293</ele>
        <time>2017-06-11T09:41:35.000Z</time>
      </trkpt>
      <trkpt lat="48.46362" lon="7.43693">
        <ele>237.00785827637</ele>
        <time>2017-06-11T09:41:38.000Z</time>
      </trkpt>
      <trkpt lat="48.46366" lon="7.43717">
        <ele>236.41128540039</ele>
        <time>2017-06-11T09:41:41.000Z</time>
      </trkpt>
      <trkpt lat="48.46371" lon="7.43742">
        <ele>235.79121398926</ele>
        <time>2017-06-11T09:41:44.000Z</time>
      </trkpt>
      <trkpt lat="48.46377" lon="7.43767">
        <ele>235.17440795898</ele>
        <time>2017-06-11T09:41:47.000Z</time>
      </trkpt>
      <trkpt lat="48.46386" lon="7.43792">
        <ele>234.60403442383</ele>
        <time>2017-06-11T09:41:50.000Z</time>
      </trkpt>
      <trkpt lat="48.46391" lon="7.43807">
        <ele>234.14254760742</ele>
        <time>2017-06-11T09:41:52.000Z</time>
      </trkpt>
      <trkpt lat="48.46399" lon="7.43829">
        <ele>233.76870727539</ele>
        <time>2017-06-11T09:41:55.000Z</time>
      </trkpt>
      <trkpt lat="48.46403" lon="7.43846">
        <ele>233.42715454102</ele>
        <time>2017-06-11T09:41:57.000Z</time>
      </trkpt>
      <trkpt lat="48.46406" lon="7.43864">
        <ele>233.1184387207</ele>
        <time>2017-06-11T09:41:59.000Z</time>
      </trkpt>
      <trkpt lat="48.4641" lon="7.43891">
        <ele>232.74699401855</ele>
        <time>2017-06-11T09:42:02.000Z</time>
      </trkpt>
      <trkpt lat="48.46414" lon="7.43909">
        <ele>232.30819702148</ele>
        <time>2017-06-11T09:42:04.000Z</time>
      </trkpt>
      <trkpt lat="48.46417" lon="7.43936">
        <ele>231.81991577148</ele>
        <time>2017-06-11T09:42:07.000Z</time>
      </trkpt>
      <trkpt lat="48.4642" lon="7.43953">
        <ele>231.39102172852</ele>
        <time>2017-06-11T09:42:09.000Z</time>
      </trkpt>
      <trkpt lat="48.46423" lon="7.43972">
        <ele>231.03750610352</ele>
        <time>2017-06-11T09:42:11.000Z</time>
      </trkpt>
      <trkpt lat="48.46426" lon="7.44">
        <ele>230.80586242676</ele>
        <time>2017-06-11T09:42:14.000Z</time>
      </trkpt>
      <trkpt lat="48.46427" lon="7.44026">
        <ele>230.60061645508</ele>
        <time>2017-06-11T09:42:17.000Z</time>
      </trkpt>
      <trkpt lat="48.46427" lon="7.44051">
        <ele>230.39505004883</ele>
        <time>2017-06-11T09:42:20.000Z</time>
      </trkpt>
      <trkpt lat="48.46428" lon="7.44076">
        <ele>230.1197052002</ele>
        <time>2017-06-11T09:42:23.000Z</time>
      </trkpt>
      <trkpt lat="48.46428" lon="7.44104">
        <ele>229.91818237305</ele>
        <time>2017-06-11T09:42:26.000Z</time>
      </trkpt>
      <trkpt lat="48.46429" lon="7.44122">
        <ele>229.82400512695</ele>
        <time>2017-06-11T09:42:28.000Z</time>
      </trkpt>
      <trkpt lat="48.46429" lon="7.44141">
        <ele>229.88459777832</ele>
        <time>2017-06-11T09:42:30.000Z</time>
      </trkpt>
      <trkpt lat="48.4643" lon="7.44169">
        <ele>230.12448120117</ele>
        <time>2017-06-11T09:42:33.000Z</time>
      </trkpt>
      <trkpt lat="48.46434" lon="7.44199">
        <ele>230.38752746582</ele>
        <time>2017-06-11T09:42:36.000Z</time>
      </trkpt>
      <trkpt lat="48.46437" lon="7.44215">
        <ele>230.55937194824</ele>
        <time>2017-06-11T09:42:38.000Z</time>
      </trkpt>
      <trkpt lat="48.46439" lon="7.44244">
        <ele>230.60665893555</ele>
        <time>2017-06-11T09:42:41.000Z</time>
      </trkpt>
      <trkpt lat="48.46445" lon="7.44274">
        <ele>230.37231445312</ele>
        <time>2017-06-11T09:42:44.000Z</time>
      </trkpt>
      <trkpt lat="48.46449" lon="7.44292">
        <ele>229.90600585938</ele>
        <time>2017-06-11T09:42:46.000Z</time>
      </trkpt>
      <trkpt lat="48.4646" lon="7.44315">
        <ele>229.41215515137</ele>
        <time>2017-06-11T09:42:49.000Z</time>
      </trkpt>
      <trkpt lat="48.46463" lon="7.44335">
        <ele>228.84411621094</ele>
        <time>2017-06-11T09:42:51.000Z</time>
      </trkpt>
      <trkpt lat="48.46467" lon="7.44352">
        <ele>228.23774719238</ele>
        <time>2017-06-11T09:42:53.000Z</time>
      </trkpt>
      <trkpt lat="48.46473" lon="7.44378">
        <ele>227.69152832031</ele>
        <time>2017-06-11T09:42:56.000Z</time>
      </trkpt>
      <trkpt lat="48.46479" lon="7.44402">
        <ele>227.13163757324</ele>
        <time>2017-06-11T09:42:59.000Z</time>
      </trkpt>
      <trkpt lat="48.46482" lon="7.44418">
        <ele>226.54861450195</ele>
        <time>2017-06-11T09:43:01.000Z</time>
      </trkpt>
      <trkpt lat="48.46488" lon="7.44435">
        <ele>225.9580078125</ele>
        <time>2017-06-11T09:43:03.000Z</time>
      </trkpt>
      <trkpt lat="48.46495" lon="7.44461">
        <ele>225.25703430176</ele>
        <time>2017-06-11T09:43:06.000Z</time>
      </trkpt>
      <trkpt lat="48.465" lon="7.4448">
        <ele>224.53170776367</ele>
        <time>2017-06-11T09:43:08.000Z</time>
      </trkpt>
      <trkpt lat="48.46505" lon="7.44508">
        <ele>223.80078125</ele>
        <time>2017-06-11T09:43:11.000Z</time>
      </trkpt>
      <trkpt lat="48.46508" lon="7.44526">
        <ele>223.2646484375</ele>
        <time>2017-06-11T09:43:13.000Z</time>
      </trkpt>
      <trkpt lat="48.46512" lon="7.44544">
        <ele>222.92126464844</ele>
        <time>2017-06-11T09:43:15.000Z</time>
      </trkpt>
      <trkpt lat="48.46515" lon="7.44572">
        <ele>222.90942382812</ele>
        <time>2017-06-11T09:43:18.000Z</time>
      </trkpt>
      <trkpt lat="48.46519" lon="7.44596">
        <ele>223.35122680664</ele>
        <time>2017-06-11T09:43:21.000Z</time>
      </trkpt>
      <trkpt lat="48.46521" lon="7.44617">
        <ele>224.30903625488</ele>
        <time>2017-06-11T09:43:23.000Z</time>
      </trkpt>
      <trkpt lat="48.4652" lon="7.44648">
        <ele>225.72152709961</ele>
        <time>2017-06-11T09:43:26.000Z</time>
      </trkpt>
      <trkpt lat="48.46523" lon="7.44675">
        <ele>227.41593933105</ele>
        <time>2017-06-11T09:43:29.000Z</time>
      </trkpt>
      <trkpt lat="48.46532" lon="7.447">
        <ele>229.10464477539</ele>
        <time>2017-06-11T09:43:32.000Z</time>
      </trkpt>
      <trkpt lat="48.46533" lon="7.44716">
        <ele>230.70190429688</ele>
        <time>2017-06-11T09:43:34.000Z</time>
      </trkpt>
      <trkpt lat="48.46526" lon="7.4472">
        <ele>232.18710327148</ele>
        <time>2017-06-11T09:43:36.000Z</time>
      </trkpt>
      <trkpt lat="48.46525" lon="7.44735">
        <ele>233.38046264648</ele>
        <time>2017-06-11T09:43:39.000Z</time>
      </trkpt>
      <trkpt lat="48.46524" lon="7.44739">
        <ele>234.30375671387</ele>
        <time>2017-06-11T09:43:41.000Z</time>
      </trkpt>
      <trkpt lat="48.4652" lon="7.44745">
        <ele>235.32180786133</ele>
        <time>2017-06-11T09:43:44.000Z</time>
      </trkpt>
      <trkpt lat="48.46523" lon="7.4476">
        <ele>236.2290802002</ele>
        <time>2017-06-11T09:43:47.000Z</time>
      </trkpt>
      <trkpt lat="48.46527" lon="7.4477">
        <ele>236.89294433594</ele>
        <time>2017-06-11T09:43:49.000Z</time>
      </trkpt>
      <trkpt lat="48.46532" lon="7.44781">
        <ele>237.27201843262</ele>
        <time>2017-06-11T09:43:52.000Z</time>
      </trkpt>
      <trkpt lat="48.46536" lon="7.44793">
        <ele>237.53707885742</ele>
        <time>2017-06-11T09:43:55.000Z</time>
      </trkpt>
      <trkpt lat="48.46541" lon="7.44808">
        <ele>237.59313964844</ele>
        <time>2017-06-11T09:43:58.000Z</time>
      </trkpt>
      <trkpt lat="48.46542" lon="7.44816">
        <ele>237.63012695312</ele>
        <time>2017-06-11T09:44:00.000Z</time>
      </trkpt>
      <trkpt lat="48.46543" lon="7.44825">
        <ele>237.74487304688</ele>
        <time>2017-06-11T09:44:03.000Z</time>
      </trkpt>
      <trkpt lat="48.46545" lon="7.44837">
        <ele>237.96318054199</ele>
        <time>2017-06-11T09:44:06.000Z</time>
      </trkpt>
      <trkpt lat="48.46546" lon="7.44844">
        <ele>238.26594543457</ele>
        <time>2017-06-11T09:44:08.000Z</time>
      </trkpt>
      <trkpt lat="48.46548" lon="7.44855">
        <ele>238.64453125</ele>
        <time>2017-06-11T09:44:11.000Z</time>
      </trkpt>
      <trkpt lat="48.46551" lon="7.44865">
        <ele>239.00126647949</ele>
        <time>2017-06-11T09:44:14.000Z</time>
      </trkpt>
      <trkpt lat="48.46555" lon="7.44879">
        <ele>239.36030578613</ele>
        <time>2017-06-11T09:44:17.000Z</time>
      </trkpt>
      <trkpt lat="48.46557" lon="7.44888">
        <ele>239.70175170898</ele>
        <time>2017-06-11T09:44:19.000Z</time>
      </trkpt>
      <trkpt lat="48.46559" lon="7.44896">
        <ele>240.03573608398</ele>
        <time>2017-06-11T09:44:21.000Z</time>
      </trkpt>
      <trkpt lat="48.4656" lon="7.44905">
        <ele>240.38749694824</ele>
        <time>2017-06-11T09:44:24.000Z</time>
      </trkpt>
      <trkpt lat="48.46561" lon="7.44914">
        <ele>240.80581665039</ele>
        <time>2017-06-11T09:44:27.000Z</time>
      </trkpt>
      <trkpt lat="48.46564" lon="7.4492">
        <ele>241.13394165039</ele>
        <time>2017-06-11T09:44:29.000Z</time>
      </trkpt>
      <trkpt lat="48.46567" lon="7.44925">
        <ele>241.41487121582</ele>
        <time>2017-06-11T09:44:31.000Z</time>
      </trkpt>
      <trkpt lat="48.4657" lon="7.44933">
        <ele>241.64558410645</ele>
        <time>2017-06-11T09:44:33.000Z</time>
      </trkpt>
      <trkpt lat="48.46576" lon="7.44946">
        <ele>241.8017578125</ele>
        <time>2017-06-11T09:44:36.000Z</time>
      </trkpt>
      <trkpt lat="48.46579" lon="7.44954">
        <ele>241.90161132812</ele>
        <time>2017-06-11T09:44:38.000Z</time>
      </trkpt>
      <trkpt lat="48.46579" lon="7.4496">
        <ele>242.0845489502</ele>
        <time>2017-06-11T09:44:40.000Z</time>
      </trkpt>
      <trkpt lat="48.46578" lon="7.44968">
        <ele>242.37573242188</ele>
        <time>2017-06-11T09:44:43.000Z</time>
      </trkpt>
      <trkpt lat="48.46578" lon="7.44972">
        <ele>242.72114562988</ele>
        <time>2017-06-11T09:44:45.000Z</time>
      </trkpt>
      <trkpt lat="48.46576" lon="7.44975">
        <ele>243.12251281738</ele>
        <time>2017-06-11T09:44:47.000Z</time>
      </trkpt>
      <trkpt lat="48.46576" lon="7.4498">
        <ele>243.54409790039</ele>
        <time>2017-06-11T09:44:49.000Z</time>
      </trkpt>
      <trkpt lat="48.46576" lon="7.44984">
        <ele>243.94729614258</ele>
        <time>2017-06-11T09:44:51.000Z</time>
      </trkpt>
      <trkpt lat="48.46575" lon="7.4499">
        <ele>244.33410644531</ele>
        <time>2017-06-11T09:44:54.000Z</time>
      </trkpt>
      <trkpt lat="48.46575" lon="7.44997">
        <ele>244.74258422852</ele>
        <time>2017-06-11T09:44:57.000Z</time>
      </trkpt>
      <trkpt lat="48.46574" lon="7.45003">
        <ele>245.14147949219</ele>
        <time>2017-06-11T09:45:00.000Z</time>
      </trkpt>
      <trkpt lat="48.46573" lon="7.45009">
        <ele>245.52807617188</ele>
        <time>2017-06-11T09:45:03.000Z</time>
      </trkpt>
      <trkpt lat="48.46572" lon="7.45016">
        <ele>245.9123840332</ele>
        <time>2017-06-11T09:45:06.000Z</time>
      </trkpt>
      <trkpt lat="48.46571" lon="7.45021">
        <ele>246.25692749023</ele>
        <time>2017-06-11T09:45:09.000Z</time>
      </trkpt>
      <trkpt lat="48.4657" lon="7.45028">
        <ele>246.56796264648</ele>
        <time>2017-06-11T09:45:12.000Z</time>
      </trkpt>
      <trkpt lat="48.4657" lon="7.45033">
        <ele>246.83493041992</ele>
        <time>2017-06-11T09:45:15.000Z</time>
      </trkpt>
      <trkpt lat="48.46571" lon="7.45041">
        <ele>247.06982421875</ele>
        <time>2017-06-11T09:45:18.000Z</time>
      </trkpt>
      <trkpt lat="48.4657" lon="7.45046">
        <ele>247.28686523438</ele>
        <time>2017-06-11T09:45:20.000Z</time>
      </trkpt>
      <trkpt lat="48.46567" lon="7.45053">
        <ele>247.53140258789</ele>
        <time>2017-06-11T09:45:23.000Z</time>
      </trkpt>
      <trkpt lat="48.46565" lon="7.45061">
        <ele>247.79333496094</ele>
        <time>2017-06-11T09:45:26.000Z</time>
      </trkpt>
      <trkpt lat="48.46566" lon="7.45072">
        <ele>248.07377624512</ele>
        <time>2017-06-11T09:45:29.000Z</time>
      </trkpt>
      <trkpt lat="48.46567" lon="7.4508">
        <ele>248.36584472656</ele>
        <time>2017-06-11T09:45:31.000Z</time>
      </trkpt>
      <trkpt lat="48.46567" lon="7.45092">
        <ele>248.59399414062</ele>
        <time>2017-06-11T09:45:34.000Z</time>
      </trkpt>
      <trkpt lat="48.46566" lon="7.45102">
        <ele>248.69470214844</ele>
        <time>2017-06-11T09:45:36.000Z</time>
      </trkpt>
      <trkpt lat="48.46564" lon="7.45118">
        <ele>248.69624328613</ele>
        <time>2017-06-11T09:45:39.000Z</time>
      </trkpt>
      <trkpt lat="48.46561" lon="7.45134">
        <ele>248.61311340332</ele>
        <time>2017-06-11T09:45:42.000Z</time>
      </trkpt>
      <trkpt lat="48.4656" lon="7.45146">
        <ele>248.45185852051</ele>
        <time>2017-06-11T09:45:44.000Z</time>
      </trkpt>
      <trkpt lat="48.46557" lon="7.45157">
        <ele>248.30363464355</ele>
        <time>2017-06-11T09:45:46.000Z</time>
      </trkpt>
      <trkpt lat="48.46555" lon="7.45176">
        <ele>248.17683410645</ele>
        <time>2017-06-11T09:45:49.000Z</time>
      </trkpt>
      <trkpt lat="48.46552" lon="7.45189">
        <ele>248.08346557617</ele>
        <time>2017-06-11T09:45:51.000Z</time>
      </trkpt>
      <trkpt lat="48.46548" lon="7.45209">
        <ele>248.00357055664</ele>
        <time>2017-06-11T09:45:54.000Z</time>
      </trkpt>
      <trkpt lat="48.46547" lon="7.4522">
        <ele>247.94071960449</ele>
        <time>2017-06-11T09:45:56.000Z</time>
      </trkpt>
      <trkpt lat="48.46544" lon="7.4524">
        <ele>247.84094238281</ele>
        <time>2017-06-11T09:45:59.000Z</time>
      </trkpt>
      <trkpt lat="48.46542" lon="7.45261">
        <ele>247.6538848877</ele>
        <time>2017-06-11T09:46:02.000Z</time>
      </trkpt>
      <trkpt lat="48.4654" lon="7.45275">
        <ele>247.35624694824</ele>
        <time>2017-06-11T09:46:04.000Z</time>
      </trkpt>
      <trkpt lat="48.4654" lon="7.4529">
        <ele>246.95483398438</ele>
        <time>2017-06-11T09:46:06.000Z</time>
      </trkpt>
      <trkpt lat="48.46541" lon="7.45304">
        <ele>246.44821166992</ele>
        <time>2017-06-11T09:46:08.000Z</time>
      </trkpt>
      <trkpt lat="48.46541" lon="7.45319">
        <ele>245.85771179199</ele>
        <time>2017-06-11T09:46:10.000Z</time>
      </trkpt>
      <trkpt lat="48.4654" lon="7.45341">
        <ele>245.1822052002</ele>
        <time>2017-06-11T09:46:13.000Z</time>
      </trkpt>
      <trkpt lat="48.46537" lon="7.45363">
        <ele>244.41702270508</ele>
        <time>2017-06-11T09:46:16.000Z</time>
      </trkpt>
      <trkpt lat="48.46535" lon="7.45376">
        <ele>243.6400604248</ele>
        <time>2017-06-11T09:46:18.000Z</time>
      </trkpt>
      <trkpt lat="48.46533" lon="7.45399">
        <ele>242.77001953125</ele>
        <time>2017-06-11T09:46:21.000Z</time>
      </trkpt>
      <trkpt lat="48.46532" lon="7.45414">
        <ele>241.86819458008</ele>
        <time>2017-06-11T09:46:23.000Z</time>
      </trkpt>
      <trkpt lat="48.46531" lon="7.45431">
        <ele>241.07730102539</ele>
        <time>2017-06-11T09:46:25.000Z</time>
      </trkpt>
      <trkpt lat="48.46528" lon="7.45451">
        <ele>240.37934875488</ele>
        <time>2017-06-11T09:46:28.000Z</time>
      </trkpt>
      <trkpt lat="48.46531" lon="7.4546">
        <ele>239.79292297363</ele>
        <time>2017-06-11T09:46:30.000Z</time>
      </trkpt>
      <trkpt lat="48.46537" lon="7.45463">
        <ele>239.46224975586</ele>
        <time>2017-06-11T09:46:33.000Z</time>
      </trkpt>
      <trkpt lat="48.46541" lon="7.45459">
        <ele>239.3314666748</ele>
        <time>2017-06-11T09:46:51.000Z</time>
      </trkpt>
      <trkpt lat="48.46542" lon="7.4546">
        <ele>239.29159545898</ele>
        <time>2017-06-11T09:47:08.000Z</time>
      </trkpt>
      <trkpt lat="48.46547" lon="7.45461">
        <ele>239.3939666748</ele>
        <time>2017-06-11T09:47:11.000Z</time>
      </trkpt>
      <trkpt lat="48.46553" lon="7.45462">
        <ele>239.55871582031</ele>
        <time>2017-06-11T09:47:13.000Z</time>
      </trkpt>
      <trkpt lat="48.46564" lon="7.45465">
        <ele>239.7818145752</ele>
        <time>2017-06-11T09:47:16.000Z</time>
      </trkpt>
      <trkpt lat="48.46581" lon="7.4548">
        <ele>240.16714477539</ele>
        <time>2017-06-11T09:47:19.000Z</time>
      </trkpt>
      <trkpt lat="48.46595" lon="7.45495">
        <ele>240.35571289062</ele>
        <time>2017-06-11T09:47:22.000Z</time>
      </trkpt>
      <trkpt lat="48.46602" lon="7.45504">
        <ele>240.28398132324</ele>
        <time>2017-06-11T09:47:24.000Z</time>
      </trkpt>
      <trkpt lat="48.46607" lon="7.4552">
        <ele>239.78341674805</ele>
        <time>2017-06-11T09:47:26.000Z</time>
      </trkpt>
      <trkpt lat="48.46614" lon="7.45548">
        <ele>238.50215148926</ele>
        <time>2017-06-11T09:47:29.000Z</time>
      </trkpt>
      <trkpt lat="48.4663" lon="7.45581">
        <ele>236.02416992188</ele>
        <time>2017-06-11T09:47:32.000Z</time>
      </trkpt>
      <trkpt lat="48.46648" lon="7.45595">
        <ele>233.08149719238</ele>
        <time>2017-06-11T09:47:35.000Z</time>
      </trkpt>
      <trkpt lat="48.4667" lon="7.45603">
        <ele>229.68856811523</ele>
        <time>2017-06-11T09:47:38.000Z</time>
      </trkpt>
      <trkpt lat="48.46698" lon="7.4561">
        <ele>225.94839477539</ele>
        <time>2017-06-11T09:47:41.000Z</time>
      </trkpt>
      <trkpt lat="48.46716" lon="7.45616">
        <ele>222.37719726562</ele>
        <time>2017-06-11T09:47:43.000Z</time>
      </trkpt>
      <trkpt lat="48.46739" lon="7.45624">
        <ele>219.15731811523</ele>
        <time>2017-06-11T09:47:46.000Z</time>
      </trkpt>
      <trkpt lat="48.46751" lon="7.45627">
        <ele>216.28324890137</ele>
        <time>2017-06-11T09:47:48.000Z</time>
      </trkpt>
      <trkpt lat="48.46757" lon="7.45633">
        <ele>213.99201965332</ele>
        <time>2017-06-11T09:47:51.000Z</time>
      </trkpt>
      <trkpt lat="48.46755" lon="7.45647">
        <ele>212.28146362305</ele>
        <time>2017-06-11T09:47:54.000Z</time>
      </trkpt>
      <trkpt lat="48.46749" lon="7.45669">
        <ele>210.88114929199</ele>
        <time>2017-06-11T09:47:57.000Z</time>
      </trkpt>
      <trkpt lat="48.46747" lon="7.4568">
        <ele>210.13398742676</ele>
        <time>2017-06-11T09:47:59.000Z</time>
      </trkpt>
      <trkpt lat="48.46747" lon="7.45703">
        <ele>209.63912963867</ele>
        <time>2017-06-11T09:48:02.000Z</time>
      </trkpt>
      <trkpt lat="48.46746" lon="7.45726">
        <ele>209.19604492188</ele>
        <time>2017-06-11T09:48:05.000Z</time>
      </trkpt>
      <trkpt lat="48.46746" lon="7.45747">
        <ele>208.85427856445</ele>
        <time>2017-06-11T09:48:08.000Z</time>
      </trkpt>
      <trkpt lat="48.46745" lon="7.4576">
        <ele>208.68367004395</ele>
        <time>2017-06-11T09:48:10.000Z</time>
      </trkpt>
      <trkpt lat="48.46743" lon="7.45782">
        <ele>208.42529296875</ele>
        <time>2017-06-11T09:48:13.000Z</time>
      </trkpt>
      <trkpt lat="48.46743" lon="7.45798">
        <ele>208.15397644043</ele>
        <time>2017-06-11T09:48:15.000Z</time>
      </trkpt>
      <trkpt lat="48.4674" lon="7.45814">
        <ele>207.88264465332</ele>
        <time>2017-06-11T09:48:17.000Z</time>
      </trkpt>
      <trkpt lat="48.46739" lon="7.45839">
        <ele>207.57763671875</ele>
        <time>2017-06-11T09:48:20.000Z</time>
      </trkpt>
      <trkpt lat="48.46739" lon="7.45855">
        <ele>207.29626464844</ele>
        <time>2017-06-11T09:48:22.000Z</time>
      </trkpt>
      <trkpt lat="48.46739" lon="7.45878">
        <ele>207.07759094238</ele>
        <time>2017-06-11T09:48:25.000Z</time>
      </trkpt>
      <trkpt lat="48.46738" lon="7.45901">
        <ele>206.92831420898</ele>
        <time>2017-06-11T09:48:28.000Z</time>
      </trkpt>
      <trkpt lat="48.46737" lon="7.45917">
        <ele>206.81127929688</ele>
        <time>2017-06-11T09:48:30.000Z</time>
      </trkpt>
      <trkpt lat="48.46735" lon="7.45941">
        <ele>206.75793457031</ele>
        <time>2017-06-11T09:48:33.000Z</time>
      </trkpt>
      <trkpt lat="48.46734" lon="7.45957">
        <ele>206.69934082031</ele>
        <time>2017-06-11T09:48:35.000Z</time>
      </trkpt>
      <trkpt lat="48.46733" lon="7.45973">
        <ele>206.6410369873</ele>
        <time>2017-06-11T09:48:37.000Z</time>
      </trkpt>
      <trkpt lat="48.46732" lon="7.45989">
        <ele>206.56225585938</ele>
        <time>2017-06-11T09:48:39.000Z</time>
      </trkpt>
      <trkpt lat="48.46731" lon="7.46005">
        <ele>206.47969055176</ele>
        <time>2017-06-11T09:48:41.000Z</time>
      </trkpt>
      <trkpt lat="48.46728" lon="7.46028">
        <ele>206.43594360352</ele>
        <time>2017-06-11T09:48:44.000Z</time>
      </trkpt>
      <trkpt lat="48.46727" lon="7.46044">
        <ele>206.41069030762</ele>
        <time>2017-06-11T09:48:46.000Z</time>
      </trkpt>
      <trkpt lat="48.46725" lon="7.46068">
        <ele>206.40409851074</ele>
        <time>2017-06-11T09:48:49.000Z</time>
      </trkpt>
      <trkpt lat="48.46722" lon="7.46091">
        <ele>206.45764160156</ele>
        <time>2017-06-11T09:48:52.000Z</time>
      </trkpt>
      <trkpt lat="48.46719" lon="7.46115">
        <ele>206.55432128906</ele>
        <time>2017-06-11T09:48:55.000Z</time>
      </trkpt>
      <trkpt lat="48.46717" lon="7.46131">
        <ele>206.65063476562</ele>
        <time>2017-06-11T09:48:57.000Z</time>
      </trkpt>
      <trkpt lat="48.46715" lon="7.46153">
        <ele>206.76449584961</ele>
        <time>2017-06-11T09:49:00.000Z</time>
      </trkpt>
      <trkpt lat="48.46714" lon="7.46168">
        <ele>206.88021850586</ele>
        <time>2017-06-11T09:49:02.000Z</time>
      </trkpt>
      <trkpt lat="48.4671" lon="7.46191">
        <ele>206.87515258789</ele>
        <time>2017-06-11T09:49:05.000Z</time>
      </trkpt>
      <trkpt lat="48.46708" lon="7.46206">
        <ele>206.78573608398</ele>
        <time>2017-06-11T09:49:07.000Z</time>
      </trkpt>
      <trkpt lat="48.46703" lon="7.46227">
        <ele>206.61958312988</ele>
        <time>2017-06-11T09:49:10.000Z</time>
      </trkpt>
      <trkpt lat="48.467" lon="7.46241">
        <ele>206.3960723877</ele>
        <time>2017-06-11T09:49:12.000Z</time>
      </trkpt>
      <trkpt lat="48.46697" lon="7.46255">
        <ele>206.14826965332</ele>
        <time>2017-06-11T09:49:14.000Z</time>
      </trkpt>
      <trkpt lat="48.46693" lon="7.46277">
        <ele>206.00228881836</ele>
        <time>2017-06-11T09:49:17.000Z</time>
      </trkpt>
      <trkpt lat="48.4669" lon="7.46292">
        <ele>205.92663574219</ele>
        <time>2017-06-11T09:49:19.000Z</time>
      </trkpt>
      <trkpt lat="48.46684" lon="7.46312">
        <ele>205.94441223145</ele>
        <time>2017-06-11T09:49:22.000Z</time>
      </trkpt>
      <trkpt lat="48.46679" lon="7.4633">
        <ele>206.02746582031</ele>
        <time>2017-06-11T09:49:25.000Z</time>
      </trkpt>
      <trkpt lat="48.46675" lon="7.46343">
        <ele>206.16181945801</ele>
        <time>2017-06-11T09:49:27.000Z</time>
      </trkpt>
      <trkpt lat="48.46672" lon="7.46356">
        <ele>206.32321166992</ele>
        <time>2017-06-11T09:49:29.000Z</time>
      </trkpt>
      <trkpt lat="48.46668" lon="7.46375">
        <ele>206.5094909668</ele>
        <time>2017-06-11T09:49:32.000Z</time>
      </trkpt>
      <trkpt lat="48.46666" lon="7.46396">
        <ele>206.69046020508</ele>
        <time>2017-06-11T09:49:35.000Z</time>
      </trkpt>
      <trkpt lat="48.46664" lon="7.46409">
        <ele>206.8544921875</ele>
        <time>2017-06-11T09:49:37.000Z</time>
      </trkpt>
      <trkpt lat="48.46663" lon="7.46429">
        <ele>206.99198913574</ele>
        <time>2017-06-11T09:49:40.000Z</time>
      </trkpt>
      <trkpt lat="48.46663" lon="7.46449">
        <ele>207.0788269043</ele>
        <time>2017-06-11T09:49:43.000Z</time>
      </trkpt>
      <trkpt lat="48.46664" lon="7.46469">
        <ele>207.11320495605</ele>
        <time>2017-06-11T09:49:46.000Z</time>
      </trkpt>
      <trkpt lat="48.46664" lon="7.46485">
        <ele>207.12326049805</ele>
        <time>2017-06-11T09:49:48.000Z</time>
      </trkpt>
      <trkpt lat="48.46664" lon="7.46508">
        <ele>207.07788085938</ele>
        <time>2017-06-11T09:49:51.000Z</time>
      </trkpt>
      <trkpt lat="48.46665" lon="7.46533">
        <ele>206.9052734375</ele>
        <time>2017-06-11T09:49:54.000Z</time>
      </trkpt>
      <trkpt lat="48.46666" lon="7.46549">
        <ele>206.65127563477</ele>
        <time>2017-06-11T09:49:56.000Z</time>
      </trkpt>
      <trkpt lat="48.46666" lon="7.46566">
        <ele>206.32568359375</ele>
        <time>2017-06-11T09:49:58.000Z</time>
      </trkpt>
      <trkpt lat="48.46665" lon="7.46593">
        <ele>205.91854858398</ele>
        <time>2017-06-11T09:50:01.000Z</time>
      </trkpt>
      <trkpt lat="48.46665" lon="7.46613">
        <ele>205.55220031738</ele>
        <time>2017-06-11T09:50:03.000Z</time>
      </trkpt>
      <trkpt lat="48.46665" lon="7.46635">
        <ele>205.30937194824</ele>
        <time>2017-06-11T09:50:05.000Z</time>
      </trkpt>
      <trkpt lat="48.46663" lon="7.46668">
        <ele>205.15896606445</ele>
        <time>2017-06-11T09:50:08.000Z</time>
      </trkpt>
      <trkpt lat="48.46662" lon="7.46701">
        <ele>205.01986694336</ele>
        <time>2017-06-11T09:50:11.000Z</time>
      </trkpt>
      <trkpt lat="48.4666" lon="7.46733">
        <ele>204.90628051758</ele>
        <time>2017-06-11T09:50:14.000Z</time>
      </trkpt>
      <trkpt lat="48.46659" lon="7.46756">
        <ele>204.72900390625</ele>
        <time>2017-06-11T09:50:16.000Z</time>
      </trkpt>
      <trkpt lat="48.46656" lon="7.4678">
        <ele>204.39608764648</ele>
        <time>2017-06-11T09:50:18.000Z</time>
      </trkpt>
      <trkpt lat="48.4665" lon="7.46815">
        <ele>203.85919189453</ele>
        <time>2017-06-11T09:50:21.000Z</time>
      </trkpt>
      <trkpt lat="48.46643" lon="7.46851">
        <ele>203.17863464355</ele>
        <time>2017-06-11T09:50:24.000Z</time>
      </trkpt>
      <trkpt lat="48.46632" lon="7.46887">
        <ele>202.35502624512</ele>
        <time>2017-06-11T09:50:27.000Z</time>
      </trkpt>
      <trkpt lat="48.46629" lon="7.46913">
        <ele>201.40505981445</ele>
        <time>2017-06-11T09:50:29.000Z</time>
      </trkpt>
      <trkpt lat="48.46626" lon="7.46946">
        <ele>200.40460205078</ele>
        <time>2017-06-11T09:50:32.000Z</time>
      </trkpt>
      <trkpt lat="48.46629" lon="7.46965">
        <ele>199.45771789551</ele>
        <time>2017-06-11T09:50:34.000Z</time>
      </trkpt>
      <trkpt lat="48.46634" lon="7.46999">
        <ele>198.51013183594</ele>
        <time>2017-06-11T09:50:37.000Z</time>
      </trkpt>
      <trkpt lat="48.46643" lon="7.47014">
        <ele>197.7692565918</ele>
        <time>2017-06-11T09:50:39.000Z</time>
      </trkpt>
      <trkpt lat="48.4665" lon="7.47039">
        <ele>197.28170776367</ele>
        <time>2017-06-11T09:50:42.000Z</time>
      </trkpt>
      <trkpt lat="48.46643" lon="7.47058">
        <ele>196.90048217773</ele>
        <time>2017-06-11T09:50:45.000Z</time>
      </trkpt>
      <trkpt lat="48.46644" lon="7.47063">
        <ele>196.67730712891</ele>
        <time>2017-06-11T09:50:48.000Z</time>
      </trkpt>
      <trkpt lat="48.46645" lon="7.47062">
        <ele>196.68811035156</ele>
        <time>2017-06-11T09:50:51.000Z</time>
      </trkpt>
      <trkpt lat="48.46644" lon="7.47062">
        <ele>196.66915893555</ele>
        <time>2017-06-11T09:51:06.000Z</time>
      </trkpt>
      <trkpt lat="48.46643" lon="7.4706">
        <ele>196.57717895508</ele>
        <time>2017-06-11T09:51:12.000Z</time>
      </trkpt>
      <trkpt lat="48.46643" lon="7.47062">
        <ele>196.58111572266</ele>
        <time>2017-06-11T09:51:23.000Z</time>
      </trkpt>
      <trkpt lat="48.46643" lon="7.47062">
        <ele>196.58111572266</ele>
        <time>2017-06-11T09:51:27.000Z</time>
      </trkpt>
    </trkseg>
  </trk>
</gpx>